<?xml version="1.0" encoding="UTF-8" standalone="no" ?>
<gpx xmlns="http://www.topografix.com/GPX/1/1" xmlns:xsi="http://www.w3.org/2001/XMLSchema-instance" xsi:schemaLocation="http://www.topografix.com/GPX/1/1 http://www.topografix.com/GPX/1/1/gpx.xsd" version="1.1" creator="VisuGPX - https://www.visugpx.com">
  <metadata>
    <name>Tete du Torraz (La Giettaz)</name>
  </metadata>
  <trk>
    <name><![CDATA[Tete du Torraz (La Giettaz)_1]]></name>
    <trkseg>
      <trkpt lat="45.8782" lon="6.52546">
        <ele>1214.7</ele>
        <time>2022-01-07T08:58:32Z</time>
      </trkpt>
      <trkpt lat="45.87819" lon="6.52546">
        <ele>1214.7</ele>
        <time>2022-01-07T08:58:39Z</time>
      </trkpt>
      <trkpt lat="45.87816" lon="6.52547">
        <ele>1214.4</ele>
        <time>2022-01-07T08:58:40Z</time>
      </trkpt>
      <trkpt lat="45.87814" lon="6.52548">
        <ele>1214.2</ele>
        <time>2022-01-07T08:58:41Z</time>
      </trkpt>
      <trkpt lat="45.87812" lon="6.52548">
        <ele>1214</ele>
        <time>2022-01-07T08:58:42Z</time>
      </trkpt>
      <trkpt lat="45.8781" lon="6.52548">
        <ele>1213.9</ele>
        <time>2022-01-07T08:58:43Z</time>
      </trkpt>
      <trkpt lat="45.87807" lon="6.52548">
        <ele>1213.6</ele>
        <time>2022-01-07T08:58:44Z</time>
      </trkpt>
      <trkpt lat="45.87805" lon="6.52549">
        <ele>1213.5</ele>
        <time>2022-01-07T08:58:45Z</time>
      </trkpt>
      <trkpt lat="45.87803" lon="6.52548">
        <ele>1213.5</ele>
        <time>2022-01-07T08:58:46Z</time>
      </trkpt>
      <trkpt lat="45.87801" lon="6.52548">
        <ele>1213.4</ele>
        <time>2022-01-07T08:58:47Z</time>
      </trkpt>
      <trkpt lat="45.87799" lon="6.52548">
        <ele>1213.4</ele>
        <time>2022-01-07T08:58:48Z</time>
      </trkpt>
      <trkpt lat="45.87797" lon="6.52547">
        <ele>1226.8</ele>
        <time>2022-01-07T08:58:49Z</time>
      </trkpt>
      <trkpt lat="45.87794" lon="6.52547">
        <ele>1226.8</ele>
        <time>2022-01-07T08:58:52Z</time>
      </trkpt>
      <trkpt lat="45.87792" lon="6.52545">
        <ele>1226.8</ele>
        <time>2022-01-07T08:58:54Z</time>
      </trkpt>
      <trkpt lat="45.87788" lon="6.52544">
        <ele>1226.8</ele>
        <time>2022-01-07T08:58:56Z</time>
      </trkpt>
      <trkpt lat="45.87786" lon="6.52543">
        <ele>1226.8</ele>
        <time>2022-01-07T08:58:58Z</time>
      </trkpt>
      <trkpt lat="45.87783" lon="6.52541">
        <ele>1226.8</ele>
        <time>2022-01-07T08:59:00Z</time>
      </trkpt>
      <trkpt lat="45.8778" lon="6.52539">
        <ele>1226.8</ele>
        <time>2022-01-07T08:59:02Z</time>
      </trkpt>
      <trkpt lat="45.87777" lon="6.52537">
        <ele>1226.8</ele>
        <time>2022-01-07T08:59:04Z</time>
      </trkpt>
      <trkpt lat="45.87773" lon="6.52535">
        <ele>1226.8</ele>
        <time>2022-01-07T08:59:07Z</time>
      </trkpt>
      <trkpt lat="45.87772" lon="6.52534">
        <ele>1226.8</ele>
        <time>2022-01-07T08:59:08Z</time>
      </trkpt>
      <trkpt lat="45.87771" lon="6.52533">
        <ele>1227.2</ele>
        <time>2022-01-07T08:59:09Z</time>
      </trkpt>
      <trkpt lat="45.87767" lon="6.5253">
        <ele>1227.2</ele>
        <time>2022-01-07T08:59:11Z</time>
      </trkpt>
      <trkpt lat="45.87765" lon="6.52528">
        <ele>1227.2</ele>
        <time>2022-01-07T08:59:13Z</time>
      </trkpt>
      <trkpt lat="45.87764" lon="6.52526">
        <ele>1227.2</ele>
        <time>2022-01-07T08:59:15Z</time>
      </trkpt>
      <trkpt lat="45.87761" lon="6.52524">
        <ele>1227.2</ele>
        <time>2022-01-07T08:59:17Z</time>
      </trkpt>
      <trkpt lat="45.87759" lon="6.52522">
        <ele>1226.6</ele>
        <time>2022-01-07T08:59:19Z</time>
      </trkpt>
      <trkpt lat="45.87757" lon="6.5252">
        <ele>1226.6</ele>
        <time>2022-01-07T08:59:21Z</time>
      </trkpt>
      <trkpt lat="45.87755" lon="6.52518">
        <ele>1226.6</ele>
        <time>2022-01-07T08:59:23Z</time>
      </trkpt>
      <trkpt lat="45.87753" lon="6.52515">
        <ele>1226.6</ele>
        <time>2022-01-07T08:59:25Z</time>
      </trkpt>
      <trkpt lat="45.8775" lon="6.52513">
        <ele>1226.6</ele>
        <time>2022-01-07T08:59:27Z</time>
      </trkpt>
      <trkpt lat="45.87747" lon="6.52513">
        <ele>1226.2</ele>
        <time>2022-01-07T08:59:29Z</time>
      </trkpt>
      <trkpt lat="45.87744" lon="6.52512">
        <ele>1226.2</ele>
        <time>2022-01-07T08:59:31Z</time>
      </trkpt>
      <trkpt lat="45.87741" lon="6.5251">
        <ele>1226.2</ele>
        <time>2022-01-07T08:59:33Z</time>
      </trkpt>
      <trkpt lat="45.8774" lon="6.52508">
        <ele>1226.2</ele>
        <time>2022-01-07T08:59:35Z</time>
      </trkpt>
      <trkpt lat="45.87739" lon="6.52505">
        <ele>1226.2</ele>
        <time>2022-01-07T08:59:38Z</time>
      </trkpt>
      <trkpt lat="45.87737" lon="6.52502">
        <ele>1226.2</ele>
        <time>2022-01-07T08:59:40Z</time>
      </trkpt>
      <trkpt lat="45.87735" lon="6.52499">
        <ele>1226.2</ele>
        <time>2022-01-07T08:59:42Z</time>
      </trkpt>
      <trkpt lat="45.87734" lon="6.52495">
        <ele>1226.2</ele>
        <time>2022-01-07T08:59:44Z</time>
      </trkpt>
      <trkpt lat="45.87732" lon="6.5249">
        <ele>1226.2</ele>
        <time>2022-01-07T08:59:47Z</time>
      </trkpt>
      <trkpt lat="45.87732" lon="6.52488">
        <ele>1226.2</ele>
        <time>2022-01-07T08:59:48Z</time>
      </trkpt>
      <trkpt lat="45.87731" lon="6.52483">
        <ele>1226.2</ele>
        <time>2022-01-07T08:59:50Z</time>
      </trkpt>
      <trkpt lat="45.87729" lon="6.52478">
        <ele>1226.2</ele>
        <time>2022-01-07T08:59:52Z</time>
      </trkpt>
      <trkpt lat="45.87728" lon="6.52474">
        <ele>1226.2</ele>
        <time>2022-01-07T08:59:53Z</time>
      </trkpt>
      <trkpt lat="45.87727" lon="6.52471">
        <ele>1226.2</ele>
        <time>2022-01-07T08:59:54Z</time>
      </trkpt>
      <trkpt lat="45.87726" lon="6.52468">
        <ele>1226.2</ele>
        <time>2022-01-07T08:59:55Z</time>
      </trkpt>
      <trkpt lat="45.87726" lon="6.52464">
        <ele>1226.2</ele>
        <time>2022-01-07T08:59:57Z</time>
      </trkpt>
      <trkpt lat="45.87725" lon="6.5246">
        <ele>1226.2</ele>
        <time>2022-01-07T09:00:00Z</time>
      </trkpt>
      <trkpt lat="45.87725" lon="6.52458">
        <ele>1226.2</ele>
        <time>2022-01-07T09:00:02Z</time>
      </trkpt>
      <trkpt lat="45.87722" lon="6.52453">
        <ele>1226.2</ele>
        <time>2022-01-07T09:00:05Z</time>
      </trkpt>
      <trkpt lat="45.87722" lon="6.52452">
        <ele>1226.2</ele>
        <time>2022-01-07T09:00:06Z</time>
      </trkpt>
      <trkpt lat="45.87722" lon="6.52449">
        <ele>1226.2</ele>
        <time>2022-01-07T09:00:08Z</time>
      </trkpt>
      <trkpt lat="45.87722" lon="6.52446">
        <ele>1226.2</ele>
        <time>2022-01-07T09:00:10Z</time>
      </trkpt>
      <trkpt lat="45.87721" lon="6.52442">
        <ele>1226.2</ele>
        <time>2022-01-07T09:00:12Z</time>
      </trkpt>
      <trkpt lat="45.87721" lon="6.5244">
        <ele>1226.2</ele>
        <time>2022-01-07T09:00:14Z</time>
      </trkpt>
      <trkpt lat="45.8772" lon="6.52437">
        <ele>1226.2</ele>
        <time>2022-01-07T09:00:16Z</time>
      </trkpt>
      <trkpt lat="45.8772" lon="6.52434">
        <ele>1226.2</ele>
        <time>2022-01-07T09:00:26Z</time>
      </trkpt>
      <trkpt lat="45.87718" lon="6.5243">
        <ele>1226.2</ele>
        <time>2022-01-07T09:00:28Z</time>
      </trkpt>
      <trkpt lat="45.87715" lon="6.52426">
        <ele>1226.2</ele>
        <time>2022-01-07T09:00:30Z</time>
      </trkpt>
      <trkpt lat="45.87714" lon="6.52424">
        <ele>1226.2</ele>
        <time>2022-01-07T09:00:31Z</time>
      </trkpt>
      <trkpt lat="45.87712" lon="6.52422">
        <ele>1226.2</ele>
        <time>2022-01-07T09:00:32Z</time>
      </trkpt>
      <trkpt lat="45.8771" lon="6.52417">
        <ele>1226.2</ele>
        <time>2022-01-07T09:00:34Z</time>
      </trkpt>
      <trkpt lat="45.87709" lon="6.52415">
        <ele>1226.2</ele>
        <time>2022-01-07T09:00:35Z</time>
      </trkpt>
      <trkpt lat="45.87707" lon="6.52413">
        <ele>1226.2</ele>
        <time>2022-01-07T09:00:36Z</time>
      </trkpt>
      <trkpt lat="45.87706" lon="6.52411">
        <ele>1226.2</ele>
        <time>2022-01-07T09:00:37Z</time>
      </trkpt>
      <trkpt lat="45.87704" lon="6.52409">
        <ele>1226.2</ele>
        <time>2022-01-07T09:00:38Z</time>
      </trkpt>
      <trkpt lat="45.87703" lon="6.52407">
        <ele>1220.8</ele>
        <time>2022-01-07T09:00:39Z</time>
      </trkpt>
      <trkpt lat="45.87701" lon="6.52406">
        <ele>1220.8</ele>
        <time>2022-01-07T09:00:40Z</time>
      </trkpt>
      <trkpt lat="45.877" lon="6.52404">
        <ele>1220.8</ele>
        <time>2022-01-07T09:00:41Z</time>
      </trkpt>
      <trkpt lat="45.87697" lon="6.52401">
        <ele>1220.8</ele>
        <time>2022-01-07T09:00:43Z</time>
      </trkpt>
      <trkpt lat="45.87695" lon="6.524">
        <ele>1220.8</ele>
        <time>2022-01-07T09:00:44Z</time>
      </trkpt>
      <trkpt lat="45.87692" lon="6.52398">
        <ele>1220.8</ele>
        <time>2022-01-07T09:00:46Z</time>
      </trkpt>
      <trkpt lat="45.8769" lon="6.52393">
        <ele>1220.8</ele>
        <time>2022-01-07T09:00:48Z</time>
      </trkpt>
      <trkpt lat="45.87689" lon="6.52391">
        <ele>1219.4</ele>
        <time>2022-01-07T09:00:49Z</time>
      </trkpt>
      <trkpt lat="45.87688" lon="6.52387">
        <ele>1219.4</ele>
        <time>2022-01-07T09:00:51Z</time>
      </trkpt>
      <trkpt lat="45.87686" lon="6.52385">
        <ele>1219.4</ele>
        <time>2022-01-07T09:00:53Z</time>
      </trkpt>
      <trkpt lat="45.87684" lon="6.52382">
        <ele>1219.4</ele>
        <time>2022-01-07T09:00:56Z</time>
      </trkpt>
      <trkpt lat="45.87682" lon="6.52379">
        <ele>1219.4</ele>
        <time>2022-01-07T09:00:58Z</time>
      </trkpt>
      <trkpt lat="45.87681" lon="6.52376">
        <ele>1219.4</ele>
        <time>2022-01-07T09:01:00Z</time>
      </trkpt>
      <trkpt lat="45.8768" lon="6.52374">
        <ele>1219.4</ele>
        <time>2022-01-07T09:01:01Z</time>
      </trkpt>
      <trkpt lat="45.87678" lon="6.52371">
        <ele>1219.4</ele>
        <time>2022-01-07T09:01:03Z</time>
      </trkpt>
      <trkpt lat="45.87676" lon="6.5237">
        <ele>1219.4</ele>
        <time>2022-01-07T09:01:05Z</time>
      </trkpt>
      <trkpt lat="45.87674" lon="6.52368">
        <ele>1219.4</ele>
        <time>2022-01-07T09:01:07Z</time>
      </trkpt>
      <trkpt lat="45.87672" lon="6.52366">
        <ele>1218.8</ele>
        <time>2022-01-07T09:01:09Z</time>
      </trkpt>
      <trkpt lat="45.8767" lon="6.52364">
        <ele>1218.8</ele>
        <time>2022-01-07T09:01:11Z</time>
      </trkpt>
      <trkpt lat="45.87668" lon="6.52362">
        <ele>1218.8</ele>
        <time>2022-01-07T09:01:13Z</time>
      </trkpt>
      <trkpt lat="45.87666" lon="6.5236">
        <ele>1218.8</ele>
        <time>2022-01-07T09:01:15Z</time>
      </trkpt>
      <trkpt lat="45.87665" lon="6.52358">
        <ele>1218.8</ele>
        <time>2022-01-07T09:01:17Z</time>
      </trkpt>
      <trkpt lat="45.87663" lon="6.52356">
        <ele>1218.4</ele>
        <time>2022-01-07T09:01:19Z</time>
      </trkpt>
      <trkpt lat="45.87661" lon="6.52354">
        <ele>1218.4</ele>
        <time>2022-01-07T09:01:21Z</time>
      </trkpt>
      <trkpt lat="45.87659" lon="6.52351">
        <ele>1218.4</ele>
        <time>2022-01-07T09:01:23Z</time>
      </trkpt>
      <trkpt lat="45.87658" lon="6.52349">
        <ele>1218.4</ele>
        <time>2022-01-07T09:01:25Z</time>
      </trkpt>
      <trkpt lat="45.87656" lon="6.52347">
        <ele>1218.4</ele>
        <time>2022-01-07T09:01:27Z</time>
      </trkpt>
      <trkpt lat="45.87654" lon="6.52345">
        <ele>1218</ele>
        <time>2022-01-07T09:01:29Z</time>
      </trkpt>
      <trkpt lat="45.87652" lon="6.52343">
        <ele>1218</ele>
        <time>2022-01-07T09:01:30Z</time>
      </trkpt>
      <trkpt lat="45.87651" lon="6.52341">
        <ele>1218</ele>
        <time>2022-01-07T09:01:32Z</time>
      </trkpt>
      <trkpt lat="45.8765" lon="6.52339">
        <ele>1218</ele>
        <time>2022-01-07T09:01:33Z</time>
      </trkpt>
      <trkpt lat="45.87647" lon="6.52336">
        <ele>1218</ele>
        <time>2022-01-07T09:01:35Z</time>
      </trkpt>
      <trkpt lat="45.87644" lon="6.52334">
        <ele>1218</ele>
        <time>2022-01-07T09:01:37Z</time>
      </trkpt>
      <trkpt lat="45.87642" lon="6.52332">
        <ele>1217.2</ele>
        <time>2022-01-07T09:01:39Z</time>
      </trkpt>
      <trkpt lat="45.8764" lon="6.52331">
        <ele>1217.2</ele>
        <time>2022-01-07T09:01:40Z</time>
      </trkpt>
      <trkpt lat="45.87637" lon="6.52328">
        <ele>1217.2</ele>
        <time>2022-01-07T09:01:42Z</time>
      </trkpt>
      <trkpt lat="45.87635" lon="6.52326">
        <ele>1217.2</ele>
        <time>2022-01-07T09:01:44Z</time>
      </trkpt>
      <trkpt lat="45.87633" lon="6.52323">
        <ele>1217.2</ele>
        <time>2022-01-07T09:01:46Z</time>
      </trkpt>
      <trkpt lat="45.8763" lon="6.5232">
        <ele>1217.2</ele>
        <time>2022-01-07T09:01:48Z</time>
      </trkpt>
      <trkpt lat="45.87627" lon="6.52317">
        <ele>1217.2</ele>
        <time>2022-01-07T09:01:50Z</time>
      </trkpt>
      <trkpt lat="45.87624" lon="6.52315">
        <ele>1217.2</ele>
        <time>2022-01-07T09:01:52Z</time>
      </trkpt>
      <trkpt lat="45.87622" lon="6.52313">
        <ele>1217.2</ele>
        <time>2022-01-07T09:01:53Z</time>
      </trkpt>
      <trkpt lat="45.8762" lon="6.52309">
        <ele>1217.2</ele>
        <time>2022-01-07T09:01:55Z</time>
      </trkpt>
      <trkpt lat="45.87618" lon="6.52306">
        <ele>1217.2</ele>
        <time>2022-01-07T09:01:57Z</time>
      </trkpt>
      <trkpt lat="45.87616" lon="6.52303">
        <ele>1215.4</ele>
        <time>2022-01-07T09:01:59Z</time>
      </trkpt>
      <trkpt lat="45.87614" lon="6.52299">
        <ele>1215.4</ele>
        <time>2022-01-07T09:02:01Z</time>
      </trkpt>
      <trkpt lat="45.87613" lon="6.52295">
        <ele>1215.4</ele>
        <time>2022-01-07T09:02:03Z</time>
      </trkpt>
      <trkpt lat="45.87612" lon="6.52291">
        <ele>1215.4</ele>
        <time>2022-01-07T09:02:05Z</time>
      </trkpt>
      <trkpt lat="45.87611" lon="6.52286">
        <ele>1215.4</ele>
        <time>2022-01-07T09:02:07Z</time>
      </trkpt>
      <trkpt lat="45.8761" lon="6.52281">
        <ele>1214.8</ele>
        <time>2022-01-07T09:02:09Z</time>
      </trkpt>
      <trkpt lat="45.8761" lon="6.52278">
        <ele>1214.8</ele>
        <time>2022-01-07T09:02:11Z</time>
      </trkpt>
      <trkpt lat="45.8761" lon="6.52275">
        <ele>1214.8</ele>
        <time>2022-01-07T09:02:13Z</time>
      </trkpt>
      <trkpt lat="45.8761" lon="6.52271">
        <ele>1214.8</ele>
        <time>2022-01-07T09:02:15Z</time>
      </trkpt>
      <trkpt lat="45.8761" lon="6.52266">
        <ele>1214.8</ele>
        <time>2022-01-07T09:02:17Z</time>
      </trkpt>
      <trkpt lat="45.8761" lon="6.52262">
        <ele>1214.6</ele>
        <time>2022-01-07T09:02:19Z</time>
      </trkpt>
      <trkpt lat="45.87609" lon="6.52258">
        <ele>1214.6</ele>
        <time>2022-01-07T09:02:21Z</time>
      </trkpt>
      <trkpt lat="45.87609" lon="6.52255">
        <ele>1214.6</ele>
        <time>2022-01-07T09:02:22Z</time>
      </trkpt>
      <trkpt lat="45.87609" lon="6.5225">
        <ele>1214.6</ele>
        <time>2022-01-07T09:02:24Z</time>
      </trkpt>
      <trkpt lat="45.87609" lon="6.52246">
        <ele>1214.6</ele>
        <time>2022-01-07T09:02:26Z</time>
      </trkpt>
      <trkpt lat="45.87609" lon="6.52242">
        <ele>1214.6</ele>
        <time>2022-01-07T09:02:28Z</time>
      </trkpt>
      <trkpt lat="45.8761" lon="6.52238">
        <ele>1214.6</ele>
        <time>2022-01-07T09:02:30Z</time>
      </trkpt>
      <trkpt lat="45.87609" lon="6.52236">
        <ele>1214.6</ele>
        <time>2022-01-07T09:02:33Z</time>
      </trkpt>
      <trkpt lat="45.87607" lon="6.52235">
        <ele>1214.6</ele>
        <time>2022-01-07T09:02:37Z</time>
      </trkpt>
      <trkpt lat="45.87604" lon="6.52233">
        <ele>1214.6</ele>
        <time>2022-01-07T09:02:41Z</time>
      </trkpt>
      <trkpt lat="45.87603" lon="6.52232">
        <ele>1214.6</ele>
        <time>2022-01-07T09:02:42Z</time>
      </trkpt>
      <trkpt lat="45.87602" lon="6.5223">
        <ele>1214.6</ele>
        <time>2022-01-07T09:02:44Z</time>
      </trkpt>
      <trkpt lat="45.876" lon="6.52229">
        <ele>1214.6</ele>
        <time>2022-01-07T09:02:49Z</time>
      </trkpt>
      <trkpt lat="45.87598" lon="6.52227">
        <ele>1214.6</ele>
        <time>2022-01-07T09:02:51Z</time>
      </trkpt>
      <trkpt lat="45.87596" lon="6.52225">
        <ele>1214.6</ele>
        <time>2022-01-07T09:02:53Z</time>
      </trkpt>
      <trkpt lat="45.87595" lon="6.52223">
        <ele>1214.6</ele>
        <time>2022-01-07T09:02:55Z</time>
      </trkpt>
      <trkpt lat="45.87592" lon="6.52221">
        <ele>1214.6</ele>
        <time>2022-01-07T09:02:57Z</time>
      </trkpt>
      <trkpt lat="45.8759" lon="6.5222">
        <ele>1214.6</ele>
        <time>2022-01-07T09:02:58Z</time>
      </trkpt>
      <trkpt lat="45.87589" lon="6.52219">
        <ele>1213.6</ele>
        <time>2022-01-07T09:02:59Z</time>
      </trkpt>
      <trkpt lat="45.87586" lon="6.52216">
        <ele>1213.6</ele>
        <time>2022-01-07T09:03:01Z</time>
      </trkpt>
      <trkpt lat="45.87584" lon="6.52214">
        <ele>1213.6</ele>
        <time>2022-01-07T09:03:02Z</time>
      </trkpt>
      <trkpt lat="45.87583" lon="6.52213">
        <ele>1213.6</ele>
        <time>2022-01-07T09:03:03Z</time>
      </trkpt>
      <trkpt lat="45.87582" lon="6.52209">
        <ele>1213.6</ele>
        <time>2022-01-07T09:03:05Z</time>
      </trkpt>
      <trkpt lat="45.8758" lon="6.52208">
        <ele>1213.6</ele>
        <time>2022-01-07T09:03:06Z</time>
      </trkpt>
      <trkpt lat="45.87578" lon="6.52204">
        <ele>1213.6</ele>
        <time>2022-01-07T09:03:08Z</time>
      </trkpt>
      <trkpt lat="45.87577" lon="6.52202">
        <ele>1213.6</ele>
        <time>2022-01-07T09:03:10Z</time>
      </trkpt>
      <trkpt lat="45.87576" lon="6.52199">
        <ele>1213.6</ele>
        <time>2022-01-07T09:03:12Z</time>
      </trkpt>
      <trkpt lat="45.87574" lon="6.52198">
        <ele>1213.6</ele>
        <time>2022-01-07T09:03:14Z</time>
      </trkpt>
      <trkpt lat="45.87572" lon="6.52195">
        <ele>1213.6</ele>
        <time>2022-01-07T09:03:16Z</time>
      </trkpt>
      <trkpt lat="45.87569" lon="6.52192">
        <ele>1213.6</ele>
        <time>2022-01-07T09:03:18Z</time>
      </trkpt>
      <trkpt lat="45.87567" lon="6.5219">
        <ele>1213.6</ele>
        <time>2022-01-07T09:03:21Z</time>
      </trkpt>
      <trkpt lat="45.87564" lon="6.52189">
        <ele>1213.6</ele>
        <time>2022-01-07T09:03:23Z</time>
      </trkpt>
      <trkpt lat="45.87562" lon="6.52187">
        <ele>1213.6</ele>
        <time>2022-01-07T09:03:25Z</time>
      </trkpt>
      <trkpt lat="45.87559" lon="6.52185">
        <ele>1213.6</ele>
        <time>2022-01-07T09:03:27Z</time>
      </trkpt>
      <trkpt lat="45.87557" lon="6.52184">
        <ele>1212</ele>
        <time>2022-01-07T09:03:29Z</time>
      </trkpt>
      <trkpt lat="45.87555" lon="6.52184">
        <ele>1212</ele>
        <time>2022-01-07T09:03:31Z</time>
      </trkpt>
      <trkpt lat="45.87552" lon="6.52183">
        <ele>1212</ele>
        <time>2022-01-07T09:03:33Z</time>
      </trkpt>
      <trkpt lat="45.8755" lon="6.52183">
        <ele>1212</ele>
        <time>2022-01-07T09:03:35Z</time>
      </trkpt>
      <trkpt lat="45.87548" lon="6.52183">
        <ele>1212</ele>
        <time>2022-01-07T09:03:37Z</time>
      </trkpt>
      <trkpt lat="45.87546" lon="6.52182">
        <ele>1211</ele>
        <time>2022-01-07T09:03:39Z</time>
      </trkpt>
      <trkpt lat="45.87543" lon="6.5218">
        <ele>1211</ele>
        <time>2022-01-07T09:03:41Z</time>
      </trkpt>
      <trkpt lat="45.87541" lon="6.52179">
        <ele>1211</ele>
        <time>2022-01-07T09:03:43Z</time>
      </trkpt>
      <trkpt lat="45.8754" lon="6.52175">
        <ele>1211</ele>
        <time>2022-01-07T09:03:45Z</time>
      </trkpt>
      <trkpt lat="45.8754" lon="6.52172">
        <ele>1210.2</ele>
        <time>2022-01-07T09:03:49Z</time>
      </trkpt>
      <trkpt lat="45.87539" lon="6.5217">
        <ele>1210.2</ele>
        <time>2022-01-07T09:03:53Z</time>
      </trkpt>
      <trkpt lat="45.87537" lon="6.5217">
        <ele>1210.2</ele>
        <time>2022-01-07T09:03:55Z</time>
      </trkpt>
      <trkpt lat="45.87535" lon="6.5217">
        <ele>1210.2</ele>
        <time>2022-01-07T09:03:56Z</time>
      </trkpt>
      <trkpt lat="45.87533" lon="6.52168">
        <ele>1210.2</ele>
        <time>2022-01-07T09:03:58Z</time>
      </trkpt>
      <trkpt lat="45.87532" lon="6.52166">
        <ele>1210.2</ele>
        <time>2022-01-07T09:04:00Z</time>
      </trkpt>
      <trkpt lat="45.8753" lon="6.52164">
        <ele>1210.2</ele>
        <time>2022-01-07T09:04:02Z</time>
      </trkpt>
      <trkpt lat="45.87528" lon="6.5216">
        <ele>1210.2</ele>
        <time>2022-01-07T09:04:04Z</time>
      </trkpt>
      <trkpt lat="45.87527" lon="6.52158">
        <ele>1210.2</ele>
        <time>2022-01-07T09:04:05Z</time>
      </trkpt>
      <trkpt lat="45.87526" lon="6.52155">
        <ele>1210.2</ele>
        <time>2022-01-07T09:04:07Z</time>
      </trkpt>
      <trkpt lat="45.87525" lon="6.52151">
        <ele>1209.2</ele>
        <time>2022-01-07T09:04:09Z</time>
      </trkpt>
      <trkpt lat="45.87524" lon="6.52149">
        <ele>1209.2</ele>
        <time>2022-01-07T09:04:10Z</time>
      </trkpt>
      <trkpt lat="45.87523" lon="6.52147">
        <ele>1209.2</ele>
        <time>2022-01-07T09:04:11Z</time>
      </trkpt>
      <trkpt lat="45.87522" lon="6.52145">
        <ele>1209.2</ele>
        <time>2022-01-07T09:04:12Z</time>
      </trkpt>
      <trkpt lat="45.87521" lon="6.52142">
        <ele>1209.2</ele>
        <time>2022-01-07T09:04:13Z</time>
      </trkpt>
      <trkpt lat="45.8752" lon="6.52139">
        <ele>1209.2</ele>
        <time>2022-01-07T09:04:15Z</time>
      </trkpt>
      <trkpt lat="45.87522" lon="6.52137">
        <ele>1209.2</ele>
        <time>2022-01-07T09:04:23Z</time>
      </trkpt>
      <trkpt lat="45.87524" lon="6.52138">
        <ele>1209.2</ele>
        <time>2022-01-07T09:04:30Z</time>
      </trkpt>
      <trkpt lat="45.87526" lon="6.52138">
        <ele>1209.2</ele>
        <time>2022-01-07T09:04:31Z</time>
      </trkpt>
      <trkpt lat="45.87526" lon="6.52135">
        <ele>1209.2</ele>
        <time>2022-01-07T09:04:40Z</time>
      </trkpt>
      <trkpt lat="45.87525" lon="6.52132">
        <ele>1209.2</ele>
        <time>2022-01-07T09:04:41Z</time>
      </trkpt>
      <trkpt lat="45.87523" lon="6.5213">
        <ele>1209.2</ele>
        <time>2022-01-07T09:04:42Z</time>
      </trkpt>
      <trkpt lat="45.87522" lon="6.52128">
        <ele>1209.2</ele>
        <time>2022-01-07T09:04:43Z</time>
      </trkpt>
      <trkpt lat="45.87521" lon="6.52125">
        <ele>1209.2</ele>
        <time>2022-01-07T09:04:44Z</time>
      </trkpt>
      <trkpt lat="45.87519" lon="6.52122">
        <ele>1209.2</ele>
        <time>2022-01-07T09:04:45Z</time>
      </trkpt>
      <trkpt lat="45.87518" lon="6.5212">
        <ele>1209.2</ele>
        <time>2022-01-07T09:04:46Z</time>
      </trkpt>
      <trkpt lat="45.87517" lon="6.52117">
        <ele>1209.2</ele>
        <time>2022-01-07T09:04:47Z</time>
      </trkpt>
      <trkpt lat="45.87516" lon="6.52114">
        <ele>1209.2</ele>
        <time>2022-01-07T09:04:48Z</time>
      </trkpt>
      <trkpt lat="45.87513" lon="6.5211">
        <ele>1209.2</ele>
        <time>2022-01-07T09:04:50Z</time>
      </trkpt>
      <trkpt lat="45.87512" lon="6.52106">
        <ele>1209.2</ele>
        <time>2022-01-07T09:04:52Z</time>
      </trkpt>
      <trkpt lat="45.87511" lon="6.52103">
        <ele>1209.2</ele>
        <time>2022-01-07T09:04:54Z</time>
      </trkpt>
      <trkpt lat="45.87509" lon="6.52099">
        <ele>1209.2</ele>
        <time>2022-01-07T09:04:56Z</time>
      </trkpt>
      <trkpt lat="45.87509" lon="6.52095">
        <ele>1209.2</ele>
        <time>2022-01-07T09:04:58Z</time>
      </trkpt>
      <trkpt lat="45.87507" lon="6.52091">
        <ele>1209.2</ele>
        <time>2022-01-07T09:05:00Z</time>
      </trkpt>
      <trkpt lat="45.87507" lon="6.52087">
        <ele>1209.2</ele>
        <time>2022-01-07T09:05:02Z</time>
      </trkpt>
      <trkpt lat="45.87505" lon="6.52083">
        <ele>1209.2</ele>
        <time>2022-01-07T09:05:04Z</time>
      </trkpt>
      <trkpt lat="45.87505" lon="6.5208">
        <ele>1209.2</ele>
        <time>2022-01-07T09:05:06Z</time>
      </trkpt>
      <trkpt lat="45.87504" lon="6.52078">
        <ele>1209.2</ele>
        <time>2022-01-07T09:05:08Z</time>
      </trkpt>
      <trkpt lat="45.87501" lon="6.52076">
        <ele>1209.2</ele>
        <time>2022-01-07T09:05:10Z</time>
      </trkpt>
      <trkpt lat="45.87499" lon="6.52075">
        <ele>1209.2</ele>
        <time>2022-01-07T09:05:12Z</time>
      </trkpt>
      <trkpt lat="45.87497" lon="6.52074">
        <ele>1209.2</ele>
        <time>2022-01-07T09:05:14Z</time>
      </trkpt>
      <trkpt lat="45.87494" lon="6.52073">
        <ele>1209.2</ele>
        <time>2022-01-07T09:05:16Z</time>
      </trkpt>
      <trkpt lat="45.87493" lon="6.52072">
        <ele>1209.2</ele>
        <time>2022-01-07T09:05:17Z</time>
      </trkpt>
      <trkpt lat="45.87491" lon="6.52069">
        <ele>1206.2</ele>
        <time>2022-01-07T09:05:19Z</time>
      </trkpt>
      <trkpt lat="45.87489" lon="6.52067">
        <ele>1206.2</ele>
        <time>2022-01-07T09:05:20Z</time>
      </trkpt>
      <trkpt lat="45.87488" lon="6.52065">
        <ele>1206.2</ele>
        <time>2022-01-07T09:05:21Z</time>
      </trkpt>
      <trkpt lat="45.87485" lon="6.52063">
        <ele>1206.2</ele>
        <time>2022-01-07T09:05:23Z</time>
      </trkpt>
      <trkpt lat="45.87483" lon="6.5206">
        <ele>1206.2</ele>
        <time>2022-01-07T09:05:25Z</time>
      </trkpt>
      <trkpt lat="45.87482" lon="6.52056">
        <ele>1206.2</ele>
        <time>2022-01-07T09:05:27Z</time>
      </trkpt>
      <trkpt lat="45.87481" lon="6.52052">
        <ele>1205.2</ele>
        <time>2022-01-07T09:05:29Z</time>
      </trkpt>
      <trkpt lat="45.87479" lon="6.5205">
        <ele>1205.2</ele>
        <time>2022-01-07T09:05:31Z</time>
      </trkpt>
      <trkpt lat="45.87477" lon="6.52047">
        <ele>1205.2</ele>
        <time>2022-01-07T09:05:33Z</time>
      </trkpt>
      <trkpt lat="45.87475" lon="6.52045">
        <ele>1205.2</ele>
        <time>2022-01-07T09:05:35Z</time>
      </trkpt>
      <trkpt lat="45.87473" lon="6.52042">
        <ele>1205.2</ele>
        <time>2022-01-07T09:05:37Z</time>
      </trkpt>
      <trkpt lat="45.87471" lon="6.5204">
        <ele>1204.8</ele>
        <time>2022-01-07T09:05:39Z</time>
      </trkpt>
      <trkpt lat="45.87469" lon="6.52038">
        <ele>1204.8</ele>
        <time>2022-01-07T09:05:41Z</time>
      </trkpt>
      <trkpt lat="45.87468" lon="6.52036">
        <ele>1204.8</ele>
        <time>2022-01-07T09:05:43Z</time>
      </trkpt>
      <trkpt lat="45.87465" lon="6.52034">
        <ele>1204.8</ele>
        <time>2022-01-07T09:05:45Z</time>
      </trkpt>
      <trkpt lat="45.87463" lon="6.52031">
        <ele>1204.8</ele>
        <time>2022-01-07T09:05:47Z</time>
      </trkpt>
      <trkpt lat="45.87461" lon="6.52029">
        <ele>1204.4</ele>
        <time>2022-01-07T09:05:49Z</time>
      </trkpt>
      <trkpt lat="45.87458" lon="6.52026">
        <ele>1204.4</ele>
        <time>2022-01-07T09:05:51Z</time>
      </trkpt>
      <trkpt lat="45.87456" lon="6.52024">
        <ele>1204.4</ele>
        <time>2022-01-07T09:05:53Z</time>
      </trkpt>
      <trkpt lat="45.87453" lon="6.52021">
        <ele>1204.4</ele>
        <time>2022-01-07T09:05:55Z</time>
      </trkpt>
      <trkpt lat="45.87451" lon="6.52018">
        <ele>1204.4</ele>
        <time>2022-01-07T09:05:57Z</time>
      </trkpt>
      <trkpt lat="45.87449" lon="6.52015">
        <ele>1203.4</ele>
        <time>2022-01-07T09:05:59Z</time>
      </trkpt>
      <trkpt lat="45.87447" lon="6.52012">
        <ele>1203.4</ele>
        <time>2022-01-07T09:06:01Z</time>
      </trkpt>
      <trkpt lat="45.87447" lon="6.52008">
        <ele>1203.4</ele>
        <time>2022-01-07T09:06:03Z</time>
      </trkpt>
      <trkpt lat="45.87447" lon="6.52005">
        <ele>1203.4</ele>
        <time>2022-01-07T09:06:05Z</time>
      </trkpt>
      <trkpt lat="45.87445" lon="6.52002">
        <ele>1203.4</ele>
        <time>2022-01-07T09:06:07Z</time>
      </trkpt>
      <trkpt lat="45.87444" lon="6.52">
        <ele>1202.6</ele>
        <time>2022-01-07T09:06:09Z</time>
      </trkpt>
      <trkpt lat="45.87443" lon="6.51997">
        <ele>1202.6</ele>
        <time>2022-01-07T09:06:11Z</time>
      </trkpt>
      <trkpt lat="45.87441" lon="6.51992">
        <ele>1202.6</ele>
        <time>2022-01-07T09:06:13Z</time>
      </trkpt>
      <trkpt lat="45.87441" lon="6.51988">
        <ele>1202.6</ele>
        <time>2022-01-07T09:06:15Z</time>
      </trkpt>
      <trkpt lat="45.8744" lon="6.51985">
        <ele>1202.6</ele>
        <time>2022-01-07T09:06:16Z</time>
      </trkpt>
      <trkpt lat="45.8744" lon="6.51982">
        <ele>1202.6</ele>
        <time>2022-01-07T09:06:17Z</time>
      </trkpt>
      <trkpt lat="45.87439" lon="6.51977">
        <ele>1202.2</ele>
        <time>2022-01-07T09:06:19Z</time>
      </trkpt>
      <trkpt lat="45.87439" lon="6.51973">
        <ele>1202.2</ele>
        <time>2022-01-07T09:06:21Z</time>
      </trkpt>
      <trkpt lat="45.87437" lon="6.5197">
        <ele>1202.2</ele>
        <time>2022-01-07T09:06:23Z</time>
      </trkpt>
      <trkpt lat="45.87437" lon="6.51966">
        <ele>1202.2</ele>
        <time>2022-01-07T09:06:25Z</time>
      </trkpt>
      <trkpt lat="45.87435" lon="6.51964">
        <ele>1202.2</ele>
        <time>2022-01-07T09:06:27Z</time>
      </trkpt>
      <trkpt lat="45.87434" lon="6.5196">
        <ele>1202</ele>
        <time>2022-01-07T09:06:29Z</time>
      </trkpt>
      <trkpt lat="45.87433" lon="6.51956">
        <ele>1202</ele>
        <time>2022-01-07T09:06:31Z</time>
      </trkpt>
      <trkpt lat="45.87432" lon="6.51952">
        <ele>1202</ele>
        <time>2022-01-07T09:06:33Z</time>
      </trkpt>
      <trkpt lat="45.87429" lon="6.5195">
        <ele>1202</ele>
        <time>2022-01-07T09:06:35Z</time>
      </trkpt>
      <trkpt lat="45.87428" lon="6.51948">
        <ele>1202</ele>
        <time>2022-01-07T09:06:37Z</time>
      </trkpt>
      <trkpt lat="45.87426" lon="6.51944">
        <ele>1202</ele>
        <time>2022-01-07T09:06:39Z</time>
      </trkpt>
      <trkpt lat="45.87426" lon="6.51941">
        <ele>1202</ele>
        <time>2022-01-07T09:06:41Z</time>
      </trkpt>
      <trkpt lat="45.87423" lon="6.51938">
        <ele>1202</ele>
        <time>2022-01-07T09:06:43Z</time>
      </trkpt>
      <trkpt lat="45.87423" lon="6.51935">
        <ele>1202</ele>
        <time>2022-01-07T09:06:45Z</time>
      </trkpt>
      <trkpt lat="45.87422" lon="6.51932">
        <ele>1202</ele>
        <time>2022-01-07T09:06:47Z</time>
      </trkpt>
      <trkpt lat="45.87421" lon="6.51929">
        <ele>1201.6</ele>
        <time>2022-01-07T09:06:49Z</time>
      </trkpt>
      <trkpt lat="45.87421" lon="6.51926">
        <ele>1201.6</ele>
        <time>2022-01-07T09:06:51Z</time>
      </trkpt>
      <trkpt lat="45.8742" lon="6.51922">
        <ele>1201.6</ele>
        <time>2022-01-07T09:06:53Z</time>
      </trkpt>
      <trkpt lat="45.87419" lon="6.51918">
        <ele>1201.6</ele>
        <time>2022-01-07T09:06:55Z</time>
      </trkpt>
      <trkpt lat="45.87418" lon="6.51913">
        <ele>1201.6</ele>
        <time>2022-01-07T09:06:57Z</time>
      </trkpt>
      <trkpt lat="45.87418" lon="6.5191">
        <ele>1201.2</ele>
        <time>2022-01-07T09:06:59Z</time>
      </trkpt>
      <trkpt lat="45.87416" lon="6.51908">
        <ele>1201.2</ele>
        <time>2022-01-07T09:07:01Z</time>
      </trkpt>
      <trkpt lat="45.87414" lon="6.51906">
        <ele>1201.2</ele>
        <time>2022-01-07T09:07:03Z</time>
      </trkpt>
      <trkpt lat="45.87412" lon="6.51906">
        <ele>1201.2</ele>
        <time>2022-01-07T09:07:38Z</time>
      </trkpt>
      <trkpt lat="45.87408" lon="6.51906">
        <ele>1201.2</ele>
        <time>2022-01-07T09:07:40Z</time>
      </trkpt>
      <trkpt lat="45.87405" lon="6.51907">
        <ele>1201.2</ele>
        <time>2022-01-07T09:07:42Z</time>
      </trkpt>
      <trkpt lat="45.87401" lon="6.51908">
        <ele>1201.2</ele>
        <time>2022-01-07T09:07:44Z</time>
      </trkpt>
      <trkpt lat="45.87398" lon="6.51909">
        <ele>1201.2</ele>
        <time>2022-01-07T09:07:45Z</time>
      </trkpt>
      <trkpt lat="45.87396" lon="6.5191">
        <ele>1201.2</ele>
        <time>2022-01-07T09:07:46Z</time>
      </trkpt>
      <trkpt lat="45.87395" lon="6.5191">
        <ele>1201.2</ele>
        <time>2022-01-07T09:07:47Z</time>
      </trkpt>
      <trkpt lat="45.87392" lon="6.51911">
        <ele>1201.2</ele>
        <time>2022-01-07T09:07:50Z</time>
      </trkpt>
      <trkpt lat="45.8739" lon="6.5191">
        <ele>1201.2</ele>
        <time>2022-01-07T09:08:12Z</time>
      </trkpt>
      <trkpt lat="45.87388" lon="6.5191">
        <ele>1201.2</ele>
        <time>2022-01-07T09:08:14Z</time>
      </trkpt>
      <trkpt lat="45.87384" lon="6.51909">
        <ele>1201.2</ele>
        <time>2022-01-07T09:08:17Z</time>
      </trkpt>
      <trkpt lat="45.87382" lon="6.51908">
        <ele>1201.2</ele>
        <time>2022-01-07T09:08:19Z</time>
      </trkpt>
      <trkpt lat="45.8738" lon="6.51905">
        <ele>1201.2</ele>
        <time>2022-01-07T09:08:21Z</time>
      </trkpt>
      <trkpt lat="45.87378" lon="6.51904">
        <ele>1201.2</ele>
        <time>2022-01-07T09:08:23Z</time>
      </trkpt>
      <trkpt lat="45.87376" lon="6.51903">
        <ele>1201.2</ele>
        <time>2022-01-07T09:08:25Z</time>
      </trkpt>
      <trkpt lat="45.87374" lon="6.519">
        <ele>1201.2</ele>
        <time>2022-01-07T09:08:27Z</time>
      </trkpt>
      <trkpt lat="45.87371" lon="6.51898">
        <ele>1201.4</ele>
        <time>2022-01-07T09:08:29Z</time>
      </trkpt>
      <trkpt lat="45.87369" lon="6.51895">
        <ele>1201.4</ele>
        <time>2022-01-07T09:08:32Z</time>
      </trkpt>
      <trkpt lat="45.87367" lon="6.51894">
        <ele>1201.4</ele>
        <time>2022-01-07T09:08:34Z</time>
      </trkpt>
      <trkpt lat="45.87365" lon="6.51891">
        <ele>1201.4</ele>
        <time>2022-01-07T09:08:36Z</time>
      </trkpt>
      <trkpt lat="45.87364" lon="6.51889">
        <ele>1201.4</ele>
        <time>2022-01-07T09:08:38Z</time>
      </trkpt>
      <trkpt lat="45.87362" lon="6.51887">
        <ele>1201.4</ele>
        <time>2022-01-07T09:08:40Z</time>
      </trkpt>
      <trkpt lat="45.8736" lon="6.51885">
        <ele>1201.4</ele>
        <time>2022-01-07T09:08:42Z</time>
      </trkpt>
      <trkpt lat="45.87359" lon="6.51883">
        <ele>1201.4</ele>
        <time>2022-01-07T09:08:44Z</time>
      </trkpt>
      <trkpt lat="45.87356" lon="6.5188">
        <ele>1201.4</ele>
        <time>2022-01-07T09:08:47Z</time>
      </trkpt>
      <trkpt lat="45.87354" lon="6.51878">
        <ele>1203.2</ele>
        <time>2022-01-07T09:08:49Z</time>
      </trkpt>
      <trkpt lat="45.87352" lon="6.51876">
        <ele>1203.2</ele>
        <time>2022-01-07T09:08:51Z</time>
      </trkpt>
      <trkpt lat="45.8735" lon="6.51872">
        <ele>1203.2</ele>
        <time>2022-01-07T09:08:53Z</time>
      </trkpt>
      <trkpt lat="45.87348" lon="6.51869">
        <ele>1203.2</ele>
        <time>2022-01-07T09:08:55Z</time>
      </trkpt>
      <trkpt lat="45.87347" lon="6.51867">
        <ele>1203.2</ele>
        <time>2022-01-07T09:08:57Z</time>
      </trkpt>
      <trkpt lat="45.87346" lon="6.51864">
        <ele>1204.2</ele>
        <time>2022-01-07T09:08:59Z</time>
      </trkpt>
      <trkpt lat="45.87344" lon="6.51862">
        <ele>1204.2</ele>
        <time>2022-01-07T09:09:10Z</time>
      </trkpt>
      <trkpt lat="45.87343" lon="6.51859">
        <ele>1204.2</ele>
        <time>2022-01-07T09:09:13Z</time>
      </trkpt>
      <trkpt lat="45.87341" lon="6.51856">
        <ele>1204.2</ele>
        <time>2022-01-07T09:09:15Z</time>
      </trkpt>
      <trkpt lat="45.87341" lon="6.51853">
        <ele>1204.2</ele>
        <time>2022-01-07T09:09:17Z</time>
      </trkpt>
      <trkpt lat="45.8734" lon="6.5185">
        <ele>1205.4</ele>
        <time>2022-01-07T09:09:19Z</time>
      </trkpt>
      <trkpt lat="45.8734" lon="6.51847">
        <ele>1205.4</ele>
        <time>2022-01-07T09:09:22Z</time>
      </trkpt>
      <trkpt lat="45.87339" lon="6.51843">
        <ele>1205.4</ele>
        <time>2022-01-07T09:09:24Z</time>
      </trkpt>
      <trkpt lat="45.8734" lon="6.5184">
        <ele>1205.4</ele>
        <time>2022-01-07T09:09:26Z</time>
      </trkpt>
      <trkpt lat="45.87339" lon="6.51837">
        <ele>1205.4</ele>
        <time>2022-01-07T09:09:28Z</time>
      </trkpt>
      <trkpt lat="45.87338" lon="6.51834">
        <ele>1205.4</ele>
        <time>2022-01-07T09:09:30Z</time>
      </trkpt>
      <trkpt lat="45.87337" lon="6.51831">
        <ele>1205.4</ele>
        <time>2022-01-07T09:09:33Z</time>
      </trkpt>
      <trkpt lat="45.87336" lon="6.51828">
        <ele>1205.4</ele>
        <time>2022-01-07T09:09:35Z</time>
      </trkpt>
      <trkpt lat="45.87334" lon="6.51825">
        <ele>1205.4</ele>
        <time>2022-01-07T09:09:37Z</time>
      </trkpt>
      <trkpt lat="45.87332" lon="6.51824">
        <ele>1205.4</ele>
        <time>2022-01-07T09:09:38Z</time>
      </trkpt>
      <trkpt lat="45.87332" lon="6.5182">
        <ele>1205.4</ele>
        <time>2022-01-07T09:09:41Z</time>
      </trkpt>
      <trkpt lat="45.8733" lon="6.51817">
        <ele>1205.4</ele>
        <time>2022-01-07T09:09:43Z</time>
      </trkpt>
      <trkpt lat="45.87328" lon="6.51814">
        <ele>1205.4</ele>
        <time>2022-01-07T09:09:45Z</time>
      </trkpt>
      <trkpt lat="45.87328" lon="6.51811">
        <ele>1205.4</ele>
        <time>2022-01-07T09:09:47Z</time>
      </trkpt>
      <trkpt lat="45.87328" lon="6.51808">
        <ele>1210.6</ele>
        <time>2022-01-07T09:09:49Z</time>
      </trkpt>
      <trkpt lat="45.87327" lon="6.51806">
        <ele>1210.6</ele>
        <time>2022-01-07T09:09:51Z</time>
      </trkpt>
      <trkpt lat="45.87326" lon="6.51803">
        <ele>1210.6</ele>
        <time>2022-01-07T09:09:53Z</time>
      </trkpt>
      <trkpt lat="45.87326" lon="6.518">
        <ele>1210.6</ele>
        <time>2022-01-07T09:09:55Z</time>
      </trkpt>
      <trkpt lat="45.87325" lon="6.51796">
        <ele>1210.6</ele>
        <time>2022-01-07T09:09:58Z</time>
      </trkpt>
      <trkpt lat="45.87324" lon="6.51793">
        <ele>1210.6</ele>
        <time>2022-01-07T09:10:00Z</time>
      </trkpt>
      <trkpt lat="45.87324" lon="6.51789">
        <ele>1210.6</ele>
        <time>2022-01-07T09:10:02Z</time>
      </trkpt>
      <trkpt lat="45.87323" lon="6.51787">
        <ele>1210.6</ele>
        <time>2022-01-07T09:10:04Z</time>
      </trkpt>
      <trkpt lat="45.87322" lon="6.51783">
        <ele>1210.6</ele>
        <time>2022-01-07T09:10:06Z</time>
      </trkpt>
      <trkpt lat="45.87322" lon="6.5178">
        <ele>1212.8</ele>
        <time>2022-01-07T09:10:09Z</time>
      </trkpt>
      <trkpt lat="45.87321" lon="6.51777">
        <ele>1212.8</ele>
        <time>2022-01-07T09:10:11Z</time>
      </trkpt>
      <trkpt lat="45.8732" lon="6.51774">
        <ele>1212.8</ele>
        <time>2022-01-07T09:10:13Z</time>
      </trkpt>
      <trkpt lat="45.8732" lon="6.51771">
        <ele>1212.8</ele>
        <time>2022-01-07T09:10:15Z</time>
      </trkpt>
      <trkpt lat="45.87319" lon="6.51768">
        <ele>1212.8</ele>
        <time>2022-01-07T09:10:17Z</time>
      </trkpt>
      <trkpt lat="45.87318" lon="6.51765">
        <ele>1214</ele>
        <time>2022-01-07T09:10:19Z</time>
      </trkpt>
      <trkpt lat="45.87317" lon="6.51762">
        <ele>1214</ele>
        <time>2022-01-07T09:10:21Z</time>
      </trkpt>
      <trkpt lat="45.87315" lon="6.5176">
        <ele>1214</ele>
        <time>2022-01-07T09:10:24Z</time>
      </trkpt>
      <trkpt lat="45.87313" lon="6.51758">
        <ele>1214</ele>
        <time>2022-01-07T09:10:26Z</time>
      </trkpt>
      <trkpt lat="45.87311" lon="6.51757">
        <ele>1214</ele>
        <time>2022-01-07T09:10:28Z</time>
      </trkpt>
      <trkpt lat="45.8731" lon="6.51754">
        <ele>1214</ele>
        <time>2022-01-07T09:10:31Z</time>
      </trkpt>
      <trkpt lat="45.87309" lon="6.51751">
        <ele>1214</ele>
        <time>2022-01-07T09:10:34Z</time>
      </trkpt>
      <trkpt lat="45.87307" lon="6.51749">
        <ele>1214</ele>
        <time>2022-01-07T09:10:36Z</time>
      </trkpt>
      <trkpt lat="45.87305" lon="6.51748">
        <ele>1216.2</ele>
        <time>2022-01-07T09:10:39Z</time>
      </trkpt>
      <trkpt lat="45.87303" lon="6.51747">
        <ele>1216.2</ele>
        <time>2022-01-07T09:10:41Z</time>
      </trkpt>
      <trkpt lat="45.87301" lon="6.51746">
        <ele>1216.2</ele>
        <time>2022-01-07T09:10:43Z</time>
      </trkpt>
      <trkpt lat="45.87299" lon="6.51744">
        <ele>1216.2</ele>
        <time>2022-01-07T09:10:45Z</time>
      </trkpt>
      <trkpt lat="45.87297" lon="6.51743">
        <ele>1216.2</ele>
        <time>2022-01-07T09:10:47Z</time>
      </trkpt>
      <trkpt lat="45.87294" lon="6.51742">
        <ele>1216.2</ele>
        <time>2022-01-07T09:10:50Z</time>
      </trkpt>
      <trkpt lat="45.87292" lon="6.51741">
        <ele>1216.2</ele>
        <time>2022-01-07T09:10:53Z</time>
      </trkpt>
      <trkpt lat="45.8729" lon="6.51739">
        <ele>1216.2</ele>
        <time>2022-01-07T09:10:55Z</time>
      </trkpt>
      <trkpt lat="45.87288" lon="6.51738">
        <ele>1216.2</ele>
        <time>2022-01-07T09:10:58Z</time>
      </trkpt>
      <trkpt lat="45.87286" lon="6.51738">
        <ele>1216.2</ele>
        <time>2022-01-07T09:11:00Z</time>
      </trkpt>
      <trkpt lat="45.87283" lon="6.51738">
        <ele>1216.2</ele>
        <time>2022-01-07T09:11:02Z</time>
      </trkpt>
      <trkpt lat="45.87281" lon="6.51737">
        <ele>1216.2</ele>
        <time>2022-01-07T09:11:04Z</time>
      </trkpt>
      <trkpt lat="45.87278" lon="6.51737">
        <ele>1216.2</ele>
        <time>2022-01-07T09:11:06Z</time>
      </trkpt>
      <trkpt lat="45.87277" lon="6.51735">
        <ele>1216.2</ele>
        <time>2022-01-07T09:11:08Z</time>
      </trkpt>
      <trkpt lat="45.87277" lon="6.51732">
        <ele>1216.2</ele>
        <time>2022-01-07T09:11:10Z</time>
      </trkpt>
      <trkpt lat="45.87276" lon="6.51729">
        <ele>1216.2</ele>
        <time>2022-01-07T09:11:13Z</time>
      </trkpt>
      <trkpt lat="45.87275" lon="6.51725">
        <ele>1216.2</ele>
        <time>2022-01-07T09:11:15Z</time>
      </trkpt>
      <trkpt lat="45.87273" lon="6.51722">
        <ele>1216.2</ele>
        <time>2022-01-07T09:11:18Z</time>
      </trkpt>
      <trkpt lat="45.87272" lon="6.51719">
        <ele>1216.2</ele>
        <time>2022-01-07T09:11:20Z</time>
      </trkpt>
      <trkpt lat="45.8727" lon="6.51716">
        <ele>1216.2</ele>
        <time>2022-01-07T09:11:22Z</time>
      </trkpt>
      <trkpt lat="45.87269" lon="6.51714">
        <ele>1216.2</ele>
        <time>2022-01-07T09:11:24Z</time>
      </trkpt>
      <trkpt lat="45.87267" lon="6.51711">
        <ele>1216.2</ele>
        <time>2022-01-07T09:11:26Z</time>
      </trkpt>
      <trkpt lat="45.87266" lon="6.51707">
        <ele>1221.4</ele>
        <time>2022-01-07T09:11:29Z</time>
      </trkpt>
      <trkpt lat="45.87265" lon="6.51705">
        <ele>1221.4</ele>
        <time>2022-01-07T09:11:31Z</time>
      </trkpt>
      <trkpt lat="45.87264" lon="6.51702">
        <ele>1221.4</ele>
        <time>2022-01-07T09:11:33Z</time>
      </trkpt>
      <trkpt lat="45.87263" lon="6.517">
        <ele>1221.4</ele>
        <time>2022-01-07T09:11:35Z</time>
      </trkpt>
      <trkpt lat="45.87261" lon="6.51697">
        <ele>1221.4</ele>
        <time>2022-01-07T09:11:37Z</time>
      </trkpt>
      <trkpt lat="45.8726" lon="6.51695">
        <ele>1222.6</ele>
        <time>2022-01-07T09:11:39Z</time>
      </trkpt>
      <trkpt lat="45.87258" lon="6.51692">
        <ele>1222.6</ele>
        <time>2022-01-07T09:11:41Z</time>
      </trkpt>
      <trkpt lat="45.87258" lon="6.5169">
        <ele>1222.6</ele>
        <time>2022-01-07T09:11:43Z</time>
      </trkpt>
      <trkpt lat="45.87257" lon="6.51688">
        <ele>1222.6</ele>
        <time>2022-01-07T09:11:45Z</time>
      </trkpt>
      <trkpt lat="45.87255" lon="6.51685">
        <ele>1222.6</ele>
        <time>2022-01-07T09:11:47Z</time>
      </trkpt>
      <trkpt lat="45.87253" lon="6.51683">
        <ele>1222.6</ele>
        <time>2022-01-07T09:11:48Z</time>
      </trkpt>
      <trkpt lat="45.87252" lon="6.5168">
        <ele>1222.6</ele>
        <time>2022-01-07T09:11:50Z</time>
      </trkpt>
      <trkpt lat="45.87251" lon="6.51678">
        <ele>1222.6</ele>
        <time>2022-01-07T09:11:53Z</time>
      </trkpt>
      <trkpt lat="45.87249" lon="6.51675">
        <ele>1222.6</ele>
        <time>2022-01-07T09:11:56Z</time>
      </trkpt>
      <trkpt lat="45.87248" lon="6.51673">
        <ele>1222.6</ele>
        <time>2022-01-07T09:11:58Z</time>
      </trkpt>
      <trkpt lat="45.87245" lon="6.51673">
        <ele>1225</ele>
        <time>2022-01-07T09:11:59Z</time>
      </trkpt>
      <trkpt lat="45.87243" lon="6.51673">
        <ele>1225</ele>
        <time>2022-01-07T09:12:01Z</time>
      </trkpt>
      <trkpt lat="45.87242" lon="6.51671">
        <ele>1225</ele>
        <time>2022-01-07T09:12:03Z</time>
      </trkpt>
      <trkpt lat="45.8724" lon="6.51669">
        <ele>1225</ele>
        <time>2022-01-07T09:12:06Z</time>
      </trkpt>
      <trkpt lat="45.87238" lon="6.51668">
        <ele>1226.4</ele>
        <time>2022-01-07T09:12:09Z</time>
      </trkpt>
      <trkpt lat="45.87236" lon="6.51668">
        <ele>1226.4</ele>
        <time>2022-01-07T09:12:11Z</time>
      </trkpt>
      <trkpt lat="45.87233" lon="6.51666">
        <ele>1226.4</ele>
        <time>2022-01-07T09:12:14Z</time>
      </trkpt>
      <trkpt lat="45.87232" lon="6.51665">
        <ele>1226.4</ele>
        <time>2022-01-07T09:12:17Z</time>
      </trkpt>
      <trkpt lat="45.8723" lon="6.51664">
        <ele>1226.4</ele>
        <time>2022-01-07T09:12:21Z</time>
      </trkpt>
      <trkpt lat="45.87228" lon="6.51665">
        <ele>1226.4</ele>
        <time>2022-01-07T09:12:23Z</time>
      </trkpt>
      <trkpt lat="45.87227" lon="6.51662">
        <ele>1226.4</ele>
        <time>2022-01-07T09:12:26Z</time>
      </trkpt>
      <trkpt lat="45.87225" lon="6.51661">
        <ele>1228.6</ele>
        <time>2022-01-07T09:12:29Z</time>
      </trkpt>
      <trkpt lat="45.87223" lon="6.5166">
        <ele>1228.6</ele>
        <time>2022-01-07T09:12:30Z</time>
      </trkpt>
      <trkpt lat="45.87221" lon="6.51659">
        <ele>1228.6</ele>
        <time>2022-01-07T09:12:32Z</time>
      </trkpt>
      <trkpt lat="45.87219" lon="6.51658">
        <ele>1228.6</ele>
        <time>2022-01-07T09:12:35Z</time>
      </trkpt>
      <trkpt lat="45.87216" lon="6.51656">
        <ele>1228.6</ele>
        <time>2022-01-07T09:12:38Z</time>
      </trkpt>
      <trkpt lat="45.87214" lon="6.51656">
        <ele>1228.6</ele>
        <time>2022-01-07T09:12:40Z</time>
      </trkpt>
      <trkpt lat="45.87211" lon="6.51655">
        <ele>1228.6</ele>
        <time>2022-01-07T09:12:43Z</time>
      </trkpt>
      <trkpt lat="45.87209" lon="6.51655">
        <ele>1228.6</ele>
        <time>2022-01-07T09:12:45Z</time>
      </trkpt>
      <trkpt lat="45.87207" lon="6.51654">
        <ele>1228.6</ele>
        <time>2022-01-07T09:12:47Z</time>
      </trkpt>
      <trkpt lat="45.87205" lon="6.51655">
        <ele>1228.6</ele>
        <time>2022-01-07T09:12:48Z</time>
      </trkpt>
      <trkpt lat="45.87202" lon="6.51655">
        <ele>1228.6</ele>
        <time>2022-01-07T09:12:50Z</time>
      </trkpt>
      <trkpt lat="45.872" lon="6.51653">
        <ele>1228.6</ele>
        <time>2022-01-07T09:12:53Z</time>
      </trkpt>
      <trkpt lat="45.87198" lon="6.51652">
        <ele>1228.6</ele>
        <time>2022-01-07T09:12:55Z</time>
      </trkpt>
      <trkpt lat="45.87196" lon="6.51652">
        <ele>1228.6</ele>
        <time>2022-01-07T09:12:58Z</time>
      </trkpt>
      <trkpt lat="45.87193" lon="6.51651">
        <ele>1228.6</ele>
        <time>2022-01-07T09:13:00Z</time>
      </trkpt>
      <trkpt lat="45.87191" lon="6.51651">
        <ele>1228.6</ele>
        <time>2022-01-07T09:13:01Z</time>
      </trkpt>
      <trkpt lat="45.87188" lon="6.51649">
        <ele>1228.6</ele>
        <time>2022-01-07T09:13:04Z</time>
      </trkpt>
      <trkpt lat="45.87186" lon="6.51649">
        <ele>1228.6</ele>
        <time>2022-01-07T09:13:06Z</time>
      </trkpt>
      <trkpt lat="45.87184" lon="6.51648">
        <ele>1228.6</ele>
        <time>2022-01-07T09:13:07Z</time>
      </trkpt>
      <trkpt lat="45.8718" lon="6.51648">
        <ele>1233</ele>
        <time>2022-01-07T09:13:09Z</time>
      </trkpt>
      <trkpt lat="45.87179" lon="6.51647">
        <ele>1233</ele>
        <time>2022-01-07T09:13:11Z</time>
      </trkpt>
      <trkpt lat="45.87178" lon="6.51644">
        <ele>1233</ele>
        <time>2022-01-07T09:13:13Z</time>
      </trkpt>
      <trkpt lat="45.87176" lon="6.51641">
        <ele>1233</ele>
        <time>2022-01-07T09:13:15Z</time>
      </trkpt>
      <trkpt lat="45.87175" lon="6.51638">
        <ele>1233</ele>
        <time>2022-01-07T09:13:18Z</time>
      </trkpt>
      <trkpt lat="45.87173" lon="6.51636">
        <ele>1233</ele>
        <time>2022-01-07T09:13:20Z</time>
      </trkpt>
      <trkpt lat="45.87172" lon="6.51633">
        <ele>1233</ele>
        <time>2022-01-07T09:13:22Z</time>
      </trkpt>
      <trkpt lat="45.8717" lon="6.5163">
        <ele>1233</ele>
        <time>2022-01-07T09:13:24Z</time>
      </trkpt>
      <trkpt lat="45.87168" lon="6.51629">
        <ele>1233</ele>
        <time>2022-01-07T09:13:26Z</time>
      </trkpt>
      <trkpt lat="45.87166" lon="6.51627">
        <ele>1233</ele>
        <time>2022-01-07T09:13:28Z</time>
      </trkpt>
      <trkpt lat="45.87164" lon="6.51624">
        <ele>1233</ele>
        <time>2022-01-07T09:13:30Z</time>
      </trkpt>
      <trkpt lat="45.87163" lon="6.51621">
        <ele>1233</ele>
        <time>2022-01-07T09:13:33Z</time>
      </trkpt>
      <trkpt lat="45.87161" lon="6.51619">
        <ele>1233</ele>
        <time>2022-01-07T09:13:35Z</time>
      </trkpt>
      <trkpt lat="45.87159" lon="6.51617">
        <ele>1233</ele>
        <time>2022-01-07T09:13:37Z</time>
      </trkpt>
      <trkpt lat="45.87157" lon="6.51614">
        <ele>1236</ele>
        <time>2022-01-07T09:13:39Z</time>
      </trkpt>
      <trkpt lat="45.87155" lon="6.51612">
        <ele>1236</ele>
        <time>2022-01-07T09:13:41Z</time>
      </trkpt>
      <trkpt lat="45.87151" lon="6.5161">
        <ele>1236</ele>
        <time>2022-01-07T09:13:43Z</time>
      </trkpt>
      <trkpt lat="45.87149" lon="6.51608">
        <ele>1236</ele>
        <time>2022-01-07T09:13:45Z</time>
      </trkpt>
      <trkpt lat="45.87146" lon="6.51606">
        <ele>1236</ele>
        <time>2022-01-07T09:13:47Z</time>
      </trkpt>
      <trkpt lat="45.87144" lon="6.51605">
        <ele>1237</ele>
        <time>2022-01-07T09:13:49Z</time>
      </trkpt>
      <trkpt lat="45.87142" lon="6.51603">
        <ele>1237</ele>
        <time>2022-01-07T09:13:51Z</time>
      </trkpt>
      <trkpt lat="45.8714" lon="6.51602">
        <ele>1237</ele>
        <time>2022-01-07T09:13:53Z</time>
      </trkpt>
      <trkpt lat="45.87138" lon="6.516">
        <ele>1237</ele>
        <time>2022-01-07T09:13:55Z</time>
      </trkpt>
      <trkpt lat="45.87136" lon="6.51597">
        <ele>1237</ele>
        <time>2022-01-07T09:13:58Z</time>
      </trkpt>
      <trkpt lat="45.87134" lon="6.51595">
        <ele>1237</ele>
        <time>2022-01-07T09:14:00Z</time>
      </trkpt>
      <trkpt lat="45.87132" lon="6.51593">
        <ele>1237</ele>
        <time>2022-01-07T09:14:02Z</time>
      </trkpt>
      <trkpt lat="45.8713" lon="6.51591">
        <ele>1237</ele>
        <time>2022-01-07T09:14:05Z</time>
      </trkpt>
      <trkpt lat="45.87128" lon="6.51589">
        <ele>1237</ele>
        <time>2022-01-07T09:14:08Z</time>
      </trkpt>
      <trkpt lat="45.87125" lon="6.51588">
        <ele>1237</ele>
        <time>2022-01-07T09:14:10Z</time>
      </trkpt>
      <trkpt lat="45.87124" lon="6.51587">
        <ele>1237</ele>
        <time>2022-01-07T09:14:12Z</time>
      </trkpt>
      <trkpt lat="45.87121" lon="6.51586">
        <ele>1237</ele>
        <time>2022-01-07T09:14:14Z</time>
      </trkpt>
      <trkpt lat="45.87118" lon="6.51586">
        <ele>1237</ele>
        <time>2022-01-07T09:14:17Z</time>
      </trkpt>
      <trkpt lat="45.87116" lon="6.51584">
        <ele>1240.2</ele>
        <time>2022-01-07T09:14:19Z</time>
      </trkpt>
      <trkpt lat="45.87114" lon="6.51583">
        <ele>1240.2</ele>
        <time>2022-01-07T09:14:22Z</time>
      </trkpt>
      <trkpt lat="45.87111" lon="6.51582">
        <ele>1240.2</ele>
        <time>2022-01-07T09:14:24Z</time>
      </trkpt>
      <trkpt lat="45.87109" lon="6.51581">
        <ele>1240.2</ele>
        <time>2022-01-07T09:14:26Z</time>
      </trkpt>
      <trkpt lat="45.87106" lon="6.5158">
        <ele>1240.2</ele>
        <time>2022-01-07T09:14:28Z</time>
      </trkpt>
      <trkpt lat="45.87104" lon="6.5158">
        <ele>1240.2</ele>
        <time>2022-01-07T09:14:30Z</time>
      </trkpt>
      <trkpt lat="45.87102" lon="6.51578">
        <ele>1240.2</ele>
        <time>2022-01-07T09:14:33Z</time>
      </trkpt>
      <trkpt lat="45.871" lon="6.51577">
        <ele>1240.2</ele>
        <time>2022-01-07T09:14:35Z</time>
      </trkpt>
      <trkpt lat="45.87098" lon="6.51575">
        <ele>1240.2</ele>
        <time>2022-01-07T09:14:37Z</time>
      </trkpt>
      <trkpt lat="45.87095" lon="6.51572">
        <ele>1241.8</ele>
        <time>2022-01-07T09:14:39Z</time>
      </trkpt>
      <trkpt lat="45.87093" lon="6.51571">
        <ele>1241.8</ele>
        <time>2022-01-07T09:14:41Z</time>
      </trkpt>
      <trkpt lat="45.87092" lon="6.5157">
        <ele>1241.8</ele>
        <time>2022-01-07T09:14:43Z</time>
      </trkpt>
      <trkpt lat="45.8709" lon="6.51568">
        <ele>1241.8</ele>
        <time>2022-01-07T09:14:45Z</time>
      </trkpt>
      <trkpt lat="45.87087" lon="6.51567">
        <ele>1241.8</ele>
        <time>2022-01-07T09:14:47Z</time>
      </trkpt>
      <trkpt lat="45.87086" lon="6.51565">
        <ele>1242.8</ele>
        <time>2022-01-07T09:14:49Z</time>
      </trkpt>
      <trkpt lat="45.87084" lon="6.51563">
        <ele>1242.8</ele>
        <time>2022-01-07T09:14:51Z</time>
      </trkpt>
      <trkpt lat="45.87083" lon="6.5156">
        <ele>1242.8</ele>
        <time>2022-01-07T09:14:53Z</time>
      </trkpt>
      <trkpt lat="45.87081" lon="6.51557">
        <ele>1242.8</ele>
        <time>2022-01-07T09:14:55Z</time>
      </trkpt>
      <trkpt lat="45.87079" lon="6.51554">
        <ele>1242.8</ele>
        <time>2022-01-07T09:14:57Z</time>
      </trkpt>
      <trkpt lat="45.87076" lon="6.51551">
        <ele>1244.2</ele>
        <time>2022-01-07T09:14:59Z</time>
      </trkpt>
      <trkpt lat="45.87076" lon="6.51548">
        <ele>1244.2</ele>
        <time>2022-01-07T09:15:01Z</time>
      </trkpt>
      <trkpt lat="45.87076" lon="6.51544">
        <ele>1244.2</ele>
        <time>2022-01-07T09:15:03Z</time>
      </trkpt>
      <trkpt lat="45.87075" lon="6.51541">
        <ele>1244.2</ele>
        <time>2022-01-07T09:15:05Z</time>
      </trkpt>
      <trkpt lat="45.87073" lon="6.51538">
        <ele>1244.2</ele>
        <time>2022-01-07T09:15:07Z</time>
      </trkpt>
      <trkpt lat="45.87072" lon="6.51535">
        <ele>1245.4</ele>
        <time>2022-01-07T09:15:09Z</time>
      </trkpt>
      <trkpt lat="45.87069" lon="6.51533">
        <ele>1245.4</ele>
        <time>2022-01-07T09:15:11Z</time>
      </trkpt>
      <trkpt lat="45.87069" lon="6.51529">
        <ele>1245.4</ele>
        <time>2022-01-07T09:15:14Z</time>
      </trkpt>
      <trkpt lat="45.87068" lon="6.51527">
        <ele>1245.4</ele>
        <time>2022-01-07T09:15:15Z</time>
      </trkpt>
      <trkpt lat="45.87068" lon="6.51523">
        <ele>1245.4</ele>
        <time>2022-01-07T09:15:18Z</time>
      </trkpt>
      <trkpt lat="45.87068" lon="6.5152">
        <ele>1245.4</ele>
        <time>2022-01-07T09:15:20Z</time>
      </trkpt>
      <trkpt lat="45.87066" lon="6.51518">
        <ele>1245.4</ele>
        <time>2022-01-07T09:15:22Z</time>
      </trkpt>
      <trkpt lat="45.87065" lon="6.51515">
        <ele>1245.4</ele>
        <time>2022-01-07T09:15:24Z</time>
      </trkpt>
      <trkpt lat="45.87065" lon="6.51512">
        <ele>1245.4</ele>
        <time>2022-01-07T09:15:26Z</time>
      </trkpt>
      <trkpt lat="45.87064" lon="6.51509">
        <ele>1245.4</ele>
        <time>2022-01-07T09:15:28Z</time>
      </trkpt>
      <trkpt lat="45.87063" lon="6.51506">
        <ele>1245.4</ele>
        <time>2022-01-07T09:15:30Z</time>
      </trkpt>
      <trkpt lat="45.87062" lon="6.51503">
        <ele>1245.4</ele>
        <time>2022-01-07T09:15:32Z</time>
      </trkpt>
      <trkpt lat="45.87062" lon="6.515">
        <ele>1245.4</ele>
        <time>2022-01-07T09:15:34Z</time>
      </trkpt>
      <trkpt lat="45.87061" lon="6.51498">
        <ele>1245.4</ele>
        <time>2022-01-07T09:15:36Z</time>
      </trkpt>
      <trkpt lat="45.8706" lon="6.51495">
        <ele>1245.4</ele>
        <time>2022-01-07T09:15:38Z</time>
      </trkpt>
      <trkpt lat="45.87059" lon="6.51492">
        <ele>1245.4</ele>
        <time>2022-01-07T09:15:40Z</time>
      </trkpt>
      <trkpt lat="45.87058" lon="6.51489">
        <ele>1245.4</ele>
        <time>2022-01-07T09:15:42Z</time>
      </trkpt>
      <trkpt lat="45.87056" lon="6.51486">
        <ele>1245.4</ele>
        <time>2022-01-07T09:15:45Z</time>
      </trkpt>
      <trkpt lat="45.87056" lon="6.51483">
        <ele>1245.4</ele>
        <time>2022-01-07T09:15:47Z</time>
      </trkpt>
      <trkpt lat="45.87054" lon="6.5148">
        <ele>1249.4</ele>
        <time>2022-01-07T09:15:49Z</time>
      </trkpt>
      <trkpt lat="45.87052" lon="6.51479">
        <ele>1249.4</ele>
        <time>2022-01-07T09:15:52Z</time>
      </trkpt>
      <trkpt lat="45.87052" lon="6.51476">
        <ele>1250.4</ele>
        <time>2022-01-07T09:15:59Z</time>
      </trkpt>
      <trkpt lat="45.8705" lon="6.51475">
        <ele>1250.4</ele>
        <time>2022-01-07T09:16:01Z</time>
      </trkpt>
      <trkpt lat="45.87048" lon="6.51473">
        <ele>1250.4</ele>
        <time>2022-01-07T09:16:04Z</time>
      </trkpt>
      <trkpt lat="45.87046" lon="6.51472">
        <ele>1250.4</ele>
        <time>2022-01-07T09:16:06Z</time>
      </trkpt>
      <trkpt lat="45.87044" lon="6.51469">
        <ele>1250.4</ele>
        <time>2022-01-07T09:16:08Z</time>
      </trkpt>
      <trkpt lat="45.87043" lon="6.51466">
        <ele>1250.4</ele>
        <time>2022-01-07T09:16:11Z</time>
      </trkpt>
      <trkpt lat="45.87041" lon="6.51463">
        <ele>1250.4</ele>
        <time>2022-01-07T09:16:14Z</time>
      </trkpt>
      <trkpt lat="45.8704" lon="6.51459">
        <ele>1250.4</ele>
        <time>2022-01-07T09:16:16Z</time>
      </trkpt>
      <trkpt lat="45.8704" lon="6.51456">
        <ele>1250.4</ele>
        <time>2022-01-07T09:16:18Z</time>
      </trkpt>
      <trkpt lat="45.87038" lon="6.51453">
        <ele>1250.4</ele>
        <time>2022-01-07T09:16:20Z</time>
      </trkpt>
      <trkpt lat="45.87038" lon="6.5145">
        <ele>1250.4</ele>
        <time>2022-01-07T09:16:22Z</time>
      </trkpt>
      <trkpt lat="45.87037" lon="6.51448">
        <ele>1250.4</ele>
        <time>2022-01-07T09:16:24Z</time>
      </trkpt>
      <trkpt lat="45.87036" lon="6.51445">
        <ele>1250.4</ele>
        <time>2022-01-07T09:16:26Z</time>
      </trkpt>
      <trkpt lat="45.87034" lon="6.51443">
        <ele>1250.4</ele>
        <time>2022-01-07T09:16:28Z</time>
      </trkpt>
      <trkpt lat="45.87033" lon="6.5144">
        <ele>1250.4</ele>
        <time>2022-01-07T09:16:32Z</time>
      </trkpt>
      <trkpt lat="45.87032" lon="6.51437">
        <ele>1250.4</ele>
        <time>2022-01-07T09:16:34Z</time>
      </trkpt>
      <trkpt lat="45.87031" lon="6.51435">
        <ele>1250.4</ele>
        <time>2022-01-07T09:16:37Z</time>
      </trkpt>
      <trkpt lat="45.8703" lon="6.51431">
        <ele>1250.4</ele>
        <time>2022-01-07T09:16:40Z</time>
      </trkpt>
      <trkpt lat="45.87028" lon="6.51428">
        <ele>1250.4</ele>
        <time>2022-01-07T09:16:42Z</time>
      </trkpt>
      <trkpt lat="45.87027" lon="6.51426">
        <ele>1250.4</ele>
        <time>2022-01-07T09:16:44Z</time>
      </trkpt>
      <trkpt lat="45.87026" lon="6.51423">
        <ele>1250.4</ele>
        <time>2022-01-07T09:16:46Z</time>
      </trkpt>
      <trkpt lat="45.87025" lon="6.5142">
        <ele>1250.4</ele>
        <time>2022-01-07T09:16:48Z</time>
      </trkpt>
      <trkpt lat="45.87024" lon="6.51418">
        <ele>1250.4</ele>
        <time>2022-01-07T09:16:50Z</time>
      </trkpt>
      <trkpt lat="45.87022" lon="6.51415">
        <ele>1250.4</ele>
        <time>2022-01-07T09:16:52Z</time>
      </trkpt>
      <trkpt lat="45.8702" lon="6.51412">
        <ele>1250.4</ele>
        <time>2022-01-07T09:16:54Z</time>
      </trkpt>
      <trkpt lat="45.87019" lon="6.51409">
        <ele>1250.4</ele>
        <time>2022-01-07T09:16:56Z</time>
      </trkpt>
      <trkpt lat="45.87018" lon="6.51406">
        <ele>1250.4</ele>
        <time>2022-01-07T09:16:58Z</time>
      </trkpt>
      <trkpt lat="45.87017" lon="6.51402">
        <ele>1250.4</ele>
        <time>2022-01-07T09:17:00Z</time>
      </trkpt>
      <trkpt lat="45.87016" lon="6.51399">
        <ele>1250.4</ele>
        <time>2022-01-07T09:17:02Z</time>
      </trkpt>
      <trkpt lat="45.87017" lon="6.51396">
        <ele>1250.4</ele>
        <time>2022-01-07T09:17:04Z</time>
      </trkpt>
      <trkpt lat="45.87016" lon="6.51392">
        <ele>1250.4</ele>
        <time>2022-01-07T09:17:06Z</time>
      </trkpt>
      <trkpt lat="45.87015" lon="6.51389">
        <ele>1250.4</ele>
        <time>2022-01-07T09:17:08Z</time>
      </trkpt>
      <trkpt lat="45.87014" lon="6.51385">
        <ele>1250.4</ele>
        <time>2022-01-07T09:17:10Z</time>
      </trkpt>
      <trkpt lat="45.87014" lon="6.51381">
        <ele>1250.4</ele>
        <time>2022-01-07T09:17:12Z</time>
      </trkpt>
      <trkpt lat="45.87014" lon="6.51378">
        <ele>1250.4</ele>
        <time>2022-01-07T09:17:14Z</time>
      </trkpt>
      <trkpt lat="45.87013" lon="6.51375">
        <ele>1250.4</ele>
        <time>2022-01-07T09:17:16Z</time>
      </trkpt>
      <trkpt lat="45.87012" lon="6.51372">
        <ele>1250.4</ele>
        <time>2022-01-07T09:17:18Z</time>
      </trkpt>
      <trkpt lat="45.87012" lon="6.51369">
        <ele>1250.4</ele>
        <time>2022-01-07T09:17:20Z</time>
      </trkpt>
      <trkpt lat="45.87011" lon="6.51366">
        <ele>1250.4</ele>
        <time>2022-01-07T09:17:22Z</time>
      </trkpt>
      <trkpt lat="45.8701" lon="6.51363">
        <ele>1250.4</ele>
        <time>2022-01-07T09:17:24Z</time>
      </trkpt>
      <trkpt lat="45.87009" lon="6.51361">
        <ele>1250.4</ele>
        <time>2022-01-07T09:17:26Z</time>
      </trkpt>
      <trkpt lat="45.87008" lon="6.51358">
        <ele>1250.4</ele>
        <time>2022-01-07T09:17:28Z</time>
      </trkpt>
      <trkpt lat="45.87006" lon="6.51357">
        <ele>1250.4</ele>
        <time>2022-01-07T09:17:30Z</time>
      </trkpt>
      <trkpt lat="45.87005" lon="6.51354">
        <ele>1250.4</ele>
        <time>2022-01-07T09:17:32Z</time>
      </trkpt>
      <trkpt lat="45.87004" lon="6.51351">
        <ele>1250.4</ele>
        <time>2022-01-07T09:17:34Z</time>
      </trkpt>
      <trkpt lat="45.87003" lon="6.51349">
        <ele>1250.4</ele>
        <time>2022-01-07T09:17:36Z</time>
      </trkpt>
      <trkpt lat="45.87001" lon="6.51346">
        <ele>1250.4</ele>
        <time>2022-01-07T09:17:38Z</time>
      </trkpt>
      <trkpt lat="45.87" lon="6.51344">
        <ele>1250.4</ele>
        <time>2022-01-07T09:17:40Z</time>
      </trkpt>
      <trkpt lat="45.86998" lon="6.51341">
        <ele>1250.4</ele>
        <time>2022-01-07T09:17:42Z</time>
      </trkpt>
      <trkpt lat="45.86996" lon="6.51339">
        <ele>1250.4</ele>
        <time>2022-01-07T09:17:44Z</time>
      </trkpt>
      <trkpt lat="45.86994" lon="6.51337">
        <ele>1250.4</ele>
        <time>2022-01-07T09:17:46Z</time>
      </trkpt>
      <trkpt lat="45.86993" lon="6.51335">
        <ele>1250.4</ele>
        <time>2022-01-07T09:17:48Z</time>
      </trkpt>
      <trkpt lat="45.86991" lon="6.51333">
        <ele>1250.4</ele>
        <time>2022-01-07T09:17:50Z</time>
      </trkpt>
      <trkpt lat="45.86989" lon="6.51332">
        <ele>1250.4</ele>
        <time>2022-01-07T09:17:52Z</time>
      </trkpt>
      <trkpt lat="45.86987" lon="6.51332">
        <ele>1250.4</ele>
        <time>2022-01-07T09:17:54Z</time>
      </trkpt>
      <trkpt lat="45.86984" lon="6.51331">
        <ele>1250.4</ele>
        <time>2022-01-07T09:17:56Z</time>
      </trkpt>
      <trkpt lat="45.86982" lon="6.51331">
        <ele>1250.4</ele>
        <time>2022-01-07T09:17:58Z</time>
      </trkpt>
      <trkpt lat="45.86979" lon="6.5133">
        <ele>1250.4</ele>
        <time>2022-01-07T09:18:00Z</time>
      </trkpt>
      <trkpt lat="45.86978" lon="6.51328">
        <ele>1250.4</ele>
        <time>2022-01-07T09:18:03Z</time>
      </trkpt>
      <trkpt lat="45.86976" lon="6.51327">
        <ele>1250.4</ele>
        <time>2022-01-07T09:18:05Z</time>
      </trkpt>
      <trkpt lat="45.86975" lon="6.51326">
        <ele>1250.4</ele>
        <time>2022-01-07T09:18:07Z</time>
      </trkpt>
      <trkpt lat="45.86973" lon="6.51324">
        <ele>1250.4</ele>
        <time>2022-01-07T09:18:10Z</time>
      </trkpt>
      <trkpt lat="45.86971" lon="6.51321">
        <ele>1250.4</ele>
        <time>2022-01-07T09:18:12Z</time>
      </trkpt>
      <trkpt lat="45.86969" lon="6.51321">
        <ele>1250.4</ele>
        <time>2022-01-07T09:18:14Z</time>
      </trkpt>
      <trkpt lat="45.86967" lon="6.51319">
        <ele>1250.4</ele>
        <time>2022-01-07T09:18:17Z</time>
      </trkpt>
      <trkpt lat="45.86965" lon="6.51317">
        <ele>1261.8</ele>
        <time>2022-01-07T09:18:19Z</time>
      </trkpt>
      <trkpt lat="45.86964" lon="6.51314">
        <ele>1261.8</ele>
        <time>2022-01-07T09:18:21Z</time>
      </trkpt>
      <trkpt lat="45.86962" lon="6.51311">
        <ele>1261.8</ele>
        <time>2022-01-07T09:18:23Z</time>
      </trkpt>
      <trkpt lat="45.8696" lon="6.51309">
        <ele>1261.8</ele>
        <time>2022-01-07T09:18:25Z</time>
      </trkpt>
      <trkpt lat="45.86959" lon="6.51306">
        <ele>1261.8</ele>
        <time>2022-01-07T09:18:27Z</time>
      </trkpt>
      <trkpt lat="45.86957" lon="6.51303">
        <ele>1261.6</ele>
        <time>2022-01-07T09:18:29Z</time>
      </trkpt>
      <trkpt lat="45.86956" lon="6.513">
        <ele>1261.6</ele>
        <time>2022-01-07T09:18:31Z</time>
      </trkpt>
      <trkpt lat="45.86955" lon="6.51297">
        <ele>1261.6</ele>
        <time>2022-01-07T09:18:33Z</time>
      </trkpt>
      <trkpt lat="45.86954" lon="6.51293">
        <ele>1261.6</ele>
        <time>2022-01-07T09:18:35Z</time>
      </trkpt>
      <trkpt lat="45.86954" lon="6.5129">
        <ele>1261.6</ele>
        <time>2022-01-07T09:18:37Z</time>
      </trkpt>
      <trkpt lat="45.86953" lon="6.51286">
        <ele>1262.6</ele>
        <time>2022-01-07T09:18:39Z</time>
      </trkpt>
      <trkpt lat="45.86952" lon="6.51283">
        <ele>1262.6</ele>
        <time>2022-01-07T09:18:41Z</time>
      </trkpt>
      <trkpt lat="45.8695" lon="6.5128">
        <ele>1262.6</ele>
        <time>2022-01-07T09:18:43Z</time>
      </trkpt>
      <trkpt lat="45.86949" lon="6.51277">
        <ele>1262.6</ele>
        <time>2022-01-07T09:18:45Z</time>
      </trkpt>
      <trkpt lat="45.86948" lon="6.51274">
        <ele>1262.6</ele>
        <time>2022-01-07T09:18:48Z</time>
      </trkpt>
      <trkpt lat="45.86947" lon="6.51271">
        <ele>1262.6</ele>
        <time>2022-01-07T09:18:50Z</time>
      </trkpt>
      <trkpt lat="45.86946" lon="6.51267">
        <ele>1262.6</ele>
        <time>2022-01-07T09:18:52Z</time>
      </trkpt>
      <trkpt lat="45.86943" lon="6.51265">
        <ele>1262.6</ele>
        <time>2022-01-07T09:18:54Z</time>
      </trkpt>
      <trkpt lat="45.86941" lon="6.51262">
        <ele>1262.6</ele>
        <time>2022-01-07T09:18:56Z</time>
      </trkpt>
      <trkpt lat="45.8694" lon="6.5126">
        <ele>1262.6</ele>
        <time>2022-01-07T09:18:58Z</time>
      </trkpt>
      <trkpt lat="45.86938" lon="6.51259">
        <ele>1262.6</ele>
        <time>2022-01-07T09:19:00Z</time>
      </trkpt>
      <trkpt lat="45.86937" lon="6.51257">
        <ele>1262.6</ele>
        <time>2022-01-07T09:19:02Z</time>
      </trkpt>
      <trkpt lat="45.86935" lon="6.51255">
        <ele>1262.6</ele>
        <time>2022-01-07T09:19:04Z</time>
      </trkpt>
      <trkpt lat="45.86933" lon="6.51255">
        <ele>1262.6</ele>
        <time>2022-01-07T09:19:06Z</time>
      </trkpt>
      <trkpt lat="45.86931" lon="6.51254">
        <ele>1262.6</ele>
        <time>2022-01-07T09:19:08Z</time>
      </trkpt>
      <trkpt lat="45.86929" lon="6.51253">
        <ele>1262.6</ele>
        <time>2022-01-07T09:19:10Z</time>
      </trkpt>
      <trkpt lat="45.86927" lon="6.51251">
        <ele>1262.6</ele>
        <time>2022-01-07T09:19:13Z</time>
      </trkpt>
      <trkpt lat="45.86925" lon="6.51251">
        <ele>1262.6</ele>
        <time>2022-01-07T09:19:15Z</time>
      </trkpt>
      <trkpt lat="45.86923" lon="6.5125">
        <ele>1262.6</ele>
        <time>2022-01-07T09:19:18Z</time>
      </trkpt>
      <trkpt lat="45.8692" lon="6.5125">
        <ele>1262.6</ele>
        <time>2022-01-07T09:19:21Z</time>
      </trkpt>
      <trkpt lat="45.86918" lon="6.5125">
        <ele>1262.6</ele>
        <time>2022-01-07T09:19:23Z</time>
      </trkpt>
      <trkpt lat="45.86916" lon="6.51251">
        <ele>1262.6</ele>
        <time>2022-01-07T09:19:25Z</time>
      </trkpt>
      <trkpt lat="45.86913" lon="6.5125">
        <ele>1262.6</ele>
        <time>2022-01-07T09:19:27Z</time>
      </trkpt>
      <trkpt lat="45.86911" lon="6.51252">
        <ele>1265.6</ele>
        <time>2022-01-07T09:19:29Z</time>
      </trkpt>
      <trkpt lat="45.86908" lon="6.51252">
        <ele>1265.6</ele>
        <time>2022-01-07T09:19:30Z</time>
      </trkpt>
      <trkpt lat="45.86905" lon="6.51251">
        <ele>1265.6</ele>
        <time>2022-01-07T09:19:32Z</time>
      </trkpt>
      <trkpt lat="45.86903" lon="6.51251">
        <ele>1265.6</ele>
        <time>2022-01-07T09:19:34Z</time>
      </trkpt>
      <trkpt lat="45.869" lon="6.5125">
        <ele>1265.6</ele>
        <time>2022-01-07T09:19:37Z</time>
      </trkpt>
      <trkpt lat="45.86898" lon="6.51249">
        <ele>1265.6</ele>
        <time>2022-01-07T09:19:40Z</time>
      </trkpt>
      <trkpt lat="45.86895" lon="6.51248">
        <ele>1265.6</ele>
        <time>2022-01-07T09:19:42Z</time>
      </trkpt>
      <trkpt lat="45.86893" lon="6.51248">
        <ele>1265.6</ele>
        <time>2022-01-07T09:19:44Z</time>
      </trkpt>
      <trkpt lat="45.86891" lon="6.51245">
        <ele>1265.6</ele>
        <time>2022-01-07T09:19:47Z</time>
      </trkpt>
      <trkpt lat="45.86889" lon="6.51244">
        <ele>1267.6</ele>
        <time>2022-01-07T09:19:49Z</time>
      </trkpt>
      <trkpt lat="45.86887" lon="6.51244">
        <ele>1267.6</ele>
        <time>2022-01-07T09:19:51Z</time>
      </trkpt>
      <trkpt lat="45.86885" lon="6.51243">
        <ele>1267.6</ele>
        <time>2022-01-07T09:19:53Z</time>
      </trkpt>
      <trkpt lat="45.86884" lon="6.51241">
        <ele>1267.6</ele>
        <time>2022-01-07T09:19:55Z</time>
      </trkpt>
      <trkpt lat="45.86881" lon="6.51239">
        <ele>1267.6</ele>
        <time>2022-01-07T09:19:57Z</time>
      </trkpt>
      <trkpt lat="45.86879" lon="6.51236">
        <ele>1268.6</ele>
        <time>2022-01-07T09:19:59Z</time>
      </trkpt>
      <trkpt lat="45.86876" lon="6.51234">
        <ele>1268.6</ele>
        <time>2022-01-07T09:20:01Z</time>
      </trkpt>
      <trkpt lat="45.86874" lon="6.51233">
        <ele>1268.6</ele>
        <time>2022-01-07T09:20:02Z</time>
      </trkpt>
      <trkpt lat="45.86871" lon="6.51231">
        <ele>1268.6</ele>
        <time>2022-01-07T09:20:04Z</time>
      </trkpt>
      <trkpt lat="45.8687" lon="6.51229">
        <ele>1268.6</ele>
        <time>2022-01-07T09:20:06Z</time>
      </trkpt>
      <trkpt lat="45.86869" lon="6.51226">
        <ele>1268.6</ele>
        <time>2022-01-07T09:20:08Z</time>
      </trkpt>
      <trkpt lat="45.86868" lon="6.51224">
        <ele>1268.6</ele>
        <time>2022-01-07T09:20:10Z</time>
      </trkpt>
      <trkpt lat="45.86866" lon="6.51222">
        <ele>1268.6</ele>
        <time>2022-01-07T09:20:12Z</time>
      </trkpt>
      <trkpt lat="45.86864" lon="6.51219">
        <ele>1268.6</ele>
        <time>2022-01-07T09:20:14Z</time>
      </trkpt>
      <trkpt lat="45.86863" lon="6.51216">
        <ele>1268.6</ele>
        <time>2022-01-07T09:20:16Z</time>
      </trkpt>
      <trkpt lat="45.86861" lon="6.51215">
        <ele>1268.6</ele>
        <time>2022-01-07T09:20:18Z</time>
      </trkpt>
      <trkpt lat="45.8686" lon="6.51213">
        <ele>1268.6</ele>
        <time>2022-01-07T09:20:20Z</time>
      </trkpt>
      <trkpt lat="45.86858" lon="6.51211">
        <ele>1268.6</ele>
        <time>2022-01-07T09:20:22Z</time>
      </trkpt>
      <trkpt lat="45.86857" lon="6.51208">
        <ele>1268.6</ele>
        <time>2022-01-07T09:20:24Z</time>
      </trkpt>
      <trkpt lat="45.86856" lon="6.51206">
        <ele>1268.6</ele>
        <time>2022-01-07T09:20:26Z</time>
      </trkpt>
      <trkpt lat="45.86854" lon="6.51203">
        <ele>1270.8</ele>
        <time>2022-01-07T09:20:29Z</time>
      </trkpt>
      <trkpt lat="45.86852" lon="6.51201">
        <ele>1270.8</ele>
        <time>2022-01-07T09:20:31Z</time>
      </trkpt>
      <trkpt lat="45.8685" lon="6.51199">
        <ele>1270.8</ele>
        <time>2022-01-07T09:20:33Z</time>
      </trkpt>
      <trkpt lat="45.86848" lon="6.51197">
        <ele>1270.8</ele>
        <time>2022-01-07T09:20:35Z</time>
      </trkpt>
      <trkpt lat="45.86846" lon="6.51195">
        <ele>1270.8</ele>
        <time>2022-01-07T09:20:37Z</time>
      </trkpt>
      <trkpt lat="45.86844" lon="6.51194">
        <ele>1271.8</ele>
        <time>2022-01-07T09:20:39Z</time>
      </trkpt>
      <trkpt lat="45.86841" lon="6.51192">
        <ele>1271.8</ele>
        <time>2022-01-07T09:20:41Z</time>
      </trkpt>
      <trkpt lat="45.86839" lon="6.51191">
        <ele>1271.8</ele>
        <time>2022-01-07T09:20:43Z</time>
      </trkpt>
      <trkpt lat="45.86837" lon="6.5119">
        <ele>1271.8</ele>
        <time>2022-01-07T09:20:47Z</time>
      </trkpt>
      <trkpt lat="45.86836" lon="6.51191">
        <ele>1271.8</ele>
        <time>2022-01-07T09:20:52Z</time>
      </trkpt>
      <trkpt lat="45.86836" lon="6.51194">
        <ele>1271.8</ele>
        <time>2022-01-07T09:20:57Z</time>
      </trkpt>
      <trkpt lat="45.86835" lon="6.51197">
        <ele>1271.8</ele>
        <time>2022-01-07T09:21:00Z</time>
      </trkpt>
      <trkpt lat="45.86834" lon="6.51199">
        <ele>1271.8</ele>
        <time>2022-01-07T09:21:01Z</time>
      </trkpt>
      <trkpt lat="45.86834" lon="6.51202">
        <ele>1271.8</ele>
        <time>2022-01-07T09:21:04Z</time>
      </trkpt>
      <trkpt lat="45.86832" lon="6.51204">
        <ele>1271.8</ele>
        <time>2022-01-07T09:21:07Z</time>
      </trkpt>
      <trkpt lat="45.86834" lon="6.51207">
        <ele>1271.8</ele>
        <time>2022-01-07T09:21:11Z</time>
      </trkpt>
      <trkpt lat="45.86836" lon="6.51209">
        <ele>1271.8</ele>
        <time>2022-01-07T09:21:14Z</time>
      </trkpt>
      <trkpt lat="45.86837" lon="6.51213">
        <ele>1271.8</ele>
        <time>2022-01-07T09:21:17Z</time>
      </trkpt>
      <trkpt lat="45.86838" lon="6.51216">
        <ele>1271.8</ele>
        <time>2022-01-07T09:21:20Z</time>
      </trkpt>
      <trkpt lat="45.86839" lon="6.51219">
        <ele>1271.8</ele>
        <time>2022-01-07T09:21:23Z</time>
      </trkpt>
      <trkpt lat="45.86839" lon="6.51223">
        <ele>1271.8</ele>
        <time>2022-01-07T09:21:26Z</time>
      </trkpt>
      <trkpt lat="45.8684" lon="6.51227">
        <ele>1280.6</ele>
        <time>2022-01-07T09:21:29Z</time>
      </trkpt>
      <trkpt lat="45.86842" lon="6.51229">
        <ele>1280.6</ele>
        <time>2022-01-07T09:21:31Z</time>
      </trkpt>
      <trkpt lat="45.86843" lon="6.51232">
        <ele>1280.6</ele>
        <time>2022-01-07T09:21:33Z</time>
      </trkpt>
      <trkpt lat="45.86843" lon="6.51235">
        <ele>1280.6</ele>
        <time>2022-01-07T09:21:36Z</time>
      </trkpt>
      <trkpt lat="45.86843" lon="6.51238">
        <ele>1282.4</ele>
        <time>2022-01-07T09:21:39Z</time>
      </trkpt>
      <trkpt lat="45.86843" lon="6.51241">
        <ele>1282.4</ele>
        <time>2022-01-07T09:21:42Z</time>
      </trkpt>
      <trkpt lat="45.86844" lon="6.51244">
        <ele>1282.4</ele>
        <time>2022-01-07T09:21:45Z</time>
      </trkpt>
      <trkpt lat="45.86845" lon="6.51246">
        <ele>1282.4</ele>
        <time>2022-01-07T09:21:47Z</time>
      </trkpt>
      <trkpt lat="45.86846" lon="6.51249">
        <ele>1282.4</ele>
        <time>2022-01-07T09:21:50Z</time>
      </trkpt>
      <trkpt lat="45.86845" lon="6.51252">
        <ele>1282.4</ele>
        <time>2022-01-07T09:21:53Z</time>
      </trkpt>
      <trkpt lat="45.86847" lon="6.51255">
        <ele>1282.4</ele>
        <time>2022-01-07T09:21:56Z</time>
      </trkpt>
      <trkpt lat="45.86849" lon="6.51258">
        <ele>1282.4</ele>
        <time>2022-01-07T09:21:58Z</time>
      </trkpt>
      <trkpt lat="45.8685" lon="6.5126">
        <ele>1282.4</ele>
        <time>2022-01-07T09:22:00Z</time>
      </trkpt>
      <trkpt lat="45.8685" lon="6.51263">
        <ele>1282.4</ele>
        <time>2022-01-07T09:22:02Z</time>
      </trkpt>
      <trkpt lat="45.86851" lon="6.51266">
        <ele>1282.4</ele>
        <time>2022-01-07T09:22:04Z</time>
      </trkpt>
      <trkpt lat="45.86852" lon="6.51269">
        <ele>1282.4</ele>
        <time>2022-01-07T09:22:08Z</time>
      </trkpt>
      <trkpt lat="45.86854" lon="6.51271">
        <ele>1282.4</ele>
        <time>2022-01-07T09:22:11Z</time>
      </trkpt>
      <trkpt lat="45.86856" lon="6.51274">
        <ele>1282.4</ele>
        <time>2022-01-07T09:22:50Z</time>
      </trkpt>
      <trkpt lat="45.86857" lon="6.51277">
        <ele>1282.4</ele>
        <time>2022-01-07T09:22:52Z</time>
      </trkpt>
      <trkpt lat="45.86858" lon="6.5128">
        <ele>1282.4</ele>
        <time>2022-01-07T09:22:54Z</time>
      </trkpt>
      <trkpt lat="45.8686" lon="6.51282">
        <ele>1282.4</ele>
        <time>2022-01-07T09:22:56Z</time>
      </trkpt>
      <trkpt lat="45.86861" lon="6.51285">
        <ele>1282.4</ele>
        <time>2022-01-07T09:22:58Z</time>
      </trkpt>
      <trkpt lat="45.86863" lon="6.51286">
        <ele>1282.4</ele>
        <time>2022-01-07T09:23:00Z</time>
      </trkpt>
      <trkpt lat="45.86864" lon="6.51289">
        <ele>1282.4</ele>
        <time>2022-01-07T09:23:03Z</time>
      </trkpt>
      <trkpt lat="45.86866" lon="6.51291">
        <ele>1282.4</ele>
        <time>2022-01-07T09:23:06Z</time>
      </trkpt>
      <trkpt lat="45.86868" lon="6.51293">
        <ele>1294.4</ele>
        <time>2022-01-07T09:23:09Z</time>
      </trkpt>
      <trkpt lat="45.8687" lon="6.51296">
        <ele>1294.4</ele>
        <time>2022-01-07T09:23:12Z</time>
      </trkpt>
      <trkpt lat="45.86871" lon="6.51297">
        <ele>1294.4</ele>
        <time>2022-01-07T09:23:14Z</time>
      </trkpt>
      <trkpt lat="45.86873" lon="6.51299">
        <ele>1294.4</ele>
        <time>2022-01-07T09:23:16Z</time>
      </trkpt>
      <trkpt lat="45.86874" lon="6.51302">
        <ele>1295.8</ele>
        <time>2022-01-07T09:23:19Z</time>
      </trkpt>
      <trkpt lat="45.86875" lon="6.51305">
        <ele>1295.8</ele>
        <time>2022-01-07T09:23:22Z</time>
      </trkpt>
      <trkpt lat="45.86876" lon="6.51308">
        <ele>1295.8</ele>
        <time>2022-01-07T09:23:25Z</time>
      </trkpt>
      <trkpt lat="45.86877" lon="6.51311">
        <ele>1295.8</ele>
        <time>2022-01-07T09:23:28Z</time>
      </trkpt>
      <trkpt lat="45.86878" lon="6.51314">
        <ele>1295.8</ele>
        <time>2022-01-07T09:23:31Z</time>
      </trkpt>
      <trkpt lat="45.86879" lon="6.51316">
        <ele>1295.8</ele>
        <time>2022-01-07T09:23:34Z</time>
      </trkpt>
      <trkpt lat="45.8688" lon="6.5132">
        <ele>1295.8</ele>
        <time>2022-01-07T09:23:37Z</time>
      </trkpt>
      <trkpt lat="45.86881" lon="6.51322">
        <ele>1299</ele>
        <time>2022-01-07T09:23:39Z</time>
      </trkpt>
      <trkpt lat="45.86882" lon="6.51325">
        <ele>1299</ele>
        <time>2022-01-07T09:23:42Z</time>
      </trkpt>
      <trkpt lat="45.86883" lon="6.51328">
        <ele>1299</ele>
        <time>2022-01-07T09:23:45Z</time>
      </trkpt>
      <trkpt lat="45.86883" lon="6.5133">
        <ele>1299</ele>
        <time>2022-01-07T09:23:48Z</time>
      </trkpt>
      <trkpt lat="45.86884" lon="6.51333">
        <ele>1299</ele>
        <time>2022-01-07T09:23:51Z</time>
      </trkpt>
      <trkpt lat="45.86885" lon="6.51335">
        <ele>1299</ele>
        <time>2022-01-07T09:23:53Z</time>
      </trkpt>
      <trkpt lat="45.86887" lon="6.51339">
        <ele>1299</ele>
        <time>2022-01-07T09:23:56Z</time>
      </trkpt>
      <trkpt lat="45.86888" lon="6.51342">
        <ele>1302.6</ele>
        <time>2022-01-07T09:23:59Z</time>
      </trkpt>
      <trkpt lat="45.86889" lon="6.51345">
        <ele>1302.6</ele>
        <time>2022-01-07T09:24:02Z</time>
      </trkpt>
      <trkpt lat="45.8689" lon="6.51348">
        <ele>1302.6</ele>
        <time>2022-01-07T09:24:05Z</time>
      </trkpt>
      <trkpt lat="45.86891" lon="6.5135">
        <ele>1302.6</ele>
        <time>2022-01-07T09:24:08Z</time>
      </trkpt>
      <trkpt lat="45.86891" lon="6.51354">
        <ele>1302.6</ele>
        <time>2022-01-07T09:24:12Z</time>
      </trkpt>
      <trkpt lat="45.86892" lon="6.51356">
        <ele>1302.6</ele>
        <time>2022-01-07T09:24:15Z</time>
      </trkpt>
      <trkpt lat="45.86893" lon="6.51359">
        <ele>1307</ele>
        <time>2022-01-07T09:24:19Z</time>
      </trkpt>
      <trkpt lat="45.86893" lon="6.51362">
        <ele>1307</ele>
        <time>2022-01-07T09:24:21Z</time>
      </trkpt>
      <trkpt lat="45.86892" lon="6.51366">
        <ele>1307</ele>
        <time>2022-01-07T09:24:24Z</time>
      </trkpt>
      <trkpt lat="45.86891" lon="6.51369">
        <ele>1307</ele>
        <time>2022-01-07T09:24:27Z</time>
      </trkpt>
      <trkpt lat="45.8689" lon="6.51371">
        <ele>1309.2</ele>
        <time>2022-01-07T09:24:29Z</time>
      </trkpt>
      <trkpt lat="45.8689" lon="6.51375">
        <ele>1309.2</ele>
        <time>2022-01-07T09:24:32Z</time>
      </trkpt>
      <trkpt lat="45.86888" lon="6.51377">
        <ele>1309.2</ele>
        <time>2022-01-07T09:24:36Z</time>
      </trkpt>
      <trkpt lat="45.86886" lon="6.51379">
        <ele>1309.2</ele>
        <time>2022-01-07T09:24:38Z</time>
      </trkpt>
      <trkpt lat="45.86884" lon="6.5138">
        <ele>1309.2</ele>
        <time>2022-01-07T09:24:42Z</time>
      </trkpt>
      <trkpt lat="45.86881" lon="6.51381">
        <ele>1309.2</ele>
        <time>2022-01-07T09:24:45Z</time>
      </trkpt>
      <trkpt lat="45.86878" lon="6.51382">
        <ele>1309.2</ele>
        <time>2022-01-07T09:24:48Z</time>
      </trkpt>
      <trkpt lat="45.86876" lon="6.51383">
        <ele>1309.2</ele>
        <time>2022-01-07T09:24:52Z</time>
      </trkpt>
      <trkpt lat="45.86874" lon="6.51383">
        <ele>1309.2</ele>
        <time>2022-01-07T09:24:54Z</time>
      </trkpt>
      <trkpt lat="45.86871" lon="6.51384">
        <ele>1314.8</ele>
        <time>2022-01-07T09:24:59Z</time>
      </trkpt>
      <trkpt lat="45.86869" lon="6.51384">
        <ele>1314.8</ele>
        <time>2022-01-07T09:25:02Z</time>
      </trkpt>
      <trkpt lat="45.86868" lon="6.51386">
        <ele>1314.8</ele>
        <time>2022-01-07T09:25:11Z</time>
      </trkpt>
      <trkpt lat="45.86867" lon="6.51388">
        <ele>1314.8</ele>
        <time>2022-01-07T09:25:14Z</time>
      </trkpt>
      <trkpt lat="45.86865" lon="6.51391">
        <ele>1314.8</ele>
        <time>2022-01-07T09:25:16Z</time>
      </trkpt>
      <trkpt lat="45.86865" lon="6.51393">
        <ele>1318.6</ele>
        <time>2022-01-07T09:25:19Z</time>
      </trkpt>
      <trkpt lat="45.86866" lon="6.51397">
        <ele>1318.6</ele>
        <time>2022-01-07T09:25:22Z</time>
      </trkpt>
      <trkpt lat="45.86865" lon="6.514">
        <ele>1318.6</ele>
        <time>2022-01-07T09:25:25Z</time>
      </trkpt>
      <trkpt lat="45.86865" lon="6.51402">
        <ele>1318.6</ele>
        <time>2022-01-07T09:25:28Z</time>
      </trkpt>
      <trkpt lat="45.86864" lon="6.51405">
        <ele>1318.6</ele>
        <time>2022-01-07T09:25:31Z</time>
      </trkpt>
      <trkpt lat="45.86863" lon="6.51408">
        <ele>1318.6</ele>
        <time>2022-01-07T09:25:34Z</time>
      </trkpt>
      <trkpt lat="45.86863" lon="6.51411">
        <ele>1318.6</ele>
        <time>2022-01-07T09:25:37Z</time>
      </trkpt>
      <trkpt lat="45.86862" lon="6.51414">
        <ele>1318.6</ele>
        <time>2022-01-07T09:25:40Z</time>
      </trkpt>
      <trkpt lat="45.8686" lon="6.51417">
        <ele>1318.6</ele>
        <time>2022-01-07T09:25:44Z</time>
      </trkpt>
      <trkpt lat="45.86859" lon="6.5142">
        <ele>1318.6</ele>
        <time>2022-01-07T09:25:47Z</time>
      </trkpt>
      <trkpt lat="45.86858" lon="6.51421">
        <ele>1318.6</ele>
        <time>2022-01-07T09:25:48Z</time>
      </trkpt>
      <trkpt lat="45.86856" lon="6.51423">
        <ele>1318.6</ele>
        <time>2022-01-07T09:25:50Z</time>
      </trkpt>
      <trkpt lat="45.86854" lon="6.51425">
        <ele>1318.6</ele>
        <time>2022-01-07T09:25:53Z</time>
      </trkpt>
      <trkpt lat="45.86852" lon="6.51426">
        <ele>1318.6</ele>
        <time>2022-01-07T09:25:56Z</time>
      </trkpt>
      <trkpt lat="45.8685" lon="6.51425">
        <ele>1318.6</ele>
        <time>2022-01-07T09:26:00Z</time>
      </trkpt>
      <trkpt lat="45.86848" lon="6.51424">
        <ele>1318.6</ele>
        <time>2022-01-07T09:26:03Z</time>
      </trkpt>
      <trkpt lat="45.86845" lon="6.51426">
        <ele>1318.6</ele>
        <time>2022-01-07T09:26:06Z</time>
      </trkpt>
      <trkpt lat="45.86844" lon="6.51425">
        <ele>1318.6</ele>
        <time>2022-01-07T09:26:08Z</time>
      </trkpt>
      <trkpt lat="45.86841" lon="6.51424">
        <ele>1318.6</ele>
        <time>2022-01-07T09:26:10Z</time>
      </trkpt>
      <trkpt lat="45.86838" lon="6.51425">
        <ele>1318.6</ele>
        <time>2022-01-07T09:26:12Z</time>
      </trkpt>
      <trkpt lat="45.86837" lon="6.51423">
        <ele>1318.6</ele>
        <time>2022-01-07T09:26:15Z</time>
      </trkpt>
      <trkpt lat="45.86836" lon="6.51419">
        <ele>1318.6</ele>
        <time>2022-01-07T09:26:18Z</time>
      </trkpt>
      <trkpt lat="45.86835" lon="6.51416">
        <ele>1318.6</ele>
        <time>2022-01-07T09:26:21Z</time>
      </trkpt>
      <trkpt lat="45.86833" lon="6.51414">
        <ele>1318.6</ele>
        <time>2022-01-07T09:26:24Z</time>
      </trkpt>
      <trkpt lat="45.86833" lon="6.5141">
        <ele>1318.6</ele>
        <time>2022-01-07T09:26:27Z</time>
      </trkpt>
      <trkpt lat="45.86832" lon="6.51407">
        <ele>1318.6</ele>
        <time>2022-01-07T09:26:30Z</time>
      </trkpt>
      <trkpt lat="45.8683" lon="6.51405">
        <ele>1318.6</ele>
        <time>2022-01-07T09:26:33Z</time>
      </trkpt>
      <trkpt lat="45.86828" lon="6.51404">
        <ele>1318.6</ele>
        <time>2022-01-07T09:26:35Z</time>
      </trkpt>
      <trkpt lat="45.86826" lon="6.51404">
        <ele>1318.6</ele>
        <time>2022-01-07T09:26:37Z</time>
      </trkpt>
      <trkpt lat="45.86824" lon="6.51402">
        <ele>1318.6</ele>
        <time>2022-01-07T09:26:40Z</time>
      </trkpt>
      <trkpt lat="45.86823" lon="6.514">
        <ele>1318.6</ele>
        <time>2022-01-07T09:26:42Z</time>
      </trkpt>
      <trkpt lat="45.86821" lon="6.51398">
        <ele>1318.6</ele>
        <time>2022-01-07T09:26:44Z</time>
      </trkpt>
      <trkpt lat="45.86819" lon="6.51397">
        <ele>1318.6</ele>
        <time>2022-01-07T09:26:46Z</time>
      </trkpt>
      <trkpt lat="45.86817" lon="6.51395">
        <ele>1335</ele>
        <time>2022-01-07T09:26:49Z</time>
      </trkpt>
      <trkpt lat="45.86818" lon="6.51393">
        <ele>1335</ele>
        <time>2022-01-07T09:26:50Z</time>
      </trkpt>
      <trkpt lat="45.86816" lon="6.5139">
        <ele>1335</ele>
        <time>2022-01-07T09:26:53Z</time>
      </trkpt>
      <trkpt lat="45.86814" lon="6.5139">
        <ele>1335</ele>
        <time>2022-01-07T09:26:55Z</time>
      </trkpt>
      <trkpt lat="45.86812" lon="6.51389">
        <ele>1335</ele>
        <time>2022-01-07T09:26:57Z</time>
      </trkpt>
      <trkpt lat="45.8681" lon="6.51388">
        <ele>1335</ele>
        <time>2022-01-07T09:27:00Z</time>
      </trkpt>
      <trkpt lat="45.86809" lon="6.51385">
        <ele>1335</ele>
        <time>2022-01-07T09:27:03Z</time>
      </trkpt>
      <trkpt lat="45.86807" lon="6.51384">
        <ele>1335</ele>
        <time>2022-01-07T09:27:06Z</time>
      </trkpt>
      <trkpt lat="45.86804" lon="6.51383">
        <ele>1337.4</ele>
        <time>2022-01-07T09:27:09Z</time>
      </trkpt>
      <trkpt lat="45.86802" lon="6.5138">
        <ele>1337.4</ele>
        <time>2022-01-07T09:27:13Z</time>
      </trkpt>
      <trkpt lat="45.86802" lon="6.51377">
        <ele>1337.4</ele>
        <time>2022-01-07T09:27:16Z</time>
      </trkpt>
      <trkpt lat="45.86799" lon="6.51376">
        <ele>1339.8</ele>
        <time>2022-01-07T09:27:19Z</time>
      </trkpt>
      <trkpt lat="45.86796" lon="6.51375">
        <ele>1339.8</ele>
        <time>2022-01-07T09:27:23Z</time>
      </trkpt>
      <trkpt lat="45.86794" lon="6.51374">
        <ele>1339.8</ele>
        <time>2022-01-07T09:27:26Z</time>
      </trkpt>
      <trkpt lat="45.86792" lon="6.51374">
        <ele>1339.8</ele>
        <time>2022-01-07T09:27:28Z</time>
      </trkpt>
      <trkpt lat="45.8679" lon="6.51372">
        <ele>1339.8</ele>
        <time>2022-01-07T09:27:31Z</time>
      </trkpt>
      <trkpt lat="45.86788" lon="6.51372">
        <ele>1339.8</ele>
        <time>2022-01-07T09:27:34Z</time>
      </trkpt>
      <trkpt lat="45.86785" lon="6.51371">
        <ele>1339.8</ele>
        <time>2022-01-07T09:27:37Z</time>
      </trkpt>
      <trkpt lat="45.86784" lon="6.51369">
        <ele>1339.8</ele>
        <time>2022-01-07T09:27:41Z</time>
      </trkpt>
      <trkpt lat="45.86782" lon="6.51366">
        <ele>1339.8</ele>
        <time>2022-01-07T09:27:43Z</time>
      </trkpt>
      <trkpt lat="45.8678" lon="6.51363">
        <ele>1339.8</ele>
        <time>2022-01-07T09:27:45Z</time>
      </trkpt>
      <trkpt lat="45.8678" lon="6.5136">
        <ele>1345</ele>
        <time>2022-01-07T09:27:49Z</time>
      </trkpt>
      <trkpt lat="45.86778" lon="6.51358">
        <ele>1345</ele>
        <time>2022-01-07T09:27:53Z</time>
      </trkpt>
      <trkpt lat="45.86776" lon="6.51356">
        <ele>1345</ele>
        <time>2022-01-07T09:27:58Z</time>
      </trkpt>
      <trkpt lat="45.86774" lon="6.51355">
        <ele>1345</ele>
        <time>2022-01-07T09:28:01Z</time>
      </trkpt>
      <trkpt lat="45.86772" lon="6.51354">
        <ele>1345</ele>
        <time>2022-01-07T09:28:04Z</time>
      </trkpt>
      <trkpt lat="45.8677" lon="6.51352">
        <ele>1345</ele>
        <time>2022-01-07T09:28:06Z</time>
      </trkpt>
      <trkpt lat="45.86769" lon="6.51351">
        <ele>1345</ele>
        <time>2022-01-07T09:28:08Z</time>
      </trkpt>
      <trkpt lat="45.86769" lon="6.51347">
        <ele>1345</ele>
        <time>2022-01-07T09:28:12Z</time>
      </trkpt>
      <trkpt lat="45.8677" lon="6.51344">
        <ele>1345</ele>
        <time>2022-01-07T09:28:15Z</time>
      </trkpt>
      <trkpt lat="45.8677" lon="6.51341">
        <ele>1350.6</ele>
        <time>2022-01-07T09:28:19Z</time>
      </trkpt>
      <trkpt lat="45.86769" lon="6.51339">
        <ele>1350.6</ele>
        <time>2022-01-07T09:28:22Z</time>
      </trkpt>
      <trkpt lat="45.86767" lon="6.51336">
        <ele>1350.6</ele>
        <time>2022-01-07T09:28:25Z</time>
      </trkpt>
      <trkpt lat="45.86764" lon="6.51336">
        <ele>1350.6</ele>
        <time>2022-01-07T09:28:27Z</time>
      </trkpt>
      <trkpt lat="45.86763" lon="6.51333">
        <ele>1350.6</ele>
        <time>2022-01-07T09:28:30Z</time>
      </trkpt>
      <trkpt lat="45.86762" lon="6.51331">
        <ele>1350.6</ele>
        <time>2022-01-07T09:28:33Z</time>
      </trkpt>
      <trkpt lat="45.8676" lon="6.51329">
        <ele>1350.6</ele>
        <time>2022-01-07T09:28:35Z</time>
      </trkpt>
      <trkpt lat="45.86758" lon="6.51328">
        <ele>1350.6</ele>
        <time>2022-01-07T09:28:38Z</time>
      </trkpt>
      <trkpt lat="45.86756" lon="6.51326">
        <ele>1350.6</ele>
        <time>2022-01-07T09:28:41Z</time>
      </trkpt>
      <trkpt lat="45.86754" lon="6.51324">
        <ele>1350.6</ele>
        <time>2022-01-07T09:28:44Z</time>
      </trkpt>
      <trkpt lat="45.86751" lon="6.51323">
        <ele>1350.6</ele>
        <time>2022-01-07T09:28:46Z</time>
      </trkpt>
      <trkpt lat="45.86749" lon="6.51322">
        <ele>1356.2</ele>
        <time>2022-01-07T09:28:49Z</time>
      </trkpt>
      <trkpt lat="45.86747" lon="6.51321">
        <ele>1356.2</ele>
        <time>2022-01-07T09:28:54Z</time>
      </trkpt>
      <trkpt lat="45.86745" lon="6.5132">
        <ele>1356.2</ele>
        <time>2022-01-07T09:28:56Z</time>
      </trkpt>
      <trkpt lat="45.86743" lon="6.5132">
        <ele>1358.2</ele>
        <time>2022-01-07T09:28:59Z</time>
      </trkpt>
      <trkpt lat="45.86741" lon="6.51321">
        <ele>1358.2</ele>
        <time>2022-01-07T09:29:01Z</time>
      </trkpt>
      <trkpt lat="45.86739" lon="6.5132">
        <ele>1358.2</ele>
        <time>2022-01-07T09:29:07Z</time>
      </trkpt>
      <trkpt lat="45.86736" lon="6.5132">
        <ele>1360.4</ele>
        <time>2022-01-07T09:29:09Z</time>
      </trkpt>
      <trkpt lat="45.86732" lon="6.51321">
        <ele>1360.4</ele>
        <time>2022-01-07T09:29:11Z</time>
      </trkpt>
      <trkpt lat="45.86731" lon="6.51321">
        <ele>1360.4</ele>
        <time>2022-01-07T09:29:13Z</time>
      </trkpt>
      <trkpt lat="45.86728" lon="6.5132">
        <ele>1360.4</ele>
        <time>2022-01-07T09:29:15Z</time>
      </trkpt>
      <trkpt lat="45.86726" lon="6.51319">
        <ele>1360.4</ele>
        <time>2022-01-07T09:29:17Z</time>
      </trkpt>
      <trkpt lat="45.86724" lon="6.51318">
        <ele>1360.4</ele>
        <time>2022-01-07T09:29:26Z</time>
      </trkpt>
      <trkpt lat="45.86723" lon="6.51316">
        <ele>1360.4</ele>
        <time>2022-01-07T09:30:46Z</time>
      </trkpt>
      <trkpt lat="45.86721" lon="6.51314">
        <ele>1360.4</ele>
        <time>2022-01-07T09:30:47Z</time>
      </trkpt>
      <trkpt lat="45.86719" lon="6.51313">
        <ele>1360.4</ele>
        <time>2022-01-07T09:30:48Z</time>
      </trkpt>
      <trkpt lat="45.86718" lon="6.51311">
        <ele>1361.4</ele>
        <time>2022-01-07T09:30:49Z</time>
      </trkpt>
      <trkpt lat="45.86716" lon="6.51308">
        <ele>1361.4</ele>
        <time>2022-01-07T09:30:50Z</time>
      </trkpt>
      <trkpt lat="45.86715" lon="6.51305">
        <ele>1361.4</ele>
        <time>2022-01-07T09:30:51Z</time>
      </trkpt>
      <trkpt lat="45.86712" lon="6.51303">
        <ele>1361.4</ele>
        <time>2022-01-07T09:30:52Z</time>
      </trkpt>
      <trkpt lat="45.86709" lon="6.51301">
        <ele>1361.4</ele>
        <time>2022-01-07T09:30:53Z</time>
      </trkpt>
      <trkpt lat="45.86708" lon="6.51297">
        <ele>1361.4</ele>
        <time>2022-01-07T09:30:54Z</time>
      </trkpt>
      <trkpt lat="45.86706" lon="6.51293">
        <ele>1361.4</ele>
        <time>2022-01-07T09:30:55Z</time>
      </trkpt>
      <trkpt lat="45.86705" lon="6.51291">
        <ele>1361.4</ele>
        <time>2022-01-07T09:30:56Z</time>
      </trkpt>
      <trkpt lat="45.86704" lon="6.51287">
        <ele>1361.4</ele>
        <time>2022-01-07T09:30:58Z</time>
      </trkpt>
      <trkpt lat="45.86705" lon="6.51283">
        <ele>1361.4</ele>
        <time>2022-01-07T09:31:00Z</time>
      </trkpt>
      <trkpt lat="45.86705" lon="6.51279">
        <ele>1361.4</ele>
        <time>2022-01-07T09:31:02Z</time>
      </trkpt>
      <trkpt lat="45.86705" lon="6.51276">
        <ele>1361.4</ele>
        <time>2022-01-07T09:31:04Z</time>
      </trkpt>
      <trkpt lat="45.86705" lon="6.51273">
        <ele>1361.4</ele>
        <time>2022-01-07T09:31:06Z</time>
      </trkpt>
      <trkpt lat="45.86704" lon="6.51269">
        <ele>1361.4</ele>
        <time>2022-01-07T09:31:08Z</time>
      </trkpt>
      <trkpt lat="45.86704" lon="6.51266">
        <ele>1361.4</ele>
        <time>2022-01-07T09:31:10Z</time>
      </trkpt>
      <trkpt lat="45.86704" lon="6.51262">
        <ele>1361.4</ele>
        <time>2022-01-07T09:31:12Z</time>
      </trkpt>
      <trkpt lat="45.86703" lon="6.51259">
        <ele>1361.4</ele>
        <time>2022-01-07T09:31:14Z</time>
      </trkpt>
      <trkpt lat="45.86703" lon="6.51256">
        <ele>1361.4</ele>
        <time>2022-01-07T09:31:16Z</time>
      </trkpt>
      <trkpt lat="45.86702" lon="6.51253">
        <ele>1361.4</ele>
        <time>2022-01-07T09:31:18Z</time>
      </trkpt>
      <trkpt lat="45.86702" lon="6.5125">
        <ele>1361.4</ele>
        <time>2022-01-07T09:31:20Z</time>
      </trkpt>
      <trkpt lat="45.86702" lon="6.51247">
        <ele>1361.4</ele>
        <time>2022-01-07T09:31:23Z</time>
      </trkpt>
      <trkpt lat="45.86701" lon="6.51244">
        <ele>1361.4</ele>
        <time>2022-01-07T09:31:25Z</time>
      </trkpt>
      <trkpt lat="45.86701" lon="6.5124">
        <ele>1361.4</ele>
        <time>2022-01-07T09:31:27Z</time>
      </trkpt>
      <trkpt lat="45.86701" lon="6.51237">
        <ele>1365.8</ele>
        <time>2022-01-07T09:31:29Z</time>
      </trkpt>
      <trkpt lat="45.867" lon="6.51234">
        <ele>1365.8</ele>
        <time>2022-01-07T09:31:31Z</time>
      </trkpt>
      <trkpt lat="45.86699" lon="6.51231">
        <ele>1365.8</ele>
        <time>2022-01-07T09:31:33Z</time>
      </trkpt>
      <trkpt lat="45.86697" lon="6.5123">
        <ele>1365.8</ele>
        <time>2022-01-07T09:31:35Z</time>
      </trkpt>
      <trkpt lat="45.86695" lon="6.51231">
        <ele>1365.8</ele>
        <time>2022-01-07T09:31:38Z</time>
      </trkpt>
      <trkpt lat="45.86694" lon="6.51227">
        <ele>1365.8</ele>
        <time>2022-01-07T09:33:07Z</time>
      </trkpt>
      <trkpt lat="45.86693" lon="6.51225">
        <ele>1368.6</ele>
        <time>2022-01-07T09:33:09Z</time>
      </trkpt>
      <trkpt lat="45.86691" lon="6.51223">
        <ele>1368.6</ele>
        <time>2022-01-07T09:33:11Z</time>
      </trkpt>
      <trkpt lat="45.86689" lon="6.51221">
        <ele>1368.6</ele>
        <time>2022-01-07T09:33:13Z</time>
      </trkpt>
      <trkpt lat="45.86688" lon="6.51218">
        <ele>1368.6</ele>
        <time>2022-01-07T09:33:15Z</time>
      </trkpt>
      <trkpt lat="45.86687" lon="6.51215">
        <ele>1368.6</ele>
        <time>2022-01-07T09:33:17Z</time>
      </trkpt>
      <trkpt lat="45.86685" lon="6.51213">
        <ele>1368.6</ele>
        <time>2022-01-07T09:33:20Z</time>
      </trkpt>
      <trkpt lat="45.86684" lon="6.51209">
        <ele>1368.6</ele>
        <time>2022-01-07T09:33:23Z</time>
      </trkpt>
      <trkpt lat="45.86683" lon="6.51206">
        <ele>1368.6</ele>
        <time>2022-01-07T09:33:26Z</time>
      </trkpt>
      <trkpt lat="45.86681" lon="6.51204">
        <ele>1372.6</ele>
        <time>2022-01-07T09:33:29Z</time>
      </trkpt>
      <trkpt lat="45.86679" lon="6.51201">
        <ele>1372.6</ele>
        <time>2022-01-07T09:33:32Z</time>
      </trkpt>
      <trkpt lat="45.86677" lon="6.51199">
        <ele>1372.6</ele>
        <time>2022-01-07T09:33:34Z</time>
      </trkpt>
      <trkpt lat="45.86676" lon="6.51196">
        <ele>1372.6</ele>
        <time>2022-01-07T09:33:37Z</time>
      </trkpt>
      <trkpt lat="45.86675" lon="6.51194">
        <ele>1372.6</ele>
        <time>2022-01-07T09:33:40Z</time>
      </trkpt>
      <trkpt lat="45.86673" lon="6.51192">
        <ele>1372.6</ele>
        <time>2022-01-07T09:33:43Z</time>
      </trkpt>
      <trkpt lat="45.86672" lon="6.51189">
        <ele>1372.6</ele>
        <time>2022-01-07T09:33:46Z</time>
      </trkpt>
      <trkpt lat="45.86669" lon="6.51187">
        <ele>1375.6</ele>
        <time>2022-01-07T09:33:49Z</time>
      </trkpt>
      <trkpt lat="45.86667" lon="6.51185">
        <ele>1375.6</ele>
        <time>2022-01-07T09:33:52Z</time>
      </trkpt>
      <trkpt lat="45.86665" lon="6.51182">
        <ele>1375.6</ele>
        <time>2022-01-07T09:33:55Z</time>
      </trkpt>
      <trkpt lat="45.86663" lon="6.51181">
        <ele>1375.6</ele>
        <time>2022-01-07T09:33:57Z</time>
      </trkpt>
      <trkpt lat="45.86661" lon="6.5118">
        <ele>1377.2</ele>
        <time>2022-01-07T09:33:59Z</time>
      </trkpt>
      <trkpt lat="45.8666" lon="6.51177">
        <ele>1377.2</ele>
        <time>2022-01-07T09:34:02Z</time>
      </trkpt>
      <trkpt lat="45.86658" lon="6.51175">
        <ele>1377.2</ele>
        <time>2022-01-07T09:34:04Z</time>
      </trkpt>
      <trkpt lat="45.86655" lon="6.51174">
        <ele>1377.2</ele>
        <time>2022-01-07T09:34:07Z</time>
      </trkpt>
      <trkpt lat="45.86653" lon="6.51172">
        <ele>1378.8</ele>
        <time>2022-01-07T09:34:09Z</time>
      </trkpt>
      <trkpt lat="45.86652" lon="6.51171">
        <ele>1378.8</ele>
        <time>2022-01-07T09:34:11Z</time>
      </trkpt>
      <trkpt lat="45.86649" lon="6.5117">
        <ele>1378.8</ele>
        <time>2022-01-07T09:34:13Z</time>
      </trkpt>
      <trkpt lat="45.86647" lon="6.5117">
        <ele>1378.8</ele>
        <time>2022-01-07T09:34:16Z</time>
      </trkpt>
      <trkpt lat="45.86644" lon="6.51169">
        <ele>1380.4</ele>
        <time>2022-01-07T09:34:19Z</time>
      </trkpt>
      <trkpt lat="45.86642" lon="6.51168">
        <ele>1380.4</ele>
        <time>2022-01-07T09:34:21Z</time>
      </trkpt>
      <trkpt lat="45.86639" lon="6.51166">
        <ele>1380.4</ele>
        <time>2022-01-07T09:34:24Z</time>
      </trkpt>
      <trkpt lat="45.86637" lon="6.51164">
        <ele>1380.4</ele>
        <time>2022-01-07T09:34:27Z</time>
      </trkpt>
      <trkpt lat="45.86635" lon="6.51163">
        <ele>1381.6</ele>
        <time>2022-01-07T09:34:29Z</time>
      </trkpt>
      <trkpt lat="45.86633" lon="6.51161">
        <ele>1381.6</ele>
        <time>2022-01-07T09:34:32Z</time>
      </trkpt>
      <trkpt lat="45.86631" lon="6.51161">
        <ele>1381.6</ele>
        <time>2022-01-07T09:34:35Z</time>
      </trkpt>
      <trkpt lat="45.8663" lon="6.51159">
        <ele>1381.6</ele>
        <time>2022-01-07T09:34:44Z</time>
      </trkpt>
      <trkpt lat="45.86628" lon="6.51158">
        <ele>1381.6</ele>
        <time>2022-01-07T09:35:25Z</time>
      </trkpt>
      <trkpt lat="45.86626" lon="6.51157">
        <ele>1381.6</ele>
        <time>2022-01-07T09:35:26Z</time>
      </trkpt>
      <trkpt lat="45.86625" lon="6.51155">
        <ele>1381.6</ele>
        <time>2022-01-07T09:35:28Z</time>
      </trkpt>
      <trkpt lat="45.86623" lon="6.51152">
        <ele>1381.6</ele>
        <time>2022-01-07T09:35:30Z</time>
      </trkpt>
      <trkpt lat="45.86621" lon="6.5115">
        <ele>1381.6</ele>
        <time>2022-01-07T09:35:32Z</time>
      </trkpt>
      <trkpt lat="45.86619" lon="6.51148">
        <ele>1381.6</ele>
        <time>2022-01-07T09:35:34Z</time>
      </trkpt>
      <trkpt lat="45.86617" lon="6.51146">
        <ele>1381.6</ele>
        <time>2022-01-07T09:35:36Z</time>
      </trkpt>
      <trkpt lat="45.86615" lon="6.51143">
        <ele>1381.6</ele>
        <time>2022-01-07T09:35:38Z</time>
      </trkpt>
      <trkpt lat="45.86613" lon="6.51141">
        <ele>1384.6</ele>
        <time>2022-01-07T09:35:39Z</time>
      </trkpt>
      <trkpt lat="45.86612" lon="6.51138">
        <ele>1384.6</ele>
        <time>2022-01-07T09:35:41Z</time>
      </trkpt>
      <trkpt lat="45.8661" lon="6.51136">
        <ele>1384.6</ele>
        <time>2022-01-07T09:35:46Z</time>
      </trkpt>
      <trkpt lat="45.86607" lon="6.51134">
        <ele>1384.4</ele>
        <time>2022-01-07T09:35:49Z</time>
      </trkpt>
      <trkpt lat="45.86605" lon="6.51134">
        <ele>1384.4</ele>
        <time>2022-01-07T09:35:51Z</time>
      </trkpt>
      <trkpt lat="45.86604" lon="6.51133">
        <ele>1384.4</ele>
        <time>2022-01-07T09:35:53Z</time>
      </trkpt>
      <trkpt lat="45.86601" lon="6.51132">
        <ele>1384.4</ele>
        <time>2022-01-07T09:35:55Z</time>
      </trkpt>
      <trkpt lat="45.866" lon="6.5113">
        <ele>1384.4</ele>
        <time>2022-01-07T09:35:57Z</time>
      </trkpt>
      <trkpt lat="45.86598" lon="6.51128">
        <ele>1384.4</ele>
        <time>2022-01-07T09:36:00Z</time>
      </trkpt>
      <trkpt lat="45.86597" lon="6.51126">
        <ele>1384.4</ele>
        <time>2022-01-07T09:36:02Z</time>
      </trkpt>
      <trkpt lat="45.86595" lon="6.51124">
        <ele>1384.4</ele>
        <time>2022-01-07T09:36:04Z</time>
      </trkpt>
      <trkpt lat="45.86593" lon="6.51123">
        <ele>1384.4</ele>
        <time>2022-01-07T09:36:06Z</time>
      </trkpt>
      <trkpt lat="45.86591" lon="6.51122">
        <ele>1386.2</ele>
        <time>2022-01-07T09:36:09Z</time>
      </trkpt>
      <trkpt lat="45.86589" lon="6.5112">
        <ele>1386.2</ele>
        <time>2022-01-07T09:36:11Z</time>
      </trkpt>
      <trkpt lat="45.86588" lon="6.51118">
        <ele>1386.2</ele>
        <time>2022-01-07T09:36:13Z</time>
      </trkpt>
      <trkpt lat="45.86587" lon="6.51115">
        <ele>1386.2</ele>
        <time>2022-01-07T09:36:15Z</time>
      </trkpt>
      <trkpt lat="45.86586" lon="6.51112">
        <ele>1386.2</ele>
        <time>2022-01-07T09:36:17Z</time>
      </trkpt>
      <trkpt lat="45.86584" lon="6.5111">
        <ele>1386.2</ele>
        <time>2022-01-07T09:36:20Z</time>
      </trkpt>
      <trkpt lat="45.86582" lon="6.51107">
        <ele>1386.2</ele>
        <time>2022-01-07T09:36:23Z</time>
      </trkpt>
      <trkpt lat="45.86581" lon="6.51104">
        <ele>1386.2</ele>
        <time>2022-01-07T09:36:25Z</time>
      </trkpt>
      <trkpt lat="45.8658" lon="6.51102">
        <ele>1386.2</ele>
        <time>2022-01-07T09:36:27Z</time>
      </trkpt>
      <trkpt lat="45.86579" lon="6.51099">
        <ele>1388</ele>
        <time>2022-01-07T09:36:29Z</time>
      </trkpt>
      <trkpt lat="45.86578" lon="6.51097">
        <ele>1388</ele>
        <time>2022-01-07T09:36:31Z</time>
      </trkpt>
      <trkpt lat="45.86577" lon="6.51094">
        <ele>1388</ele>
        <time>2022-01-07T09:36:33Z</time>
      </trkpt>
      <trkpt lat="45.86575" lon="6.51091">
        <ele>1388</ele>
        <time>2022-01-07T09:36:36Z</time>
      </trkpt>
      <trkpt lat="45.86575" lon="6.51088">
        <ele>1388</ele>
        <time>2022-01-07T09:36:38Z</time>
      </trkpt>
      <trkpt lat="45.86573" lon="6.51087">
        <ele>1388</ele>
        <time>2022-01-07T09:36:40Z</time>
      </trkpt>
      <trkpt lat="45.86571" lon="6.51086">
        <ele>1388</ele>
        <time>2022-01-07T09:36:42Z</time>
      </trkpt>
      <trkpt lat="45.86569" lon="6.51086">
        <ele>1388</ele>
        <time>2022-01-07T09:36:44Z</time>
      </trkpt>
      <trkpt lat="45.86567" lon="6.51083">
        <ele>1388</ele>
        <time>2022-01-07T09:36:46Z</time>
      </trkpt>
      <trkpt lat="45.86565" lon="6.51082">
        <ele>1388</ele>
        <time>2022-01-07T09:36:48Z</time>
      </trkpt>
      <trkpt lat="45.86564" lon="6.51078">
        <ele>1388</ele>
        <time>2022-01-07T09:36:51Z</time>
      </trkpt>
      <trkpt lat="45.86562" lon="6.51076">
        <ele>1388</ele>
        <time>2022-01-07T09:36:53Z</time>
      </trkpt>
      <trkpt lat="45.8656" lon="6.51074">
        <ele>1388</ele>
        <time>2022-01-07T09:36:55Z</time>
      </trkpt>
      <trkpt lat="45.86558" lon="6.51072">
        <ele>1388</ele>
        <time>2022-01-07T09:36:57Z</time>
      </trkpt>
      <trkpt lat="45.86556" lon="6.51071">
        <ele>1388</ele>
        <time>2022-01-07T09:36:58Z</time>
      </trkpt>
      <trkpt lat="45.86554" lon="6.51072">
        <ele>1391</ele>
        <time>2022-01-07T09:36:59Z</time>
      </trkpt>
      <trkpt lat="45.86552" lon="6.51072">
        <ele>1391</ele>
        <time>2022-01-07T09:37:01Z</time>
      </trkpt>
      <trkpt lat="45.8655" lon="6.51072">
        <ele>1391</ele>
        <time>2022-01-07T09:37:03Z</time>
      </trkpt>
      <trkpt lat="45.86548" lon="6.5107">
        <ele>1391</ele>
        <time>2022-01-07T09:37:05Z</time>
      </trkpt>
      <trkpt lat="45.86546" lon="6.51069">
        <ele>1391</ele>
        <time>2022-01-07T09:37:07Z</time>
      </trkpt>
      <trkpt lat="45.86545" lon="6.51067">
        <ele>1391</ele>
        <time>2022-01-07T09:37:10Z</time>
      </trkpt>
      <trkpt lat="45.86543" lon="6.51065">
        <ele>1391</ele>
        <time>2022-01-07T09:37:13Z</time>
      </trkpt>
      <trkpt lat="45.86542" lon="6.51063">
        <ele>1391</ele>
        <time>2022-01-07T09:37:15Z</time>
      </trkpt>
      <trkpt lat="45.8654" lon="6.51061">
        <ele>1391</ele>
        <time>2022-01-07T09:37:18Z</time>
      </trkpt>
      <trkpt lat="45.86538" lon="6.5106">
        <ele>1391</ele>
        <time>2022-01-07T09:37:20Z</time>
      </trkpt>
      <trkpt lat="45.86536" lon="6.51058">
        <ele>1391</ele>
        <time>2022-01-07T09:37:22Z</time>
      </trkpt>
      <trkpt lat="45.86534" lon="6.51057">
        <ele>1391</ele>
        <time>2022-01-07T09:37:24Z</time>
      </trkpt>
      <trkpt lat="45.86533" lon="6.51055">
        <ele>1391</ele>
        <time>2022-01-07T09:37:27Z</time>
      </trkpt>
      <trkpt lat="45.86531" lon="6.51053">
        <ele>1391</ele>
        <time>2022-01-07T09:37:30Z</time>
      </trkpt>
      <trkpt lat="45.86529" lon="6.51053">
        <ele>1391</ele>
        <time>2022-01-07T09:37:32Z</time>
      </trkpt>
      <trkpt lat="45.86527" lon="6.51052">
        <ele>1391</ele>
        <time>2022-01-07T09:37:34Z</time>
      </trkpt>
      <trkpt lat="45.86524" lon="6.51051">
        <ele>1391</ele>
        <time>2022-01-07T09:37:37Z</time>
      </trkpt>
      <trkpt lat="45.86523" lon="6.5105">
        <ele>1395.6</ele>
        <time>2022-01-07T09:37:39Z</time>
      </trkpt>
      <trkpt lat="45.8652" lon="6.51049">
        <ele>1395.6</ele>
        <time>2022-01-07T09:37:42Z</time>
      </trkpt>
      <trkpt lat="45.86518" lon="6.51048">
        <ele>1395.6</ele>
        <time>2022-01-07T09:37:45Z</time>
      </trkpt>
      <trkpt lat="45.86516" lon="6.51046">
        <ele>1395.6</ele>
        <time>2022-01-07T09:37:48Z</time>
      </trkpt>
      <trkpt lat="45.86514" lon="6.51045">
        <ele>1395.6</ele>
        <time>2022-01-07T09:37:51Z</time>
      </trkpt>
      <trkpt lat="45.86512" lon="6.51042">
        <ele>1395.6</ele>
        <time>2022-01-07T09:37:53Z</time>
      </trkpt>
      <trkpt lat="45.86511" lon="6.5104">
        <ele>1395.6</ele>
        <time>2022-01-07T09:37:56Z</time>
      </trkpt>
      <trkpt lat="45.86509" lon="6.5104">
        <ele>1395.6</ele>
        <time>2022-01-07T09:37:58Z</time>
      </trkpt>
      <trkpt lat="45.86507" lon="6.51038">
        <ele>1395.6</ele>
        <time>2022-01-07T09:38:01Z</time>
      </trkpt>
      <trkpt lat="45.86505" lon="6.51037">
        <ele>1395.6</ele>
        <time>2022-01-07T09:38:04Z</time>
      </trkpt>
      <trkpt lat="45.86503" lon="6.51035">
        <ele>1395.6</ele>
        <time>2022-01-07T09:38:07Z</time>
      </trkpt>
      <trkpt lat="45.865" lon="6.51034">
        <ele>1395.6</ele>
        <time>2022-01-07T09:38:11Z</time>
      </trkpt>
      <trkpt lat="45.86498" lon="6.51034">
        <ele>1395.6</ele>
        <time>2022-01-07T09:38:14Z</time>
      </trkpt>
      <trkpt lat="45.86496" lon="6.51033">
        <ele>1395.6</ele>
        <time>2022-01-07T09:38:17Z</time>
      </trkpt>
      <trkpt lat="45.86494" lon="6.51034">
        <ele>1402.6</ele>
        <time>2022-01-07T09:38:19Z</time>
      </trkpt>
      <trkpt lat="45.86492" lon="6.51035">
        <ele>1402.6</ele>
        <time>2022-01-07T09:38:22Z</time>
      </trkpt>
      <trkpt lat="45.8649" lon="6.51035">
        <ele>1402.6</ele>
        <time>2022-01-07T09:38:24Z</time>
      </trkpt>
      <trkpt lat="45.86488" lon="6.51037">
        <ele>1402.6</ele>
        <time>2022-01-07T09:38:26Z</time>
      </trkpt>
      <trkpt lat="45.86486" lon="6.51039">
        <ele>1402.6</ele>
        <time>2022-01-07T09:38:28Z</time>
      </trkpt>
      <trkpt lat="45.86484" lon="6.51041">
        <ele>1402.6</ele>
        <time>2022-01-07T09:38:30Z</time>
      </trkpt>
      <trkpt lat="45.86482" lon="6.51042">
        <ele>1402.6</ele>
        <time>2022-01-07T09:38:32Z</time>
      </trkpt>
      <trkpt lat="45.8648" lon="6.51044">
        <ele>1402.6</ele>
        <time>2022-01-07T09:38:34Z</time>
      </trkpt>
      <trkpt lat="45.8648" lon="6.51047">
        <ele>1402.6</ele>
        <time>2022-01-07T09:38:37Z</time>
      </trkpt>
      <trkpt lat="45.86479" lon="6.51049">
        <ele>1404.6</ele>
        <time>2022-01-07T09:38:39Z</time>
      </trkpt>
      <trkpt lat="45.86478" lon="6.51051">
        <ele>1404.6</ele>
        <time>2022-01-07T09:38:41Z</time>
      </trkpt>
      <trkpt lat="45.86477" lon="6.51054">
        <ele>1404.6</ele>
        <time>2022-01-07T09:38:44Z</time>
      </trkpt>
      <trkpt lat="45.86476" lon="6.51056">
        <ele>1404.6</ele>
        <time>2022-01-07T09:38:46Z</time>
      </trkpt>
      <trkpt lat="45.86475" lon="6.51059">
        <ele>1404.6</ele>
        <time>2022-01-07T09:38:48Z</time>
      </trkpt>
      <trkpt lat="45.86474" lon="6.51062">
        <ele>1404.6</ele>
        <time>2022-01-07T09:38:50Z</time>
      </trkpt>
      <trkpt lat="45.86472" lon="6.51065">
        <ele>1404.6</ele>
        <time>2022-01-07T09:38:53Z</time>
      </trkpt>
      <trkpt lat="45.8647" lon="6.51066">
        <ele>1404.6</ele>
        <time>2022-01-07T09:38:55Z</time>
      </trkpt>
      <trkpt lat="45.86468" lon="6.51068">
        <ele>1404.6</ele>
        <time>2022-01-07T09:38:57Z</time>
      </trkpt>
      <trkpt lat="45.86466" lon="6.51068">
        <ele>1404.2</ele>
        <time>2022-01-07T09:38:59Z</time>
      </trkpt>
      <trkpt lat="45.86463" lon="6.51068">
        <ele>1404.2</ele>
        <time>2022-01-07T09:39:01Z</time>
      </trkpt>
      <trkpt lat="45.86461" lon="6.51066">
        <ele>1404.2</ele>
        <time>2022-01-07T09:39:03Z</time>
      </trkpt>
      <trkpt lat="45.86459" lon="6.51064">
        <ele>1404.2</ele>
        <time>2022-01-07T09:39:05Z</time>
      </trkpt>
      <trkpt lat="45.86458" lon="6.51061">
        <ele>1404.2</ele>
        <time>2022-01-07T09:39:07Z</time>
      </trkpt>
      <trkpt lat="45.86457" lon="6.51059">
        <ele>1403.8</ele>
        <time>2022-01-07T09:39:09Z</time>
      </trkpt>
      <trkpt lat="45.86457" lon="6.51056">
        <ele>1403.8</ele>
        <time>2022-01-07T09:39:12Z</time>
      </trkpt>
      <trkpt lat="45.86456" lon="6.51053">
        <ele>1403.8</ele>
        <time>2022-01-07T09:39:15Z</time>
      </trkpt>
      <trkpt lat="45.86457" lon="6.5105">
        <ele>1403.8</ele>
        <time>2022-01-07T09:39:18Z</time>
      </trkpt>
      <trkpt lat="45.86456" lon="6.51047">
        <ele>1403.8</ele>
        <time>2022-01-07T09:39:21Z</time>
      </trkpt>
      <trkpt lat="45.86456" lon="6.51043">
        <ele>1403.8</ele>
        <time>2022-01-07T09:39:23Z</time>
      </trkpt>
      <trkpt lat="45.86456" lon="6.5104">
        <ele>1403.8</ele>
        <time>2022-01-07T09:39:26Z</time>
      </trkpt>
      <trkpt lat="45.86456" lon="6.51037">
        <ele>1405.2</ele>
        <time>2022-01-07T09:39:29Z</time>
      </trkpt>
      <trkpt lat="45.86456" lon="6.51033">
        <ele>1405.2</ele>
        <time>2022-01-07T09:39:31Z</time>
      </trkpt>
      <trkpt lat="45.86456" lon="6.5103">
        <ele>1405.2</ele>
        <time>2022-01-07T09:39:34Z</time>
      </trkpt>
      <trkpt lat="45.86456" lon="6.51027">
        <ele>1405.2</ele>
        <time>2022-01-07T09:39:36Z</time>
      </trkpt>
      <trkpt lat="45.86456" lon="6.51024">
        <ele>1405.2</ele>
        <time>2022-01-07T09:39:38Z</time>
      </trkpt>
      <trkpt lat="45.86455" lon="6.51021">
        <ele>1405.2</ele>
        <time>2022-01-07T09:39:40Z</time>
      </trkpt>
      <trkpt lat="45.86454" lon="6.51018">
        <ele>1405.2</ele>
        <time>2022-01-07T09:39:42Z</time>
      </trkpt>
      <trkpt lat="45.86454" lon="6.51015">
        <ele>1405.2</ele>
        <time>2022-01-07T09:39:44Z</time>
      </trkpt>
      <trkpt lat="45.86453" lon="6.51012">
        <ele>1405.2</ele>
        <time>2022-01-07T09:39:46Z</time>
      </trkpt>
      <trkpt lat="45.86452" lon="6.51009">
        <ele>1406.8</ele>
        <time>2022-01-07T09:39:49Z</time>
      </trkpt>
      <trkpt lat="45.86451" lon="6.51007">
        <ele>1406.8</ele>
        <time>2022-01-07T09:39:51Z</time>
      </trkpt>
      <trkpt lat="45.8645" lon="6.51004">
        <ele>1406.8</ele>
        <time>2022-01-07T09:39:54Z</time>
      </trkpt>
      <trkpt lat="45.86448" lon="6.51002">
        <ele>1406.8</ele>
        <time>2022-01-07T09:39:56Z</time>
      </trkpt>
      <trkpt lat="45.86446" lon="6.50998">
        <ele>1406.8</ele>
        <time>2022-01-07T09:39:58Z</time>
      </trkpt>
      <trkpt lat="45.86445" lon="6.50996">
        <ele>1406.8</ele>
        <time>2022-01-07T09:40:00Z</time>
      </trkpt>
      <trkpt lat="45.86444" lon="6.50993">
        <ele>1406.8</ele>
        <time>2022-01-07T09:40:02Z</time>
      </trkpt>
      <trkpt lat="45.86443" lon="6.5099">
        <ele>1406.8</ele>
        <time>2022-01-07T09:40:04Z</time>
      </trkpt>
      <trkpt lat="45.86442" lon="6.50988">
        <ele>1406.8</ele>
        <time>2022-01-07T09:40:06Z</time>
      </trkpt>
      <trkpt lat="45.86441" lon="6.50985">
        <ele>1406.8</ele>
        <time>2022-01-07T09:40:08Z</time>
      </trkpt>
      <trkpt lat="45.8644" lon="6.50982">
        <ele>1406.8</ele>
        <time>2022-01-07T09:40:10Z</time>
      </trkpt>
      <trkpt lat="45.86439" lon="6.5098">
        <ele>1406.8</ele>
        <time>2022-01-07T09:40:12Z</time>
      </trkpt>
      <trkpt lat="45.86438" lon="6.50978">
        <ele>1406.8</ele>
        <time>2022-01-07T09:40:14Z</time>
      </trkpt>
      <trkpt lat="45.86437" lon="6.50976">
        <ele>1406.8</ele>
        <time>2022-01-07T09:40:16Z</time>
      </trkpt>
      <trkpt lat="45.86436" lon="6.50973">
        <ele>1406.8</ele>
        <time>2022-01-07T09:40:18Z</time>
      </trkpt>
      <trkpt lat="45.86436" lon="6.5097">
        <ele>1406.8</ele>
        <time>2022-01-07T09:40:20Z</time>
      </trkpt>
      <trkpt lat="45.86435" lon="6.50967">
        <ele>1406.8</ele>
        <time>2022-01-07T09:40:22Z</time>
      </trkpt>
      <trkpt lat="45.86435" lon="6.50962">
        <ele>1406.8</ele>
        <time>2022-01-07T09:40:24Z</time>
      </trkpt>
      <trkpt lat="45.86435" lon="6.50958">
        <ele>1406.8</ele>
        <time>2022-01-07T09:40:26Z</time>
      </trkpt>
      <trkpt lat="45.86433" lon="6.50956">
        <ele>1406.8</ele>
        <time>2022-01-07T09:40:28Z</time>
      </trkpt>
      <trkpt lat="45.86434" lon="6.50952">
        <ele>1406.8</ele>
        <time>2022-01-07T09:40:31Z</time>
      </trkpt>
      <trkpt lat="45.86434" lon="6.50949">
        <ele>1406.8</ele>
        <time>2022-01-07T09:40:33Z</time>
      </trkpt>
      <trkpt lat="45.86433" lon="6.50946">
        <ele>1406.8</ele>
        <time>2022-01-07T09:40:35Z</time>
      </trkpt>
      <trkpt lat="45.86433" lon="6.50942">
        <ele>1406.8</ele>
        <time>2022-01-07T09:40:38Z</time>
      </trkpt>
      <trkpt lat="45.86433" lon="6.50939">
        <ele>1406.8</ele>
        <time>2022-01-07T09:40:40Z</time>
      </trkpt>
      <trkpt lat="45.86433" lon="6.50936">
        <ele>1406.8</ele>
        <time>2022-01-07T09:40:42Z</time>
      </trkpt>
      <trkpt lat="45.86432" lon="6.50933">
        <ele>1406.8</ele>
        <time>2022-01-07T09:40:44Z</time>
      </trkpt>
      <trkpt lat="45.86432" lon="6.5093">
        <ele>1406.8</ele>
        <time>2022-01-07T09:40:46Z</time>
      </trkpt>
      <trkpt lat="45.86431" lon="6.50927">
        <ele>1406.8</ele>
        <time>2022-01-07T09:40:48Z</time>
      </trkpt>
      <trkpt lat="45.86431" lon="6.50924">
        <ele>1406.8</ele>
        <time>2022-01-07T09:40:50Z</time>
      </trkpt>
      <trkpt lat="45.86431" lon="6.5092">
        <ele>1406.8</ele>
        <time>2022-01-07T09:40:52Z</time>
      </trkpt>
      <trkpt lat="45.86431" lon="6.50917">
        <ele>1406.8</ele>
        <time>2022-01-07T09:40:54Z</time>
      </trkpt>
      <trkpt lat="45.86431" lon="6.50915">
        <ele>1406.8</ele>
        <time>2022-01-07T09:40:56Z</time>
      </trkpt>
      <trkpt lat="45.8643" lon="6.50911">
        <ele>1408</ele>
        <time>2022-01-07T09:40:59Z</time>
      </trkpt>
      <trkpt lat="45.86431" lon="6.50908">
        <ele>1408</ele>
        <time>2022-01-07T09:41:01Z</time>
      </trkpt>
      <trkpt lat="45.86431" lon="6.50905">
        <ele>1408</ele>
        <time>2022-01-07T09:41:04Z</time>
      </trkpt>
      <trkpt lat="45.8643" lon="6.50902">
        <ele>1408</ele>
        <time>2022-01-07T09:41:07Z</time>
      </trkpt>
      <trkpt lat="45.86429" lon="6.50899">
        <ele>1408</ele>
        <time>2022-01-07T09:41:10Z</time>
      </trkpt>
      <trkpt lat="45.86429" lon="6.50896">
        <ele>1408</ele>
        <time>2022-01-07T09:41:13Z</time>
      </trkpt>
      <trkpt lat="45.86428" lon="6.50892">
        <ele>1408</ele>
        <time>2022-01-07T09:41:16Z</time>
      </trkpt>
      <trkpt lat="45.86428" lon="6.50889">
        <ele>1410</ele>
        <time>2022-01-07T09:41:19Z</time>
      </trkpt>
      <trkpt lat="45.86428" lon="6.50885">
        <ele>1410</ele>
        <time>2022-01-07T09:41:22Z</time>
      </trkpt>
      <trkpt lat="45.86428" lon="6.50882">
        <ele>1410</ele>
        <time>2022-01-07T09:41:24Z</time>
      </trkpt>
      <trkpt lat="45.86428" lon="6.50879">
        <ele>1410</ele>
        <time>2022-01-07T09:41:27Z</time>
      </trkpt>
      <trkpt lat="45.86427" lon="6.50876">
        <ele>1410</ele>
        <time>2022-01-07T09:41:30Z</time>
      </trkpt>
      <trkpt lat="45.86427" lon="6.50872">
        <ele>1410</ele>
        <time>2022-01-07T09:41:33Z</time>
      </trkpt>
      <trkpt lat="45.86426" lon="6.50869">
        <ele>1410</ele>
        <time>2022-01-07T09:41:36Z</time>
      </trkpt>
      <trkpt lat="45.86425" lon="6.50866">
        <ele>1410</ele>
        <time>2022-01-07T09:41:38Z</time>
      </trkpt>
      <trkpt lat="45.86425" lon="6.50864">
        <ele>1410</ele>
        <time>2022-01-07T09:41:40Z</time>
      </trkpt>
      <trkpt lat="45.86424" lon="6.50861">
        <ele>1410</ele>
        <time>2022-01-07T09:41:42Z</time>
      </trkpt>
      <trkpt lat="45.86423" lon="6.50857">
        <ele>1410</ele>
        <time>2022-01-07T09:41:44Z</time>
      </trkpt>
      <trkpt lat="45.86423" lon="6.50855">
        <ele>1410</ele>
        <time>2022-01-07T09:41:46Z</time>
      </trkpt>
      <trkpt lat="45.86421" lon="6.50852">
        <ele>1413.4</ele>
        <time>2022-01-07T09:41:49Z</time>
      </trkpt>
      <trkpt lat="45.8642" lon="6.50848">
        <ele>1413.4</ele>
        <time>2022-01-07T09:41:52Z</time>
      </trkpt>
      <trkpt lat="45.8642" lon="6.50845">
        <ele>1413.4</ele>
        <time>2022-01-07T09:41:54Z</time>
      </trkpt>
      <trkpt lat="45.86419" lon="6.50842">
        <ele>1413.4</ele>
        <time>2022-01-07T09:41:56Z</time>
      </trkpt>
      <trkpt lat="45.86418" lon="6.5084">
        <ele>1413.4</ele>
        <time>2022-01-07T09:41:58Z</time>
      </trkpt>
      <trkpt lat="45.86417" lon="6.50838">
        <ele>1413.4</ele>
        <time>2022-01-07T09:42:00Z</time>
      </trkpt>
      <trkpt lat="45.86416" lon="6.50835">
        <ele>1413.4</ele>
        <time>2022-01-07T09:42:03Z</time>
      </trkpt>
      <trkpt lat="45.86415" lon="6.50832">
        <ele>1413.4</ele>
        <time>2022-01-07T09:42:25Z</time>
      </trkpt>
      <trkpt lat="45.86413" lon="6.50828">
        <ele>1413.4</ele>
        <time>2022-01-07T09:42:27Z</time>
      </trkpt>
      <trkpt lat="45.86412" lon="6.50824">
        <ele>1412.8</ele>
        <time>2022-01-07T09:42:29Z</time>
      </trkpt>
      <trkpt lat="45.8641" lon="6.50821">
        <ele>1412.8</ele>
        <time>2022-01-07T09:42:31Z</time>
      </trkpt>
      <trkpt lat="45.86409" lon="6.50818">
        <ele>1412.8</ele>
        <time>2022-01-07T09:42:33Z</time>
      </trkpt>
      <trkpt lat="45.86407" lon="6.50816">
        <ele>1412.8</ele>
        <time>2022-01-07T09:42:35Z</time>
      </trkpt>
      <trkpt lat="45.86405" lon="6.50814">
        <ele>1412.8</ele>
        <time>2022-01-07T09:42:38Z</time>
      </trkpt>
      <trkpt lat="45.86403" lon="6.50813">
        <ele>1412.8</ele>
        <time>2022-01-07T09:42:40Z</time>
      </trkpt>
      <trkpt lat="45.864" lon="6.50812">
        <ele>1412.8</ele>
        <time>2022-01-07T09:42:42Z</time>
      </trkpt>
      <trkpt lat="45.86398" lon="6.50809">
        <ele>1412.8</ele>
        <time>2022-01-07T09:42:44Z</time>
      </trkpt>
      <trkpt lat="45.86397" lon="6.50806">
        <ele>1412.8</ele>
        <time>2022-01-07T09:42:46Z</time>
      </trkpt>
      <trkpt lat="45.86396" lon="6.50802">
        <ele>1412.8</ele>
        <time>2022-01-07T09:42:48Z</time>
      </trkpt>
      <trkpt lat="45.86395" lon="6.50799">
        <ele>1412.8</ele>
        <time>2022-01-07T09:42:50Z</time>
      </trkpt>
      <trkpt lat="45.86393" lon="6.50796">
        <ele>1412.8</ele>
        <time>2022-01-07T09:42:52Z</time>
      </trkpt>
      <trkpt lat="45.8639" lon="6.50791">
        <ele>1412.8</ele>
        <time>2022-01-07T09:42:54Z</time>
      </trkpt>
      <trkpt lat="45.86389" lon="6.50788">
        <ele>1412.8</ele>
        <time>2022-01-07T09:42:55Z</time>
      </trkpt>
      <trkpt lat="45.86388" lon="6.50784">
        <ele>1412.8</ele>
        <time>2022-01-07T09:42:57Z</time>
      </trkpt>
      <trkpt lat="45.86387" lon="6.5078">
        <ele>1412</ele>
        <time>2022-01-07T09:42:59Z</time>
      </trkpt>
      <trkpt lat="45.86386" lon="6.50777">
        <ele>1412</ele>
        <time>2022-01-07T09:43:00Z</time>
      </trkpt>
      <trkpt lat="45.86385" lon="6.50775">
        <ele>1412</ele>
        <time>2022-01-07T09:43:01Z</time>
      </trkpt>
      <trkpt lat="45.86383" lon="6.50772">
        <ele>1412</ele>
        <time>2022-01-07T09:43:02Z</time>
      </trkpt>
      <trkpt lat="45.86381" lon="6.50768">
        <ele>1412</ele>
        <time>2022-01-07T09:43:04Z</time>
      </trkpt>
      <trkpt lat="45.8638" lon="6.50763">
        <ele>1412</ele>
        <time>2022-01-07T09:43:06Z</time>
      </trkpt>
      <trkpt lat="45.86378" lon="6.50759">
        <ele>1412</ele>
        <time>2022-01-07T09:43:08Z</time>
      </trkpt>
      <trkpt lat="45.86377" lon="6.50754">
        <ele>1412</ele>
        <time>2022-01-07T09:43:10Z</time>
      </trkpt>
      <trkpt lat="45.86375" lon="6.5075">
        <ele>1412</ele>
        <time>2022-01-07T09:43:12Z</time>
      </trkpt>
      <trkpt lat="45.86373" lon="6.50747">
        <ele>1412</ele>
        <time>2022-01-07T09:43:13Z</time>
      </trkpt>
      <trkpt lat="45.86372" lon="6.50745">
        <ele>1412</ele>
        <time>2022-01-07T09:43:14Z</time>
      </trkpt>
      <trkpt lat="45.86372" lon="6.50742">
        <ele>1412</ele>
        <time>2022-01-07T09:43:15Z</time>
      </trkpt>
      <trkpt lat="45.86371" lon="6.50739">
        <ele>1412</ele>
        <time>2022-01-07T09:43:16Z</time>
      </trkpt>
      <trkpt lat="45.8637" lon="6.50736">
        <ele>1412</ele>
        <time>2022-01-07T09:43:18Z</time>
      </trkpt>
      <trkpt lat="45.86369" lon="6.50731">
        <ele>1412</ele>
        <time>2022-01-07T09:43:20Z</time>
      </trkpt>
      <trkpt lat="45.86367" lon="6.50728">
        <ele>1412</ele>
        <time>2022-01-07T09:43:22Z</time>
      </trkpt>
      <trkpt lat="45.86365" lon="6.50724">
        <ele>1412</ele>
        <time>2022-01-07T09:43:24Z</time>
      </trkpt>
      <trkpt lat="45.86364" lon="6.50722">
        <ele>1412</ele>
        <time>2022-01-07T09:43:25Z</time>
      </trkpt>
      <trkpt lat="45.86363" lon="6.50718">
        <ele>1412</ele>
        <time>2022-01-07T09:43:27Z</time>
      </trkpt>
      <trkpt lat="45.86361" lon="6.50714">
        <ele>1407.6</ele>
        <time>2022-01-07T09:43:29Z</time>
      </trkpt>
      <trkpt lat="45.8636" lon="6.5071">
        <ele>1407.6</ele>
        <time>2022-01-07T09:43:31Z</time>
      </trkpt>
      <trkpt lat="45.86359" lon="6.50708">
        <ele>1407.6</ele>
        <time>2022-01-07T09:43:33Z</time>
      </trkpt>
      <trkpt lat="45.86357" lon="6.50705">
        <ele>1407.6</ele>
        <time>2022-01-07T09:43:35Z</time>
      </trkpt>
      <trkpt lat="45.86356" lon="6.50702">
        <ele>1407.6</ele>
        <time>2022-01-07T09:43:37Z</time>
      </trkpt>
      <trkpt lat="45.86354" lon="6.50699">
        <ele>1407</ele>
        <time>2022-01-07T09:43:39Z</time>
      </trkpt>
      <trkpt lat="45.86353" lon="6.50696">
        <ele>1407</ele>
        <time>2022-01-07T09:43:41Z</time>
      </trkpt>
      <trkpt lat="45.86351" lon="6.50694">
        <ele>1407</ele>
        <time>2022-01-07T09:43:43Z</time>
      </trkpt>
      <trkpt lat="45.86349" lon="6.50692">
        <ele>1407</ele>
        <time>2022-01-07T09:43:45Z</time>
      </trkpt>
      <trkpt lat="45.86348" lon="6.5069">
        <ele>1407</ele>
        <time>2022-01-07T09:43:47Z</time>
      </trkpt>
      <trkpt lat="45.86347" lon="6.50688">
        <ele>1407.6</ele>
        <time>2022-01-07T09:43:49Z</time>
      </trkpt>
      <trkpt lat="45.86346" lon="6.50685">
        <ele>1407.6</ele>
        <time>2022-01-07T09:43:51Z</time>
      </trkpt>
      <trkpt lat="45.86345" lon="6.50683">
        <ele>1407.6</ele>
        <time>2022-01-07T09:43:53Z</time>
      </trkpt>
      <trkpt lat="45.86343" lon="6.5068">
        <ele>1407.6</ele>
        <time>2022-01-07T09:43:55Z</time>
      </trkpt>
      <trkpt lat="45.86342" lon="6.50677">
        <ele>1407.6</ele>
        <time>2022-01-07T09:43:57Z</time>
      </trkpt>
      <trkpt lat="45.8634" lon="6.50673">
        <ele>1408.4</ele>
        <time>2022-01-07T09:43:59Z</time>
      </trkpt>
      <trkpt lat="45.8634" lon="6.5067">
        <ele>1408.4</ele>
        <time>2022-01-07T09:44:01Z</time>
      </trkpt>
      <trkpt lat="45.86339" lon="6.50668">
        <ele>1408.4</ele>
        <time>2022-01-07T09:44:03Z</time>
      </trkpt>
      <trkpt lat="45.86337" lon="6.50665">
        <ele>1408.4</ele>
        <time>2022-01-07T09:44:05Z</time>
      </trkpt>
      <trkpt lat="45.86336" lon="6.50661">
        <ele>1408.4</ele>
        <time>2022-01-07T09:44:07Z</time>
      </trkpt>
      <trkpt lat="45.86335" lon="6.50658">
        <ele>1408.4</ele>
        <time>2022-01-07T09:44:09Z</time>
      </trkpt>
      <trkpt lat="45.86333" lon="6.50656">
        <ele>1408.4</ele>
        <time>2022-01-07T09:44:10Z</time>
      </trkpt>
      <trkpt lat="45.86332" lon="6.50651">
        <ele>1408.4</ele>
        <time>2022-01-07T09:44:12Z</time>
      </trkpt>
      <trkpt lat="45.8633" lon="6.50647">
        <ele>1408.4</ele>
        <time>2022-01-07T09:44:14Z</time>
      </trkpt>
      <trkpt lat="45.86328" lon="6.50642">
        <ele>1408.4</ele>
        <time>2022-01-07T09:44:16Z</time>
      </trkpt>
      <trkpt lat="45.86327" lon="6.50638">
        <ele>1408.4</ele>
        <time>2022-01-07T09:44:18Z</time>
      </trkpt>
      <trkpt lat="45.86326" lon="6.50635">
        <ele>1407.2</ele>
        <time>2022-01-07T09:44:19Z</time>
      </trkpt>
      <trkpt lat="45.86325" lon="6.50632">
        <ele>1407.2</ele>
        <time>2022-01-07T09:44:20Z</time>
      </trkpt>
      <trkpt lat="45.86324" lon="6.5063">
        <ele>1407.2</ele>
        <time>2022-01-07T09:44:21Z</time>
      </trkpt>
      <trkpt lat="45.86322" lon="6.50627">
        <ele>1407.2</ele>
        <time>2022-01-07T09:44:23Z</time>
      </trkpt>
      <trkpt lat="45.8632" lon="6.50624">
        <ele>1407.2</ele>
        <time>2022-01-07T09:44:25Z</time>
      </trkpt>
      <trkpt lat="45.86318" lon="6.5062">
        <ele>1407.2</ele>
        <time>2022-01-07T09:44:27Z</time>
      </trkpt>
      <trkpt lat="45.86316" lon="6.50617">
        <ele>1406</ele>
        <time>2022-01-07T09:44:29Z</time>
      </trkpt>
      <trkpt lat="45.86315" lon="6.50614">
        <ele>1406</ele>
        <time>2022-01-07T09:44:31Z</time>
      </trkpt>
      <trkpt lat="45.86314" lon="6.50612">
        <ele>1406</ele>
        <time>2022-01-07T09:44:33Z</time>
      </trkpt>
      <trkpt lat="45.86312" lon="6.50609">
        <ele>1406</ele>
        <time>2022-01-07T09:44:35Z</time>
      </trkpt>
      <trkpt lat="45.8631" lon="6.50606">
        <ele>1406</ele>
        <time>2022-01-07T09:44:38Z</time>
      </trkpt>
      <trkpt lat="45.86308" lon="6.50603">
        <ele>1406</ele>
        <time>2022-01-07T09:44:40Z</time>
      </trkpt>
      <trkpt lat="45.86307" lon="6.50601">
        <ele>1406</ele>
        <time>2022-01-07T09:44:42Z</time>
      </trkpt>
      <trkpt lat="45.86306" lon="6.50599">
        <ele>1406</ele>
        <time>2022-01-07T09:44:43Z</time>
      </trkpt>
      <trkpt lat="45.86304" lon="6.50597">
        <ele>1406</ele>
        <time>2022-01-07T09:44:45Z</time>
      </trkpt>
      <trkpt lat="45.86303" lon="6.50594">
        <ele>1406</ele>
        <time>2022-01-07T09:44:48Z</time>
      </trkpt>
      <trkpt lat="45.86301" lon="6.50592">
        <ele>1406</ele>
        <time>2022-01-07T09:44:50Z</time>
      </trkpt>
      <trkpt lat="45.863" lon="6.50589">
        <ele>1406</ele>
        <time>2022-01-07T09:44:52Z</time>
      </trkpt>
      <trkpt lat="45.86298" lon="6.50587">
        <ele>1406</ele>
        <time>2022-01-07T09:44:54Z</time>
      </trkpt>
      <trkpt lat="45.86296" lon="6.50584">
        <ele>1406</ele>
        <time>2022-01-07T09:44:56Z</time>
      </trkpt>
      <trkpt lat="45.86294" lon="6.50581">
        <ele>1406</ele>
        <time>2022-01-07T09:44:58Z</time>
      </trkpt>
      <trkpt lat="45.86292" lon="6.50577">
        <ele>1406</ele>
        <time>2022-01-07T09:45:00Z</time>
      </trkpt>
      <trkpt lat="45.8629" lon="6.50573">
        <ele>1406</ele>
        <time>2022-01-07T09:45:02Z</time>
      </trkpt>
      <trkpt lat="45.86288" lon="6.50571">
        <ele>1406</ele>
        <time>2022-01-07T09:45:03Z</time>
      </trkpt>
      <trkpt lat="45.86286" lon="6.50568">
        <ele>1406</ele>
        <time>2022-01-07T09:45:05Z</time>
      </trkpt>
      <trkpt lat="45.86284" lon="6.50566">
        <ele>1406</ele>
        <time>2022-01-07T09:45:06Z</time>
      </trkpt>
      <trkpt lat="45.86283" lon="6.50564">
        <ele>1406</ele>
        <time>2022-01-07T09:45:08Z</time>
      </trkpt>
      <trkpt lat="45.8628" lon="6.5056">
        <ele>1406</ele>
        <time>2022-01-07T09:45:10Z</time>
      </trkpt>
      <trkpt lat="45.86278" lon="6.50557">
        <ele>1406</ele>
        <time>2022-01-07T09:45:12Z</time>
      </trkpt>
      <trkpt lat="45.86276" lon="6.50556">
        <ele>1406</ele>
        <time>2022-01-07T09:45:13Z</time>
      </trkpt>
      <trkpt lat="45.86274" lon="6.50553">
        <ele>1406</ele>
        <time>2022-01-07T09:45:15Z</time>
      </trkpt>
      <trkpt lat="45.86272" lon="6.5055">
        <ele>1406</ele>
        <time>2022-01-07T09:45:17Z</time>
      </trkpt>
      <trkpt lat="45.8627" lon="6.50546">
        <ele>1404.4</ele>
        <time>2022-01-07T09:45:19Z</time>
      </trkpt>
      <trkpt lat="45.86268" lon="6.50543">
        <ele>1404.4</ele>
        <time>2022-01-07T09:45:21Z</time>
      </trkpt>
      <trkpt lat="45.86266" lon="6.50539">
        <ele>1404.4</ele>
        <time>2022-01-07T09:45:23Z</time>
      </trkpt>
      <trkpt lat="45.86264" lon="6.50536">
        <ele>1404.4</ele>
        <time>2022-01-07T09:45:25Z</time>
      </trkpt>
      <trkpt lat="45.86262" lon="6.50533">
        <ele>1404.4</ele>
        <time>2022-01-07T09:45:27Z</time>
      </trkpt>
      <trkpt lat="45.86261" lon="6.5053">
        <ele>1404.2</ele>
        <time>2022-01-07T09:45:29Z</time>
      </trkpt>
      <trkpt lat="45.8626" lon="6.50527">
        <ele>1404.2</ele>
        <time>2022-01-07T09:45:31Z</time>
      </trkpt>
      <trkpt lat="45.86258" lon="6.50524">
        <ele>1404.2</ele>
        <time>2022-01-07T09:45:33Z</time>
      </trkpt>
      <trkpt lat="45.86256" lon="6.50522">
        <ele>1404.2</ele>
        <time>2022-01-07T09:45:35Z</time>
      </trkpt>
      <trkpt lat="45.86254" lon="6.5052">
        <ele>1404.2</ele>
        <time>2022-01-07T09:45:37Z</time>
      </trkpt>
      <trkpt lat="45.86252" lon="6.50517">
        <ele>1404.2</ele>
        <time>2022-01-07T09:45:39Z</time>
      </trkpt>
      <trkpt lat="45.86251" lon="6.50515">
        <ele>1404.2</ele>
        <time>2022-01-07T09:45:41Z</time>
      </trkpt>
      <trkpt lat="45.8625" lon="6.50513">
        <ele>1404.2</ele>
        <time>2022-01-07T09:45:43Z</time>
      </trkpt>
      <trkpt lat="45.86248" lon="6.50511">
        <ele>1404.2</ele>
        <time>2022-01-07T09:45:45Z</time>
      </trkpt>
      <trkpt lat="45.86247" lon="6.50508">
        <ele>1404.2</ele>
        <time>2022-01-07T09:45:47Z</time>
      </trkpt>
      <trkpt lat="45.86246" lon="6.50505">
        <ele>1404.4</ele>
        <time>2022-01-07T09:45:49Z</time>
      </trkpt>
      <trkpt lat="45.86244" lon="6.50502">
        <ele>1404.4</ele>
        <time>2022-01-07T09:45:51Z</time>
      </trkpt>
      <trkpt lat="45.86244" lon="6.50499">
        <ele>1404.4</ele>
        <time>2022-01-07T09:45:53Z</time>
      </trkpt>
      <trkpt lat="45.86242" lon="6.50496">
        <ele>1404.4</ele>
        <time>2022-01-07T09:45:55Z</time>
      </trkpt>
      <trkpt lat="45.86241" lon="6.50493">
        <ele>1404.4</ele>
        <time>2022-01-07T09:45:57Z</time>
      </trkpt>
      <trkpt lat="45.8624" lon="6.5049">
        <ele>1404.2</ele>
        <time>2022-01-07T09:45:59Z</time>
      </trkpt>
      <trkpt lat="45.86238" lon="6.50487">
        <ele>1404.2</ele>
        <time>2022-01-07T09:46:01Z</time>
      </trkpt>
      <trkpt lat="45.86238" lon="6.50484">
        <ele>1404.2</ele>
        <time>2022-01-07T09:46:03Z</time>
      </trkpt>
      <trkpt lat="45.86236" lon="6.50481">
        <ele>1404.2</ele>
        <time>2022-01-07T09:46:05Z</time>
      </trkpt>
      <trkpt lat="45.86235" lon="6.50477">
        <ele>1404.2</ele>
        <time>2022-01-07T09:46:07Z</time>
      </trkpt>
      <trkpt lat="45.86234" lon="6.50474">
        <ele>1404.4</ele>
        <time>2022-01-07T09:46:09Z</time>
      </trkpt>
      <trkpt lat="45.86232" lon="6.50473">
        <ele>1404.4</ele>
        <time>2022-01-07T09:46:10Z</time>
      </trkpt>
      <trkpt lat="45.86231" lon="6.50469">
        <ele>1404.4</ele>
        <time>2022-01-07T09:46:12Z</time>
      </trkpt>
      <trkpt lat="45.86229" lon="6.50467">
        <ele>1404.4</ele>
        <time>2022-01-07T09:46:14Z</time>
      </trkpt>
      <trkpt lat="45.86228" lon="6.50464">
        <ele>1404.4</ele>
        <time>2022-01-07T09:46:16Z</time>
      </trkpt>
      <trkpt lat="45.86226" lon="6.50461">
        <ele>1404.4</ele>
        <time>2022-01-07T09:46:18Z</time>
      </trkpt>
      <trkpt lat="45.86223" lon="6.50459">
        <ele>1404.4</ele>
        <time>2022-01-07T09:46:20Z</time>
      </trkpt>
      <trkpt lat="45.86221" lon="6.50456">
        <ele>1404.4</ele>
        <time>2022-01-07T09:46:22Z</time>
      </trkpt>
      <trkpt lat="45.8622" lon="6.50453">
        <ele>1404.4</ele>
        <time>2022-01-07T09:46:24Z</time>
      </trkpt>
      <trkpt lat="45.86218" lon="6.5045">
        <ele>1404.4</ele>
        <time>2022-01-07T09:46:26Z</time>
      </trkpt>
      <trkpt lat="45.86216" lon="6.50448">
        <ele>1404.4</ele>
        <time>2022-01-07T09:46:28Z</time>
      </trkpt>
      <trkpt lat="45.86215" lon="6.50445">
        <ele>1404.4</ele>
        <time>2022-01-07T09:46:30Z</time>
      </trkpt>
      <trkpt lat="45.86213" lon="6.50443">
        <ele>1404.4</ele>
        <time>2022-01-07T09:46:32Z</time>
      </trkpt>
      <trkpt lat="45.86212" lon="6.50441">
        <ele>1404.4</ele>
        <time>2022-01-07T09:46:34Z</time>
      </trkpt>
      <trkpt lat="45.8621" lon="6.50439">
        <ele>1404.4</ele>
        <time>2022-01-07T09:46:36Z</time>
      </trkpt>
      <trkpt lat="45.86208" lon="6.50435">
        <ele>1404.4</ele>
        <time>2022-01-07T09:46:38Z</time>
      </trkpt>
      <trkpt lat="45.86207" lon="6.50433">
        <ele>1403.4</ele>
        <time>2022-01-07T09:46:39Z</time>
      </trkpt>
      <trkpt lat="45.86205" lon="6.5043">
        <ele>1403.4</ele>
        <time>2022-01-07T09:46:41Z</time>
      </trkpt>
      <trkpt lat="45.86202" lon="6.50428">
        <ele>1403.4</ele>
        <time>2022-01-07T09:46:43Z</time>
      </trkpt>
      <trkpt lat="45.86198" lon="6.50426">
        <ele>1403.4</ele>
        <time>2022-01-07T09:46:45Z</time>
      </trkpt>
      <trkpt lat="45.86196" lon="6.50425">
        <ele>1403.4</ele>
        <time>2022-01-07T09:46:46Z</time>
      </trkpt>
      <trkpt lat="45.86194" lon="6.50425">
        <ele>1403.4</ele>
        <time>2022-01-07T09:46:48Z</time>
      </trkpt>
      <trkpt lat="45.86192" lon="6.50424">
        <ele>1403.4</ele>
        <time>2022-01-07T09:46:50Z</time>
      </trkpt>
      <trkpt lat="45.86189" lon="6.50424">
        <ele>1403.4</ele>
        <time>2022-01-07T09:46:52Z</time>
      </trkpt>
      <trkpt lat="45.86187" lon="6.50424">
        <ele>1403.4</ele>
        <time>2022-01-07T09:46:54Z</time>
      </trkpt>
      <trkpt lat="45.86185" lon="6.50424">
        <ele>1403.4</ele>
        <time>2022-01-07T09:46:56Z</time>
      </trkpt>
      <trkpt lat="45.86183" lon="6.50425">
        <ele>1403.4</ele>
        <time>2022-01-07T09:46:58Z</time>
      </trkpt>
      <trkpt lat="45.86181" lon="6.50425">
        <ele>1403.4</ele>
        <time>2022-01-07T09:47:01Z</time>
      </trkpt>
      <trkpt lat="45.86178" lon="6.50425">
        <ele>1403.4</ele>
        <time>2022-01-07T09:47:04Z</time>
      </trkpt>
      <trkpt lat="45.86176" lon="6.50426">
        <ele>1403.4</ele>
        <time>2022-01-07T09:47:06Z</time>
      </trkpt>
      <trkpt lat="45.86174" lon="6.50426">
        <ele>1403.4</ele>
        <time>2022-01-07T09:47:08Z</time>
      </trkpt>
      <trkpt lat="45.86172" lon="6.50425">
        <ele>1403.4</ele>
        <time>2022-01-07T09:47:10Z</time>
      </trkpt>
      <trkpt lat="45.86169" lon="6.50424">
        <ele>1403.4</ele>
        <time>2022-01-07T09:47:13Z</time>
      </trkpt>
      <trkpt lat="45.86167" lon="6.50424">
        <ele>1403.4</ele>
        <time>2022-01-07T09:47:16Z</time>
      </trkpt>
      <trkpt lat="45.86164" lon="6.50423">
        <ele>1404</ele>
        <time>2022-01-07T09:47:19Z</time>
      </trkpt>
      <trkpt lat="45.86162" lon="6.50423">
        <ele>1404</ele>
        <time>2022-01-07T09:47:21Z</time>
      </trkpt>
      <trkpt lat="45.86159" lon="6.50422">
        <ele>1404</ele>
        <time>2022-01-07T09:47:23Z</time>
      </trkpt>
      <trkpt lat="45.86157" lon="6.50422">
        <ele>1404</ele>
        <time>2022-01-07T09:47:27Z</time>
      </trkpt>
      <trkpt lat="45.86158" lon="6.50424">
        <ele>1404</ele>
        <time>2022-01-07T09:47:30Z</time>
      </trkpt>
      <trkpt lat="45.86159" lon="6.50428">
        <ele>1404</ele>
        <time>2022-01-07T09:48:16Z</time>
      </trkpt>
      <trkpt lat="45.86159" lon="6.50431">
        <ele>1404</ele>
        <time>2022-01-07T09:48:18Z</time>
      </trkpt>
      <trkpt lat="45.86161" lon="6.50433">
        <ele>1404</ele>
        <time>2022-01-07T09:48:20Z</time>
      </trkpt>
      <trkpt lat="45.86162" lon="6.50436">
        <ele>1404</ele>
        <time>2022-01-07T09:48:22Z</time>
      </trkpt>
      <trkpt lat="45.86164" lon="6.50439">
        <ele>1404</ele>
        <time>2022-01-07T09:48:24Z</time>
      </trkpt>
      <trkpt lat="45.86165" lon="6.50441">
        <ele>1404</ele>
        <time>2022-01-07T09:48:28Z</time>
      </trkpt>
      <trkpt lat="45.86166" lon="6.50444">
        <ele>1404</ele>
        <time>2022-01-07T09:48:32Z</time>
      </trkpt>
      <trkpt lat="45.86166" lon="6.50447">
        <ele>1404</ele>
        <time>2022-01-07T09:48:36Z</time>
      </trkpt>
      <trkpt lat="45.86168" lon="6.50447">
        <ele>1404</ele>
        <time>2022-01-07T09:48:42Z</time>
      </trkpt>
      <trkpt lat="45.86169" lon="6.5045">
        <ele>1404</ele>
        <time>2022-01-07T09:48:50Z</time>
      </trkpt>
      <trkpt lat="45.8617" lon="6.50452">
        <ele>1404</ele>
        <time>2022-01-07T09:48:54Z</time>
      </trkpt>
      <trkpt lat="45.8617" lon="6.50456">
        <ele>1404</ele>
        <time>2022-01-07T09:48:58Z</time>
      </trkpt>
      <trkpt lat="45.86169" lon="6.5046">
        <ele>1404</ele>
        <time>2022-01-07T09:49:28Z</time>
      </trkpt>
      <trkpt lat="45.86168" lon="6.50464">
        <ele>1404</ele>
        <time>2022-01-07T09:49:30Z</time>
      </trkpt>
      <trkpt lat="45.86168" lon="6.50468">
        <ele>1404</ele>
        <time>2022-01-07T09:49:32Z</time>
      </trkpt>
      <trkpt lat="45.86167" lon="6.50471">
        <ele>1404</ele>
        <time>2022-01-07T09:49:34Z</time>
      </trkpt>
      <trkpt lat="45.86166" lon="6.50475">
        <ele>1404</ele>
        <time>2022-01-07T09:49:36Z</time>
      </trkpt>
      <trkpt lat="45.86166" lon="6.50477">
        <ele>1420.4</ele>
        <time>2022-01-07T09:49:39Z</time>
      </trkpt>
      <trkpt lat="45.86165" lon="6.50481">
        <ele>1420.4</ele>
        <time>2022-01-07T09:49:43Z</time>
      </trkpt>
      <trkpt lat="45.86164" lon="6.50484">
        <ele>1420.4</ele>
        <time>2022-01-07T09:49:46Z</time>
      </trkpt>
      <trkpt lat="45.86163" lon="6.50486">
        <ele>1420.4</ele>
        <time>2022-01-07T09:49:48Z</time>
      </trkpt>
      <trkpt lat="45.86162" lon="6.50489">
        <ele>1420.4</ele>
        <time>2022-01-07T09:49:51Z</time>
      </trkpt>
      <trkpt lat="45.86161" lon="6.50492">
        <ele>1420.4</ele>
        <time>2022-01-07T09:49:54Z</time>
      </trkpt>
      <trkpt lat="45.8616" lon="6.50495">
        <ele>1420.4</ele>
        <time>2022-01-07T09:49:57Z</time>
      </trkpt>
      <trkpt lat="45.86159" lon="6.50498">
        <ele>1420.4</ele>
        <time>2022-01-07T09:50:00Z</time>
      </trkpt>
      <trkpt lat="45.86159" lon="6.50501">
        <ele>1420.4</ele>
        <time>2022-01-07T09:50:03Z</time>
      </trkpt>
      <trkpt lat="45.86158" lon="6.50504">
        <ele>1420.4</ele>
        <time>2022-01-07T09:50:06Z</time>
      </trkpt>
      <trkpt lat="45.86159" lon="6.50507">
        <ele>1426.6</ele>
        <time>2022-01-07T09:50:09Z</time>
      </trkpt>
      <trkpt lat="45.86159" lon="6.5051">
        <ele>1426.6</ele>
        <time>2022-01-07T09:50:12Z</time>
      </trkpt>
      <trkpt lat="45.86159" lon="6.50513">
        <ele>1426.6</ele>
        <time>2022-01-07T09:50:15Z</time>
      </trkpt>
      <trkpt lat="45.86158" lon="6.50515">
        <ele>1426.6</ele>
        <time>2022-01-07T09:50:17Z</time>
      </trkpt>
      <trkpt lat="45.86158" lon="6.50519">
        <ele>1426.6</ele>
        <time>2022-01-07T09:50:20Z</time>
      </trkpt>
      <trkpt lat="45.86157" lon="6.50521">
        <ele>1426.6</ele>
        <time>2022-01-07T09:50:22Z</time>
      </trkpt>
      <trkpt lat="45.86157" lon="6.50524">
        <ele>1426.6</ele>
        <time>2022-01-07T09:50:26Z</time>
      </trkpt>
      <trkpt lat="45.86158" lon="6.50527">
        <ele>1431.2</ele>
        <time>2022-01-07T09:50:29Z</time>
      </trkpt>
      <trkpt lat="45.86159" lon="6.5053">
        <ele>1431.2</ele>
        <time>2022-01-07T09:50:32Z</time>
      </trkpt>
      <trkpt lat="45.86159" lon="6.50533">
        <ele>1431.2</ele>
        <time>2022-01-07T09:50:34Z</time>
      </trkpt>
      <trkpt lat="45.86159" lon="6.50536">
        <ele>1431.2</ele>
        <time>2022-01-07T09:50:37Z</time>
      </trkpt>
      <trkpt lat="45.86159" lon="6.50538">
        <ele>1431.2</ele>
        <time>2022-01-07T09:50:40Z</time>
      </trkpt>
      <trkpt lat="45.86161" lon="6.5054">
        <ele>1431.2</ele>
        <time>2022-01-07T09:50:42Z</time>
      </trkpt>
      <trkpt lat="45.86159" lon="6.50543">
        <ele>1431.2</ele>
        <time>2022-01-07T09:50:44Z</time>
      </trkpt>
      <trkpt lat="45.86159" lon="6.50546">
        <ele>1431.2</ele>
        <time>2022-01-07T09:50:47Z</time>
      </trkpt>
      <trkpt lat="45.86159" lon="6.5055">
        <ele>1431.2</ele>
        <time>2022-01-07T09:50:50Z</time>
      </trkpt>
      <trkpt lat="45.86159" lon="6.50553">
        <ele>1431.2</ele>
        <time>2022-01-07T09:50:52Z</time>
      </trkpt>
      <trkpt lat="45.86158" lon="6.50556">
        <ele>1431.2</ele>
        <time>2022-01-07T09:50:55Z</time>
      </trkpt>
      <trkpt lat="45.86158" lon="6.50559">
        <ele>1431.2</ele>
        <time>2022-01-07T09:50:58Z</time>
      </trkpt>
      <trkpt lat="45.86158" lon="6.50563">
        <ele>1431.2</ele>
        <time>2022-01-07T09:51:01Z</time>
      </trkpt>
      <trkpt lat="45.86159" lon="6.50566">
        <ele>1431.2</ele>
        <time>2022-01-07T09:51:04Z</time>
      </trkpt>
      <trkpt lat="45.86158" lon="6.50569">
        <ele>1431.2</ele>
        <time>2022-01-07T09:51:07Z</time>
      </trkpt>
      <trkpt lat="45.86159" lon="6.50572">
        <ele>1431.2</ele>
        <time>2022-01-07T09:51:10Z</time>
      </trkpt>
      <trkpt lat="45.86159" lon="6.50575">
        <ele>1431.2</ele>
        <time>2022-01-07T09:51:13Z</time>
      </trkpt>
      <trkpt lat="45.86159" lon="6.50577">
        <ele>1431.2</ele>
        <time>2022-01-07T09:51:16Z</time>
      </trkpt>
      <trkpt lat="45.8616" lon="6.50581">
        <ele>1439.8</ele>
        <time>2022-01-07T09:51:19Z</time>
      </trkpt>
      <trkpt lat="45.8616" lon="6.50584">
        <ele>1439.8</ele>
        <time>2022-01-07T09:51:22Z</time>
      </trkpt>
      <trkpt lat="45.86161" lon="6.50587">
        <ele>1439.8</ele>
        <time>2022-01-07T09:51:25Z</time>
      </trkpt>
      <trkpt lat="45.86161" lon="6.5059">
        <ele>1439.8</ele>
        <time>2022-01-07T09:52:31Z</time>
      </trkpt>
      <trkpt lat="45.86162" lon="6.50594">
        <ele>1439.8</ele>
        <time>2022-01-07T09:52:33Z</time>
      </trkpt>
      <trkpt lat="45.86163" lon="6.50597">
        <ele>1439.8</ele>
        <time>2022-01-07T09:52:35Z</time>
      </trkpt>
      <trkpt lat="45.86164" lon="6.506">
        <ele>1439.8</ele>
        <time>2022-01-07T09:52:37Z</time>
      </trkpt>
      <trkpt lat="45.86165" lon="6.50603">
        <ele>1442.6</ele>
        <time>2022-01-07T09:52:39Z</time>
      </trkpt>
      <trkpt lat="45.86166" lon="6.50606">
        <ele>1442.6</ele>
        <time>2022-01-07T09:52:41Z</time>
      </trkpt>
      <trkpt lat="45.86168" lon="6.5061">
        <ele>1442.6</ele>
        <time>2022-01-07T09:52:46Z</time>
      </trkpt>
      <trkpt lat="45.86169" lon="6.50614">
        <ele>1443.6</ele>
        <time>2022-01-07T09:52:49Z</time>
      </trkpt>
      <trkpt lat="45.86169" lon="6.50617">
        <ele>1443.6</ele>
        <time>2022-01-07T09:52:52Z</time>
      </trkpt>
      <trkpt lat="45.8617" lon="6.5062">
        <ele>1443.6</ele>
        <time>2022-01-07T09:52:54Z</time>
      </trkpt>
      <trkpt lat="45.8617" lon="6.50623">
        <ele>1443.6</ele>
        <time>2022-01-07T09:52:56Z</time>
      </trkpt>
      <trkpt lat="45.8617" lon="6.50626">
        <ele>1443.6</ele>
        <time>2022-01-07T09:52:58Z</time>
      </trkpt>
      <trkpt lat="45.86171" lon="6.50629">
        <ele>1443.6</ele>
        <time>2022-01-07T09:53:01Z</time>
      </trkpt>
      <trkpt lat="45.8617" lon="6.50632">
        <ele>1443.6</ele>
        <time>2022-01-07T09:53:03Z</time>
      </trkpt>
      <trkpt lat="45.8617" lon="6.50635">
        <ele>1443.6</ele>
        <time>2022-01-07T09:53:05Z</time>
      </trkpt>
      <trkpt lat="45.8617" lon="6.50638">
        <ele>1443.6</ele>
        <time>2022-01-07T09:53:08Z</time>
      </trkpt>
      <trkpt lat="45.8617" lon="6.50643">
        <ele>1443.6</ele>
        <time>2022-01-07T09:53:11Z</time>
      </trkpt>
      <trkpt lat="45.86169" lon="6.50647">
        <ele>1443.6</ele>
        <time>2022-01-07T09:53:14Z</time>
      </trkpt>
      <trkpt lat="45.86169" lon="6.5065">
        <ele>1443.6</ele>
        <time>2022-01-07T09:53:16Z</time>
      </trkpt>
      <trkpt lat="45.86169" lon="6.50653">
        <ele>1443.6</ele>
        <time>2022-01-07T09:53:18Z</time>
      </trkpt>
      <trkpt lat="45.86169" lon="6.50655">
        <ele>1443.6</ele>
        <time>2022-01-07T09:53:20Z</time>
      </trkpt>
      <trkpt lat="45.86168" lon="6.50658">
        <ele>1443.6</ele>
        <time>2022-01-07T09:53:23Z</time>
      </trkpt>
      <trkpt lat="45.86168" lon="6.50662">
        <ele>1443.6</ele>
        <time>2022-01-07T09:53:26Z</time>
      </trkpt>
      <trkpt lat="45.86167" lon="6.50664">
        <ele>1448.4</ele>
        <time>2022-01-07T09:53:29Z</time>
      </trkpt>
      <trkpt lat="45.86166" lon="6.50667">
        <ele>1448.4</ele>
        <time>2022-01-07T09:53:31Z</time>
      </trkpt>
      <trkpt lat="45.86166" lon="6.5067">
        <ele>1448.4</ele>
        <time>2022-01-07T09:53:34Z</time>
      </trkpt>
      <trkpt lat="45.86166" lon="6.50673">
        <ele>1448.4</ele>
        <time>2022-01-07T09:53:37Z</time>
      </trkpt>
      <trkpt lat="45.86164" lon="6.50675">
        <ele>1448.4</ele>
        <time>2022-01-07T09:53:40Z</time>
      </trkpt>
      <trkpt lat="45.86163" lon="6.50677">
        <ele>1448.4</ele>
        <time>2022-01-07T09:53:43Z</time>
      </trkpt>
      <trkpt lat="45.86161" lon="6.5068">
        <ele>1448.4</ele>
        <time>2022-01-07T09:53:46Z</time>
      </trkpt>
      <trkpt lat="45.86159" lon="6.50682">
        <ele>1448.4</ele>
        <time>2022-01-07T09:53:48Z</time>
      </trkpt>
      <trkpt lat="45.86158" lon="6.50684">
        <ele>1448.4</ele>
        <time>2022-01-07T09:53:51Z</time>
      </trkpt>
      <trkpt lat="45.86157" lon="6.50686">
        <ele>1448.4</ele>
        <time>2022-01-07T09:53:54Z</time>
      </trkpt>
      <trkpt lat="45.86155" lon="6.50688">
        <ele>1448.4</ele>
        <time>2022-01-07T09:53:57Z</time>
      </trkpt>
      <trkpt lat="45.86153" lon="6.50691">
        <ele>1448.4</ele>
        <time>2022-01-07T09:54:00Z</time>
      </trkpt>
      <trkpt lat="45.86152" lon="6.50694">
        <ele>1448.4</ele>
        <time>2022-01-07T09:54:04Z</time>
      </trkpt>
      <trkpt lat="45.86151" lon="6.50696">
        <ele>1448.4</ele>
        <time>2022-01-07T09:54:07Z</time>
      </trkpt>
      <trkpt lat="45.86149" lon="6.50699">
        <ele>1448.4</ele>
        <time>2022-01-07T09:54:10Z</time>
      </trkpt>
      <trkpt lat="45.86147" lon="6.507">
        <ele>1448.4</ele>
        <time>2022-01-07T09:54:13Z</time>
      </trkpt>
      <trkpt lat="45.86144" lon="6.507">
        <ele>1448.4</ele>
        <time>2022-01-07T09:54:14Z</time>
      </trkpt>
      <trkpt lat="45.86142" lon="6.507">
        <ele>1448.4</ele>
        <time>2022-01-07T09:54:16Z</time>
      </trkpt>
      <trkpt lat="45.8614" lon="6.507">
        <ele>1458.2</ele>
        <time>2022-01-07T09:54:19Z</time>
      </trkpt>
      <trkpt lat="45.86139" lon="6.50699">
        <ele>1458.2</ele>
        <time>2022-01-07T09:54:21Z</time>
      </trkpt>
      <trkpt lat="45.86136" lon="6.50698">
        <ele>1458.2</ele>
        <time>2022-01-07T09:54:24Z</time>
      </trkpt>
      <trkpt lat="45.86134" lon="6.50696">
        <ele>1458.2</ele>
        <time>2022-01-07T09:54:27Z</time>
      </trkpt>
      <trkpt lat="45.86132" lon="6.50695">
        <ele>1458.2</ele>
        <time>2022-01-07T09:54:30Z</time>
      </trkpt>
      <trkpt lat="45.86131" lon="6.50694">
        <ele>1460.2</ele>
        <time>2022-01-07T09:54:49Z</time>
      </trkpt>
      <trkpt lat="45.86129" lon="6.50692">
        <ele>1460.2</ele>
        <time>2022-01-07T09:54:51Z</time>
      </trkpt>
      <trkpt lat="45.86127" lon="6.5069">
        <ele>1460.2</ele>
        <time>2022-01-07T09:54:53Z</time>
      </trkpt>
      <trkpt lat="45.86125" lon="6.50689">
        <ele>1460.2</ele>
        <time>2022-01-07T09:54:55Z</time>
      </trkpt>
      <trkpt lat="45.86124" lon="6.50687">
        <ele>1460.2</ele>
        <time>2022-01-07T09:54:58Z</time>
      </trkpt>
      <trkpt lat="45.86122" lon="6.50685">
        <ele>1460.2</ele>
        <time>2022-01-07T09:55:01Z</time>
      </trkpt>
      <trkpt lat="45.8612" lon="6.50683">
        <ele>1460.2</ele>
        <time>2022-01-07T09:55:04Z</time>
      </trkpt>
      <trkpt lat="45.86118" lon="6.50681">
        <ele>1460.2</ele>
        <time>2022-01-07T09:55:07Z</time>
      </trkpt>
      <trkpt lat="45.86117" lon="6.50679">
        <ele>1460.2</ele>
        <time>2022-01-07T09:55:10Z</time>
      </trkpt>
      <trkpt lat="45.86116" lon="6.50677">
        <ele>1460.2</ele>
        <time>2022-01-07T09:55:13Z</time>
      </trkpt>
      <trkpt lat="45.86115" lon="6.50674">
        <ele>1460.2</ele>
        <time>2022-01-07T09:55:16Z</time>
      </trkpt>
      <trkpt lat="45.86113" lon="6.50671">
        <ele>1463.8</ele>
        <time>2022-01-07T09:55:19Z</time>
      </trkpt>
      <trkpt lat="45.86112" lon="6.50668">
        <ele>1463.8</ele>
        <time>2022-01-07T09:55:22Z</time>
      </trkpt>
      <trkpt lat="45.86111" lon="6.50666">
        <ele>1463.8</ele>
        <time>2022-01-07T09:55:25Z</time>
      </trkpt>
      <trkpt lat="45.86109" lon="6.50665">
        <ele>1463.8</ele>
        <time>2022-01-07T09:55:27Z</time>
      </trkpt>
      <trkpt lat="45.86107" lon="6.50663">
        <ele>1465.4</ele>
        <time>2022-01-07T09:55:29Z</time>
      </trkpt>
      <trkpt lat="45.86105" lon="6.50661">
        <ele>1465.4</ele>
        <time>2022-01-07T09:55:32Z</time>
      </trkpt>
      <trkpt lat="45.86105" lon="6.50658">
        <ele>1465.4</ele>
        <time>2022-01-07T09:55:35Z</time>
      </trkpt>
      <trkpt lat="45.86105" lon="6.50655">
        <ele>1465.4</ele>
        <time>2022-01-07T09:55:38Z</time>
      </trkpt>
      <trkpt lat="45.86104" lon="6.50652">
        <ele>1465.4</ele>
        <time>2022-01-07T09:55:41Z</time>
      </trkpt>
      <trkpt lat="45.86104" lon="6.50649">
        <ele>1465.4</ele>
        <time>2022-01-07T09:55:43Z</time>
      </trkpt>
      <trkpt lat="45.86103" lon="6.50646">
        <ele>1465.4</ele>
        <time>2022-01-07T09:55:46Z</time>
      </trkpt>
      <trkpt lat="45.86102" lon="6.50643">
        <ele>1469.2</ele>
        <time>2022-01-07T09:55:49Z</time>
      </trkpt>
      <trkpt lat="45.86101" lon="6.50641">
        <ele>1469.2</ele>
        <time>2022-01-07T09:55:52Z</time>
      </trkpt>
      <trkpt lat="45.86099" lon="6.50638">
        <ele>1469.2</ele>
        <time>2022-01-07T09:55:56Z</time>
      </trkpt>
      <trkpt lat="45.86098" lon="6.50637">
        <ele>1469.2</ele>
        <time>2022-01-07T09:55:58Z</time>
      </trkpt>
      <trkpt lat="45.86096" lon="6.50636">
        <ele>1469.2</ele>
        <time>2022-01-07T09:56:01Z</time>
      </trkpt>
      <trkpt lat="45.86093" lon="6.50634">
        <ele>1469.2</ele>
        <time>2022-01-07T09:56:04Z</time>
      </trkpt>
      <trkpt lat="45.86092" lon="6.50634">
        <ele>1469.2</ele>
        <time>2022-01-07T09:56:07Z</time>
      </trkpt>
      <trkpt lat="45.8609" lon="6.50632">
        <ele>1469.2</ele>
        <time>2022-01-07T09:56:10Z</time>
      </trkpt>
      <trkpt lat="45.86087" lon="6.50631">
        <ele>1469.2</ele>
        <time>2022-01-07T09:56:13Z</time>
      </trkpt>
      <trkpt lat="45.86086" lon="6.50629">
        <ele>1469.2</ele>
        <time>2022-01-07T09:56:15Z</time>
      </trkpt>
      <trkpt lat="45.86084" lon="6.50628">
        <ele>1469.2</ele>
        <time>2022-01-07T09:56:18Z</time>
      </trkpt>
      <trkpt lat="45.86082" lon="6.50626">
        <ele>1469.2</ele>
        <time>2022-01-07T09:56:21Z</time>
      </trkpt>
      <trkpt lat="45.8608" lon="6.50625">
        <ele>1469.2</ele>
        <time>2022-01-07T09:56:24Z</time>
      </trkpt>
      <trkpt lat="45.86079" lon="6.50624">
        <ele>1469.2</ele>
        <time>2022-01-07T09:56:26Z</time>
      </trkpt>
      <trkpt lat="45.86077" lon="6.50622">
        <ele>1476.2</ele>
        <time>2022-01-07T09:56:29Z</time>
      </trkpt>
      <trkpt lat="45.86075" lon="6.50619">
        <ele>1476.2</ele>
        <time>2022-01-07T09:56:33Z</time>
      </trkpt>
      <trkpt lat="45.86075" lon="6.50616">
        <ele>1476.2</ele>
        <time>2022-01-07T09:56:36Z</time>
      </trkpt>
      <trkpt lat="45.86073" lon="6.50614">
        <ele>1476.2</ele>
        <time>2022-01-07T09:56:38Z</time>
      </trkpt>
      <trkpt lat="45.86072" lon="6.50611">
        <ele>1476.2</ele>
        <time>2022-01-07T09:56:42Z</time>
      </trkpt>
      <trkpt lat="45.86071" lon="6.50609">
        <ele>1476.2</ele>
        <time>2022-01-07T09:56:46Z</time>
      </trkpt>
      <trkpt lat="45.86069" lon="6.50606">
        <ele>1480.6</ele>
        <time>2022-01-07T09:56:49Z</time>
      </trkpt>
      <trkpt lat="45.86069" lon="6.50603">
        <ele>1480.6</ele>
        <time>2022-01-07T09:56:52Z</time>
      </trkpt>
      <trkpt lat="45.86068" lon="6.506">
        <ele>1480.6</ele>
        <time>2022-01-07T09:56:55Z</time>
      </trkpt>
      <trkpt lat="45.86068" lon="6.50597">
        <ele>1480.6</ele>
        <time>2022-01-07T09:56:58Z</time>
      </trkpt>
      <trkpt lat="45.86066" lon="6.50595">
        <ele>1480.6</ele>
        <time>2022-01-07T09:57:01Z</time>
      </trkpt>
      <trkpt lat="45.86065" lon="6.50592">
        <ele>1480.6</ele>
        <time>2022-01-07T09:57:04Z</time>
      </trkpt>
      <trkpt lat="45.86065" lon="6.50588">
        <ele>1480.6</ele>
        <time>2022-01-07T09:57:07Z</time>
      </trkpt>
      <trkpt lat="45.86064" lon="6.50584">
        <ele>1480.6</ele>
        <time>2022-01-07T09:57:10Z</time>
      </trkpt>
      <trkpt lat="45.86065" lon="6.50581">
        <ele>1480.6</ele>
        <time>2022-01-07T09:57:12Z</time>
      </trkpt>
      <trkpt lat="45.86063" lon="6.50578">
        <ele>1480.6</ele>
        <time>2022-01-07T09:57:15Z</time>
      </trkpt>
      <trkpt lat="45.86063" lon="6.50575">
        <ele>1480.6</ele>
        <time>2022-01-07T09:57:18Z</time>
      </trkpt>
      <trkpt lat="45.86062" lon="6.50571">
        <ele>1480.6</ele>
        <time>2022-01-07T09:57:21Z</time>
      </trkpt>
      <trkpt lat="45.86062" lon="6.50569">
        <ele>1480.6</ele>
        <time>2022-01-07T09:57:23Z</time>
      </trkpt>
      <trkpt lat="45.8606" lon="6.50566">
        <ele>1480.6</ele>
        <time>2022-01-07T09:57:25Z</time>
      </trkpt>
      <trkpt lat="45.8606" lon="6.50564">
        <ele>1480.6</ele>
        <time>2022-01-07T09:57:27Z</time>
      </trkpt>
      <trkpt lat="45.8606" lon="6.50561">
        <ele>1486.4</ele>
        <time>2022-01-07T09:57:29Z</time>
      </trkpt>
      <trkpt lat="45.8606" lon="6.50558">
        <ele>1486.4</ele>
        <time>2022-01-07T09:57:31Z</time>
      </trkpt>
      <trkpt lat="45.86059" lon="6.50555">
        <ele>1486.4</ele>
        <time>2022-01-07T09:57:33Z</time>
      </trkpt>
      <trkpt lat="45.86058" lon="6.50553">
        <ele>1486.4</ele>
        <time>2022-01-07T09:57:35Z</time>
      </trkpt>
      <trkpt lat="45.86057" lon="6.5055">
        <ele>1486.4</ele>
        <time>2022-01-07T09:57:37Z</time>
      </trkpt>
      <trkpt lat="45.86056" lon="6.50548">
        <ele>1487.6</ele>
        <time>2022-01-07T09:57:39Z</time>
      </trkpt>
      <trkpt lat="45.86055" lon="6.50545">
        <ele>1487.6</ele>
        <time>2022-01-07T09:57:41Z</time>
      </trkpt>
      <trkpt lat="45.86055" lon="6.50541">
        <ele>1487.6</ele>
        <time>2022-01-07T09:57:44Z</time>
      </trkpt>
      <trkpt lat="45.86055" lon="6.50538">
        <ele>1487.6</ele>
        <time>2022-01-07T09:57:47Z</time>
      </trkpt>
      <trkpt lat="45.86053" lon="6.50535">
        <ele>1487.6</ele>
        <time>2022-01-07T09:57:50Z</time>
      </trkpt>
      <trkpt lat="45.86052" lon="6.50533">
        <ele>1487.6</ele>
        <time>2022-01-07T09:57:53Z</time>
      </trkpt>
      <trkpt lat="45.8605" lon="6.50531">
        <ele>1487.6</ele>
        <time>2022-01-07T09:57:57Z</time>
      </trkpt>
      <trkpt lat="45.86049" lon="6.50529">
        <ele>1487.6</ele>
        <time>2022-01-07T09:58:01Z</time>
      </trkpt>
      <trkpt lat="45.86047" lon="6.50528">
        <ele>1487.6</ele>
        <time>2022-01-07T09:58:04Z</time>
      </trkpt>
      <trkpt lat="45.86044" lon="6.50527">
        <ele>1487.6</ele>
        <time>2022-01-07T09:58:08Z</time>
      </trkpt>
      <trkpt lat="45.86042" lon="6.50528">
        <ele>1487.6</ele>
        <time>2022-01-07T09:58:12Z</time>
      </trkpt>
      <trkpt lat="45.8604" lon="6.50529">
        <ele>1487.6</ele>
        <time>2022-01-07T09:58:16Z</time>
      </trkpt>
      <trkpt lat="45.86038" lon="6.50529">
        <ele>1487.6</ele>
        <time>2022-01-07T09:58:20Z</time>
      </trkpt>
      <trkpt lat="45.86036" lon="6.5053">
        <ele>1487.6</ele>
        <time>2022-01-07T09:58:25Z</time>
      </trkpt>
      <trkpt lat="45.86034" lon="6.50531">
        <ele>1487.6</ele>
        <time>2022-01-07T09:58:28Z</time>
      </trkpt>
      <trkpt lat="45.86033" lon="6.50533">
        <ele>1487.6</ele>
        <time>2022-01-07T09:58:31Z</time>
      </trkpt>
      <trkpt lat="45.86031" lon="6.50536">
        <ele>1487.6</ele>
        <time>2022-01-07T09:58:35Z</time>
      </trkpt>
      <trkpt lat="45.86031" lon="6.50539">
        <ele>1487.6</ele>
        <time>2022-01-07T09:58:40Z</time>
      </trkpt>
      <trkpt lat="45.8603" lon="6.50542">
        <ele>1487.6</ele>
        <time>2022-01-07T09:58:43Z</time>
      </trkpt>
      <trkpt lat="45.8603" lon="6.50545">
        <ele>1487.6</ele>
        <time>2022-01-07T09:58:47Z</time>
      </trkpt>
      <trkpt lat="45.8603" lon="6.50548">
        <ele>1487.6</ele>
        <time>2022-01-07T09:58:50Z</time>
      </trkpt>
      <trkpt lat="45.86031" lon="6.50551">
        <ele>1487.6</ele>
        <time>2022-01-07T09:58:53Z</time>
      </trkpt>
      <trkpt lat="45.86031" lon="6.50555">
        <ele>1487.6</ele>
        <time>2022-01-07T09:58:56Z</time>
      </trkpt>
      <trkpt lat="45.8603" lon="6.50558">
        <ele>1502.6</ele>
        <time>2022-01-07T09:58:59Z</time>
      </trkpt>
      <trkpt lat="45.8603" lon="6.50561">
        <ele>1502.6</ele>
        <time>2022-01-07T09:59:01Z</time>
      </trkpt>
      <trkpt lat="45.86029" lon="6.50564">
        <ele>1502.6</ele>
        <time>2022-01-07T09:59:04Z</time>
      </trkpt>
      <trkpt lat="45.86028" lon="6.50568">
        <ele>1502.6</ele>
        <time>2022-01-07T09:59:08Z</time>
      </trkpt>
      <trkpt lat="45.86028" lon="6.50571">
        <ele>1502.6</ele>
        <time>2022-01-07T09:59:11Z</time>
      </trkpt>
      <trkpt lat="45.86028" lon="6.50574">
        <ele>1502.6</ele>
        <time>2022-01-07T09:59:14Z</time>
      </trkpt>
      <trkpt lat="45.86026" lon="6.50576">
        <ele>1502.6</ele>
        <time>2022-01-07T10:02:25Z</time>
      </trkpt>
      <trkpt lat="45.86026" lon="6.50579">
        <ele>1502.6</ele>
        <time>2022-01-07T10:02:27Z</time>
      </trkpt>
      <trkpt lat="45.86026" lon="6.50583">
        <ele>1504</ele>
        <time>2022-01-07T10:02:29Z</time>
      </trkpt>
      <trkpt lat="45.86026" lon="6.50587">
        <ele>1504</ele>
        <time>2022-01-07T10:02:31Z</time>
      </trkpt>
      <trkpt lat="45.86027" lon="6.5059">
        <ele>1504</ele>
        <time>2022-01-07T10:02:33Z</time>
      </trkpt>
      <trkpt lat="45.86027" lon="6.50594">
        <ele>1504</ele>
        <time>2022-01-07T10:02:35Z</time>
      </trkpt>
      <trkpt lat="45.86027" lon="6.50598">
        <ele>1504</ele>
        <time>2022-01-07T10:02:38Z</time>
      </trkpt>
      <trkpt lat="45.86026" lon="6.506">
        <ele>1504</ele>
        <time>2022-01-07T10:02:40Z</time>
      </trkpt>
      <trkpt lat="45.86027" lon="6.50603">
        <ele>1504</ele>
        <time>2022-01-07T10:02:42Z</time>
      </trkpt>
      <trkpt lat="45.86027" lon="6.50606">
        <ele>1504</ele>
        <time>2022-01-07T10:02:45Z</time>
      </trkpt>
      <trkpt lat="45.86028" lon="6.50609">
        <ele>1504</ele>
        <time>2022-01-07T10:02:48Z</time>
      </trkpt>
      <trkpt lat="45.86028" lon="6.50613">
        <ele>1504</ele>
        <time>2022-01-07T10:02:51Z</time>
      </trkpt>
      <trkpt lat="45.86028" lon="6.50616">
        <ele>1504</ele>
        <time>2022-01-07T10:02:54Z</time>
      </trkpt>
      <trkpt lat="45.86028" lon="6.50619">
        <ele>1504</ele>
        <time>2022-01-07T10:02:57Z</time>
      </trkpt>
      <trkpt lat="45.86028" lon="6.50623">
        <ele>1504</ele>
        <time>2022-01-07T10:03:00Z</time>
      </trkpt>
      <trkpt lat="45.86029" lon="6.50626">
        <ele>1504</ele>
        <time>2022-01-07T10:03:04Z</time>
      </trkpt>
      <trkpt lat="45.86028" lon="6.50628">
        <ele>1504</ele>
        <time>2022-01-07T10:03:07Z</time>
      </trkpt>
      <trkpt lat="45.86029" lon="6.50632">
        <ele>1504</ele>
        <time>2022-01-07T10:03:56Z</time>
      </trkpt>
      <trkpt lat="45.86029" lon="6.50634">
        <ele>1504</ele>
        <time>2022-01-07T10:03:58Z</time>
      </trkpt>
      <trkpt lat="45.8603" lon="6.50638">
        <ele>1504</ele>
        <time>2022-01-07T10:04:00Z</time>
      </trkpt>
      <trkpt lat="45.86031" lon="6.50641">
        <ele>1504</ele>
        <time>2022-01-07T10:04:02Z</time>
      </trkpt>
      <trkpt lat="45.86032" lon="6.50644">
        <ele>1504</ele>
        <time>2022-01-07T10:04:05Z</time>
      </trkpt>
      <trkpt lat="45.86033" lon="6.50647">
        <ele>1512</ele>
        <time>2022-01-07T10:04:09Z</time>
      </trkpt>
      <trkpt lat="45.86033" lon="6.50651">
        <ele>1512</ele>
        <time>2022-01-07T10:04:12Z</time>
      </trkpt>
      <trkpt lat="45.86034" lon="6.50654">
        <ele>1512</ele>
        <time>2022-01-07T10:04:14Z</time>
      </trkpt>
      <trkpt lat="45.86034" lon="6.50656">
        <ele>1512</ele>
        <time>2022-01-07T10:04:16Z</time>
      </trkpt>
      <trkpt lat="45.86034" lon="6.5066">
        <ele>1514.2</ele>
        <time>2022-01-07T10:04:19Z</time>
      </trkpt>
      <trkpt lat="45.86034" lon="6.50663">
        <ele>1514.2</ele>
        <time>2022-01-07T10:04:22Z</time>
      </trkpt>
      <trkpt lat="45.86034" lon="6.50667">
        <ele>1514.2</ele>
        <time>2022-01-07T10:04:26Z</time>
      </trkpt>
      <trkpt lat="45.86034" lon="6.5067">
        <ele>1514.2</ele>
        <time>2022-01-07T10:04:30Z</time>
      </trkpt>
      <trkpt lat="45.86035" lon="6.50673">
        <ele>1514.2</ele>
        <time>2022-01-07T10:04:33Z</time>
      </trkpt>
      <trkpt lat="45.86036" lon="6.50676">
        <ele>1514.2</ele>
        <time>2022-01-07T10:04:36Z</time>
      </trkpt>
      <trkpt lat="45.86036" lon="6.50679">
        <ele>1518.2</ele>
        <time>2022-01-07T10:04:39Z</time>
      </trkpt>
      <trkpt lat="45.86036" lon="6.50683">
        <ele>1518.2</ele>
        <time>2022-01-07T10:04:42Z</time>
      </trkpt>
      <trkpt lat="45.86037" lon="6.50686">
        <ele>1518.2</ele>
        <time>2022-01-07T10:04:45Z</time>
      </trkpt>
      <trkpt lat="45.86037" lon="6.5069">
        <ele>1518.2</ele>
        <time>2022-01-07T10:04:48Z</time>
      </trkpt>
      <trkpt lat="45.86038" lon="6.50693">
        <ele>1518.2</ele>
        <time>2022-01-07T10:04:51Z</time>
      </trkpt>
      <trkpt lat="45.86039" lon="6.50697">
        <ele>1518.2</ele>
        <time>2022-01-07T10:04:54Z</time>
      </trkpt>
      <trkpt lat="45.86039" lon="6.507">
        <ele>1518.2</ele>
        <time>2022-01-07T10:04:57Z</time>
      </trkpt>
      <trkpt lat="45.8604" lon="6.50704">
        <ele>1521.2</ele>
        <time>2022-01-07T10:04:59Z</time>
      </trkpt>
      <trkpt lat="45.86041" lon="6.50706">
        <ele>1521.2</ele>
        <time>2022-01-07T10:05:01Z</time>
      </trkpt>
      <trkpt lat="45.8604" lon="6.50709">
        <ele>1521.2</ele>
        <time>2022-01-07T10:05:03Z</time>
      </trkpt>
      <trkpt lat="45.8604" lon="6.50712">
        <ele>1521.2</ele>
        <time>2022-01-07T10:05:06Z</time>
      </trkpt>
      <trkpt lat="45.86039" lon="6.50716">
        <ele>1522.2</ele>
        <time>2022-01-07T10:05:09Z</time>
      </trkpt>
      <trkpt lat="45.86039" lon="6.5072">
        <ele>1522.2</ele>
        <time>2022-01-07T10:05:12Z</time>
      </trkpt>
      <trkpt lat="45.86039" lon="6.50724">
        <ele>1522.2</ele>
        <time>2022-01-07T10:05:14Z</time>
      </trkpt>
      <trkpt lat="45.86039" lon="6.50726">
        <ele>1522.2</ele>
        <time>2022-01-07T10:05:17Z</time>
      </trkpt>
      <trkpt lat="45.86038" lon="6.50729">
        <ele>1523.4</ele>
        <time>2022-01-07T10:05:19Z</time>
      </trkpt>
      <trkpt lat="45.86039" lon="6.50731">
        <ele>1523.4</ele>
        <time>2022-01-07T10:05:21Z</time>
      </trkpt>
      <trkpt lat="45.86039" lon="6.50734">
        <ele>1523.4</ele>
        <time>2022-01-07T10:05:23Z</time>
      </trkpt>
      <trkpt lat="45.86039" lon="6.50737">
        <ele>1523.4</ele>
        <time>2022-01-07T10:05:26Z</time>
      </trkpt>
      <trkpt lat="45.86039" lon="6.50739">
        <ele>1525.4</ele>
        <time>2022-01-07T10:05:29Z</time>
      </trkpt>
      <trkpt lat="45.86039" lon="6.50742">
        <ele>1525.4</ele>
        <time>2022-01-07T10:05:32Z</time>
      </trkpt>
      <trkpt lat="45.86039" lon="6.50745">
        <ele>1525.4</ele>
        <time>2022-01-07T10:05:35Z</time>
      </trkpt>
      <trkpt lat="45.86039" lon="6.50748">
        <ele>1526.8</ele>
        <time>2022-01-07T10:05:39Z</time>
      </trkpt>
      <trkpt lat="45.86038" lon="6.50752">
        <ele>1526.8</ele>
        <time>2022-01-07T10:05:43Z</time>
      </trkpt>
      <trkpt lat="45.86037" lon="6.50754">
        <ele>1526.8</ele>
        <time>2022-01-07T10:05:46Z</time>
      </trkpt>
      <trkpt lat="45.86036" lon="6.50758">
        <ele>1528.8</ele>
        <time>2022-01-07T10:05:49Z</time>
      </trkpt>
      <trkpt lat="45.86035" lon="6.5076">
        <ele>1528.8</ele>
        <time>2022-01-07T10:05:51Z</time>
      </trkpt>
      <trkpt lat="45.86034" lon="6.50762">
        <ele>1528.8</ele>
        <time>2022-01-07T10:05:53Z</time>
      </trkpt>
      <trkpt lat="45.86033" lon="6.50766">
        <ele>1528.8</ele>
        <time>2022-01-07T10:05:56Z</time>
      </trkpt>
      <trkpt lat="45.86032" lon="6.50769">
        <ele>1531.2</ele>
        <time>2022-01-07T10:05:59Z</time>
      </trkpt>
      <trkpt lat="45.86031" lon="6.50772">
        <ele>1531.2</ele>
        <time>2022-01-07T10:06:02Z</time>
      </trkpt>
      <trkpt lat="45.8603" lon="6.50774">
        <ele>1531.2</ele>
        <time>2022-01-07T10:06:05Z</time>
      </trkpt>
      <trkpt lat="45.86029" lon="6.50777">
        <ele>1531.2</ele>
        <time>2022-01-07T10:06:08Z</time>
      </trkpt>
      <trkpt lat="45.86028" lon="6.50779">
        <ele>1531.2</ele>
        <time>2022-01-07T10:06:10Z</time>
      </trkpt>
      <trkpt lat="45.86028" lon="6.50782">
        <ele>1531.2</ele>
        <time>2022-01-07T10:06:13Z</time>
      </trkpt>
      <trkpt lat="45.86028" lon="6.50785">
        <ele>1531.2</ele>
        <time>2022-01-07T10:06:16Z</time>
      </trkpt>
      <trkpt lat="45.86028" lon="6.50788">
        <ele>1534.8</ele>
        <time>2022-01-07T10:06:19Z</time>
      </trkpt>
      <trkpt lat="45.86028" lon="6.50792">
        <ele>1534.8</ele>
        <time>2022-01-07T10:06:23Z</time>
      </trkpt>
      <trkpt lat="45.86029" lon="6.50795">
        <ele>1534.8</ele>
        <time>2022-01-07T10:06:26Z</time>
      </trkpt>
      <trkpt lat="45.86028" lon="6.50798">
        <ele>1536</ele>
        <time>2022-01-07T10:06:29Z</time>
      </trkpt>
      <trkpt lat="45.86028" lon="6.50802">
        <ele>1536</ele>
        <time>2022-01-07T10:06:32Z</time>
      </trkpt>
      <trkpt lat="45.86028" lon="6.50804">
        <ele>1536</ele>
        <time>2022-01-07T10:06:35Z</time>
      </trkpt>
      <trkpt lat="45.86027" lon="6.50808">
        <ele>1538</ele>
        <time>2022-01-07T10:06:39Z</time>
      </trkpt>
      <trkpt lat="45.86028" lon="6.50811">
        <ele>1538</ele>
        <time>2022-01-07T10:06:42Z</time>
      </trkpt>
      <trkpt lat="45.86026" lon="6.50814">
        <ele>1538</ele>
        <time>2022-01-07T10:06:45Z</time>
      </trkpt>
      <trkpt lat="45.86027" lon="6.50817">
        <ele>1538</ele>
        <time>2022-01-07T10:06:48Z</time>
      </trkpt>
      <trkpt lat="45.86025" lon="6.50819">
        <ele>1538</ele>
        <time>2022-01-07T10:06:51Z</time>
      </trkpt>
      <trkpt lat="45.86024" lon="6.50822">
        <ele>1538</ele>
        <time>2022-01-07T10:06:54Z</time>
      </trkpt>
      <trkpt lat="45.86024" lon="6.50825">
        <ele>1538</ele>
        <time>2022-01-07T10:06:57Z</time>
      </trkpt>
      <trkpt lat="45.86024" lon="6.50828">
        <ele>1538</ele>
        <time>2022-01-07T10:07:00Z</time>
      </trkpt>
      <trkpt lat="45.86024" lon="6.50831">
        <ele>1538</ele>
        <time>2022-01-07T10:07:03Z</time>
      </trkpt>
      <trkpt lat="45.86024" lon="6.50834">
        <ele>1538</ele>
        <time>2022-01-07T10:07:06Z</time>
      </trkpt>
      <trkpt lat="45.86024" lon="6.50837">
        <ele>1538</ele>
        <time>2022-01-07T10:07:08Z</time>
      </trkpt>
      <trkpt lat="45.86025" lon="6.5084">
        <ele>1538</ele>
        <time>2022-01-07T10:07:11Z</time>
      </trkpt>
      <trkpt lat="45.86025" lon="6.50843">
        <ele>1538</ele>
        <time>2022-01-07T10:07:15Z</time>
      </trkpt>
      <trkpt lat="45.86026" lon="6.50846">
        <ele>1538</ele>
        <time>2022-01-07T10:07:18Z</time>
      </trkpt>
      <trkpt lat="45.86026" lon="6.50849">
        <ele>1538</ele>
        <time>2022-01-07T10:07:21Z</time>
      </trkpt>
      <trkpt lat="45.86027" lon="6.50852">
        <ele>1538</ele>
        <time>2022-01-07T10:07:24Z</time>
      </trkpt>
      <trkpt lat="45.86028" lon="6.50855">
        <ele>1538</ele>
        <time>2022-01-07T10:07:28Z</time>
      </trkpt>
      <trkpt lat="45.86028" lon="6.50859">
        <ele>1538</ele>
        <time>2022-01-07T10:07:31Z</time>
      </trkpt>
      <trkpt lat="45.86029" lon="6.50862">
        <ele>1538</ele>
        <time>2022-01-07T10:07:34Z</time>
      </trkpt>
      <trkpt lat="45.86031" lon="6.50864">
        <ele>1538</ele>
        <time>2022-01-07T10:07:36Z</time>
      </trkpt>
      <trkpt lat="45.86032" lon="6.50867">
        <ele>1549</ele>
        <time>2022-01-07T10:07:39Z</time>
      </trkpt>
      <trkpt lat="45.86033" lon="6.5087">
        <ele>1549</ele>
        <time>2022-01-07T10:07:41Z</time>
      </trkpt>
      <trkpt lat="45.86034" lon="6.50873">
        <ele>1549</ele>
        <time>2022-01-07T10:07:44Z</time>
      </trkpt>
      <trkpt lat="45.86035" lon="6.50877">
        <ele>1549</ele>
        <time>2022-01-07T10:08:31Z</time>
      </trkpt>
      <trkpt lat="45.86037" lon="6.5088">
        <ele>1549</ele>
        <time>2022-01-07T10:08:33Z</time>
      </trkpt>
      <trkpt lat="45.86039" lon="6.50884">
        <ele>1549</ele>
        <time>2022-01-07T10:08:35Z</time>
      </trkpt>
      <trkpt lat="45.8604" lon="6.50887">
        <ele>1549</ele>
        <time>2022-01-07T10:08:37Z</time>
      </trkpt>
      <trkpt lat="45.86041" lon="6.50889">
        <ele>1549</ele>
        <time>2022-01-07T10:08:38Z</time>
      </trkpt>
      <trkpt lat="45.86043" lon="6.50892">
        <ele>1549</ele>
        <time>2022-01-07T10:08:40Z</time>
      </trkpt>
      <trkpt lat="45.86044" lon="6.50896">
        <ele>1549</ele>
        <time>2022-01-07T10:08:43Z</time>
      </trkpt>
      <trkpt lat="45.86046" lon="6.50899">
        <ele>1549</ele>
        <time>2022-01-07T10:08:46Z</time>
      </trkpt>
      <trkpt lat="45.86047" lon="6.50902">
        <ele>1551.8</ele>
        <time>2022-01-07T10:08:49Z</time>
      </trkpt>
      <trkpt lat="45.86048" lon="6.50904">
        <ele>1551.8</ele>
        <time>2022-01-07T10:08:52Z</time>
      </trkpt>
      <trkpt lat="45.8605" lon="6.50907">
        <ele>1551.8</ele>
        <time>2022-01-07T10:08:55Z</time>
      </trkpt>
      <trkpt lat="45.86051" lon="6.5091">
        <ele>1551.8</ele>
        <time>2022-01-07T10:08:57Z</time>
      </trkpt>
      <trkpt lat="45.86052" lon="6.50913">
        <ele>1551.8</ele>
        <time>2022-01-07T10:09:00Z</time>
      </trkpt>
      <trkpt lat="45.86053" lon="6.50915">
        <ele>1551.8</ele>
        <time>2022-01-07T10:09:02Z</time>
      </trkpt>
      <trkpt lat="45.86054" lon="6.50918">
        <ele>1551.8</ele>
        <time>2022-01-07T10:09:05Z</time>
      </trkpt>
      <trkpt lat="45.86055" lon="6.5092">
        <ele>1551.8</ele>
        <time>2022-01-07T10:09:07Z</time>
      </trkpt>
      <trkpt lat="45.86056" lon="6.50923">
        <ele>1551.8</ele>
        <time>2022-01-07T10:09:10Z</time>
      </trkpt>
      <trkpt lat="45.86058" lon="6.50928">
        <ele>1551.8</ele>
        <time>2022-01-07T10:09:14Z</time>
      </trkpt>
      <trkpt lat="45.86059" lon="6.5093">
        <ele>1551.8</ele>
        <time>2022-01-07T10:09:16Z</time>
      </trkpt>
      <trkpt lat="45.8606" lon="6.50933">
        <ele>1556</ele>
        <time>2022-01-07T10:09:19Z</time>
      </trkpt>
      <trkpt lat="45.86061" lon="6.50935">
        <ele>1556</ele>
        <time>2022-01-07T10:09:22Z</time>
      </trkpt>
      <trkpt lat="45.86063" lon="6.50938">
        <ele>1556</ele>
        <time>2022-01-07T10:09:25Z</time>
      </trkpt>
      <trkpt lat="45.86064" lon="6.5094">
        <ele>1556</ele>
        <time>2022-01-07T10:09:28Z</time>
      </trkpt>
      <trkpt lat="45.86065" lon="6.50943">
        <ele>1556</ele>
        <time>2022-01-07T10:09:31Z</time>
      </trkpt>
      <trkpt lat="45.86067" lon="6.50945">
        <ele>1556</ele>
        <time>2022-01-07T10:09:34Z</time>
      </trkpt>
      <trkpt lat="45.86068" lon="6.50948">
        <ele>1556</ele>
        <time>2022-01-07T10:09:37Z</time>
      </trkpt>
      <trkpt lat="45.8607" lon="6.5095">
        <ele>1556</ele>
        <time>2022-01-07T10:09:40Z</time>
      </trkpt>
      <trkpt lat="45.86072" lon="6.50954">
        <ele>1556</ele>
        <time>2022-01-07T10:09:43Z</time>
      </trkpt>
      <trkpt lat="45.86074" lon="6.50956">
        <ele>1556</ele>
        <time>2022-01-07T10:09:46Z</time>
      </trkpt>
      <trkpt lat="45.86075" lon="6.50959">
        <ele>1560.2</ele>
        <time>2022-01-07T10:09:49Z</time>
      </trkpt>
      <trkpt lat="45.86076" lon="6.50961">
        <ele>1560.2</ele>
        <time>2022-01-07T10:09:51Z</time>
      </trkpt>
      <trkpt lat="45.86078" lon="6.50963">
        <ele>1560.2</ele>
        <time>2022-01-07T10:09:55Z</time>
      </trkpt>
      <trkpt lat="45.86079" lon="6.50966">
        <ele>1560.2</ele>
        <time>2022-01-07T10:09:57Z</time>
      </trkpt>
      <trkpt lat="45.86081" lon="6.50969">
        <ele>1560.2</ele>
        <time>2022-01-07T10:10:00Z</time>
      </trkpt>
      <trkpt lat="45.86083" lon="6.5097">
        <ele>1560.2</ele>
        <time>2022-01-07T10:10:02Z</time>
      </trkpt>
      <trkpt lat="45.86084" lon="6.50974">
        <ele>1560.2</ele>
        <time>2022-01-07T10:10:05Z</time>
      </trkpt>
      <trkpt lat="45.86085" lon="6.50976">
        <ele>1560.2</ele>
        <time>2022-01-07T10:10:07Z</time>
      </trkpt>
      <trkpt lat="45.86087" lon="6.50977">
        <ele>1563</ele>
        <time>2022-01-07T10:10:09Z</time>
      </trkpt>
      <trkpt lat="45.86088" lon="6.50979">
        <ele>1563</ele>
        <time>2022-01-07T10:10:11Z</time>
      </trkpt>
      <trkpt lat="45.8609" lon="6.50982">
        <ele>1563</ele>
        <time>2022-01-07T10:10:14Z</time>
      </trkpt>
      <trkpt lat="45.86091" lon="6.50984">
        <ele>1563</ele>
        <time>2022-01-07T10:10:16Z</time>
      </trkpt>
      <trkpt lat="45.86092" lon="6.50988">
        <ele>1563.8</ele>
        <time>2022-01-07T10:10:19Z</time>
      </trkpt>
      <trkpt lat="45.86093" lon="6.50991">
        <ele>1563.8</ele>
        <time>2022-01-07T10:10:22Z</time>
      </trkpt>
      <trkpt lat="45.86095" lon="6.50994">
        <ele>1563.8</ele>
        <time>2022-01-07T10:10:25Z</time>
      </trkpt>
      <trkpt lat="45.86096" lon="6.50996">
        <ele>1563.8</ele>
        <time>2022-01-07T10:10:28Z</time>
      </trkpt>
      <trkpt lat="45.86099" lon="6.50998">
        <ele>1563.8</ele>
        <time>2022-01-07T10:10:31Z</time>
      </trkpt>
      <trkpt lat="45.861" lon="6.51">
        <ele>1563.8</ele>
        <time>2022-01-07T10:10:34Z</time>
      </trkpt>
      <trkpt lat="45.86101" lon="6.51002">
        <ele>1563.8</ele>
        <time>2022-01-07T10:10:37Z</time>
      </trkpt>
      <trkpt lat="45.86103" lon="6.51004">
        <ele>1563.8</ele>
        <time>2022-01-07T10:10:40Z</time>
      </trkpt>
      <trkpt lat="45.86104" lon="6.51006">
        <ele>1563.8</ele>
        <time>2022-01-07T10:10:43Z</time>
      </trkpt>
      <trkpt lat="45.86106" lon="6.51008">
        <ele>1563.8</ele>
        <time>2022-01-07T10:10:45Z</time>
      </trkpt>
      <trkpt lat="45.86107" lon="6.51011">
        <ele>1563.8</ele>
        <time>2022-01-07T10:10:48Z</time>
      </trkpt>
      <trkpt lat="45.86108" lon="6.51014">
        <ele>1563.8</ele>
        <time>2022-01-07T10:10:51Z</time>
      </trkpt>
      <trkpt lat="45.86109" lon="6.51017">
        <ele>1563.8</ele>
        <time>2022-01-07T10:10:54Z</time>
      </trkpt>
      <trkpt lat="45.8611" lon="6.51019">
        <ele>1563.8</ele>
        <time>2022-01-07T10:10:56Z</time>
      </trkpt>
      <trkpt lat="45.86111" lon="6.51022">
        <ele>1569.6</ele>
        <time>2022-01-07T10:10:59Z</time>
      </trkpt>
      <trkpt lat="45.86112" lon="6.51024">
        <ele>1569.6</ele>
        <time>2022-01-07T10:11:02Z</time>
      </trkpt>
      <trkpt lat="45.86113" lon="6.51027">
        <ele>1569.6</ele>
        <time>2022-01-07T10:11:05Z</time>
      </trkpt>
      <trkpt lat="45.86113" lon="6.5103">
        <ele>1569.6</ele>
        <time>2022-01-07T10:11:07Z</time>
      </trkpt>
      <trkpt lat="45.86112" lon="6.51032">
        <ele>1571.4</ele>
        <time>2022-01-07T10:11:09Z</time>
      </trkpt>
      <trkpt lat="45.86112" lon="6.51035">
        <ele>1571.4</ele>
        <time>2022-01-07T10:11:12Z</time>
      </trkpt>
      <trkpt lat="45.86113" lon="6.51038">
        <ele>1571.4</ele>
        <time>2022-01-07T10:11:15Z</time>
      </trkpt>
      <trkpt lat="45.86113" lon="6.51042">
        <ele>1571.4</ele>
        <time>2022-01-07T10:11:18Z</time>
      </trkpt>
      <trkpt lat="45.86113" lon="6.51046">
        <ele>1571.4</ele>
        <time>2022-01-07T10:11:21Z</time>
      </trkpt>
      <trkpt lat="45.86115" lon="6.51048">
        <ele>1571.4</ele>
        <time>2022-01-07T10:11:24Z</time>
      </trkpt>
      <trkpt lat="45.86116" lon="6.51049">
        <ele>1571.4</ele>
        <time>2022-01-07T10:11:28Z</time>
      </trkpt>
      <trkpt lat="45.86119" lon="6.5105">
        <ele>1571.4</ele>
        <time>2022-01-07T10:11:31Z</time>
      </trkpt>
      <trkpt lat="45.86121" lon="6.51051">
        <ele>1571.4</ele>
        <time>2022-01-07T10:11:34Z</time>
      </trkpt>
      <trkpt lat="45.86123" lon="6.51053">
        <ele>1571.4</ele>
        <time>2022-01-07T10:11:36Z</time>
      </trkpt>
      <trkpt lat="45.86123" lon="6.51056">
        <ele>1576</ele>
        <time>2022-01-07T10:11:39Z</time>
      </trkpt>
      <trkpt lat="45.86124" lon="6.51059">
        <ele>1576</ele>
        <time>2022-01-07T10:11:41Z</time>
      </trkpt>
      <trkpt lat="45.86125" lon="6.51062">
        <ele>1576</ele>
        <time>2022-01-07T10:11:43Z</time>
      </trkpt>
      <trkpt lat="45.86125" lon="6.51064">
        <ele>1576</ele>
        <time>2022-01-07T10:11:45Z</time>
      </trkpt>
      <trkpt lat="45.86126" lon="6.51068">
        <ele>1576</ele>
        <time>2022-01-07T10:11:48Z</time>
      </trkpt>
      <trkpt lat="45.86126" lon="6.51072">
        <ele>1576</ele>
        <time>2022-01-07T10:11:51Z</time>
      </trkpt>
      <trkpt lat="45.86126" lon="6.51075">
        <ele>1576</ele>
        <time>2022-01-07T10:11:54Z</time>
      </trkpt>
      <trkpt lat="45.86126" lon="6.51079">
        <ele>1576</ele>
        <time>2022-01-07T10:11:57Z</time>
      </trkpt>
      <trkpt lat="45.86126" lon="6.51082">
        <ele>1578</ele>
        <time>2022-01-07T10:11:59Z</time>
      </trkpt>
      <trkpt lat="45.86127" lon="6.51085">
        <ele>1578</ele>
        <time>2022-01-07T10:12:01Z</time>
      </trkpt>
      <trkpt lat="45.86127" lon="6.51088">
        <ele>1578</ele>
        <time>2022-01-07T10:12:03Z</time>
      </trkpt>
      <trkpt lat="45.86126" lon="6.51091">
        <ele>1578</ele>
        <time>2022-01-07T10:12:05Z</time>
      </trkpt>
      <trkpt lat="45.86126" lon="6.51094">
        <ele>1578</ele>
        <time>2022-01-07T10:12:07Z</time>
      </trkpt>
      <trkpt lat="45.86125" lon="6.51098">
        <ele>1578</ele>
        <time>2022-01-07T10:12:09Z</time>
      </trkpt>
      <trkpt lat="45.86126" lon="6.511">
        <ele>1578</ele>
        <time>2022-01-07T10:12:11Z</time>
      </trkpt>
      <trkpt lat="45.86127" lon="6.51104">
        <ele>1578</ele>
        <time>2022-01-07T10:12:14Z</time>
      </trkpt>
      <trkpt lat="45.86126" lon="6.51107">
        <ele>1578</ele>
        <time>2022-01-07T10:12:16Z</time>
      </trkpt>
      <trkpt lat="45.86127" lon="6.51109">
        <ele>1578</ele>
        <time>2022-01-07T10:12:18Z</time>
      </trkpt>
      <trkpt lat="45.86127" lon="6.51112">
        <ele>1578</ele>
        <time>2022-01-07T10:12:20Z</time>
      </trkpt>
      <trkpt lat="45.86127" lon="6.51115">
        <ele>1578</ele>
        <time>2022-01-07T10:12:22Z</time>
      </trkpt>
      <trkpt lat="45.86128" lon="6.51119">
        <ele>1578</ele>
        <time>2022-01-07T10:12:25Z</time>
      </trkpt>
      <trkpt lat="45.86128" lon="6.51122">
        <ele>1578</ele>
        <time>2022-01-07T10:12:27Z</time>
      </trkpt>
      <trkpt lat="45.86128" lon="6.51124">
        <ele>1579.6</ele>
        <time>2022-01-07T10:12:29Z</time>
      </trkpt>
      <trkpt lat="45.86128" lon="6.51128">
        <ele>1579.6</ele>
        <time>2022-01-07T10:12:32Z</time>
      </trkpt>
      <trkpt lat="45.86129" lon="6.51131">
        <ele>1579.6</ele>
        <time>2022-01-07T10:12:35Z</time>
      </trkpt>
      <trkpt lat="45.86129" lon="6.51134">
        <ele>1579.6</ele>
        <time>2022-01-07T10:12:37Z</time>
      </trkpt>
      <trkpt lat="45.8613" lon="6.51137">
        <ele>1579.6</ele>
        <time>2022-01-07T10:12:40Z</time>
      </trkpt>
      <trkpt lat="45.86131" lon="6.51141">
        <ele>1579.6</ele>
        <time>2022-01-07T10:12:43Z</time>
      </trkpt>
      <trkpt lat="45.86131" lon="6.51145">
        <ele>1579.6</ele>
        <time>2022-01-07T10:12:46Z</time>
      </trkpt>
      <trkpt lat="45.86132" lon="6.51147">
        <ele>1579.6</ele>
        <time>2022-01-07T10:12:48Z</time>
      </trkpt>
      <trkpt lat="45.86132" lon="6.5115">
        <ele>1579.6</ele>
        <time>2022-01-07T10:12:50Z</time>
      </trkpt>
      <trkpt lat="45.86133" lon="6.51155">
        <ele>1579.6</ele>
        <time>2022-01-07T10:12:54Z</time>
      </trkpt>
      <trkpt lat="45.86133" lon="6.51157">
        <ele>1579.6</ele>
        <time>2022-01-07T10:12:56Z</time>
      </trkpt>
      <trkpt lat="45.86133" lon="6.51161">
        <ele>1581.8</ele>
        <time>2022-01-07T10:12:59Z</time>
      </trkpt>
      <trkpt lat="45.86133" lon="6.51164">
        <ele>1581.8</ele>
        <time>2022-01-07T10:13:01Z</time>
      </trkpt>
      <trkpt lat="45.86132" lon="6.51168">
        <ele>1581.8</ele>
        <time>2022-01-07T10:13:04Z</time>
      </trkpt>
      <trkpt lat="45.86132" lon="6.5117">
        <ele>1581.8</ele>
        <time>2022-01-07T10:13:06Z</time>
      </trkpt>
      <trkpt lat="45.86131" lon="6.51175">
        <ele>1581.8</ele>
        <time>2022-01-07T10:13:10Z</time>
      </trkpt>
      <trkpt lat="45.86131" lon="6.51178">
        <ele>1581.8</ele>
        <time>2022-01-07T10:13:12Z</time>
      </trkpt>
      <trkpt lat="45.8613" lon="6.5118">
        <ele>1581.8</ele>
        <time>2022-01-07T10:13:14Z</time>
      </trkpt>
      <trkpt lat="45.86129" lon="6.51183">
        <ele>1581.8</ele>
        <time>2022-01-07T10:13:17Z</time>
      </trkpt>
      <trkpt lat="45.86128" lon="6.51187">
        <ele>1581.8</ele>
        <time>2022-01-07T10:13:21Z</time>
      </trkpt>
      <trkpt lat="45.86128" lon="6.5119">
        <ele>1581.8</ele>
        <time>2022-01-07T10:13:24Z</time>
      </trkpt>
      <trkpt lat="45.86129" lon="6.51193">
        <ele>1581.8</ele>
        <time>2022-01-07T10:13:26Z</time>
      </trkpt>
      <trkpt lat="45.86128" lon="6.51196">
        <ele>1585</ele>
        <time>2022-01-07T10:13:29Z</time>
      </trkpt>
      <trkpt lat="45.86128" lon="6.51199">
        <ele>1585</ele>
        <time>2022-01-07T10:13:31Z</time>
      </trkpt>
      <trkpt lat="45.86128" lon="6.51203">
        <ele>1585</ele>
        <time>2022-01-07T10:13:34Z</time>
      </trkpt>
      <trkpt lat="45.86127" lon="6.51206">
        <ele>1585</ele>
        <time>2022-01-07T10:13:36Z</time>
      </trkpt>
      <trkpt lat="45.86126" lon="6.51209">
        <ele>1585</ele>
        <time>2022-01-07T10:13:38Z</time>
      </trkpt>
      <trkpt lat="45.86125" lon="6.51212">
        <ele>1585</ele>
        <time>2022-01-07T10:13:41Z</time>
      </trkpt>
      <trkpt lat="45.86124" lon="6.51215">
        <ele>1585</ele>
        <time>2022-01-07T10:13:44Z</time>
      </trkpt>
      <trkpt lat="45.86123" lon="6.51219">
        <ele>1585</ele>
        <time>2022-01-07T10:13:47Z</time>
      </trkpt>
      <trkpt lat="45.86123" lon="6.51222">
        <ele>1585</ele>
        <time>2022-01-07T10:13:50Z</time>
      </trkpt>
      <trkpt lat="45.86123" lon="6.51225">
        <ele>1585</ele>
        <time>2022-01-07T10:13:53Z</time>
      </trkpt>
      <trkpt lat="45.86123" lon="6.51229">
        <ele>1585</ele>
        <time>2022-01-07T10:13:56Z</time>
      </trkpt>
      <trkpt lat="45.86123" lon="6.51232">
        <ele>1588.8</ele>
        <time>2022-01-07T10:13:59Z</time>
      </trkpt>
      <trkpt lat="45.86123" lon="6.51235">
        <ele>1588.8</ele>
        <time>2022-01-07T10:14:02Z</time>
      </trkpt>
      <trkpt lat="45.86123" lon="6.51239">
        <ele>1588.8</ele>
        <time>2022-01-07T10:14:05Z</time>
      </trkpt>
      <trkpt lat="45.86124" lon="6.51242">
        <ele>1588.8</ele>
        <time>2022-01-07T10:14:08Z</time>
      </trkpt>
      <trkpt lat="45.86125" lon="6.51245">
        <ele>1588.8</ele>
        <time>2022-01-07T10:14:10Z</time>
      </trkpt>
      <trkpt lat="45.86125" lon="6.51248">
        <ele>1588.8</ele>
        <time>2022-01-07T10:14:12Z</time>
      </trkpt>
      <trkpt lat="45.86125" lon="6.51251">
        <ele>1588.8</ele>
        <time>2022-01-07T10:14:14Z</time>
      </trkpt>
      <trkpt lat="45.86126" lon="6.51254">
        <ele>1588.8</ele>
        <time>2022-01-07T10:14:16Z</time>
      </trkpt>
      <trkpt lat="45.86126" lon="6.51257">
        <ele>1588.8</ele>
        <time>2022-01-07T10:14:18Z</time>
      </trkpt>
      <trkpt lat="45.86126" lon="6.51261">
        <ele>1588.8</ele>
        <time>2022-01-07T10:14:21Z</time>
      </trkpt>
      <trkpt lat="45.86126" lon="6.51265">
        <ele>1588.8</ele>
        <time>2022-01-07T10:14:24Z</time>
      </trkpt>
      <trkpt lat="45.86126" lon="6.51268">
        <ele>1588.8</ele>
        <time>2022-01-07T10:14:27Z</time>
      </trkpt>
      <trkpt lat="45.86125" lon="6.51272">
        <ele>1588.8</ele>
        <time>2022-01-07T10:14:30Z</time>
      </trkpt>
      <trkpt lat="45.86125" lon="6.51276">
        <ele>1588.8</ele>
        <time>2022-01-07T10:14:33Z</time>
      </trkpt>
      <trkpt lat="45.86124" lon="6.51279">
        <ele>1588.8</ele>
        <time>2022-01-07T10:14:36Z</time>
      </trkpt>
      <trkpt lat="45.86124" lon="6.51282">
        <ele>1588.8</ele>
        <time>2022-01-07T10:14:38Z</time>
      </trkpt>
      <trkpt lat="45.86124" lon="6.51286">
        <ele>1588.8</ele>
        <time>2022-01-07T10:14:40Z</time>
      </trkpt>
      <trkpt lat="45.86123" lon="6.5129">
        <ele>1588.8</ele>
        <time>2022-01-07T10:14:43Z</time>
      </trkpt>
      <trkpt lat="45.86122" lon="6.51293">
        <ele>1588.8</ele>
        <time>2022-01-07T10:14:46Z</time>
      </trkpt>
      <trkpt lat="45.86121" lon="6.51297">
        <ele>1588.8</ele>
        <time>2022-01-07T10:14:48Z</time>
      </trkpt>
      <trkpt lat="45.8612" lon="6.51299">
        <ele>1588.8</ele>
        <time>2022-01-07T10:14:50Z</time>
      </trkpt>
      <trkpt lat="45.86119" lon="6.51303">
        <ele>1588.8</ele>
        <time>2022-01-07T10:14:53Z</time>
      </trkpt>
      <trkpt lat="45.86119" lon="6.51305">
        <ele>1588.8</ele>
        <time>2022-01-07T10:14:55Z</time>
      </trkpt>
      <trkpt lat="45.86117" lon="6.51309">
        <ele>1588.8</ele>
        <time>2022-01-07T10:14:58Z</time>
      </trkpt>
      <trkpt lat="45.86116" lon="6.51314">
        <ele>1588.8</ele>
        <time>2022-01-07T10:15:02Z</time>
      </trkpt>
      <trkpt lat="45.86115" lon="6.51315">
        <ele>1588.8</ele>
        <time>2022-01-07T10:15:03Z</time>
      </trkpt>
      <trkpt lat="45.86114" lon="6.51318">
        <ele>1588.8</ele>
        <time>2022-01-07T10:15:05Z</time>
      </trkpt>
      <trkpt lat="45.86113" lon="6.51321">
        <ele>1588.8</ele>
        <time>2022-01-07T10:15:07Z</time>
      </trkpt>
      <trkpt lat="45.86112" lon="6.51323">
        <ele>1593.2</ele>
        <time>2022-01-07T10:15:09Z</time>
      </trkpt>
      <trkpt lat="45.86111" lon="6.51326">
        <ele>1593.2</ele>
        <time>2022-01-07T10:15:11Z</time>
      </trkpt>
      <trkpt lat="45.8611" lon="6.51328">
        <ele>1593.2</ele>
        <time>2022-01-07T10:15:14Z</time>
      </trkpt>
      <trkpt lat="45.86109" lon="6.5133">
        <ele>1593.2</ele>
        <time>2022-01-07T10:15:16Z</time>
      </trkpt>
      <trkpt lat="45.86108" lon="6.51334">
        <ele>1594</ele>
        <time>2022-01-07T10:15:19Z</time>
      </trkpt>
      <trkpt lat="45.86107" lon="6.51336">
        <ele>1594</ele>
        <time>2022-01-07T10:15:21Z</time>
      </trkpt>
      <trkpt lat="45.86106" lon="6.51338">
        <ele>1594</ele>
        <time>2022-01-07T10:15:23Z</time>
      </trkpt>
      <trkpt lat="45.86104" lon="6.5134">
        <ele>1594</ele>
        <time>2022-01-07T10:15:25Z</time>
      </trkpt>
      <trkpt lat="45.86103" lon="6.51342">
        <ele>1594</ele>
        <time>2022-01-07T10:15:27Z</time>
      </trkpt>
      <trkpt lat="45.86102" lon="6.51345">
        <ele>1595.4</ele>
        <time>2022-01-07T10:15:29Z</time>
      </trkpt>
      <trkpt lat="45.86101" lon="6.51347">
        <ele>1595.4</ele>
        <time>2022-01-07T10:15:31Z</time>
      </trkpt>
      <trkpt lat="45.86099" lon="6.5135">
        <ele>1595.4</ele>
        <time>2022-01-07T10:15:33Z</time>
      </trkpt>
      <trkpt lat="45.86098" lon="6.51352">
        <ele>1595.4</ele>
        <time>2022-01-07T10:15:35Z</time>
      </trkpt>
      <trkpt lat="45.86096" lon="6.51355">
        <ele>1595.4</ele>
        <time>2022-01-07T10:15:37Z</time>
      </trkpt>
      <trkpt lat="45.86095" lon="6.51357">
        <ele>1595.4</ele>
        <time>2022-01-07T10:15:39Z</time>
      </trkpt>
      <trkpt lat="45.86094" lon="6.51359">
        <ele>1595.4</ele>
        <time>2022-01-07T10:15:41Z</time>
      </trkpt>
      <trkpt lat="45.86092" lon="6.51363">
        <ele>1595.4</ele>
        <time>2022-01-07T10:15:44Z</time>
      </trkpt>
      <trkpt lat="45.86091" lon="6.51366">
        <ele>1595.4</ele>
        <time>2022-01-07T10:15:47Z</time>
      </trkpt>
      <trkpt lat="45.86091" lon="6.51369">
        <ele>1595.8</ele>
        <time>2022-01-07T10:15:49Z</time>
      </trkpt>
      <trkpt lat="45.86091" lon="6.51372">
        <ele>1595.8</ele>
        <time>2022-01-07T10:15:51Z</time>
      </trkpt>
      <trkpt lat="45.8609" lon="6.51375">
        <ele>1595.8</ele>
        <time>2022-01-07T10:15:53Z</time>
      </trkpt>
      <trkpt lat="45.8609" lon="6.51378">
        <ele>1595.8</ele>
        <time>2022-01-07T10:15:55Z</time>
      </trkpt>
      <trkpt lat="45.8609" lon="6.51381">
        <ele>1595.8</ele>
        <time>2022-01-07T10:15:57Z</time>
      </trkpt>
      <trkpt lat="45.8609" lon="6.51385">
        <ele>1595.8</ele>
        <time>2022-01-07T10:16:00Z</time>
      </trkpt>
      <trkpt lat="45.86091" lon="6.51388">
        <ele>1595.8</ele>
        <time>2022-01-07T10:16:03Z</time>
      </trkpt>
      <trkpt lat="45.86092" lon="6.51391">
        <ele>1595.8</ele>
        <time>2022-01-07T10:16:05Z</time>
      </trkpt>
      <trkpt lat="45.86093" lon="6.51395">
        <ele>1595.8</ele>
        <time>2022-01-07T10:16:07Z</time>
      </trkpt>
      <trkpt lat="45.86093" lon="6.51399">
        <ele>1597</ele>
        <time>2022-01-07T10:16:09Z</time>
      </trkpt>
      <trkpt lat="45.86095" lon="6.51403">
        <ele>1597</ele>
        <time>2022-01-07T10:16:12Z</time>
      </trkpt>
      <trkpt lat="45.86095" lon="6.51405">
        <ele>1597</ele>
        <time>2022-01-07T10:16:13Z</time>
      </trkpt>
      <trkpt lat="45.86096" lon="6.51408">
        <ele>1597</ele>
        <time>2022-01-07T10:16:15Z</time>
      </trkpt>
      <trkpt lat="45.86097" lon="6.51411">
        <ele>1597</ele>
        <time>2022-01-07T10:16:18Z</time>
      </trkpt>
      <trkpt lat="45.86097" lon="6.51414">
        <ele>1597</ele>
        <time>2022-01-07T10:16:20Z</time>
      </trkpt>
      <trkpt lat="45.86098" lon="6.51417">
        <ele>1597</ele>
        <time>2022-01-07T10:16:22Z</time>
      </trkpt>
      <trkpt lat="45.86098" lon="6.5142">
        <ele>1597</ele>
        <time>2022-01-07T10:16:24Z</time>
      </trkpt>
      <trkpt lat="45.86099" lon="6.51423">
        <ele>1597</ele>
        <time>2022-01-07T10:16:26Z</time>
      </trkpt>
      <trkpt lat="45.86098" lon="6.51426">
        <ele>1597</ele>
        <time>2022-01-07T10:16:31Z</time>
      </trkpt>
      <trkpt lat="45.86099" lon="6.51429">
        <ele>1597</ele>
        <time>2022-01-07T10:16:34Z</time>
      </trkpt>
      <trkpt lat="45.86099" lon="6.51432">
        <ele>1597</ele>
        <time>2022-01-07T10:16:36Z</time>
      </trkpt>
      <trkpt lat="45.86099" lon="6.51434">
        <ele>1597</ele>
        <time>2022-01-07T10:16:38Z</time>
      </trkpt>
      <trkpt lat="45.86101" lon="6.51437">
        <ele>1597</ele>
        <time>2022-01-07T10:16:41Z</time>
      </trkpt>
      <trkpt lat="45.86103" lon="6.51438">
        <ele>1597</ele>
        <time>2022-01-07T10:16:46Z</time>
      </trkpt>
      <trkpt lat="45.861" lon="6.51439">
        <ele>1597</ele>
        <time>2022-01-07T10:17:16Z</time>
      </trkpt>
      <trkpt lat="45.86099" lon="6.51441">
        <ele>1597</ele>
        <time>2022-01-07T10:17:18Z</time>
      </trkpt>
      <trkpt lat="45.86097" lon="6.51444">
        <ele>1597</ele>
        <time>2022-01-07T10:17:23Z</time>
      </trkpt>
      <trkpt lat="45.86096" lon="6.51447">
        <ele>1597</ele>
        <time>2022-01-07T10:17:26Z</time>
      </trkpt>
      <trkpt lat="45.86095" lon="6.51449">
        <ele>1597</ele>
        <time>2022-01-07T10:17:28Z</time>
      </trkpt>
      <trkpt lat="45.86094" lon="6.51453">
        <ele>1597</ele>
        <time>2022-01-07T10:17:31Z</time>
      </trkpt>
      <trkpt lat="45.86093" lon="6.51455">
        <ele>1597</ele>
        <time>2022-01-07T10:17:34Z</time>
      </trkpt>
      <trkpt lat="45.86093" lon="6.51459">
        <ele>1597</ele>
        <time>2022-01-07T10:17:37Z</time>
      </trkpt>
      <trkpt lat="45.86092" lon="6.51461">
        <ele>1599.6</ele>
        <time>2022-01-07T10:17:39Z</time>
      </trkpt>
      <trkpt lat="45.86091" lon="6.51464">
        <ele>1599.6</ele>
        <time>2022-01-07T10:17:41Z</time>
      </trkpt>
      <trkpt lat="45.86091" lon="6.51467">
        <ele>1599.6</ele>
        <time>2022-01-07T10:17:45Z</time>
      </trkpt>
      <trkpt lat="45.86092" lon="6.5147">
        <ele>1599.6</ele>
        <time>2022-01-07T10:17:47Z</time>
      </trkpt>
      <trkpt lat="45.86092" lon="6.51473">
        <ele>1599.6</ele>
        <time>2022-01-07T10:17:50Z</time>
      </trkpt>
      <trkpt lat="45.86091" lon="6.51476">
        <ele>1599.6</ele>
        <time>2022-01-07T10:17:53Z</time>
      </trkpt>
      <trkpt lat="45.86092" lon="6.5148">
        <ele>1599.6</ele>
        <time>2022-01-07T10:17:56Z</time>
      </trkpt>
      <trkpt lat="45.86092" lon="6.51484">
        <ele>1602.6</ele>
        <time>2022-01-07T10:17:59Z</time>
      </trkpt>
      <trkpt lat="45.86093" lon="6.51487">
        <ele>1602.6</ele>
        <time>2022-01-07T10:18:02Z</time>
      </trkpt>
      <trkpt lat="45.86094" lon="6.5149">
        <ele>1602.6</ele>
        <time>2022-01-07T10:18:06Z</time>
      </trkpt>
      <trkpt lat="45.86095" lon="6.51493">
        <ele>1604.4</ele>
        <time>2022-01-07T10:18:09Z</time>
      </trkpt>
      <trkpt lat="45.86096" lon="6.51497">
        <ele>1604.4</ele>
        <time>2022-01-07T10:18:13Z</time>
      </trkpt>
      <trkpt lat="45.86096" lon="6.515">
        <ele>1604.4</ele>
        <time>2022-01-07T10:18:16Z</time>
      </trkpt>
      <trkpt lat="45.86095" lon="6.51502">
        <ele>1604.4</ele>
        <time>2022-01-07T10:18:21Z</time>
      </trkpt>
      <trkpt lat="45.86095" lon="6.51505">
        <ele>1604.4</ele>
        <time>2022-01-07T10:18:24Z</time>
      </trkpt>
      <trkpt lat="45.86096" lon="6.51507">
        <ele>1604.4</ele>
        <time>2022-01-07T10:18:28Z</time>
      </trkpt>
      <trkpt lat="45.86097" lon="6.51511">
        <ele>1604.4</ele>
        <time>2022-01-07T10:18:35Z</time>
      </trkpt>
      <trkpt lat="45.86098" lon="6.51513">
        <ele>1604.4</ele>
        <time>2022-01-07T10:18:38Z</time>
      </trkpt>
      <trkpt lat="45.86098" lon="6.51516">
        <ele>1604.4</ele>
        <time>2022-01-07T10:18:41Z</time>
      </trkpt>
      <trkpt lat="45.86098" lon="6.51519">
        <ele>1604.4</ele>
        <time>2022-01-07T10:18:44Z</time>
      </trkpt>
      <trkpt lat="45.86098" lon="6.51522">
        <ele>1604.4</ele>
        <time>2022-01-07T10:18:46Z</time>
      </trkpt>
      <trkpt lat="45.86098" lon="6.51525">
        <ele>1614.2</ele>
        <time>2022-01-07T10:18:49Z</time>
      </trkpt>
      <trkpt lat="45.86098" lon="6.51528">
        <ele>1614.2</ele>
        <time>2022-01-07T10:18:52Z</time>
      </trkpt>
      <trkpt lat="45.861" lon="6.5153">
        <ele>1614.2</ele>
        <time>2022-01-07T10:18:56Z</time>
      </trkpt>
      <trkpt lat="45.86101" lon="6.51532">
        <ele>1616.6</ele>
        <time>2022-01-07T10:18:59Z</time>
      </trkpt>
      <trkpt lat="45.86103" lon="6.51533">
        <ele>1616.6</ele>
        <time>2022-01-07T10:19:03Z</time>
      </trkpt>
      <trkpt lat="45.86106" lon="6.51532">
        <ele>1616.6</ele>
        <time>2022-01-07T10:19:07Z</time>
      </trkpt>
      <trkpt lat="45.86108" lon="6.51531">
        <ele>1616.6</ele>
        <time>2022-01-07T10:19:12Z</time>
      </trkpt>
      <trkpt lat="45.8611" lon="6.51533">
        <ele>1616.6</ele>
        <time>2022-01-07T10:19:16Z</time>
      </trkpt>
      <trkpt lat="45.86112" lon="6.51533">
        <ele>1621.4</ele>
        <time>2022-01-07T10:19:19Z</time>
      </trkpt>
      <trkpt lat="45.86114" lon="6.51533">
        <ele>1621.4</ele>
        <time>2022-01-07T10:19:21Z</time>
      </trkpt>
      <trkpt lat="45.86116" lon="6.51533">
        <ele>1621.4</ele>
        <time>2022-01-07T10:19:24Z</time>
      </trkpt>
      <trkpt lat="45.86118" lon="6.51534">
        <ele>1621.4</ele>
        <time>2022-01-07T10:19:26Z</time>
      </trkpt>
      <trkpt lat="45.86121" lon="6.51535">
        <ele>1624</ele>
        <time>2022-01-07T10:19:29Z</time>
      </trkpt>
      <trkpt lat="45.86123" lon="6.51536">
        <ele>1624</ele>
        <time>2022-01-07T10:19:32Z</time>
      </trkpt>
      <trkpt lat="45.86124" lon="6.51539">
        <ele>1624</ele>
        <time>2022-01-07T10:19:35Z</time>
      </trkpt>
      <trkpt lat="45.86125" lon="6.51541">
        <ele>1624</ele>
        <time>2022-01-07T10:19:38Z</time>
      </trkpt>
      <trkpt lat="45.86126" lon="6.51543">
        <ele>1624</ele>
        <time>2022-01-07T10:19:40Z</time>
      </trkpt>
      <trkpt lat="45.86128" lon="6.51545">
        <ele>1624</ele>
        <time>2022-01-07T10:19:43Z</time>
      </trkpt>
      <trkpt lat="45.86129" lon="6.51548">
        <ele>1624</ele>
        <time>2022-01-07T10:19:47Z</time>
      </trkpt>
      <trkpt lat="45.86132" lon="6.5155">
        <ele>1629.2</ele>
        <time>2022-01-07T10:19:49Z</time>
      </trkpt>
      <trkpt lat="45.86133" lon="6.51552">
        <ele>1629.2</ele>
        <time>2022-01-07T10:19:52Z</time>
      </trkpt>
      <trkpt lat="45.86134" lon="6.51554">
        <ele>1629.2</ele>
        <time>2022-01-07T10:19:54Z</time>
      </trkpt>
      <trkpt lat="45.86136" lon="6.51557">
        <ele>1629.2</ele>
        <time>2022-01-07T10:19:57Z</time>
      </trkpt>
      <trkpt lat="45.86137" lon="6.51559">
        <ele>1629.2</ele>
        <time>2022-01-07T10:20:00Z</time>
      </trkpt>
      <trkpt lat="45.86139" lon="6.51561">
        <ele>1629.2</ele>
        <time>2022-01-07T10:20:06Z</time>
      </trkpt>
      <trkpt lat="45.86139" lon="6.51566">
        <ele>1629.2</ele>
        <time>2022-01-07T10:21:32Z</time>
      </trkpt>
      <trkpt lat="45.8614" lon="6.51569">
        <ele>1629.2</ele>
        <time>2022-01-07T10:21:34Z</time>
      </trkpt>
      <trkpt lat="45.86141" lon="6.51572">
        <ele>1629.2</ele>
        <time>2022-01-07T10:21:36Z</time>
      </trkpt>
      <trkpt lat="45.86142" lon="6.51575">
        <ele>1629.2</ele>
        <time>2022-01-07T10:21:38Z</time>
      </trkpt>
      <trkpt lat="45.86143" lon="6.51579">
        <ele>1629.2</ele>
        <time>2022-01-07T10:21:41Z</time>
      </trkpt>
      <trkpt lat="45.86143" lon="6.51583">
        <ele>1629.2</ele>
        <time>2022-01-07T10:21:44Z</time>
      </trkpt>
      <trkpt lat="45.86144" lon="6.51586">
        <ele>1629.2</ele>
        <time>2022-01-07T10:21:46Z</time>
      </trkpt>
      <trkpt lat="45.86145" lon="6.5159">
        <ele>1635.4</ele>
        <time>2022-01-07T10:21:49Z</time>
      </trkpt>
      <trkpt lat="45.86145" lon="6.51593">
        <ele>1635.4</ele>
        <time>2022-01-07T10:21:51Z</time>
      </trkpt>
      <trkpt lat="45.86146" lon="6.51596">
        <ele>1635.4</ele>
        <time>2022-01-07T10:21:54Z</time>
      </trkpt>
      <trkpt lat="45.86146" lon="6.51599">
        <ele>1635.4</ele>
        <time>2022-01-07T10:21:56Z</time>
      </trkpt>
      <trkpt lat="45.86146" lon="6.51602">
        <ele>1635.4</ele>
        <time>2022-01-07T10:21:58Z</time>
      </trkpt>
      <trkpt lat="45.86147" lon="6.51605">
        <ele>1635.4</ele>
        <time>2022-01-07T10:22:00Z</time>
      </trkpt>
      <trkpt lat="45.86147" lon="6.51608">
        <ele>1635.4</ele>
        <time>2022-01-07T10:22:02Z</time>
      </trkpt>
      <trkpt lat="45.86147" lon="6.51611">
        <ele>1635.4</ele>
        <time>2022-01-07T10:22:04Z</time>
      </trkpt>
      <trkpt lat="45.86147" lon="6.51614">
        <ele>1635.4</ele>
        <time>2022-01-07T10:22:06Z</time>
      </trkpt>
      <trkpt lat="45.86146" lon="6.51619">
        <ele>1635.4</ele>
        <time>2022-01-07T10:22:08Z</time>
      </trkpt>
      <trkpt lat="45.86146" lon="6.51622">
        <ele>1638.6</ele>
        <time>2022-01-07T10:22:09Z</time>
      </trkpt>
      <trkpt lat="45.86145" lon="6.51625">
        <ele>1638.6</ele>
        <time>2022-01-07T10:22:10Z</time>
      </trkpt>
      <trkpt lat="45.86144" lon="6.51628">
        <ele>1638.6</ele>
        <time>2022-01-07T10:22:12Z</time>
      </trkpt>
      <trkpt lat="45.86143" lon="6.51631">
        <ele>1638.6</ele>
        <time>2022-01-07T10:22:14Z</time>
      </trkpt>
      <trkpt lat="45.86142" lon="6.51634">
        <ele>1638.6</ele>
        <time>2022-01-07T10:22:16Z</time>
      </trkpt>
      <trkpt lat="45.86141" lon="6.51637">
        <ele>1638.6</ele>
        <time>2022-01-07T10:22:18Z</time>
      </trkpt>
      <trkpt lat="45.8614" lon="6.5164">
        <ele>1638.6</ele>
        <time>2022-01-07T10:22:21Z</time>
      </trkpt>
      <trkpt lat="45.86138" lon="6.51642">
        <ele>1638.6</ele>
        <time>2022-01-07T10:22:24Z</time>
      </trkpt>
      <trkpt lat="45.86136" lon="6.51643">
        <ele>1638.6</ele>
        <time>2022-01-07T10:22:26Z</time>
      </trkpt>
      <trkpt lat="45.86134" lon="6.51644">
        <ele>1638.6</ele>
        <time>2022-01-07T10:22:28Z</time>
      </trkpt>
      <trkpt lat="45.86132" lon="6.51645">
        <ele>1638.6</ele>
        <time>2022-01-07T10:22:30Z</time>
      </trkpt>
      <trkpt lat="45.8613" lon="6.51647">
        <ele>1638.6</ele>
        <time>2022-01-07T10:22:33Z</time>
      </trkpt>
      <trkpt lat="45.86127" lon="6.51647">
        <ele>1638.6</ele>
        <time>2022-01-07T10:22:36Z</time>
      </trkpt>
      <trkpt lat="45.86125" lon="6.51648">
        <ele>1638.6</ele>
        <time>2022-01-07T10:22:38Z</time>
      </trkpt>
      <trkpt lat="45.86124" lon="6.5165">
        <ele>1638.6</ele>
        <time>2022-01-07T10:22:41Z</time>
      </trkpt>
      <trkpt lat="45.86123" lon="6.51653">
        <ele>1638.6</ele>
        <time>2022-01-07T10:22:44Z</time>
      </trkpt>
      <trkpt lat="45.86123" lon="6.51656">
        <ele>1638.6</ele>
        <time>2022-01-07T10:22:47Z</time>
      </trkpt>
      <trkpt lat="45.86123" lon="6.51659">
        <ele>1638.6</ele>
        <time>2022-01-07T10:22:50Z</time>
      </trkpt>
      <trkpt lat="45.86122" lon="6.51662">
        <ele>1638.6</ele>
        <time>2022-01-07T10:22:53Z</time>
      </trkpt>
      <trkpt lat="45.86121" lon="6.51665">
        <ele>1638.6</ele>
        <time>2022-01-07T10:22:55Z</time>
      </trkpt>
      <trkpt lat="45.8612" lon="6.51669">
        <ele>1638.6</ele>
        <time>2022-01-07T10:22:58Z</time>
      </trkpt>
      <trkpt lat="45.86119" lon="6.51671">
        <ele>1638.6</ele>
        <time>2022-01-07T10:23:01Z</time>
      </trkpt>
      <trkpt lat="45.86119" lon="6.51674">
        <ele>1638.6</ele>
        <time>2022-01-07T10:23:03Z</time>
      </trkpt>
      <trkpt lat="45.86119" lon="6.51677">
        <ele>1638.6</ele>
        <time>2022-01-07T10:23:06Z</time>
      </trkpt>
      <trkpt lat="45.86119" lon="6.51681">
        <ele>1649.6</ele>
        <time>2022-01-07T10:23:09Z</time>
      </trkpt>
      <trkpt lat="45.86119" lon="6.51684">
        <ele>1649.6</ele>
        <time>2022-01-07T10:23:12Z</time>
      </trkpt>
      <trkpt lat="45.86119" lon="6.51687">
        <ele>1649.6</ele>
        <time>2022-01-07T10:23:15Z</time>
      </trkpt>
      <trkpt lat="45.86119" lon="6.5169">
        <ele>1649.6</ele>
        <time>2022-01-07T10:23:18Z</time>
      </trkpt>
      <trkpt lat="45.86119" lon="6.51693">
        <ele>1649.6</ele>
        <time>2022-01-07T10:23:20Z</time>
      </trkpt>
      <trkpt lat="45.86119" lon="6.51697">
        <ele>1649.6</ele>
        <time>2022-01-07T10:23:23Z</time>
      </trkpt>
      <trkpt lat="45.86117" lon="6.51699">
        <ele>1649.6</ele>
        <time>2022-01-07T10:23:26Z</time>
      </trkpt>
      <trkpt lat="45.86116" lon="6.51701">
        <ele>1653.6</ele>
        <time>2022-01-07T10:23:29Z</time>
      </trkpt>
      <trkpt lat="45.86115" lon="6.51704">
        <ele>1653.6</ele>
        <time>2022-01-07T10:23:31Z</time>
      </trkpt>
      <trkpt lat="45.86114" lon="6.51706">
        <ele>1653.6</ele>
        <time>2022-01-07T10:23:33Z</time>
      </trkpt>
      <trkpt lat="45.86113" lon="6.5171">
        <ele>1653.6</ele>
        <time>2022-01-07T10:23:36Z</time>
      </trkpt>
      <trkpt lat="45.86114" lon="6.51713">
        <ele>1656.2</ele>
        <time>2022-01-07T10:23:39Z</time>
      </trkpt>
      <trkpt lat="45.86114" lon="6.51715">
        <ele>1656.2</ele>
        <time>2022-01-07T10:23:42Z</time>
      </trkpt>
      <trkpt lat="45.86113" lon="6.51718">
        <ele>1656.2</ele>
        <time>2022-01-07T10:23:45Z</time>
      </trkpt>
      <trkpt lat="45.86113" lon="6.51721">
        <ele>1656.2</ele>
        <time>2022-01-07T10:23:48Z</time>
      </trkpt>
      <trkpt lat="45.86112" lon="6.51725">
        <ele>1656.2</ele>
        <time>2022-01-07T10:23:51Z</time>
      </trkpt>
      <trkpt lat="45.86111" lon="6.51727">
        <ele>1656.2</ele>
        <time>2022-01-07T10:23:53Z</time>
      </trkpt>
      <trkpt lat="45.86109" lon="6.51729">
        <ele>1656.2</ele>
        <time>2022-01-07T10:23:55Z</time>
      </trkpt>
      <trkpt lat="45.86108" lon="6.51731">
        <ele>1656.2</ele>
        <time>2022-01-07T10:23:57Z</time>
      </trkpt>
      <trkpt lat="45.86108" lon="6.51734">
        <ele>1661.8</ele>
        <time>2022-01-07T10:23:59Z</time>
      </trkpt>
      <trkpt lat="45.86107" lon="6.51737">
        <ele>1661.8</ele>
        <time>2022-01-07T10:24:01Z</time>
      </trkpt>
      <trkpt lat="45.86106" lon="6.51739">
        <ele>1661.8</ele>
        <time>2022-01-07T10:24:03Z</time>
      </trkpt>
      <trkpt lat="45.86104" lon="6.51742">
        <ele>1661.8</ele>
        <time>2022-01-07T10:24:06Z</time>
      </trkpt>
      <trkpt lat="45.86103" lon="6.51744">
        <ele>1661.8</ele>
        <time>2022-01-07T10:24:08Z</time>
      </trkpt>
      <trkpt lat="45.86101" lon="6.51747">
        <ele>1661.8</ele>
        <time>2022-01-07T10:24:10Z</time>
      </trkpt>
      <trkpt lat="45.861" lon="6.51749">
        <ele>1661.8</ele>
        <time>2022-01-07T10:24:13Z</time>
      </trkpt>
      <trkpt lat="45.86099" lon="6.51753">
        <ele>1661.8</ele>
        <time>2022-01-07T10:24:16Z</time>
      </trkpt>
      <trkpt lat="45.86098" lon="6.51756">
        <ele>1665.8</ele>
        <time>2022-01-07T10:24:19Z</time>
      </trkpt>
      <trkpt lat="45.86096" lon="6.51759">
        <ele>1665.8</ele>
        <time>2022-01-07T10:24:22Z</time>
      </trkpt>
      <trkpt lat="45.86094" lon="6.51761">
        <ele>1665.8</ele>
        <time>2022-01-07T10:24:25Z</time>
      </trkpt>
      <trkpt lat="45.86092" lon="6.51763">
        <ele>1665.8</ele>
        <time>2022-01-07T10:24:28Z</time>
      </trkpt>
      <trkpt lat="45.8609" lon="6.51765">
        <ele>1665.8</ele>
        <time>2022-01-07T10:24:31Z</time>
      </trkpt>
      <trkpt lat="45.86089" lon="6.51768">
        <ele>1665.8</ele>
        <time>2022-01-07T10:24:33Z</time>
      </trkpt>
      <trkpt lat="45.86088" lon="6.5177">
        <ele>1665.8</ele>
        <time>2022-01-07T10:24:35Z</time>
      </trkpt>
      <trkpt lat="45.86086" lon="6.51773">
        <ele>1665.8</ele>
        <time>2022-01-07T10:24:37Z</time>
      </trkpt>
      <trkpt lat="45.86085" lon="6.51776">
        <ele>1670</ele>
        <time>2022-01-07T10:24:39Z</time>
      </trkpt>
      <trkpt lat="45.86083" lon="6.51779">
        <ele>1670</ele>
        <time>2022-01-07T10:24:41Z</time>
      </trkpt>
      <trkpt lat="45.86081" lon="6.51782">
        <ele>1670</ele>
        <time>2022-01-07T10:24:43Z</time>
      </trkpt>
      <trkpt lat="45.86079" lon="6.51783">
        <ele>1670</ele>
        <time>2022-01-07T10:24:45Z</time>
      </trkpt>
      <trkpt lat="45.86077" lon="6.51784">
        <ele>1670</ele>
        <time>2022-01-07T10:24:47Z</time>
      </trkpt>
      <trkpt lat="45.86075" lon="6.51785">
        <ele>1670</ele>
        <time>2022-01-07T10:24:50Z</time>
      </trkpt>
      <trkpt lat="45.86074" lon="6.51788">
        <ele>1670</ele>
        <time>2022-01-07T10:24:52Z</time>
      </trkpt>
      <trkpt lat="45.86073" lon="6.5179">
        <ele>1670</ele>
        <time>2022-01-07T10:24:54Z</time>
      </trkpt>
      <trkpt lat="45.86071" lon="6.51792">
        <ele>1670</ele>
        <time>2022-01-07T10:24:56Z</time>
      </trkpt>
      <trkpt lat="45.86069" lon="6.51794">
        <ele>1670</ele>
        <time>2022-01-07T10:24:58Z</time>
      </trkpt>
      <trkpt lat="45.86068" lon="6.51796">
        <ele>1670</ele>
        <time>2022-01-07T10:25:00Z</time>
      </trkpt>
      <trkpt lat="45.86067" lon="6.51798">
        <ele>1670</ele>
        <time>2022-01-07T10:25:02Z</time>
      </trkpt>
      <trkpt lat="45.86065" lon="6.518">
        <ele>1670</ele>
        <time>2022-01-07T10:25:04Z</time>
      </trkpt>
      <trkpt lat="45.86063" lon="6.51802">
        <ele>1670</ele>
        <time>2022-01-07T10:25:06Z</time>
      </trkpt>
      <trkpt lat="45.86062" lon="6.51805">
        <ele>1670</ele>
        <time>2022-01-07T10:25:08Z</time>
      </trkpt>
      <trkpt lat="45.8606" lon="6.51807">
        <ele>1670</ele>
        <time>2022-01-07T10:25:11Z</time>
      </trkpt>
      <trkpt lat="45.86058" lon="6.51809">
        <ele>1670</ele>
        <time>2022-01-07T10:25:20Z</time>
      </trkpt>
      <trkpt lat="45.86056" lon="6.51811">
        <ele>1670</ele>
        <time>2022-01-07T10:26:50Z</time>
      </trkpt>
      <trkpt lat="45.86055" lon="6.51814">
        <ele>1670</ele>
        <time>2022-01-07T10:26:52Z</time>
      </trkpt>
      <trkpt lat="45.86054" lon="6.51817">
        <ele>1670</ele>
        <time>2022-01-07T10:26:54Z</time>
      </trkpt>
      <trkpt lat="45.86052" lon="6.51821">
        <ele>1670</ele>
        <time>2022-01-07T10:26:56Z</time>
      </trkpt>
      <trkpt lat="45.86051" lon="6.51824">
        <ele>1670</ele>
        <time>2022-01-07T10:26:58Z</time>
      </trkpt>
      <trkpt lat="45.86049" lon="6.51828">
        <ele>1670</ele>
        <time>2022-01-07T10:27:00Z</time>
      </trkpt>
      <trkpt lat="45.86048" lon="6.5183">
        <ele>1670</ele>
        <time>2022-01-07T10:27:02Z</time>
      </trkpt>
      <trkpt lat="45.86046" lon="6.51834">
        <ele>1670</ele>
        <time>2022-01-07T10:27:04Z</time>
      </trkpt>
      <trkpt lat="45.86046" lon="6.51838">
        <ele>1670</ele>
        <time>2022-01-07T10:27:06Z</time>
      </trkpt>
      <trkpt lat="45.86045" lon="6.51842">
        <ele>1670</ele>
        <time>2022-01-07T10:27:08Z</time>
      </trkpt>
      <trkpt lat="45.86044" lon="6.51845">
        <ele>1674.2</ele>
        <time>2022-01-07T10:27:09Z</time>
      </trkpt>
      <trkpt lat="45.86045" lon="6.5185">
        <ele>1674.2</ele>
        <time>2022-01-07T10:27:11Z</time>
      </trkpt>
      <trkpt lat="45.86047" lon="6.51854">
        <ele>1674.2</ele>
        <time>2022-01-07T10:27:12Z</time>
      </trkpt>
      <trkpt lat="45.86049" lon="6.51858">
        <ele>1674.2</ele>
        <time>2022-01-07T10:27:13Z</time>
      </trkpt>
      <trkpt lat="45.86051" lon="6.51864">
        <ele>1674.2</ele>
        <time>2022-01-07T10:27:14Z</time>
      </trkpt>
      <trkpt lat="45.86052" lon="6.51872">
        <ele>1674.2</ele>
        <time>2022-01-07T10:27:15Z</time>
      </trkpt>
      <trkpt lat="45.86053" lon="6.51879">
        <ele>1674.2</ele>
        <time>2022-01-07T10:27:16Z</time>
      </trkpt>
      <trkpt lat="45.86053" lon="6.51885">
        <ele>1674.2</ele>
        <time>2022-01-07T10:27:17Z</time>
      </trkpt>
      <trkpt lat="45.86054" lon="6.5189">
        <ele>1674.2</ele>
        <time>2022-01-07T10:27:18Z</time>
      </trkpt>
      <trkpt lat="45.86054" lon="6.51893">
        <ele>1674.2</ele>
        <time>2022-01-07T10:27:20Z</time>
      </trkpt>
      <trkpt lat="45.86053" lon="6.51896">
        <ele>1674.2</ele>
        <time>2022-01-07T10:27:52Z</time>
      </trkpt>
      <trkpt lat="45.86053" lon="6.519">
        <ele>1674.2</ele>
        <time>2022-01-07T10:27:54Z</time>
      </trkpt>
      <trkpt lat="45.86052" lon="6.51904">
        <ele>1674.2</ele>
        <time>2022-01-07T10:27:56Z</time>
      </trkpt>
      <trkpt lat="45.86051" lon="6.51908">
        <ele>1674.2</ele>
        <time>2022-01-07T10:27:58Z</time>
      </trkpt>
      <trkpt lat="45.8605" lon="6.51912">
        <ele>1674.2</ele>
        <time>2022-01-07T10:28:00Z</time>
      </trkpt>
      <trkpt lat="45.86049" lon="6.51914">
        <ele>1674.2</ele>
        <time>2022-01-07T10:28:02Z</time>
      </trkpt>
      <trkpt lat="45.86048" lon="6.51917">
        <ele>1674.2</ele>
        <time>2022-01-07T10:28:04Z</time>
      </trkpt>
      <trkpt lat="45.86047" lon="6.51921">
        <ele>1674.2</ele>
        <time>2022-01-07T10:28:07Z</time>
      </trkpt>
      <trkpt lat="45.86046" lon="6.51923">
        <ele>1670</ele>
        <time>2022-01-07T10:28:09Z</time>
      </trkpt>
      <trkpt lat="45.86045" lon="6.51927">
        <ele>1670</ele>
        <time>2022-01-07T10:28:11Z</time>
      </trkpt>
      <trkpt lat="45.86045" lon="6.5193">
        <ele>1670</ele>
        <time>2022-01-07T10:28:13Z</time>
      </trkpt>
      <trkpt lat="45.86044" lon="6.51934">
        <ele>1670</ele>
        <time>2022-01-07T10:28:15Z</time>
      </trkpt>
      <trkpt lat="45.86043" lon="6.51938">
        <ele>1670</ele>
        <time>2022-01-07T10:28:17Z</time>
      </trkpt>
      <trkpt lat="45.86043" lon="6.51942">
        <ele>1671.4</ele>
        <time>2022-01-07T10:28:19Z</time>
      </trkpt>
      <trkpt lat="45.86043" lon="6.51946">
        <ele>1671.4</ele>
        <time>2022-01-07T10:28:20Z</time>
      </trkpt>
      <trkpt lat="45.86043" lon="6.51949">
        <ele>1671.4</ele>
        <time>2022-01-07T10:28:21Z</time>
      </trkpt>
      <trkpt lat="45.86043" lon="6.51953">
        <ele>1671.4</ele>
        <time>2022-01-07T10:28:22Z</time>
      </trkpt>
      <trkpt lat="45.86042" lon="6.51957">
        <ele>1671.4</ele>
        <time>2022-01-07T10:28:23Z</time>
      </trkpt>
      <trkpt lat="45.86041" lon="6.51962">
        <ele>1671.4</ele>
        <time>2022-01-07T10:28:24Z</time>
      </trkpt>
      <trkpt lat="45.86041" lon="6.51966">
        <ele>1671.4</ele>
        <time>2022-01-07T10:28:25Z</time>
      </trkpt>
      <trkpt lat="45.86041" lon="6.51969">
        <ele>1671.4</ele>
        <time>2022-01-07T10:28:26Z</time>
      </trkpt>
      <trkpt lat="45.86041" lon="6.51971">
        <ele>1671.4</ele>
        <time>2022-01-07T10:28:27Z</time>
      </trkpt>
      <trkpt lat="45.86042" lon="6.51976">
        <ele>1668.4</ele>
        <time>2022-01-07T10:28:29Z</time>
      </trkpt>
      <trkpt lat="45.86043" lon="6.5198">
        <ele>1668.4</ele>
        <time>2022-01-07T10:28:31Z</time>
      </trkpt>
      <trkpt lat="45.86043" lon="6.51984">
        <ele>1668.4</ele>
        <time>2022-01-07T10:28:33Z</time>
      </trkpt>
      <trkpt lat="45.86044" lon="6.51987">
        <ele>1668.4</ele>
        <time>2022-01-07T10:28:35Z</time>
      </trkpt>
      <trkpt lat="45.86044" lon="6.51991">
        <ele>1668</ele>
        <time>2022-01-07T10:28:39Z</time>
      </trkpt>
      <trkpt lat="45.86044" lon="6.51994">
        <ele>1668</ele>
        <time>2022-01-07T10:28:41Z</time>
      </trkpt>
      <trkpt lat="45.86046" lon="6.51996">
        <ele>1668</ele>
        <time>2022-01-07T10:28:43Z</time>
      </trkpt>
      <trkpt lat="45.86047" lon="6.51998">
        <ele>1668</ele>
        <time>2022-01-07T10:28:46Z</time>
      </trkpt>
      <trkpt lat="45.86049" lon="6.51998">
        <ele>1668</ele>
        <time>2022-01-07T10:28:50Z</time>
      </trkpt>
      <trkpt lat="45.86051" lon="6.51996">
        <ele>1668</ele>
        <time>2022-01-07T10:28:54Z</time>
      </trkpt>
      <trkpt lat="45.86052" lon="6.51999">
        <ele>1668</ele>
        <time>2022-01-07T10:29:17Z</time>
      </trkpt>
      <trkpt lat="45.86051" lon="6.52002">
        <ele>1671.8</ele>
        <time>2022-01-07T10:29:19Z</time>
      </trkpt>
      <trkpt lat="45.86051" lon="6.52005">
        <ele>1671.8</ele>
        <time>2022-01-07T10:29:21Z</time>
      </trkpt>
      <trkpt lat="45.86051" lon="6.52009">
        <ele>1671.8</ele>
        <time>2022-01-07T10:29:24Z</time>
      </trkpt>
      <trkpt lat="45.86051" lon="6.52013">
        <ele>1671.8</ele>
        <time>2022-01-07T10:29:26Z</time>
      </trkpt>
      <trkpt lat="45.86051" lon="6.52016">
        <ele>1673.4</ele>
        <time>2022-01-07T10:29:29Z</time>
      </trkpt>
      <trkpt lat="45.86049" lon="6.52018">
        <ele>1673.4</ele>
        <time>2022-01-07T10:29:31Z</time>
      </trkpt>
      <trkpt lat="45.86048" lon="6.52022">
        <ele>1673.4</ele>
        <time>2022-01-07T10:29:34Z</time>
      </trkpt>
      <trkpt lat="45.86049" lon="6.52026">
        <ele>1673.4</ele>
        <time>2022-01-07T10:29:37Z</time>
      </trkpt>
      <trkpt lat="45.86049" lon="6.52028">
        <ele>1674.2</ele>
        <time>2022-01-07T10:29:39Z</time>
      </trkpt>
      <trkpt lat="45.86048" lon="6.52032">
        <ele>1674.2</ele>
        <time>2022-01-07T10:29:42Z</time>
      </trkpt>
      <trkpt lat="45.86046" lon="6.52034">
        <ele>1674.2</ele>
        <time>2022-01-07T10:29:44Z</time>
      </trkpt>
      <trkpt lat="45.86044" lon="6.52036">
        <ele>1674.2</ele>
        <time>2022-01-07T10:29:46Z</time>
      </trkpt>
      <trkpt lat="45.86044" lon="6.52039">
        <ele>1675.8</ele>
        <time>2022-01-07T10:29:49Z</time>
      </trkpt>
      <trkpt lat="45.86043" lon="6.52042">
        <ele>1675.8</ele>
        <time>2022-01-07T10:30:00Z</time>
      </trkpt>
      <trkpt lat="45.86042" lon="6.52044">
        <ele>1675.8</ele>
        <time>2022-01-07T10:30:02Z</time>
      </trkpt>
      <trkpt lat="45.8604" lon="6.52046">
        <ele>1675.8</ele>
        <time>2022-01-07T10:30:04Z</time>
      </trkpt>
      <trkpt lat="45.86039" lon="6.52049">
        <ele>1675.8</ele>
        <time>2022-01-07T10:30:06Z</time>
      </trkpt>
      <trkpt lat="45.86038" lon="6.52051">
        <ele>1675.8</ele>
        <time>2022-01-07T10:30:08Z</time>
      </trkpt>
      <trkpt lat="45.86037" lon="6.52055">
        <ele>1675.8</ele>
        <time>2022-01-07T10:30:11Z</time>
      </trkpt>
      <trkpt lat="45.86035" lon="6.52057">
        <ele>1675.8</ele>
        <time>2022-01-07T10:30:13Z</time>
      </trkpt>
      <trkpt lat="45.86033" lon="6.52059">
        <ele>1675.8</ele>
        <time>2022-01-07T10:30:15Z</time>
      </trkpt>
      <trkpt lat="45.86031" lon="6.52061">
        <ele>1675.8</ele>
        <time>2022-01-07T10:30:17Z</time>
      </trkpt>
      <trkpt lat="45.8603" lon="6.52062">
        <ele>1677.2</ele>
        <time>2022-01-07T10:30:19Z</time>
      </trkpt>
      <trkpt lat="45.86028" lon="6.52064">
        <ele>1677.2</ele>
        <time>2022-01-07T10:30:21Z</time>
      </trkpt>
      <trkpt lat="45.86026" lon="6.52066">
        <ele>1677.2</ele>
        <time>2022-01-07T10:30:23Z</time>
      </trkpt>
      <trkpt lat="45.86024" lon="6.52068">
        <ele>1677.2</ele>
        <time>2022-01-07T10:30:26Z</time>
      </trkpt>
      <trkpt lat="45.86023" lon="6.52071">
        <ele>1678.8</ele>
        <time>2022-01-07T10:30:29Z</time>
      </trkpt>
      <trkpt lat="45.86022" lon="6.52073">
        <ele>1678.8</ele>
        <time>2022-01-07T10:30:32Z</time>
      </trkpt>
      <trkpt lat="45.8602" lon="6.52076">
        <ele>1678.8</ele>
        <time>2022-01-07T10:30:35Z</time>
      </trkpt>
      <trkpt lat="45.86019" lon="6.52078">
        <ele>1678.8</ele>
        <time>2022-01-07T10:30:38Z</time>
      </trkpt>
      <trkpt lat="45.86017" lon="6.5208">
        <ele>1678.8</ele>
        <time>2022-01-07T10:30:41Z</time>
      </trkpt>
      <trkpt lat="45.86016" lon="6.52082">
        <ele>1678.8</ele>
        <time>2022-01-07T10:30:44Z</time>
      </trkpt>
      <trkpt lat="45.86013" lon="6.52084">
        <ele>1678.8</ele>
        <time>2022-01-07T10:30:47Z</time>
      </trkpt>
      <trkpt lat="45.86012" lon="6.52085">
        <ele>1678.8</ele>
        <time>2022-01-07T10:30:51Z</time>
      </trkpt>
      <trkpt lat="45.86009" lon="6.52086">
        <ele>1678.8</ele>
        <time>2022-01-07T10:30:56Z</time>
      </trkpt>
      <trkpt lat="45.86008" lon="6.52087">
        <ele>1678.8</ele>
        <time>2022-01-07T10:30:58Z</time>
      </trkpt>
      <trkpt lat="45.86008" lon="6.52091">
        <ele>1678.8</ele>
        <time>2022-01-07T10:31:01Z</time>
      </trkpt>
      <trkpt lat="45.86007" lon="6.52095">
        <ele>1678.8</ele>
        <time>2022-01-07T10:31:04Z</time>
      </trkpt>
      <trkpt lat="45.86006" lon="6.52098">
        <ele>1678.8</ele>
        <time>2022-01-07T10:31:06Z</time>
      </trkpt>
      <trkpt lat="45.86004" lon="6.521">
        <ele>1678.8</ele>
        <time>2022-01-07T10:31:08Z</time>
      </trkpt>
      <trkpt lat="45.86002" lon="6.521">
        <ele>1678.8</ele>
        <time>2022-01-07T10:31:10Z</time>
      </trkpt>
      <trkpt lat="45.86" lon="6.52103">
        <ele>1678.8</ele>
        <time>2022-01-07T10:31:16Z</time>
      </trkpt>
      <trkpt lat="45.85999" lon="6.52106">
        <ele>1689</ele>
        <time>2022-01-07T10:31:19Z</time>
      </trkpt>
      <trkpt lat="45.85997" lon="6.52108">
        <ele>1689</ele>
        <time>2022-01-07T10:31:22Z</time>
      </trkpt>
      <trkpt lat="45.85996" lon="6.52111">
        <ele>1689</ele>
        <time>2022-01-07T10:31:26Z</time>
      </trkpt>
      <trkpt lat="45.85996" lon="6.52114">
        <ele>1691.2</ele>
        <time>2022-01-07T10:31:29Z</time>
      </trkpt>
      <trkpt lat="45.85995" lon="6.52117">
        <ele>1691.2</ele>
        <time>2022-01-07T10:31:32Z</time>
      </trkpt>
      <trkpt lat="45.85995" lon="6.5212">
        <ele>1691.2</ele>
        <time>2022-01-07T10:31:35Z</time>
      </trkpt>
      <trkpt lat="45.85995" lon="6.52124">
        <ele>1691.2</ele>
        <time>2022-01-07T10:31:38Z</time>
      </trkpt>
      <trkpt lat="45.85995" lon="6.52127">
        <ele>1691.2</ele>
        <time>2022-01-07T10:31:41Z</time>
      </trkpt>
      <trkpt lat="45.85996" lon="6.5213">
        <ele>1691.2</ele>
        <time>2022-01-07T10:31:44Z</time>
      </trkpt>
      <trkpt lat="45.85996" lon="6.52133">
        <ele>1691.2</ele>
        <time>2022-01-07T10:31:47Z</time>
      </trkpt>
      <trkpt lat="45.85996" lon="6.52136">
        <ele>1691.2</ele>
        <time>2022-01-07T10:31:50Z</time>
      </trkpt>
      <trkpt lat="45.85996" lon="6.52139">
        <ele>1691.2</ele>
        <time>2022-01-07T10:31:53Z</time>
      </trkpt>
      <trkpt lat="45.85996" lon="6.52142">
        <ele>1691.2</ele>
        <time>2022-01-07T10:31:56Z</time>
      </trkpt>
      <trkpt lat="45.85997" lon="6.52144">
        <ele>1691.2</ele>
        <time>2022-01-07T10:31:58Z</time>
      </trkpt>
      <trkpt lat="45.85996" lon="6.52147">
        <ele>1691.2</ele>
        <time>2022-01-07T10:32:01Z</time>
      </trkpt>
      <trkpt lat="45.85997" lon="6.52151">
        <ele>1691.2</ele>
        <time>2022-01-07T10:32:04Z</time>
      </trkpt>
      <trkpt lat="45.85997" lon="6.52154">
        <ele>1691.2</ele>
        <time>2022-01-07T10:32:08Z</time>
      </trkpt>
      <trkpt lat="45.85996" lon="6.52156">
        <ele>1691.2</ele>
        <time>2022-01-07T10:32:11Z</time>
      </trkpt>
      <trkpt lat="45.85994" lon="6.52159">
        <ele>1691.2</ele>
        <time>2022-01-07T10:32:16Z</time>
      </trkpt>
      <trkpt lat="45.85993" lon="6.52162">
        <ele>1702.6</ele>
        <time>2022-01-07T10:32:19Z</time>
      </trkpt>
      <trkpt lat="45.85992" lon="6.52164">
        <ele>1702.6</ele>
        <time>2022-01-07T10:32:23Z</time>
      </trkpt>
      <trkpt lat="45.8599" lon="6.52166">
        <ele>1702.6</ele>
        <time>2022-01-07T10:32:26Z</time>
      </trkpt>
      <trkpt lat="45.85988" lon="6.52168">
        <ele>1702.6</ele>
        <time>2022-01-07T10:32:31Z</time>
      </trkpt>
      <trkpt lat="45.85987" lon="6.52171">
        <ele>1702.6</ele>
        <time>2022-01-07T10:32:35Z</time>
      </trkpt>
      <trkpt lat="45.85986" lon="6.52173">
        <ele>1702.6</ele>
        <time>2022-01-07T10:32:38Z</time>
      </trkpt>
      <trkpt lat="45.85984" lon="6.52174">
        <ele>1702.6</ele>
        <time>2022-01-07T10:32:40Z</time>
      </trkpt>
      <trkpt lat="45.85982" lon="6.52177">
        <ele>1702.6</ele>
        <time>2022-01-07T10:32:44Z</time>
      </trkpt>
      <trkpt lat="45.8598" lon="6.52178">
        <ele>1702.6</ele>
        <time>2022-01-07T10:32:46Z</time>
      </trkpt>
      <trkpt lat="45.85979" lon="6.52179">
        <ele>1708.2</ele>
        <time>2022-01-07T10:32:49Z</time>
      </trkpt>
      <trkpt lat="45.85981" lon="6.52181">
        <ele>1708.2</ele>
        <time>2022-01-07T10:34:56Z</time>
      </trkpt>
      <trkpt lat="45.85984" lon="6.5218">
        <ele>1708.2</ele>
        <time>2022-01-07T10:34:58Z</time>
      </trkpt>
      <trkpt lat="45.85986" lon="6.52179">
        <ele>1708.2</ele>
        <time>2022-01-07T10:35:00Z</time>
      </trkpt>
      <trkpt lat="45.85989" lon="6.5218">
        <ele>1708.2</ele>
        <time>2022-01-07T10:35:02Z</time>
      </trkpt>
      <trkpt lat="45.8599" lon="6.52182">
        <ele>1708.2</ele>
        <time>2022-01-07T10:35:07Z</time>
      </trkpt>
      <trkpt lat="45.85989" lon="6.52185">
        <ele>1708.2</ele>
        <time>2022-01-07T10:35:10Z</time>
      </trkpt>
      <trkpt lat="45.85989" lon="6.52188">
        <ele>1708.2</ele>
        <time>2022-01-07T10:35:13Z</time>
      </trkpt>
      <trkpt lat="45.85991" lon="6.5219">
        <ele>1708.2</ele>
        <time>2022-01-07T10:35:25Z</time>
      </trkpt>
      <trkpt lat="45.85994" lon="6.52191">
        <ele>1714.2</ele>
        <time>2022-01-07T10:35:29Z</time>
      </trkpt>
      <trkpt lat="45.85996" lon="6.52192">
        <ele>1714.2</ele>
        <time>2022-01-07T10:35:32Z</time>
      </trkpt>
      <trkpt lat="45.85997" lon="6.52193">
        <ele>1714.2</ele>
        <time>2022-01-07T10:35:35Z</time>
      </trkpt>
      <trkpt lat="45.85996" lon="6.52196">
        <ele>1714.2</ele>
        <time>2022-01-07T10:35:40Z</time>
      </trkpt>
      <trkpt lat="45.85995" lon="6.52197">
        <ele>1714.2</ele>
        <time>2022-01-07T10:35:43Z</time>
      </trkpt>
      <trkpt lat="45.85993" lon="6.52199">
        <ele>1714.2</ele>
        <time>2022-01-07T10:35:46Z</time>
      </trkpt>
      <trkpt lat="45.85992" lon="6.52202">
        <ele>1714.2</ele>
        <time>2022-01-07T10:35:52Z</time>
      </trkpt>
      <trkpt lat="45.85992" lon="6.52205">
        <ele>1714.2</ele>
        <time>2022-01-07T10:35:56Z</time>
      </trkpt>
      <trkpt lat="45.85992" lon="6.52208">
        <ele>1714.2</ele>
        <time>2022-01-07T10:36:22Z</time>
      </trkpt>
      <trkpt lat="45.8599" lon="6.5221">
        <ele>1714.2</ele>
        <time>2022-01-07T10:36:24Z</time>
      </trkpt>
      <trkpt lat="45.85988" lon="6.52213">
        <ele>1714.2</ele>
        <time>2022-01-07T10:36:26Z</time>
      </trkpt>
      <trkpt lat="45.85988" lon="6.52215">
        <ele>1722.2</ele>
        <time>2022-01-07T10:36:29Z</time>
      </trkpt>
      <trkpt lat="45.85986" lon="6.52217">
        <ele>1722.2</ele>
        <time>2022-01-07T10:36:31Z</time>
      </trkpt>
      <trkpt lat="45.85984" lon="6.52218">
        <ele>1722.2</ele>
        <time>2022-01-07T10:36:34Z</time>
      </trkpt>
      <trkpt lat="45.85982" lon="6.52219">
        <ele>1722.2</ele>
        <time>2022-01-07T10:36:36Z</time>
      </trkpt>
      <trkpt lat="45.8598" lon="6.5222">
        <ele>1722.2</ele>
        <time>2022-01-07T10:36:38Z</time>
      </trkpt>
      <trkpt lat="45.85978" lon="6.5222">
        <ele>1722.2</ele>
        <time>2022-01-07T10:36:40Z</time>
      </trkpt>
      <trkpt lat="45.85976" lon="6.5222">
        <ele>1722.2</ele>
        <time>2022-01-07T10:36:42Z</time>
      </trkpt>
      <trkpt lat="45.85974" lon="6.52221">
        <ele>1722.2</ele>
        <time>2022-01-07T10:36:44Z</time>
      </trkpt>
      <trkpt lat="45.85972" lon="6.52221">
        <ele>1722.2</ele>
        <time>2022-01-07T10:36:46Z</time>
      </trkpt>
      <trkpt lat="45.8597" lon="6.52223">
        <ele>1726.4</ele>
        <time>2022-01-07T10:36:49Z</time>
      </trkpt>
      <trkpt lat="45.85969" lon="6.52226">
        <ele>1726.4</ele>
        <time>2022-01-07T10:36:52Z</time>
      </trkpt>
      <trkpt lat="45.85967" lon="6.52228">
        <ele>1726.4</ele>
        <time>2022-01-07T10:36:54Z</time>
      </trkpt>
      <trkpt lat="45.85965" lon="6.52229">
        <ele>1726.4</ele>
        <time>2022-01-07T10:36:56Z</time>
      </trkpt>
      <trkpt lat="45.85963" lon="6.5223">
        <ele>1726.4</ele>
        <time>2022-01-07T10:36:58Z</time>
      </trkpt>
      <trkpt lat="45.8596" lon="6.52231">
        <ele>1726.4</ele>
        <time>2022-01-07T10:37:01Z</time>
      </trkpt>
      <trkpt lat="45.85958" lon="6.52231">
        <ele>1726.4</ele>
        <time>2022-01-07T10:37:03Z</time>
      </trkpt>
      <trkpt lat="45.85956" lon="6.52232">
        <ele>1726.4</ele>
        <time>2022-01-07T10:37:05Z</time>
      </trkpt>
      <trkpt lat="45.85954" lon="6.52232">
        <ele>1726.4</ele>
        <time>2022-01-07T10:37:07Z</time>
      </trkpt>
      <trkpt lat="45.85952" lon="6.52232">
        <ele>1729.6</ele>
        <time>2022-01-07T10:37:09Z</time>
      </trkpt>
      <trkpt lat="45.85949" lon="6.52233">
        <ele>1729.6</ele>
        <time>2022-01-07T10:37:13Z</time>
      </trkpt>
      <trkpt lat="45.85948" lon="6.52235">
        <ele>1729.6</ele>
        <time>2022-01-07T10:37:21Z</time>
      </trkpt>
      <trkpt lat="45.85949" lon="6.52237">
        <ele>1729.6</ele>
        <time>2022-01-07T10:38:02Z</time>
      </trkpt>
      <trkpt lat="45.85951" lon="6.5224">
        <ele>1729.6</ele>
        <time>2022-01-07T10:38:04Z</time>
      </trkpt>
      <trkpt lat="45.85952" lon="6.52241">
        <ele>1729.6</ele>
        <time>2022-01-07T10:38:06Z</time>
      </trkpt>
      <trkpt lat="45.85954" lon="6.52243">
        <ele>1729.6</ele>
        <time>2022-01-07T10:38:08Z</time>
      </trkpt>
      <trkpt lat="45.85955" lon="6.52245">
        <ele>1729.6</ele>
        <time>2022-01-07T10:38:10Z</time>
      </trkpt>
      <trkpt lat="45.85955" lon="6.52248">
        <ele>1729.6</ele>
        <time>2022-01-07T10:38:18Z</time>
      </trkpt>
      <trkpt lat="45.85953" lon="6.52249">
        <ele>1729.6</ele>
        <time>2022-01-07T10:38:21Z</time>
      </trkpt>
      <trkpt lat="45.85951" lon="6.5225">
        <ele>1729.6</ele>
        <time>2022-01-07T10:38:44Z</time>
      </trkpt>
      <trkpt lat="45.85949" lon="6.52253">
        <ele>1729.6</ele>
        <time>2022-01-07T10:38:46Z</time>
      </trkpt>
      <trkpt lat="45.85948" lon="6.52256">
        <ele>1729.6</ele>
        <time>2022-01-07T10:38:47Z</time>
      </trkpt>
      <trkpt lat="45.85946" lon="6.52258">
        <ele>1738.8</ele>
        <time>2022-01-07T10:38:49Z</time>
      </trkpt>
      <trkpt lat="45.85944" lon="6.52262">
        <ele>1738.8</ele>
        <time>2022-01-07T10:38:51Z</time>
      </trkpt>
      <trkpt lat="45.85943" lon="6.52264">
        <ele>1738.8</ele>
        <time>2022-01-07T10:38:53Z</time>
      </trkpt>
      <trkpt lat="45.85943" lon="6.52267">
        <ele>1738.8</ele>
        <time>2022-01-07T10:38:57Z</time>
      </trkpt>
      <trkpt lat="45.8594" lon="6.52269">
        <ele>1738.8</ele>
        <time>2022-01-07T10:39:02Z</time>
      </trkpt>
      <trkpt lat="45.85939" lon="6.52269">
        <ele>1738.8</ele>
        <time>2022-01-07T10:39:06Z</time>
      </trkpt>
      <trkpt lat="45.85937" lon="6.52268">
        <ele>1738.8</ele>
        <time>2022-01-07T10:39:10Z</time>
      </trkpt>
      <trkpt lat="45.85934" lon="6.52271">
        <ele>1738.8</ele>
        <time>2022-01-07T10:40:56Z</time>
      </trkpt>
      <trkpt lat="45.85936" lon="6.52274">
        <ele>1738.8</ele>
        <time>2022-01-07T10:40:58Z</time>
      </trkpt>
      <trkpt lat="45.85938" lon="6.52277">
        <ele>1738.8</ele>
        <time>2022-01-07T10:41:00Z</time>
      </trkpt>
      <trkpt lat="45.85939" lon="6.5228">
        <ele>1738.8</ele>
        <time>2022-01-07T10:41:02Z</time>
      </trkpt>
      <trkpt lat="45.85941" lon="6.52282">
        <ele>1738.8</ele>
        <time>2022-01-07T10:41:04Z</time>
      </trkpt>
      <trkpt lat="45.85942" lon="6.52284">
        <ele>1738.8</ele>
        <time>2022-01-07T10:41:06Z</time>
      </trkpt>
      <trkpt lat="45.85945" lon="6.52285">
        <ele>1748.4</ele>
        <time>2022-01-07T10:41:09Z</time>
      </trkpt>
      <trkpt lat="45.85947" lon="6.52286">
        <ele>1748.4</ele>
        <time>2022-01-07T10:41:12Z</time>
      </trkpt>
      <trkpt lat="45.85949" lon="6.52285">
        <ele>1748.4</ele>
        <time>2022-01-07T10:41:15Z</time>
      </trkpt>
      <trkpt lat="45.8595" lon="6.52288">
        <ele>1750.8</ele>
        <time>2022-01-07T10:41:19Z</time>
      </trkpt>
      <trkpt lat="45.85948" lon="6.5229">
        <ele>1750.8</ele>
        <time>2022-01-07T10:41:22Z</time>
      </trkpt>
      <trkpt lat="45.85947" lon="6.52292">
        <ele>1750.8</ele>
        <time>2022-01-07T10:41:26Z</time>
      </trkpt>
      <trkpt lat="45.85945" lon="6.52293">
        <ele>1752.6</ele>
        <time>2022-01-07T10:41:29Z</time>
      </trkpt>
      <trkpt lat="45.85943" lon="6.52294">
        <ele>1752.6</ele>
        <time>2022-01-07T10:41:31Z</time>
      </trkpt>
      <trkpt lat="45.8594" lon="6.52297">
        <ele>1752.6</ele>
        <time>2022-01-07T10:41:35Z</time>
      </trkpt>
      <trkpt lat="45.85939" lon="6.523">
        <ele>1752.6</ele>
        <time>2022-01-07T10:41:38Z</time>
      </trkpt>
      <trkpt lat="45.85938" lon="6.52302">
        <ele>1752.6</ele>
        <time>2022-01-07T10:41:42Z</time>
      </trkpt>
      <trkpt lat="45.85936" lon="6.52304">
        <ele>1752.6</ele>
        <time>2022-01-07T10:41:45Z</time>
      </trkpt>
      <trkpt lat="45.85934" lon="6.52306">
        <ele>1752.6</ele>
        <time>2022-01-07T10:41:48Z</time>
      </trkpt>
      <trkpt lat="45.85933" lon="6.52308">
        <ele>1752.6</ele>
        <time>2022-01-07T10:41:52Z</time>
      </trkpt>
      <trkpt lat="45.85931" lon="6.5231">
        <ele>1752.6</ele>
        <time>2022-01-07T10:41:55Z</time>
      </trkpt>
      <trkpt lat="45.85929" lon="6.52311">
        <ele>1752.6</ele>
        <time>2022-01-07T10:41:58Z</time>
      </trkpt>
      <trkpt lat="45.85927" lon="6.52313">
        <ele>1752.6</ele>
        <time>2022-01-07T10:42:01Z</time>
      </trkpt>
      <trkpt lat="45.85926" lon="6.52316">
        <ele>1752.6</ele>
        <time>2022-01-07T10:42:04Z</time>
      </trkpt>
      <trkpt lat="45.85924" lon="6.52318">
        <ele>1752.6</ele>
        <time>2022-01-07T10:42:07Z</time>
      </trkpt>
      <trkpt lat="45.85922" lon="6.52319">
        <ele>1752.6</ele>
        <time>2022-01-07T10:42:11Z</time>
      </trkpt>
      <trkpt lat="45.8592" lon="6.5232">
        <ele>1752.6</ele>
        <time>2022-01-07T10:42:14Z</time>
      </trkpt>
      <trkpt lat="45.85918" lon="6.52321">
        <ele>1752.6</ele>
        <time>2022-01-07T10:42:18Z</time>
      </trkpt>
      <trkpt lat="45.85916" lon="6.52323">
        <ele>1752.6</ele>
        <time>2022-01-07T10:42:21Z</time>
      </trkpt>
      <trkpt lat="45.85915" lon="6.52325">
        <ele>1752.6</ele>
        <time>2022-01-07T10:42:25Z</time>
      </trkpt>
      <trkpt lat="45.85914" lon="6.52327">
        <ele>1752.6</ele>
        <time>2022-01-07T10:42:28Z</time>
      </trkpt>
      <trkpt lat="45.85911" lon="6.52329">
        <ele>1752.6</ele>
        <time>2022-01-07T10:42:31Z</time>
      </trkpt>
      <trkpt lat="45.85909" lon="6.52328">
        <ele>1752.6</ele>
        <time>2022-01-07T10:42:37Z</time>
      </trkpt>
      <trkpt lat="45.85907" lon="6.52328">
        <ele>1752.6</ele>
        <time>2022-01-07T10:42:40Z</time>
      </trkpt>
      <trkpt lat="45.85905" lon="6.52328">
        <ele>1752.6</ele>
        <time>2022-01-07T10:42:44Z</time>
      </trkpt>
      <trkpt lat="45.85903" lon="6.52329">
        <ele>1752.6</ele>
        <time>2022-01-07T10:42:48Z</time>
      </trkpt>
      <trkpt lat="45.85901" lon="6.5233">
        <ele>1752.6</ele>
        <time>2022-01-07T10:42:51Z</time>
      </trkpt>
      <trkpt lat="45.85899" lon="6.52331">
        <ele>1752.6</ele>
        <time>2022-01-07T10:42:54Z</time>
      </trkpt>
      <trkpt lat="45.85897" lon="6.52332">
        <ele>1771.4</ele>
        <time>2022-01-07T10:42:59Z</time>
      </trkpt>
      <trkpt lat="45.85895" lon="6.52332">
        <ele>1771.4</ele>
        <time>2022-01-07T10:43:02Z</time>
      </trkpt>
      <trkpt lat="45.85893" lon="6.52332">
        <ele>1771.4</ele>
        <time>2022-01-07T10:43:05Z</time>
      </trkpt>
      <trkpt lat="45.85891" lon="6.52332">
        <ele>1771.4</ele>
        <time>2022-01-07T10:43:07Z</time>
      </trkpt>
      <trkpt lat="45.85889" lon="6.52333">
        <ele>1771.4</ele>
        <time>2022-01-07T10:43:10Z</time>
      </trkpt>
      <trkpt lat="45.85887" lon="6.52334">
        <ele>1771.4</ele>
        <time>2022-01-07T10:43:13Z</time>
      </trkpt>
      <trkpt lat="45.85886" lon="6.52337">
        <ele>1771.4</ele>
        <time>2022-01-07T10:43:16Z</time>
      </trkpt>
      <trkpt lat="45.85884" lon="6.52339">
        <ele>1775.2</ele>
        <time>2022-01-07T10:43:19Z</time>
      </trkpt>
      <trkpt lat="45.85883" lon="6.52342">
        <ele>1775.2</ele>
        <time>2022-01-07T10:43:22Z</time>
      </trkpt>
      <trkpt lat="45.85882" lon="6.52345">
        <ele>1775.2</ele>
        <time>2022-01-07T10:43:26Z</time>
      </trkpt>
      <trkpt lat="45.85881" lon="6.52348">
        <ele>1775.2</ele>
        <time>2022-01-07T10:43:30Z</time>
      </trkpt>
      <trkpt lat="45.85881" lon="6.5235">
        <ele>1775.2</ele>
        <time>2022-01-07T10:43:33Z</time>
      </trkpt>
      <trkpt lat="45.85881" lon="6.52353">
        <ele>1775.2</ele>
        <time>2022-01-07T10:43:36Z</time>
      </trkpt>
      <trkpt lat="45.85882" lon="6.52356">
        <ele>1779.6</ele>
        <time>2022-01-07T10:43:39Z</time>
      </trkpt>
      <trkpt lat="45.85883" lon="6.52358">
        <ele>1779.6</ele>
        <time>2022-01-07T10:43:42Z</time>
      </trkpt>
      <trkpt lat="45.85884" lon="6.5236">
        <ele>1779.6</ele>
        <time>2022-01-07T10:43:45Z</time>
      </trkpt>
      <trkpt lat="45.85885" lon="6.52362">
        <ele>1781.4</ele>
        <time>2022-01-07T10:43:49Z</time>
      </trkpt>
      <trkpt lat="45.85887" lon="6.52364">
        <ele>1781.4</ele>
        <time>2022-01-07T10:43:52Z</time>
      </trkpt>
      <trkpt lat="45.85889" lon="6.52367">
        <ele>1781.4</ele>
        <time>2022-01-07T10:43:56Z</time>
      </trkpt>
      <trkpt lat="45.8589" lon="6.5237">
        <ele>1783.2</ele>
        <time>2022-01-07T10:43:59Z</time>
      </trkpt>
      <trkpt lat="45.85891" lon="6.52373">
        <ele>1783.2</ele>
        <time>2022-01-07T10:44:02Z</time>
      </trkpt>
      <trkpt lat="45.85889" lon="6.52376">
        <ele>1783.2</ele>
        <time>2022-01-07T10:44:05Z</time>
      </trkpt>
      <trkpt lat="45.85888" lon="6.52378">
        <ele>1783.2</ele>
        <time>2022-01-07T10:44:08Z</time>
      </trkpt>
      <trkpt lat="45.85886" lon="6.52379">
        <ele>1783.2</ele>
        <time>2022-01-07T10:44:12Z</time>
      </trkpt>
      <trkpt lat="45.85885" lon="6.52382">
        <ele>1783.2</ele>
        <time>2022-01-07T10:44:15Z</time>
      </trkpt>
      <trkpt lat="45.85883" lon="6.52384">
        <ele>1788.8</ele>
        <time>2022-01-07T10:44:19Z</time>
      </trkpt>
      <trkpt lat="45.85882" lon="6.52387">
        <ele>1788.8</ele>
        <time>2022-01-07T10:44:22Z</time>
      </trkpt>
      <trkpt lat="45.85881" lon="6.52389">
        <ele>1788.8</ele>
        <time>2022-01-07T10:44:25Z</time>
      </trkpt>
      <trkpt lat="45.85881" lon="6.52392">
        <ele>1791</ele>
        <time>2022-01-07T10:44:29Z</time>
      </trkpt>
      <trkpt lat="45.85883" lon="6.52394">
        <ele>1791</ele>
        <time>2022-01-07T10:44:34Z</time>
      </trkpt>
      <trkpt lat="45.85886" lon="6.52396">
        <ele>1791</ele>
        <time>2022-01-07T10:44:38Z</time>
      </trkpt>
      <trkpt lat="45.85888" lon="6.52398">
        <ele>1791</ele>
        <time>2022-01-07T10:44:41Z</time>
      </trkpt>
      <trkpt lat="45.8589" lon="6.524">
        <ele>1791</ele>
        <time>2022-01-07T10:44:45Z</time>
      </trkpt>
      <trkpt lat="45.85891" lon="6.52403">
        <ele>1791</ele>
        <time>2022-01-07T10:44:48Z</time>
      </trkpt>
      <trkpt lat="45.85892" lon="6.52405">
        <ele>1791</ele>
        <time>2022-01-07T10:44:51Z</time>
      </trkpt>
      <trkpt lat="45.85891" lon="6.52407">
        <ele>1791</ele>
        <time>2022-01-07T10:45:00Z</time>
      </trkpt>
      <trkpt lat="45.85892" lon="6.52411">
        <ele>1791</ele>
        <time>2022-01-07T10:48:32Z</time>
      </trkpt>
      <trkpt lat="45.85894" lon="6.52413">
        <ele>1791</ele>
        <time>2022-01-07T10:48:35Z</time>
      </trkpt>
      <trkpt lat="45.85896" lon="6.52415">
        <ele>1791</ele>
        <time>2022-01-07T10:48:38Z</time>
      </trkpt>
      <trkpt lat="45.85899" lon="6.52417">
        <ele>1791</ele>
        <time>2022-01-07T10:49:10Z</time>
      </trkpt>
      <trkpt lat="45.85902" lon="6.52418">
        <ele>1791</ele>
        <time>2022-01-07T10:49:12Z</time>
      </trkpt>
      <trkpt lat="45.85904" lon="6.52418">
        <ele>1791</ele>
        <time>2022-01-07T10:49:13Z</time>
      </trkpt>
      <trkpt lat="45.85906" lon="6.52419">
        <ele>1791</ele>
        <time>2022-01-07T10:49:14Z</time>
      </trkpt>
      <trkpt lat="45.85909" lon="6.52419">
        <ele>1791</ele>
        <time>2022-01-07T10:49:16Z</time>
      </trkpt>
      <trkpt lat="45.85912" lon="6.52419">
        <ele>1791</ele>
        <time>2022-01-07T10:49:18Z</time>
      </trkpt>
      <trkpt lat="45.85914" lon="6.5242">
        <ele>1791</ele>
        <time>2022-01-07T10:49:22Z</time>
      </trkpt>
      <trkpt lat="45.85915" lon="6.52422">
        <ele>1791</ele>
        <time>2022-01-07T10:49:26Z</time>
      </trkpt>
      <trkpt lat="45.85915" lon="6.52425">
        <ele>1803</ele>
        <time>2022-01-07T10:49:29Z</time>
      </trkpt>
      <trkpt lat="45.85915" lon="6.52428">
        <ele>1803</ele>
        <time>2022-01-07T10:49:33Z</time>
      </trkpt>
      <trkpt lat="45.85916" lon="6.52431">
        <ele>1803</ele>
        <time>2022-01-07T10:49:36Z</time>
      </trkpt>
      <trkpt lat="45.85915" lon="6.52433">
        <ele>1805</ele>
        <time>2022-01-07T10:49:39Z</time>
      </trkpt>
      <trkpt lat="45.85914" lon="6.52436">
        <ele>1805</ele>
        <time>2022-01-07T10:49:42Z</time>
      </trkpt>
      <trkpt lat="45.85914" lon="6.52439">
        <ele>1805</ele>
        <time>2022-01-07T10:49:46Z</time>
      </trkpt>
      <trkpt lat="45.85913" lon="6.52442">
        <ele>1805</ele>
        <time>2022-01-07T10:49:50Z</time>
      </trkpt>
      <trkpt lat="45.85913" lon="6.52445">
        <ele>1805</ele>
        <time>2022-01-07T10:49:53Z</time>
      </trkpt>
      <trkpt lat="45.85914" lon="6.52448">
        <ele>1805</ele>
        <time>2022-01-07T10:49:56Z</time>
      </trkpt>
      <trkpt lat="45.85914" lon="6.52452">
        <ele>1805</ele>
        <time>2022-01-07T10:50:00Z</time>
      </trkpt>
      <trkpt lat="45.85915" lon="6.52454">
        <ele>1805</ele>
        <time>2022-01-07T10:50:03Z</time>
      </trkpt>
      <trkpt lat="45.85915" lon="6.52457">
        <ele>1805</ele>
        <time>2022-01-07T10:50:06Z</time>
      </trkpt>
      <trkpt lat="45.85915" lon="6.5246">
        <ele>1810.8</ele>
        <time>2022-01-07T10:50:09Z</time>
      </trkpt>
      <trkpt lat="45.85914" lon="6.52463">
        <ele>1810.8</ele>
        <time>2022-01-07T10:50:13Z</time>
      </trkpt>
      <trkpt lat="45.85913" lon="6.52466">
        <ele>1810.8</ele>
        <time>2022-01-07T10:50:18Z</time>
      </trkpt>
      <trkpt lat="45.85914" lon="6.52469">
        <ele>1810.8</ele>
        <time>2022-01-07T10:50:21Z</time>
      </trkpt>
      <trkpt lat="45.85916" lon="6.5247">
        <ele>1810.8</ele>
        <time>2022-01-07T10:50:24Z</time>
      </trkpt>
      <trkpt lat="45.85917" lon="6.52471">
        <ele>1810.8</ele>
        <time>2022-01-07T10:50:26Z</time>
      </trkpt>
      <trkpt lat="45.85919" lon="6.52474">
        <ele>1810.8</ele>
        <time>2022-01-07T10:50:30Z</time>
      </trkpt>
      <trkpt lat="45.85919" lon="6.52478">
        <ele>1810.8</ele>
        <time>2022-01-07T10:51:10Z</time>
      </trkpt>
      <trkpt lat="45.85918" lon="6.52481">
        <ele>1810.8</ele>
        <time>2022-01-07T10:51:12Z</time>
      </trkpt>
      <trkpt lat="45.85918" lon="6.52485">
        <ele>1810.8</ele>
        <time>2022-01-07T10:51:14Z</time>
      </trkpt>
      <trkpt lat="45.85917" lon="6.52488">
        <ele>1810.8</ele>
        <time>2022-01-07T10:51:16Z</time>
      </trkpt>
      <trkpt lat="45.85916" lon="6.52491">
        <ele>1810.8</ele>
        <time>2022-01-07T10:51:18Z</time>
      </trkpt>
      <trkpt lat="45.85915" lon="6.52493">
        <ele>1810.8</ele>
        <time>2022-01-07T10:51:20Z</time>
      </trkpt>
      <trkpt lat="45.85913" lon="6.52497">
        <ele>1810.8</ele>
        <time>2022-01-07T10:51:24Z</time>
      </trkpt>
      <trkpt lat="45.85912" lon="6.52499">
        <ele>1810.8</ele>
        <time>2022-01-07T10:51:27Z</time>
      </trkpt>
      <trkpt lat="45.8591" lon="6.52502">
        <ele>1810.8</ele>
        <time>2022-01-07T10:51:30Z</time>
      </trkpt>
      <trkpt lat="45.85909" lon="6.52505">
        <ele>1810.8</ele>
        <time>2022-01-07T10:51:33Z</time>
      </trkpt>
      <trkpt lat="45.85908" lon="6.52507">
        <ele>1810.8</ele>
        <time>2022-01-07T10:51:36Z</time>
      </trkpt>
      <trkpt lat="45.85907" lon="6.52511">
        <ele>1822.8</ele>
        <time>2022-01-07T10:51:39Z</time>
      </trkpt>
      <trkpt lat="45.85906" lon="6.52514">
        <ele>1822.8</ele>
        <time>2022-01-07T10:51:42Z</time>
      </trkpt>
      <trkpt lat="45.85905" lon="6.52517">
        <ele>1822.8</ele>
        <time>2022-01-07T10:51:45Z</time>
      </trkpt>
      <trkpt lat="45.85905" lon="6.5252">
        <ele>1822.8</ele>
        <time>2022-01-07T10:51:48Z</time>
      </trkpt>
      <trkpt lat="45.85905" lon="6.52524">
        <ele>1822.8</ele>
        <time>2022-01-07T10:51:51Z</time>
      </trkpt>
      <trkpt lat="45.85905" lon="6.52527">
        <ele>1822.8</ele>
        <time>2022-01-07T10:51:54Z</time>
      </trkpt>
      <trkpt lat="45.85905" lon="6.5253">
        <ele>1822.8</ele>
        <time>2022-01-07T10:51:56Z</time>
      </trkpt>
      <trkpt lat="45.85904" lon="6.52533">
        <ele>1825.4</ele>
        <time>2022-01-07T10:51:59Z</time>
      </trkpt>
      <trkpt lat="45.85904" lon="6.52535">
        <ele>1825.4</ele>
        <time>2022-01-07T10:52:01Z</time>
      </trkpt>
      <trkpt lat="45.85904" lon="6.52539">
        <ele>1825.4</ele>
        <time>2022-01-07T10:52:04Z</time>
      </trkpt>
      <trkpt lat="45.85903" lon="6.52542">
        <ele>1825.4</ele>
        <time>2022-01-07T10:52:07Z</time>
      </trkpt>
      <trkpt lat="45.85903" lon="6.52545">
        <ele>1825.4</ele>
        <time>2022-01-07T10:52:10Z</time>
      </trkpt>
      <trkpt lat="45.85902" lon="6.52549">
        <ele>1825.4</ele>
        <time>2022-01-07T10:52:13Z</time>
      </trkpt>
      <trkpt lat="45.85902" lon="6.52552">
        <ele>1825.4</ele>
        <time>2022-01-07T10:52:16Z</time>
      </trkpt>
      <trkpt lat="45.85902" lon="6.52555">
        <ele>1825.4</ele>
        <time>2022-01-07T10:52:18Z</time>
      </trkpt>
      <trkpt lat="45.85902" lon="6.52559">
        <ele>1825.4</ele>
        <time>2022-01-07T10:52:21Z</time>
      </trkpt>
      <trkpt lat="45.85902" lon="6.52561">
        <ele>1825.4</ele>
        <time>2022-01-07T10:52:23Z</time>
      </trkpt>
      <trkpt lat="45.859" lon="6.52564">
        <ele>1825.4</ele>
        <time>2022-01-07T10:52:25Z</time>
      </trkpt>
      <trkpt lat="45.85899" lon="6.52566">
        <ele>1825.4</ele>
        <time>2022-01-07T10:52:27Z</time>
      </trkpt>
      <trkpt lat="45.85897" lon="6.52568">
        <ele>1825.4</ele>
        <time>2022-01-07T10:52:30Z</time>
      </trkpt>
      <trkpt lat="45.85895" lon="6.52569">
        <ele>1825.4</ele>
        <time>2022-01-07T10:52:32Z</time>
      </trkpt>
      <trkpt lat="45.85892" lon="6.52568">
        <ele>1825.4</ele>
        <time>2022-01-07T10:52:35Z</time>
      </trkpt>
      <trkpt lat="45.85891" lon="6.52568">
        <ele>1825.4</ele>
        <time>2022-01-07T10:52:37Z</time>
      </trkpt>
      <trkpt lat="45.85888" lon="6.52567">
        <ele>1825.4</ele>
        <time>2022-01-07T10:52:40Z</time>
      </trkpt>
      <trkpt lat="45.85886" lon="6.52568">
        <ele>1825.4</ele>
        <time>2022-01-07T10:52:44Z</time>
      </trkpt>
      <trkpt lat="45.85886" lon="6.52572">
        <ele>1825.4</ele>
        <time>2022-01-07T10:53:22Z</time>
      </trkpt>
      <trkpt lat="45.85886" lon="6.52576">
        <ele>1825.4</ele>
        <time>2022-01-07T10:53:24Z</time>
      </trkpt>
      <trkpt lat="45.85886" lon="6.52579">
        <ele>1825.4</ele>
        <time>2022-01-07T10:53:26Z</time>
      </trkpt>
      <trkpt lat="45.85886" lon="6.52583">
        <ele>1825.4</ele>
        <time>2022-01-07T10:53:28Z</time>
      </trkpt>
      <trkpt lat="45.85886" lon="6.52586">
        <ele>1825.4</ele>
        <time>2022-01-07T10:53:30Z</time>
      </trkpt>
      <trkpt lat="45.85886" lon="6.52589">
        <ele>1825.4</ele>
        <time>2022-01-07T10:53:33Z</time>
      </trkpt>
      <trkpt lat="45.85884" lon="6.52591">
        <ele>1825.4</ele>
        <time>2022-01-07T10:53:35Z</time>
      </trkpt>
      <trkpt lat="45.85882" lon="6.52592">
        <ele>1825.4</ele>
        <time>2022-01-07T10:53:37Z</time>
      </trkpt>
      <trkpt lat="45.8588" lon="6.52595">
        <ele>1825.4</ele>
        <time>2022-01-07T10:53:40Z</time>
      </trkpt>
      <trkpt lat="45.85878" lon="6.52596">
        <ele>1825.4</ele>
        <time>2022-01-07T10:53:43Z</time>
      </trkpt>
      <trkpt lat="45.85876" lon="6.52598">
        <ele>1825.4</ele>
        <time>2022-01-07T10:53:46Z</time>
      </trkpt>
      <trkpt lat="45.85875" lon="6.526">
        <ele>1825.4</ele>
        <time>2022-01-07T10:53:48Z</time>
      </trkpt>
      <trkpt lat="45.85872" lon="6.52599">
        <ele>1825.4</ele>
        <time>2022-01-07T10:53:51Z</time>
      </trkpt>
      <trkpt lat="45.8587" lon="6.52598">
        <ele>1825.4</ele>
        <time>2022-01-07T10:53:54Z</time>
      </trkpt>
      <trkpt lat="45.85869" lon="6.52597">
        <ele>1825.4</ele>
        <time>2022-01-07T10:53:58Z</time>
      </trkpt>
      <trkpt lat="45.85867" lon="6.52596">
        <ele>1825.4</ele>
        <time>2022-01-07T10:54:02Z</time>
      </trkpt>
      <trkpt lat="45.85865" lon="6.52595">
        <ele>1825.4</ele>
        <time>2022-01-07T10:54:05Z</time>
      </trkpt>
      <trkpt lat="45.85862" lon="6.52596">
        <ele>1841.6</ele>
        <time>2022-01-07T10:54:09Z</time>
      </trkpt>
      <trkpt lat="45.8586" lon="6.52596">
        <ele>1841.6</ele>
        <time>2022-01-07T10:54:12Z</time>
      </trkpt>
      <trkpt lat="45.85858" lon="6.52596">
        <ele>1841.6</ele>
        <time>2022-01-07T10:54:15Z</time>
      </trkpt>
      <trkpt lat="45.85856" lon="6.52595">
        <ele>1841.6</ele>
        <time>2022-01-07T10:54:18Z</time>
      </trkpt>
      <trkpt lat="45.85854" lon="6.52595">
        <ele>1841.6</ele>
        <time>2022-01-07T10:54:21Z</time>
      </trkpt>
      <trkpt lat="45.85852" lon="6.52595">
        <ele>1841.6</ele>
        <time>2022-01-07T10:54:23Z</time>
      </trkpt>
      <trkpt lat="45.85851" lon="6.52595">
        <ele>1841.6</ele>
        <time>2022-01-07T10:54:26Z</time>
      </trkpt>
      <trkpt lat="45.85849" lon="6.52595">
        <ele>1845.6</ele>
        <time>2022-01-07T10:54:29Z</time>
      </trkpt>
      <trkpt lat="45.85848" lon="6.52598">
        <ele>1845.6</ele>
        <time>2022-01-07T10:54:34Z</time>
      </trkpt>
      <trkpt lat="45.85849" lon="6.52601">
        <ele>1845.6</ele>
        <time>2022-01-07T10:54:37Z</time>
      </trkpt>
      <trkpt lat="45.8585" lon="6.52603">
        <ele>1845.6</ele>
        <time>2022-01-07T10:54:40Z</time>
      </trkpt>
      <trkpt lat="45.85851" lon="6.52606">
        <ele>1845.6</ele>
        <time>2022-01-07T10:54:43Z</time>
      </trkpt>
      <trkpt lat="45.85852" lon="6.52608">
        <ele>1845.6</ele>
        <time>2022-01-07T10:54:46Z</time>
      </trkpt>
      <trkpt lat="45.85852" lon="6.52611">
        <ele>1850</ele>
        <time>2022-01-07T10:54:49Z</time>
      </trkpt>
      <trkpt lat="45.85853" lon="6.52614">
        <ele>1850</ele>
        <time>2022-01-07T10:54:52Z</time>
      </trkpt>
      <trkpt lat="45.85851" lon="6.52616">
        <ele>1850</ele>
        <time>2022-01-07T10:54:57Z</time>
      </trkpt>
      <trkpt lat="45.85849" lon="6.52616">
        <ele>1850</ele>
        <time>2022-01-07T10:55:03Z</time>
      </trkpt>
      <trkpt lat="45.85847" lon="6.52616">
        <ele>1850</ele>
        <time>2022-01-07T10:55:05Z</time>
      </trkpt>
      <trkpt lat="45.85845" lon="6.52616">
        <ele>1850</ele>
        <time>2022-01-07T10:55:08Z</time>
      </trkpt>
      <trkpt lat="45.85843" lon="6.52616">
        <ele>1850</ele>
        <time>2022-01-07T10:55:11Z</time>
      </trkpt>
      <trkpt lat="45.8584" lon="6.52617">
        <ele>1850</ele>
        <time>2022-01-07T10:55:14Z</time>
      </trkpt>
      <trkpt lat="45.85838" lon="6.52617">
        <ele>1850</ele>
        <time>2022-01-07T10:55:16Z</time>
      </trkpt>
      <trkpt lat="45.85836" lon="6.52619">
        <ele>1855.4</ele>
        <time>2022-01-07T10:55:19Z</time>
      </trkpt>
      <trkpt lat="45.85835" lon="6.5262">
        <ele>1855.4</ele>
        <time>2022-01-07T10:55:24Z</time>
      </trkpt>
      <trkpt lat="45.85834" lon="6.52623">
        <ele>1855.4</ele>
        <time>2022-01-07T10:55:27Z</time>
      </trkpt>
      <trkpt lat="45.85834" lon="6.52626">
        <ele>1855.4</ele>
        <time>2022-01-07T10:55:36Z</time>
      </trkpt>
      <trkpt lat="45.85835" lon="6.52628">
        <ele>1855.4</ele>
        <time>2022-01-07T10:55:57Z</time>
      </trkpt>
      <trkpt lat="45.85836" lon="6.52632">
        <ele>1860.2</ele>
        <time>2022-01-07T10:55:59Z</time>
      </trkpt>
      <trkpt lat="45.85836" lon="6.52636">
        <ele>1860.2</ele>
        <time>2022-01-07T10:56:01Z</time>
      </trkpt>
      <trkpt lat="45.85837" lon="6.5264">
        <ele>1860.2</ele>
        <time>2022-01-07T10:56:03Z</time>
      </trkpt>
      <trkpt lat="45.85837" lon="6.52644">
        <ele>1860.2</ele>
        <time>2022-01-07T10:56:05Z</time>
      </trkpt>
      <trkpt lat="45.85838" lon="6.52647">
        <ele>1860.2</ele>
        <time>2022-01-07T10:56:07Z</time>
      </trkpt>
      <trkpt lat="45.85839" lon="6.5265">
        <ele>1860.2</ele>
        <time>2022-01-07T10:56:10Z</time>
      </trkpt>
      <trkpt lat="45.8584" lon="6.52653">
        <ele>1860.2</ele>
        <time>2022-01-07T10:56:12Z</time>
      </trkpt>
      <trkpt lat="45.8584" lon="6.52655">
        <ele>1860.2</ele>
        <time>2022-01-07T10:56:14Z</time>
      </trkpt>
      <trkpt lat="45.85841" lon="6.52659">
        <ele>1860.2</ele>
        <time>2022-01-07T10:56:17Z</time>
      </trkpt>
      <trkpt lat="45.85841" lon="6.52661">
        <ele>1864.4</ele>
        <time>2022-01-07T10:56:19Z</time>
      </trkpt>
      <trkpt lat="45.85843" lon="6.52664">
        <ele>1864.4</ele>
        <time>2022-01-07T10:56:22Z</time>
      </trkpt>
      <trkpt lat="45.85843" lon="6.52667">
        <ele>1864.4</ele>
        <time>2022-01-07T10:56:24Z</time>
      </trkpt>
      <trkpt lat="45.85844" lon="6.5267">
        <ele>1864.4</ele>
        <time>2022-01-07T10:56:27Z</time>
      </trkpt>
      <trkpt lat="45.85845" lon="6.52673">
        <ele>1866.8</ele>
        <time>2022-01-07T10:56:29Z</time>
      </trkpt>
      <trkpt lat="45.85846" lon="6.52675">
        <ele>1866.8</ele>
        <time>2022-01-07T10:56:32Z</time>
      </trkpt>
      <trkpt lat="45.85847" lon="6.52678">
        <ele>1866.8</ele>
        <time>2022-01-07T10:56:41Z</time>
      </trkpt>
      <trkpt lat="45.85848" lon="6.52681">
        <ele>1866.8</ele>
        <time>2022-01-07T10:56:43Z</time>
      </trkpt>
      <trkpt lat="45.85849" lon="6.52684">
        <ele>1866.8</ele>
        <time>2022-01-07T10:56:45Z</time>
      </trkpt>
      <trkpt lat="45.8585" lon="6.52687">
        <ele>1866.8</ele>
        <time>2022-01-07T10:56:47Z</time>
      </trkpt>
      <trkpt lat="45.85852" lon="6.52689">
        <ele>1868.8</ele>
        <time>2022-01-07T10:56:49Z</time>
      </trkpt>
      <trkpt lat="45.85853" lon="6.52691">
        <ele>1868.8</ele>
        <time>2022-01-07T10:56:51Z</time>
      </trkpt>
      <trkpt lat="45.85855" lon="6.52692">
        <ele>1868.8</ele>
        <time>2022-01-07T10:59:50Z</time>
      </trkpt>
      <trkpt lat="45.85857" lon="6.52694">
        <ele>1868.8</ele>
        <time>2022-01-07T10:59:52Z</time>
      </trkpt>
      <trkpt lat="45.8586" lon="6.52695">
        <ele>1868.8</ele>
        <time>2022-01-07T10:59:54Z</time>
      </trkpt>
      <trkpt lat="45.85862" lon="6.52697">
        <ele>1868</ele>
        <time>2022-01-07T11:00:09Z</time>
      </trkpt>
      <trkpt lat="45.85864" lon="6.52699">
        <ele>1868</ele>
        <time>2022-01-07T11:00:11Z</time>
      </trkpt>
      <trkpt lat="45.85866" lon="6.52702">
        <ele>1868</ele>
        <time>2022-01-07T11:00:15Z</time>
      </trkpt>
      <trkpt lat="45.85867" lon="6.52704">
        <ele>1868</ele>
        <time>2022-01-07T11:00:17Z</time>
      </trkpt>
      <trkpt lat="45.85869" lon="6.52705">
        <ele>1868</ele>
        <time>2022-01-07T11:00:18Z</time>
      </trkpt>
      <trkpt lat="45.8587" lon="6.52707">
        <ele>1868</ele>
        <time>2022-01-07T11:00:20Z</time>
      </trkpt>
      <trkpt lat="45.85872" lon="6.5271">
        <ele>1868</ele>
        <time>2022-01-07T11:00:22Z</time>
      </trkpt>
      <trkpt lat="45.85873" lon="6.52712">
        <ele>1868</ele>
        <time>2022-01-07T11:00:25Z</time>
      </trkpt>
      <trkpt lat="45.85875" lon="6.52714">
        <ele>1868</ele>
        <time>2022-01-07T11:00:28Z</time>
      </trkpt>
      <trkpt lat="45.85877" lon="6.52716">
        <ele>1868</ele>
        <time>2022-01-07T11:00:30Z</time>
      </trkpt>
      <trkpt lat="45.85879" lon="6.52719">
        <ele>1868</ele>
        <time>2022-01-07T11:00:32Z</time>
      </trkpt>
      <trkpt lat="45.85882" lon="6.52721">
        <ele>1868</ele>
        <time>2022-01-07T11:00:34Z</time>
      </trkpt>
      <trkpt lat="45.85883" lon="6.52724">
        <ele>1868</ele>
        <time>2022-01-07T11:00:37Z</time>
      </trkpt>
      <trkpt lat="45.85884" lon="6.52726">
        <ele>1868</ele>
        <time>2022-01-07T11:00:41Z</time>
      </trkpt>
      <trkpt lat="45.85885" lon="6.5273">
        <ele>1868</ele>
        <time>2022-01-07T11:00:44Z</time>
      </trkpt>
      <trkpt lat="45.85886" lon="6.52732">
        <ele>1868</ele>
        <time>2022-01-07T11:00:46Z</time>
      </trkpt>
      <trkpt lat="45.85887" lon="6.52735">
        <ele>1869.4</ele>
        <time>2022-01-07T11:00:49Z</time>
      </trkpt>
      <trkpt lat="45.85889" lon="6.52738">
        <ele>1869.4</ele>
        <time>2022-01-07T11:00:52Z</time>
      </trkpt>
      <trkpt lat="45.8589" lon="6.52741">
        <ele>1869.4</ele>
        <time>2022-01-07T11:00:54Z</time>
      </trkpt>
      <trkpt lat="45.85892" lon="6.52743">
        <ele>1869.4</ele>
        <time>2022-01-07T11:00:57Z</time>
      </trkpt>
      <trkpt lat="45.85894" lon="6.52746">
        <ele>1869.4</ele>
        <time>2022-01-07T11:01:00Z</time>
      </trkpt>
      <trkpt lat="45.85895" lon="6.52748">
        <ele>1869.4</ele>
        <time>2022-01-07T11:01:02Z</time>
      </trkpt>
      <trkpt lat="45.85896" lon="6.5275">
        <ele>1869.4</ele>
        <time>2022-01-07T11:01:04Z</time>
      </trkpt>
      <trkpt lat="45.85898" lon="6.52752">
        <ele>1869.4</ele>
        <time>2022-01-07T11:01:06Z</time>
      </trkpt>
      <trkpt lat="45.85899" lon="6.52755">
        <ele>1869.4</ele>
        <time>2022-01-07T11:01:08Z</time>
      </trkpt>
      <trkpt lat="45.859" lon="6.52757">
        <ele>1869.4</ele>
        <time>2022-01-07T11:01:10Z</time>
      </trkpt>
      <trkpt lat="45.85901" lon="6.52759">
        <ele>1869.4</ele>
        <time>2022-01-07T11:01:12Z</time>
      </trkpt>
      <trkpt lat="45.85902" lon="6.52761">
        <ele>1869.4</ele>
        <time>2022-01-07T11:01:14Z</time>
      </trkpt>
      <trkpt lat="45.85904" lon="6.52764">
        <ele>1869.4</ele>
        <time>2022-01-07T11:01:16Z</time>
      </trkpt>
      <trkpt lat="45.85906" lon="6.52766">
        <ele>1869.4</ele>
        <time>2022-01-07T11:01:18Z</time>
      </trkpt>
      <trkpt lat="45.85908" lon="6.52769">
        <ele>1869.4</ele>
        <time>2022-01-07T11:01:20Z</time>
      </trkpt>
      <trkpt lat="45.85909" lon="6.52772">
        <ele>1869.4</ele>
        <time>2022-01-07T11:01:22Z</time>
      </trkpt>
      <trkpt lat="45.85911" lon="6.52774">
        <ele>1869.4</ele>
        <time>2022-01-07T11:01:24Z</time>
      </trkpt>
      <trkpt lat="45.85912" lon="6.52777">
        <ele>1869.4</ele>
        <time>2022-01-07T11:01:26Z</time>
      </trkpt>
      <trkpt lat="45.85914" lon="6.5278">
        <ele>1869.6</ele>
        <time>2022-01-07T11:01:29Z</time>
      </trkpt>
      <trkpt lat="45.85916" lon="6.52783">
        <ele>1869.6</ele>
        <time>2022-01-07T11:01:32Z</time>
      </trkpt>
      <trkpt lat="45.85917" lon="6.52785">
        <ele>1869.6</ele>
        <time>2022-01-07T11:01:34Z</time>
      </trkpt>
      <trkpt lat="45.85919" lon="6.52789">
        <ele>1869.6</ele>
        <time>2022-01-07T11:01:37Z</time>
      </trkpt>
      <trkpt lat="45.8592" lon="6.52791">
        <ele>1871</ele>
        <time>2022-01-07T11:01:39Z</time>
      </trkpt>
      <trkpt lat="45.85922" lon="6.52793">
        <ele>1871</ele>
        <time>2022-01-07T11:01:41Z</time>
      </trkpt>
      <trkpt lat="45.85924" lon="6.52796">
        <ele>1871</ele>
        <time>2022-01-07T11:01:44Z</time>
      </trkpt>
      <trkpt lat="45.85924" lon="6.52798">
        <ele>1871</ele>
        <time>2022-01-07T11:01:46Z</time>
      </trkpt>
      <trkpt lat="45.85926" lon="6.52801">
        <ele>1871</ele>
        <time>2022-01-07T11:01:48Z</time>
      </trkpt>
      <trkpt lat="45.85928" lon="6.52803">
        <ele>1871</ele>
        <time>2022-01-07T11:01:50Z</time>
      </trkpt>
      <trkpt lat="45.85929" lon="6.52805">
        <ele>1871</ele>
        <time>2022-01-07T11:01:52Z</time>
      </trkpt>
      <trkpt lat="45.8593" lon="6.52807">
        <ele>1871</ele>
        <time>2022-01-07T11:01:54Z</time>
      </trkpt>
      <trkpt lat="45.85932" lon="6.52809">
        <ele>1871</ele>
        <time>2022-01-07T11:01:56Z</time>
      </trkpt>
      <trkpt lat="45.85933" lon="6.52811">
        <ele>1871</ele>
        <time>2022-01-07T11:01:58Z</time>
      </trkpt>
      <trkpt lat="45.85934" lon="6.52814">
        <ele>1871</ele>
        <time>2022-01-07T11:02:01Z</time>
      </trkpt>
      <trkpt lat="45.85936" lon="6.52817">
        <ele>1871</ele>
        <time>2022-01-07T11:02:04Z</time>
      </trkpt>
      <trkpt lat="45.85938" lon="6.5282">
        <ele>1871</ele>
        <time>2022-01-07T11:02:07Z</time>
      </trkpt>
      <trkpt lat="45.8594" lon="6.52822">
        <ele>1874.2</ele>
        <time>2022-01-07T11:02:09Z</time>
      </trkpt>
      <trkpt lat="45.85941" lon="6.52825">
        <ele>1874.2</ele>
        <time>2022-01-07T11:02:12Z</time>
      </trkpt>
      <trkpt lat="45.85942" lon="6.52827">
        <ele>1874.2</ele>
        <time>2022-01-07T11:02:14Z</time>
      </trkpt>
      <trkpt lat="45.85943" lon="6.52829">
        <ele>1874.2</ele>
        <time>2022-01-07T11:02:16Z</time>
      </trkpt>
      <trkpt lat="45.85944" lon="6.52832">
        <ele>1875.2</ele>
        <time>2022-01-07T11:02:19Z</time>
      </trkpt>
      <trkpt lat="45.85946" lon="6.52834">
        <ele>1875.2</ele>
        <time>2022-01-07T11:02:21Z</time>
      </trkpt>
      <trkpt lat="45.85947" lon="6.52836">
        <ele>1875.2</ele>
        <time>2022-01-07T11:02:23Z</time>
      </trkpt>
      <trkpt lat="45.85948" lon="6.52839">
        <ele>1875.2</ele>
        <time>2022-01-07T11:02:25Z</time>
      </trkpt>
      <trkpt lat="45.8595" lon="6.52841">
        <ele>1875.2</ele>
        <time>2022-01-07T11:02:28Z</time>
      </trkpt>
      <trkpt lat="45.85952" lon="6.52844">
        <ele>1875.2</ele>
        <time>2022-01-07T11:02:31Z</time>
      </trkpt>
      <trkpt lat="45.85953" lon="6.52846">
        <ele>1875.2</ele>
        <time>2022-01-07T11:02:33Z</time>
      </trkpt>
      <trkpt lat="45.85954" lon="6.52848">
        <ele>1875.2</ele>
        <time>2022-01-07T11:02:35Z</time>
      </trkpt>
      <trkpt lat="45.85955" lon="6.5285">
        <ele>1875.2</ele>
        <time>2022-01-07T11:02:37Z</time>
      </trkpt>
      <trkpt lat="45.85956" lon="6.52852">
        <ele>1879</ele>
        <time>2022-01-07T11:02:39Z</time>
      </trkpt>
      <trkpt lat="45.85958" lon="6.52854">
        <ele>1879</ele>
        <time>2022-01-07T11:02:42Z</time>
      </trkpt>
      <trkpt lat="45.8596" lon="6.52856">
        <ele>1879</ele>
        <time>2022-01-07T11:02:44Z</time>
      </trkpt>
      <trkpt lat="45.85961" lon="6.52858">
        <ele>1879</ele>
        <time>2022-01-07T11:02:47Z</time>
      </trkpt>
      <trkpt lat="45.85964" lon="6.52859">
        <ele>1879</ele>
        <time>2022-01-07T11:02:50Z</time>
      </trkpt>
      <trkpt lat="45.85965" lon="6.52862">
        <ele>1879</ele>
        <time>2022-01-07T11:02:53Z</time>
      </trkpt>
      <trkpt lat="45.85967" lon="6.52865">
        <ele>1879</ele>
        <time>2022-01-07T11:02:56Z</time>
      </trkpt>
      <trkpt lat="45.85968" lon="6.52867">
        <ele>1879</ele>
        <time>2022-01-07T11:02:58Z</time>
      </trkpt>
      <trkpt lat="45.8597" lon="6.52869">
        <ele>1879</ele>
        <time>2022-01-07T11:03:01Z</time>
      </trkpt>
      <trkpt lat="45.85972" lon="6.52871">
        <ele>1879</ele>
        <time>2022-01-07T11:03:04Z</time>
      </trkpt>
      <trkpt lat="45.85973" lon="6.52873">
        <ele>1879</ele>
        <time>2022-01-07T11:03:06Z</time>
      </trkpt>
      <trkpt lat="45.85974" lon="6.52875">
        <ele>1879</ele>
        <time>2022-01-07T11:03:08Z</time>
      </trkpt>
      <trkpt lat="45.85976" lon="6.52877">
        <ele>1879</ele>
        <time>2022-01-07T11:03:10Z</time>
      </trkpt>
      <trkpt lat="45.85977" lon="6.52878">
        <ele>1879</ele>
        <time>2022-01-07T11:03:12Z</time>
      </trkpt>
      <trkpt lat="45.85979" lon="6.52881">
        <ele>1879</ele>
        <time>2022-01-07T11:03:14Z</time>
      </trkpt>
      <trkpt lat="45.8598" lon="6.52883">
        <ele>1879</ele>
        <time>2022-01-07T11:03:16Z</time>
      </trkpt>
      <trkpt lat="45.85981" lon="6.52886">
        <ele>1887.8</ele>
        <time>2022-01-07T11:03:19Z</time>
      </trkpt>
      <trkpt lat="45.85982" lon="6.52889">
        <ele>1887.8</ele>
        <time>2022-01-07T11:03:22Z</time>
      </trkpt>
      <trkpt lat="45.85984" lon="6.52891">
        <ele>1887.8</ele>
        <time>2022-01-07T11:03:25Z</time>
      </trkpt>
      <trkpt lat="45.85986" lon="6.52893">
        <ele>1887.8</ele>
        <time>2022-01-07T11:03:27Z</time>
      </trkpt>
      <trkpt lat="45.85987" lon="6.52897">
        <ele>1887.8</ele>
        <time>2022-01-07T11:03:30Z</time>
      </trkpt>
      <trkpt lat="45.85988" lon="6.529">
        <ele>1887.8</ele>
        <time>2022-01-07T11:03:33Z</time>
      </trkpt>
      <trkpt lat="45.8599" lon="6.52903">
        <ele>1887.8</ele>
        <time>2022-01-07T11:03:36Z</time>
      </trkpt>
      <trkpt lat="45.85992" lon="6.52905">
        <ele>1887.8</ele>
        <time>2022-01-07T11:03:38Z</time>
      </trkpt>
      <trkpt lat="45.85993" lon="6.52907">
        <ele>1887.8</ele>
        <time>2022-01-07T11:03:40Z</time>
      </trkpt>
      <trkpt lat="45.85995" lon="6.5291">
        <ele>1887.8</ele>
        <time>2022-01-07T11:03:43Z</time>
      </trkpt>
      <trkpt lat="45.85996" lon="6.52912">
        <ele>1887.8</ele>
        <time>2022-01-07T11:03:45Z</time>
      </trkpt>
      <trkpt lat="45.85997" lon="6.52914">
        <ele>1887.8</ele>
        <time>2022-01-07T11:03:48Z</time>
      </trkpt>
      <trkpt lat="45.86" lon="6.52917">
        <ele>1887.8</ele>
        <time>2022-01-07T11:04:47Z</time>
      </trkpt>
      <trkpt lat="45.86002" lon="6.5292">
        <ele>1892.8</ele>
        <time>2022-01-07T11:04:49Z</time>
      </trkpt>
      <trkpt lat="45.86003" lon="6.52922">
        <ele>1892.8</ele>
        <time>2022-01-07T11:04:50Z</time>
      </trkpt>
      <trkpt lat="45.86006" lon="6.52926">
        <ele>1892.8</ele>
        <time>2022-01-07T11:04:52Z</time>
      </trkpt>
      <trkpt lat="45.86008" lon="6.52929">
        <ele>1892.8</ele>
        <time>2022-01-07T11:04:54Z</time>
      </trkpt>
      <trkpt lat="45.86009" lon="6.52931">
        <ele>1892.8</ele>
        <time>2022-01-07T11:04:56Z</time>
      </trkpt>
      <trkpt lat="45.86011" lon="6.52934">
        <ele>1892.8</ele>
        <time>2022-01-07T11:04:58Z</time>
      </trkpt>
      <trkpt lat="45.86012" lon="6.52936">
        <ele>1892.8</ele>
        <time>2022-01-07T11:05:00Z</time>
      </trkpt>
      <trkpt lat="45.86014" lon="6.52939">
        <ele>1892.8</ele>
        <time>2022-01-07T11:05:02Z</time>
      </trkpt>
      <trkpt lat="45.86015" lon="6.52941">
        <ele>1892.8</ele>
        <time>2022-01-07T11:05:04Z</time>
      </trkpt>
      <trkpt lat="45.86017" lon="6.52944">
        <ele>1892.8</ele>
        <time>2022-01-07T11:05:06Z</time>
      </trkpt>
      <trkpt lat="45.86018" lon="6.52946">
        <ele>1892.8</ele>
        <time>2022-01-07T11:05:08Z</time>
      </trkpt>
      <trkpt lat="45.8602" lon="6.52949">
        <ele>1892.8</ele>
        <time>2022-01-07T11:05:10Z</time>
      </trkpt>
      <trkpt lat="45.86021" lon="6.52952">
        <ele>1892.8</ele>
        <time>2022-01-07T11:05:12Z</time>
      </trkpt>
      <trkpt lat="45.86023" lon="6.52953">
        <ele>1892.8</ele>
        <time>2022-01-07T11:05:14Z</time>
      </trkpt>
      <trkpt lat="45.86025" lon="6.52955">
        <ele>1892.8</ele>
        <time>2022-01-07T11:05:16Z</time>
      </trkpt>
      <trkpt lat="45.86026" lon="6.52957">
        <ele>1892.8</ele>
        <time>2022-01-07T11:05:18Z</time>
      </trkpt>
      <trkpt lat="45.86028" lon="6.52959">
        <ele>1892.8</ele>
        <time>2022-01-07T11:05:20Z</time>
      </trkpt>
      <trkpt lat="45.86029" lon="6.52962">
        <ele>1892.8</ele>
        <time>2022-01-07T11:05:23Z</time>
      </trkpt>
      <trkpt lat="45.86031" lon="6.52964">
        <ele>1892.8</ele>
        <time>2022-01-07T11:05:26Z</time>
      </trkpt>
      <trkpt lat="45.86033" lon="6.52967">
        <ele>1894.4</ele>
        <time>2022-01-07T11:05:29Z</time>
      </trkpt>
      <trkpt lat="45.86034" lon="6.5297">
        <ele>1894.4</ele>
        <time>2022-01-07T11:05:32Z</time>
      </trkpt>
      <trkpt lat="45.86036" lon="6.52972">
        <ele>1894.4</ele>
        <time>2022-01-07T11:05:34Z</time>
      </trkpt>
      <trkpt lat="45.86037" lon="6.52974">
        <ele>1894.4</ele>
        <time>2022-01-07T11:06:01Z</time>
      </trkpt>
      <trkpt lat="45.86039" lon="6.52976">
        <ele>1894.4</ele>
        <time>2022-01-07T11:06:03Z</time>
      </trkpt>
      <trkpt lat="45.86041" lon="6.52979">
        <ele>1894.4</ele>
        <time>2022-01-07T11:06:05Z</time>
      </trkpt>
      <trkpt lat="45.86043" lon="6.52981">
        <ele>1894.4</ele>
        <time>2022-01-07T11:06:07Z</time>
      </trkpt>
      <trkpt lat="45.86044" lon="6.52984">
        <ele>1895</ele>
        <time>2022-01-07T11:06:09Z</time>
      </trkpt>
      <trkpt lat="45.86046" lon="6.52986">
        <ele>1895</ele>
        <time>2022-01-07T11:06:11Z</time>
      </trkpt>
      <trkpt lat="45.86048" lon="6.52989">
        <ele>1895</ele>
        <time>2022-01-07T11:06:13Z</time>
      </trkpt>
      <trkpt lat="45.86049" lon="6.52991">
        <ele>1895</ele>
        <time>2022-01-07T11:06:15Z</time>
      </trkpt>
      <trkpt lat="45.86051" lon="6.52994">
        <ele>1895</ele>
        <time>2022-01-07T11:06:18Z</time>
      </trkpt>
      <trkpt lat="45.86052" lon="6.52996">
        <ele>1895</ele>
        <time>2022-01-07T11:06:20Z</time>
      </trkpt>
      <trkpt lat="45.86054" lon="6.52998">
        <ele>1895</ele>
        <time>2022-01-07T11:06:22Z</time>
      </trkpt>
      <trkpt lat="45.86056" lon="6.53001">
        <ele>1895</ele>
        <time>2022-01-07T11:06:24Z</time>
      </trkpt>
      <trkpt lat="45.86057" lon="6.53003">
        <ele>1895</ele>
        <time>2022-01-07T11:06:26Z</time>
      </trkpt>
      <trkpt lat="45.86059" lon="6.53005">
        <ele>1895</ele>
        <time>2022-01-07T11:06:28Z</time>
      </trkpt>
      <trkpt lat="45.8606" lon="6.53008">
        <ele>1895</ele>
        <time>2022-01-07T11:06:30Z</time>
      </trkpt>
      <trkpt lat="45.86061" lon="6.5301">
        <ele>1895</ele>
        <time>2022-01-07T11:06:33Z</time>
      </trkpt>
      <trkpt lat="45.86063" lon="6.53012">
        <ele>1895</ele>
        <time>2022-01-07T11:06:35Z</time>
      </trkpt>
      <trkpt lat="45.86064" lon="6.53014">
        <ele>1895</ele>
        <time>2022-01-07T11:06:37Z</time>
      </trkpt>
      <trkpt lat="45.86065" lon="6.53016">
        <ele>1897.4</ele>
        <time>2022-01-07T11:06:39Z</time>
      </trkpt>
      <trkpt lat="45.86067" lon="6.53019">
        <ele>1897.4</ele>
        <time>2022-01-07T11:06:42Z</time>
      </trkpt>
      <trkpt lat="45.86068" lon="6.53021">
        <ele>1897.4</ele>
        <time>2022-01-07T11:06:44Z</time>
      </trkpt>
      <trkpt lat="45.8607" lon="6.53023">
        <ele>1897.4</ele>
        <time>2022-01-07T11:06:46Z</time>
      </trkpt>
      <trkpt lat="45.86072" lon="6.53025">
        <ele>1897.4</ele>
        <time>2022-01-07T11:06:48Z</time>
      </trkpt>
      <trkpt lat="45.86073" lon="6.53026">
        <ele>1897.4</ele>
        <time>2022-01-07T11:06:50Z</time>
      </trkpt>
      <trkpt lat="45.86075" lon="6.53028">
        <ele>1897.4</ele>
        <time>2022-01-07T11:06:52Z</time>
      </trkpt>
      <trkpt lat="45.86077" lon="6.53029">
        <ele>1897.4</ele>
        <time>2022-01-07T11:06:54Z</time>
      </trkpt>
      <trkpt lat="45.86078" lon="6.53032">
        <ele>1897.4</ele>
        <time>2022-01-07T11:06:56Z</time>
      </trkpt>
      <trkpt lat="45.86079" lon="6.53034">
        <ele>1897.4</ele>
        <time>2022-01-07T11:06:58Z</time>
      </trkpt>
      <trkpt lat="45.86081" lon="6.53036">
        <ele>1897.4</ele>
        <time>2022-01-07T11:07:00Z</time>
      </trkpt>
      <trkpt lat="45.86082" lon="6.53039">
        <ele>1897.4</ele>
        <time>2022-01-07T11:07:02Z</time>
      </trkpt>
      <trkpt lat="45.86083" lon="6.53041">
        <ele>1897.4</ele>
        <time>2022-01-07T11:07:04Z</time>
      </trkpt>
      <trkpt lat="45.86085" lon="6.53043">
        <ele>1897.4</ele>
        <time>2022-01-07T11:07:06Z</time>
      </trkpt>
      <trkpt lat="45.86086" lon="6.53046">
        <ele>1900.4</ele>
        <time>2022-01-07T11:07:09Z</time>
      </trkpt>
      <trkpt lat="45.86088" lon="6.53048">
        <ele>1900.4</ele>
        <time>2022-01-07T11:07:11Z</time>
      </trkpt>
      <trkpt lat="45.86089" lon="6.5305">
        <ele>1900.4</ele>
        <time>2022-01-07T11:07:13Z</time>
      </trkpt>
      <trkpt lat="45.8609" lon="6.53052">
        <ele>1900.4</ele>
        <time>2022-01-07T11:07:15Z</time>
      </trkpt>
      <trkpt lat="45.86092" lon="6.53054">
        <ele>1900.4</ele>
        <time>2022-01-07T11:07:18Z</time>
      </trkpt>
      <trkpt lat="45.86093" lon="6.53056">
        <ele>1900.4</ele>
        <time>2022-01-07T11:07:20Z</time>
      </trkpt>
      <trkpt lat="45.86095" lon="6.53058">
        <ele>1900.4</ele>
        <time>2022-01-07T11:07:22Z</time>
      </trkpt>
      <trkpt lat="45.86096" lon="6.53061">
        <ele>1900.4</ele>
        <time>2022-01-07T11:07:25Z</time>
      </trkpt>
      <trkpt lat="45.86098" lon="6.53064">
        <ele>1900.4</ele>
        <time>2022-01-07T11:07:28Z</time>
      </trkpt>
      <trkpt lat="45.861" lon="6.53067">
        <ele>1900.4</ele>
        <time>2022-01-07T11:07:31Z</time>
      </trkpt>
      <trkpt lat="45.86101" lon="6.53069">
        <ele>1900.4</ele>
        <time>2022-01-07T11:07:33Z</time>
      </trkpt>
      <trkpt lat="45.86103" lon="6.53072">
        <ele>1900.4</ele>
        <time>2022-01-07T11:07:36Z</time>
      </trkpt>
      <trkpt lat="45.86104" lon="6.53075">
        <ele>1905.8</ele>
        <time>2022-01-07T11:07:39Z</time>
      </trkpt>
      <trkpt lat="45.86106" lon="6.53078">
        <ele>1905.8</ele>
        <time>2022-01-07T11:07:42Z</time>
      </trkpt>
      <trkpt lat="45.86107" lon="6.5308">
        <ele>1905.8</ele>
        <time>2022-01-07T11:07:44Z</time>
      </trkpt>
      <trkpt lat="45.86108" lon="6.53083">
        <ele>1905.8</ele>
        <time>2022-01-07T11:07:47Z</time>
      </trkpt>
      <trkpt lat="45.86109" lon="6.53086">
        <ele>1905.8</ele>
        <time>2022-01-07T11:07:50Z</time>
      </trkpt>
      <trkpt lat="45.8611" lon="6.53089">
        <ele>1905.8</ele>
        <time>2022-01-07T11:07:53Z</time>
      </trkpt>
      <trkpt lat="45.86112" lon="6.53092">
        <ele>1905.8</ele>
        <time>2022-01-07T11:07:56Z</time>
      </trkpt>
      <trkpt lat="45.86113" lon="6.53095">
        <ele>1905.8</ele>
        <time>2022-01-07T11:07:58Z</time>
      </trkpt>
      <trkpt lat="45.86114" lon="6.53097">
        <ele>1905.8</ele>
        <time>2022-01-07T11:08:00Z</time>
      </trkpt>
      <trkpt lat="45.86116" lon="6.53099">
        <ele>1905.8</ele>
        <time>2022-01-07T11:08:03Z</time>
      </trkpt>
      <trkpt lat="45.86117" lon="6.53103">
        <ele>1905.8</ele>
        <time>2022-01-07T11:08:06Z</time>
      </trkpt>
      <trkpt lat="45.86118" lon="6.53106">
        <ele>1911.8</ele>
        <time>2022-01-07T11:08:09Z</time>
      </trkpt>
      <trkpt lat="45.86119" lon="6.53109">
        <ele>1911.8</ele>
        <time>2022-01-07T11:08:12Z</time>
      </trkpt>
      <trkpt lat="45.8612" lon="6.53111">
        <ele>1911.8</ele>
        <time>2022-01-07T11:08:14Z</time>
      </trkpt>
      <trkpt lat="45.86121" lon="6.53114">
        <ele>1911.8</ele>
        <time>2022-01-07T11:08:17Z</time>
      </trkpt>
      <trkpt lat="45.86123" lon="6.53118">
        <ele>1911.8</ele>
        <time>2022-01-07T11:08:20Z</time>
      </trkpt>
      <trkpt lat="45.86124" lon="6.53121">
        <ele>1911.8</ele>
        <time>2022-01-07T11:08:23Z</time>
      </trkpt>
      <trkpt lat="45.86125" lon="6.53124">
        <ele>1911.8</ele>
        <time>2022-01-07T11:08:26Z</time>
      </trkpt>
      <trkpt lat="45.86125" lon="6.53127">
        <ele>1915.8</ele>
        <time>2022-01-07T11:08:29Z</time>
      </trkpt>
      <trkpt lat="45.86127" lon="6.53129">
        <ele>1915.8</ele>
        <time>2022-01-07T11:08:31Z</time>
      </trkpt>
      <trkpt lat="45.86128" lon="6.53132">
        <ele>1915.8</ele>
        <time>2022-01-07T11:08:33Z</time>
      </trkpt>
      <trkpt lat="45.86129" lon="6.53135">
        <ele>1915.8</ele>
        <time>2022-01-07T11:08:36Z</time>
      </trkpt>
      <trkpt lat="45.86129" lon="6.53138">
        <ele>1918</ele>
        <time>2022-01-07T11:08:39Z</time>
      </trkpt>
      <trkpt lat="45.8613" lon="6.53141">
        <ele>1918</ele>
        <time>2022-01-07T11:08:41Z</time>
      </trkpt>
      <trkpt lat="45.86131" lon="6.53144">
        <ele>1918</ele>
        <time>2022-01-07T11:08:43Z</time>
      </trkpt>
      <trkpt lat="45.86131" lon="6.53147">
        <ele>1918</ele>
        <time>2022-01-07T11:08:45Z</time>
      </trkpt>
      <trkpt lat="45.86132" lon="6.5315">
        <ele>1918</ele>
        <time>2022-01-07T11:08:48Z</time>
      </trkpt>
      <trkpt lat="45.86133" lon="6.53153">
        <ele>1918</ele>
        <time>2022-01-07T11:08:50Z</time>
      </trkpt>
      <trkpt lat="45.86132" lon="6.53156">
        <ele>1918</ele>
        <time>2022-01-07T11:09:44Z</time>
      </trkpt>
      <trkpt lat="45.86133" lon="6.53159">
        <ele>1918</ele>
        <time>2022-01-07T11:09:46Z</time>
      </trkpt>
      <trkpt lat="45.86135" lon="6.53162">
        <ele>1918</ele>
        <time>2022-01-07T11:09:48Z</time>
      </trkpt>
      <trkpt lat="45.86136" lon="6.53165">
        <ele>1918</ele>
        <time>2022-01-07T11:09:50Z</time>
      </trkpt>
      <trkpt lat="45.86137" lon="6.53168">
        <ele>1918</ele>
        <time>2022-01-07T11:09:52Z</time>
      </trkpt>
      <trkpt lat="45.86139" lon="6.53171">
        <ele>1918</ele>
        <time>2022-01-07T11:09:54Z</time>
      </trkpt>
      <trkpt lat="45.86141" lon="6.53173">
        <ele>1918</ele>
        <time>2022-01-07T11:09:57Z</time>
      </trkpt>
      <trkpt lat="45.86142" lon="6.53175">
        <ele>1918</ele>
        <time>2022-01-07T11:10:00Z</time>
      </trkpt>
      <trkpt lat="45.86143" lon="6.53178">
        <ele>1918</ele>
        <time>2022-01-07T11:10:02Z</time>
      </trkpt>
      <trkpt lat="45.86145" lon="6.53181">
        <ele>1918</ele>
        <time>2022-01-07T11:10:05Z</time>
      </trkpt>
      <trkpt lat="45.86146" lon="6.53184">
        <ele>1918</ele>
        <time>2022-01-07T11:10:07Z</time>
      </trkpt>
      <trkpt lat="45.86147" lon="6.53186">
        <ele>1924.8</ele>
        <time>2022-01-07T11:10:09Z</time>
      </trkpt>
      <trkpt lat="45.86148" lon="6.53189">
        <ele>1924.8</ele>
        <time>2022-01-07T11:10:12Z</time>
      </trkpt>
      <trkpt lat="45.86149" lon="6.53193">
        <ele>1924.8</ele>
        <time>2022-01-07T11:10:15Z</time>
      </trkpt>
      <trkpt lat="45.8615" lon="6.53196">
        <ele>1924.8</ele>
        <time>2022-01-07T11:10:17Z</time>
      </trkpt>
      <trkpt lat="45.86151" lon="6.53198">
        <ele>1925.8</ele>
        <time>2022-01-07T11:10:19Z</time>
      </trkpt>
      <trkpt lat="45.86151" lon="6.53201">
        <ele>1925.8</ele>
        <time>2022-01-07T11:10:21Z</time>
      </trkpt>
      <trkpt lat="45.86152" lon="6.53204">
        <ele>1925.8</ele>
        <time>2022-01-07T11:10:23Z</time>
      </trkpt>
      <trkpt lat="45.86152" lon="6.53207">
        <ele>1925.8</ele>
        <time>2022-01-07T11:10:25Z</time>
      </trkpt>
      <trkpt lat="45.86153" lon="6.53209">
        <ele>1925.8</ele>
        <time>2022-01-07T11:10:27Z</time>
      </trkpt>
      <trkpt lat="45.86154" lon="6.53212">
        <ele>1925.8</ele>
        <time>2022-01-07T11:10:32Z</time>
      </trkpt>
      <trkpt lat="45.86155" lon="6.53215">
        <ele>1925.8</ele>
        <time>2022-01-07T11:10:35Z</time>
      </trkpt>
      <trkpt lat="45.86156" lon="6.53219">
        <ele>1925.8</ele>
        <time>2022-01-07T11:10:38Z</time>
      </trkpt>
      <trkpt lat="45.86157" lon="6.53222">
        <ele>1925.8</ele>
        <time>2022-01-07T11:10:41Z</time>
      </trkpt>
      <trkpt lat="45.86158" lon="6.53225">
        <ele>1925.8</ele>
        <time>2022-01-07T11:10:43Z</time>
      </trkpt>
      <trkpt lat="45.86157" lon="6.53227">
        <ele>1925.8</ele>
        <time>2022-01-07T11:10:47Z</time>
      </trkpt>
      <trkpt lat="45.86174" lon="6.53277">
        <ele>1925.8</ele>
        <time>2022-01-07T11:35:56Z</time>
      </trkpt>
      <trkpt lat="45.86172" lon="6.53275">
        <ele>1932.4</ele>
        <time>2022-01-07T11:35:57Z</time>
      </trkpt>
      <trkpt lat="45.8617" lon="6.53273">
        <ele>1932.4</ele>
        <time>2022-01-07T11:35:58Z</time>
      </trkpt>
      <trkpt lat="45.86168" lon="6.53269">
        <ele>1932.4</ele>
        <time>2022-01-07T11:35:59Z</time>
      </trkpt>
      <trkpt lat="45.86166" lon="6.53265">
        <ele>1932.4</ele>
        <time>2022-01-07T11:36:00Z</time>
      </trkpt>
      <trkpt lat="45.86165" lon="6.53262">
        <ele>1932.4</ele>
        <time>2022-01-07T11:36:01Z</time>
      </trkpt>
      <trkpt lat="45.86164" lon="6.53258">
        <ele>1932.4</ele>
        <time>2022-01-07T11:36:02Z</time>
      </trkpt>
      <trkpt lat="45.86163" lon="6.53252">
        <ele>1932.4</ele>
        <time>2022-01-07T11:36:03Z</time>
      </trkpt>
      <trkpt lat="45.86162" lon="6.53247">
        <ele>1932.4</ele>
        <time>2022-01-07T11:36:04Z</time>
      </trkpt>
      <trkpt lat="45.86162" lon="6.53243">
        <ele>1932.4</ele>
        <time>2022-01-07T11:36:05Z</time>
      </trkpt>
      <trkpt lat="45.86163" lon="6.53241">
        <ele>1932.4</ele>
        <time>2022-01-07T11:36:08Z</time>
      </trkpt>
      <trkpt lat="45.86165" lon="6.5324">
        <ele>1932.4</ele>
        <time>2022-01-07T11:36:10Z</time>
      </trkpt>
      <trkpt lat="45.86168" lon="6.5324">
        <ele>1932.4</ele>
        <time>2022-01-07T11:36:11Z</time>
      </trkpt>
      <trkpt lat="45.86171" lon="6.53239">
        <ele>1932.4</ele>
        <time>2022-01-07T11:36:12Z</time>
      </trkpt>
      <trkpt lat="45.86174" lon="6.53239">
        <ele>1932.4</ele>
        <time>2022-01-07T11:36:13Z</time>
      </trkpt>
      <trkpt lat="45.86179" lon="6.53238">
        <ele>1932.4</ele>
        <time>2022-01-07T11:36:14Z</time>
      </trkpt>
      <trkpt lat="45.86183" lon="6.53237">
        <ele>1932.4</ele>
        <time>2022-01-07T11:36:15Z</time>
      </trkpt>
      <trkpt lat="45.86188" lon="6.53238">
        <ele>1932.4</ele>
        <time>2022-01-07T11:36:16Z</time>
      </trkpt>
      <trkpt lat="45.86192" lon="6.53238">
        <ele>1928.4</ele>
        <time>2022-01-07T11:36:17Z</time>
      </trkpt>
      <trkpt lat="45.86195" lon="6.53236">
        <ele>1928.4</ele>
        <time>2022-01-07T11:36:18Z</time>
      </trkpt>
      <trkpt lat="45.86198" lon="6.53233">
        <ele>1928.4</ele>
        <time>2022-01-07T11:36:19Z</time>
      </trkpt>
      <trkpt lat="45.86203" lon="6.53233">
        <ele>1928.4</ele>
        <time>2022-01-07T11:36:20Z</time>
      </trkpt>
      <trkpt lat="45.86209" lon="6.53232">
        <ele>1928.4</ele>
        <time>2022-01-07T11:36:21Z</time>
      </trkpt>
      <trkpt lat="45.86214" lon="6.53232">
        <ele>1928.4</ele>
        <time>2022-01-07T11:36:22Z</time>
      </trkpt>
      <trkpt lat="45.86219" lon="6.53232">
        <ele>1928.4</ele>
        <time>2022-01-07T11:36:23Z</time>
      </trkpt>
      <trkpt lat="45.86224" lon="6.53233">
        <ele>1928.4</ele>
        <time>2022-01-07T11:36:24Z</time>
      </trkpt>
      <trkpt lat="45.86228" lon="6.53235">
        <ele>1928.4</ele>
        <time>2022-01-07T11:36:25Z</time>
      </trkpt>
      <trkpt lat="45.86236" lon="6.53237">
        <ele>1928.4</ele>
        <time>2022-01-07T11:36:26Z</time>
      </trkpt>
      <trkpt lat="45.86242" lon="6.53238">
        <ele>1917.8</ele>
        <time>2022-01-07T11:36:27Z</time>
      </trkpt>
      <trkpt lat="45.86249" lon="6.53241">
        <ele>1917.8</ele>
        <time>2022-01-07T11:36:28Z</time>
      </trkpt>
      <trkpt lat="45.86254" lon="6.53242">
        <ele>1917.8</ele>
        <time>2022-01-07T11:36:29Z</time>
      </trkpt>
      <trkpt lat="45.86262" lon="6.53245">
        <ele>1917.8</ele>
        <time>2022-01-07T11:36:30Z</time>
      </trkpt>
      <trkpt lat="45.86268" lon="6.53247">
        <ele>1917.8</ele>
        <time>2022-01-07T11:36:31Z</time>
      </trkpt>
      <trkpt lat="45.86276" lon="6.53249">
        <ele>1917.8</ele>
        <time>2022-01-07T11:36:32Z</time>
      </trkpt>
      <trkpt lat="45.86283" lon="6.53251">
        <ele>1917.8</ele>
        <time>2022-01-07T11:36:33Z</time>
      </trkpt>
      <trkpt lat="45.8629" lon="6.53253">
        <ele>1917.8</ele>
        <time>2022-01-07T11:36:34Z</time>
      </trkpt>
      <trkpt lat="45.86298" lon="6.53254">
        <ele>1917.8</ele>
        <time>2022-01-07T11:36:35Z</time>
      </trkpt>
      <trkpt lat="45.86306" lon="6.53256">
        <ele>1917.8</ele>
        <time>2022-01-07T11:36:36Z</time>
      </trkpt>
      <trkpt lat="45.86314" lon="6.53257">
        <ele>1895.8</ele>
        <time>2022-01-07T11:36:37Z</time>
      </trkpt>
      <trkpt lat="45.86322" lon="6.53256">
        <ele>1895.8</ele>
        <time>2022-01-07T11:36:38Z</time>
      </trkpt>
      <trkpt lat="45.86332" lon="6.53256">
        <ele>1895.8</ele>
        <time>2022-01-07T11:36:39Z</time>
      </trkpt>
      <trkpt lat="45.8634" lon="6.53255">
        <ele>1895.8</ele>
        <time>2022-01-07T11:36:40Z</time>
      </trkpt>
      <trkpt lat="45.86349" lon="6.53254">
        <ele>1895.8</ele>
        <time>2022-01-07T11:36:41Z</time>
      </trkpt>
      <trkpt lat="45.86358" lon="6.53253">
        <ele>1895.8</ele>
        <time>2022-01-07T11:36:42Z</time>
      </trkpt>
      <trkpt lat="45.86368" lon="6.53251">
        <ele>1895.8</ele>
        <time>2022-01-07T11:36:43Z</time>
      </trkpt>
      <trkpt lat="45.86377" lon="6.53249">
        <ele>1895.8</ele>
        <time>2022-01-07T11:36:44Z</time>
      </trkpt>
      <trkpt lat="45.86386" lon="6.53245">
        <ele>1895.8</ele>
        <time>2022-01-07T11:36:45Z</time>
      </trkpt>
      <trkpt lat="45.86395" lon="6.53244">
        <ele>1895.8</ele>
        <time>2022-01-07T11:36:46Z</time>
      </trkpt>
      <trkpt lat="45.86403" lon="6.53242">
        <ele>1869.2</ele>
        <time>2022-01-07T11:36:47Z</time>
      </trkpt>
      <trkpt lat="45.86412" lon="6.5324">
        <ele>1869.2</ele>
        <time>2022-01-07T11:36:48Z</time>
      </trkpt>
      <trkpt lat="45.86423" lon="6.53239">
        <ele>1869.2</ele>
        <time>2022-01-07T11:36:49Z</time>
      </trkpt>
      <trkpt lat="45.8643" lon="6.53237">
        <ele>1869.2</ele>
        <time>2022-01-07T11:36:50Z</time>
      </trkpt>
      <trkpt lat="45.86439" lon="6.53236">
        <ele>1869.2</ele>
        <time>2022-01-07T11:36:51Z</time>
      </trkpt>
      <trkpt lat="45.86448" lon="6.53237">
        <ele>1869.2</ele>
        <time>2022-01-07T11:36:52Z</time>
      </trkpt>
      <trkpt lat="45.86458" lon="6.53237">
        <ele>1869.2</ele>
        <time>2022-01-07T11:36:53Z</time>
      </trkpt>
      <trkpt lat="45.86466" lon="6.53238">
        <ele>1869.2</ele>
        <time>2022-01-07T11:36:54Z</time>
      </trkpt>
      <trkpt lat="45.86476" lon="6.53237">
        <ele>1869.2</ele>
        <time>2022-01-07T11:36:55Z</time>
      </trkpt>
      <trkpt lat="45.86485" lon="6.53235">
        <ele>1869.2</ele>
        <time>2022-01-07T11:36:56Z</time>
      </trkpt>
      <trkpt lat="45.86494" lon="6.53234">
        <ele>1844.8</ele>
        <time>2022-01-07T11:36:57Z</time>
      </trkpt>
      <trkpt lat="45.86504" lon="6.53232">
        <ele>1844.8</ele>
        <time>2022-01-07T11:36:58Z</time>
      </trkpt>
      <trkpt lat="45.86515" lon="6.53232">
        <ele>1844.8</ele>
        <time>2022-01-07T11:36:59Z</time>
      </trkpt>
      <trkpt lat="45.86525" lon="6.5323">
        <ele>1844.8</ele>
        <time>2022-01-07T11:37:00Z</time>
      </trkpt>
      <trkpt lat="45.86537" lon="6.53229">
        <ele>1844.8</ele>
        <time>2022-01-07T11:37:01Z</time>
      </trkpt>
      <trkpt lat="45.86548" lon="6.53228">
        <ele>1844.8</ele>
        <time>2022-01-07T11:37:02Z</time>
      </trkpt>
      <trkpt lat="45.8656" lon="6.53228">
        <ele>1844.8</ele>
        <time>2022-01-07T11:37:03Z</time>
      </trkpt>
      <trkpt lat="45.86573" lon="6.53231">
        <ele>1844.8</ele>
        <time>2022-01-07T11:37:04Z</time>
      </trkpt>
      <trkpt lat="45.86583" lon="6.53234">
        <ele>1844.8</ele>
        <time>2022-01-07T11:37:05Z</time>
      </trkpt>
      <trkpt lat="45.86595" lon="6.53237">
        <ele>1844.8</ele>
        <time>2022-01-07T11:37:06Z</time>
      </trkpt>
      <trkpt lat="45.86609" lon="6.53244">
        <ele>1817</ele>
        <time>2022-01-07T11:37:07Z</time>
      </trkpt>
      <trkpt lat="45.86618" lon="6.53248">
        <ele>1817</ele>
        <time>2022-01-07T11:37:08Z</time>
      </trkpt>
      <trkpt lat="45.86631" lon="6.53256">
        <ele>1817</ele>
        <time>2022-01-07T11:37:09Z</time>
      </trkpt>
      <trkpt lat="45.8664" lon="6.53261">
        <ele>1817</ele>
        <time>2022-01-07T11:37:10Z</time>
      </trkpt>
      <trkpt lat="45.86651" lon="6.53268">
        <ele>1817</ele>
        <time>2022-01-07T11:37:11Z</time>
      </trkpt>
      <trkpt lat="45.86663" lon="6.53277">
        <ele>1817</ele>
        <time>2022-01-07T11:37:12Z</time>
      </trkpt>
      <trkpt lat="45.86672" lon="6.53283">
        <ele>1817</ele>
        <time>2022-01-07T11:37:13Z</time>
      </trkpt>
      <trkpt lat="45.86683" lon="6.53291">
        <ele>1817</ele>
        <time>2022-01-07T11:37:14Z</time>
      </trkpt>
      <trkpt lat="45.86694" lon="6.53299">
        <ele>1817</ele>
        <time>2022-01-07T11:37:15Z</time>
      </trkpt>
      <trkpt lat="45.86706" lon="6.53307">
        <ele>1817</ele>
        <time>2022-01-07T11:37:16Z</time>
      </trkpt>
      <trkpt lat="45.86718" lon="6.53317">
        <ele>1792.2</ele>
        <time>2022-01-07T11:37:17Z</time>
      </trkpt>
      <trkpt lat="45.86731" lon="6.53327">
        <ele>1792.2</ele>
        <time>2022-01-07T11:37:18Z</time>
      </trkpt>
      <trkpt lat="45.86743" lon="6.53337">
        <ele>1792.2</ele>
        <time>2022-01-07T11:37:19Z</time>
      </trkpt>
      <trkpt lat="45.86756" lon="6.53347">
        <ele>1792.2</ele>
        <time>2022-01-07T11:37:20Z</time>
      </trkpt>
      <trkpt lat="45.86767" lon="6.53358">
        <ele>1792.2</ele>
        <time>2022-01-07T11:37:21Z</time>
      </trkpt>
      <trkpt lat="45.86778" lon="6.53368">
        <ele>1792.2</ele>
        <time>2022-01-07T11:37:22Z</time>
      </trkpt>
      <trkpt lat="45.86788" lon="6.53378">
        <ele>1792.2</ele>
        <time>2022-01-07T11:37:23Z</time>
      </trkpt>
      <trkpt lat="45.86798" lon="6.53388">
        <ele>1792.2</ele>
        <time>2022-01-07T11:37:24Z</time>
      </trkpt>
      <trkpt lat="45.86808" lon="6.53399">
        <ele>1792.2</ele>
        <time>2022-01-07T11:37:25Z</time>
      </trkpt>
      <trkpt lat="45.86816" lon="6.53408">
        <ele>1792.2</ele>
        <time>2022-01-07T11:37:26Z</time>
      </trkpt>
      <trkpt lat="45.86822" lon="6.53416">
        <ele>1769</ele>
        <time>2022-01-07T11:37:27Z</time>
      </trkpt>
      <trkpt lat="45.86826" lon="6.53422">
        <ele>1769</ele>
        <time>2022-01-07T11:37:28Z</time>
      </trkpt>
      <trkpt lat="45.8683" lon="6.53427">
        <ele>1769</ele>
        <time>2022-01-07T11:37:29Z</time>
      </trkpt>
      <trkpt lat="45.86832" lon="6.5343">
        <ele>1769</ele>
        <time>2022-01-07T11:37:30Z</time>
      </trkpt>
      <trkpt lat="45.86834" lon="6.53429">
        <ele>1769</ele>
        <time>2022-01-07T11:37:44Z</time>
      </trkpt>
      <trkpt lat="45.86836" lon="6.53429">
        <ele>1769</ele>
        <time>2022-01-07T11:37:46Z</time>
      </trkpt>
      <trkpt lat="45.86838" lon="6.5343">
        <ele>1763.4</ele>
        <time>2022-01-07T11:37:47Z</time>
      </trkpt>
      <trkpt lat="45.86841" lon="6.53431">
        <ele>1763.4</ele>
        <time>2022-01-07T11:37:48Z</time>
      </trkpt>
      <trkpt lat="45.86844" lon="6.53434">
        <ele>1763.4</ele>
        <time>2022-01-07T11:37:49Z</time>
      </trkpt>
      <trkpt lat="45.86847" lon="6.53436">
        <ele>1763.4</ele>
        <time>2022-01-07T11:37:50Z</time>
      </trkpt>
      <trkpt lat="45.86852" lon="6.53438">
        <ele>1763.4</ele>
        <time>2022-01-07T11:37:51Z</time>
      </trkpt>
      <trkpt lat="45.86857" lon="6.5344">
        <ele>1763.4</ele>
        <time>2022-01-07T11:37:52Z</time>
      </trkpt>
      <trkpt lat="45.86864" lon="6.53443">
        <ele>1763.4</ele>
        <time>2022-01-07T11:37:53Z</time>
      </trkpt>
      <trkpt lat="45.86871" lon="6.53446">
        <ele>1763.4</ele>
        <time>2022-01-07T11:37:54Z</time>
      </trkpt>
      <trkpt lat="45.86877" lon="6.53452">
        <ele>1763.4</ele>
        <time>2022-01-07T11:37:55Z</time>
      </trkpt>
      <trkpt lat="45.86885" lon="6.53459">
        <ele>1763.4</ele>
        <time>2022-01-07T11:37:56Z</time>
      </trkpt>
      <trkpt lat="45.86891" lon="6.53463">
        <ele>1758</ele>
        <time>2022-01-07T11:37:57Z</time>
      </trkpt>
      <trkpt lat="45.86899" lon="6.53466">
        <ele>1758</ele>
        <time>2022-01-07T11:37:58Z</time>
      </trkpt>
      <trkpt lat="45.86906" lon="6.53469">
        <ele>1758</ele>
        <time>2022-01-07T11:37:59Z</time>
      </trkpt>
      <trkpt lat="45.86915" lon="6.53469">
        <ele>1758</ele>
        <time>2022-01-07T11:38:00Z</time>
      </trkpt>
      <trkpt lat="45.86922" lon="6.53469">
        <ele>1758</ele>
        <time>2022-01-07T11:38:01Z</time>
      </trkpt>
      <trkpt lat="45.86929" lon="6.53472">
        <ele>1758</ele>
        <time>2022-01-07T11:38:02Z</time>
      </trkpt>
      <trkpt lat="45.86937" lon="6.53478">
        <ele>1758</ele>
        <time>2022-01-07T11:38:03Z</time>
      </trkpt>
      <trkpt lat="45.86946" lon="6.53486">
        <ele>1758</ele>
        <time>2022-01-07T11:38:04Z</time>
      </trkpt>
      <trkpt lat="45.86953" lon="6.53491">
        <ele>1758</ele>
        <time>2022-01-07T11:38:05Z</time>
      </trkpt>
      <trkpt lat="45.86964" lon="6.53495">
        <ele>1758</ele>
        <time>2022-01-07T11:38:06Z</time>
      </trkpt>
      <trkpt lat="45.86976" lon="6.535">
        <ele>1741.8</ele>
        <time>2022-01-07T11:38:07Z</time>
      </trkpt>
      <trkpt lat="45.86984" lon="6.53502">
        <ele>1741.8</ele>
        <time>2022-01-07T11:38:08Z</time>
      </trkpt>
      <trkpt lat="45.86995" lon="6.53504">
        <ele>1741.8</ele>
        <time>2022-01-07T11:38:09Z</time>
      </trkpt>
      <trkpt lat="45.87005" lon="6.53507">
        <ele>1741.8</ele>
        <time>2022-01-07T11:38:10Z</time>
      </trkpt>
      <trkpt lat="45.87017" lon="6.53509">
        <ele>1741.8</ele>
        <time>2022-01-07T11:38:11Z</time>
      </trkpt>
      <trkpt lat="45.87025" lon="6.53511">
        <ele>1741.8</ele>
        <time>2022-01-07T11:38:12Z</time>
      </trkpt>
      <trkpt lat="45.87031" lon="6.53514">
        <ele>1741.8</ele>
        <time>2022-01-07T11:38:13Z</time>
      </trkpt>
      <trkpt lat="45.87039" lon="6.53519">
        <ele>1741.8</ele>
        <time>2022-01-07T11:38:14Z</time>
      </trkpt>
      <trkpt lat="45.87044" lon="6.5352">
        <ele>1741.8</ele>
        <time>2022-01-07T11:38:15Z</time>
      </trkpt>
      <trkpt lat="45.87052" lon="6.53521">
        <ele>1741.8</ele>
        <time>2022-01-07T11:38:16Z</time>
      </trkpt>
      <trkpt lat="45.8706" lon="6.53526">
        <ele>1713.4</ele>
        <time>2022-01-07T11:38:17Z</time>
      </trkpt>
      <trkpt lat="45.87068" lon="6.53531">
        <ele>1713.4</ele>
        <time>2022-01-07T11:38:18Z</time>
      </trkpt>
      <trkpt lat="45.87076" lon="6.53537">
        <ele>1713.4</ele>
        <time>2022-01-07T11:38:19Z</time>
      </trkpt>
      <trkpt lat="45.87084" lon="6.53547">
        <ele>1713.4</ele>
        <time>2022-01-07T11:38:20Z</time>
      </trkpt>
      <trkpt lat="45.8709" lon="6.53557">
        <ele>1713.4</ele>
        <time>2022-01-07T11:38:21Z</time>
      </trkpt>
      <trkpt lat="45.87095" lon="6.53565">
        <ele>1713.4</ele>
        <time>2022-01-07T11:38:22Z</time>
      </trkpt>
      <trkpt lat="45.87101" lon="6.53578">
        <ele>1713.4</ele>
        <time>2022-01-07T11:38:23Z</time>
      </trkpt>
      <trkpt lat="45.87107" lon="6.53588">
        <ele>1713.4</ele>
        <time>2022-01-07T11:38:24Z</time>
      </trkpt>
      <trkpt lat="45.8711" lon="6.53597">
        <ele>1713.4</ele>
        <time>2022-01-07T11:38:25Z</time>
      </trkpt>
      <trkpt lat="45.87112" lon="6.53609">
        <ele>1713.4</ele>
        <time>2022-01-07T11:38:26Z</time>
      </trkpt>
      <trkpt lat="45.87114" lon="6.5362">
        <ele>1676.4</ele>
        <time>2022-01-07T11:38:27Z</time>
      </trkpt>
      <trkpt lat="45.87115" lon="6.53631">
        <ele>1676.4</ele>
        <time>2022-01-07T11:38:28Z</time>
      </trkpt>
      <trkpt lat="45.87116" lon="6.53643">
        <ele>1676.4</ele>
        <time>2022-01-07T11:38:29Z</time>
      </trkpt>
      <trkpt lat="45.87118" lon="6.53656">
        <ele>1676.4</ele>
        <time>2022-01-07T11:38:30Z</time>
      </trkpt>
      <trkpt lat="45.8712" lon="6.5366">
        <ele>1676.4</ele>
        <time>2022-01-07T11:38:31Z</time>
      </trkpt>
      <trkpt lat="45.87122" lon="6.53663">
        <ele>1676.4</ele>
        <time>2022-01-07T11:38:32Z</time>
      </trkpt>
      <trkpt lat="45.87124" lon="6.53663">
        <ele>1676.4</ele>
        <time>2022-01-07T11:38:44Z</time>
      </trkpt>
      <trkpt lat="45.87126" lon="6.53662">
        <ele>1649</ele>
        <time>2022-01-07T11:38:47Z</time>
      </trkpt>
      <trkpt lat="45.87129" lon="6.53662">
        <ele>1649</ele>
        <time>2022-01-07T11:38:48Z</time>
      </trkpt>
      <trkpt lat="45.87132" lon="6.53665">
        <ele>1649</ele>
        <time>2022-01-07T11:38:49Z</time>
      </trkpt>
      <trkpt lat="45.87139" lon="6.53667">
        <ele>1649</ele>
        <time>2022-01-07T11:38:50Z</time>
      </trkpt>
      <trkpt lat="45.87144" lon="6.53669">
        <ele>1649</ele>
        <time>2022-01-07T11:38:51Z</time>
      </trkpt>
      <trkpt lat="45.87151" lon="6.5367">
        <ele>1649</ele>
        <time>2022-01-07T11:38:52Z</time>
      </trkpt>
      <trkpt lat="45.87157" lon="6.53667">
        <ele>1649</ele>
        <time>2022-01-07T11:38:53Z</time>
      </trkpt>
      <trkpt lat="45.87165" lon="6.53663">
        <ele>1649</ele>
        <time>2022-01-07T11:38:54Z</time>
      </trkpt>
      <trkpt lat="45.87171" lon="6.53662">
        <ele>1649</ele>
        <time>2022-01-07T11:38:55Z</time>
      </trkpt>
      <trkpt lat="45.87179" lon="6.53659">
        <ele>1649</ele>
        <time>2022-01-07T11:38:56Z</time>
      </trkpt>
      <trkpt lat="45.87185" lon="6.53654">
        <ele>1633.8</ele>
        <time>2022-01-07T11:38:57Z</time>
      </trkpt>
      <trkpt lat="45.87191" lon="6.5365">
        <ele>1633.8</ele>
        <time>2022-01-07T11:38:58Z</time>
      </trkpt>
      <trkpt lat="45.872" lon="6.53647">
        <ele>1633.8</ele>
        <time>2022-01-07T11:38:59Z</time>
      </trkpt>
      <trkpt lat="45.87206" lon="6.53643">
        <ele>1633.8</ele>
        <time>2022-01-07T11:39:00Z</time>
      </trkpt>
      <trkpt lat="45.87214" lon="6.53639">
        <ele>1633.8</ele>
        <time>2022-01-07T11:39:01Z</time>
      </trkpt>
      <trkpt lat="45.87221" lon="6.53636">
        <ele>1633.8</ele>
        <time>2022-01-07T11:39:02Z</time>
      </trkpt>
      <trkpt lat="45.87227" lon="6.53632">
        <ele>1633.8</ele>
        <time>2022-01-07T11:39:03Z</time>
      </trkpt>
      <trkpt lat="45.87233" lon="6.53626">
        <ele>1633.8</ele>
        <time>2022-01-07T11:39:04Z</time>
      </trkpt>
      <trkpt lat="45.87238" lon="6.53619">
        <ele>1633.8</ele>
        <time>2022-01-07T11:39:05Z</time>
      </trkpt>
      <trkpt lat="45.87243" lon="6.53613">
        <ele>1633.8</ele>
        <time>2022-01-07T11:39:06Z</time>
      </trkpt>
      <trkpt lat="45.87247" lon="6.53606">
        <ele>1604.8</ele>
        <time>2022-01-07T11:39:07Z</time>
      </trkpt>
      <trkpt lat="45.87252" lon="6.536">
        <ele>1604.8</ele>
        <time>2022-01-07T11:39:08Z</time>
      </trkpt>
      <trkpt lat="45.87256" lon="6.53594">
        <ele>1604.8</ele>
        <time>2022-01-07T11:39:09Z</time>
      </trkpt>
      <trkpt lat="45.87262" lon="6.53586">
        <ele>1604.8</ele>
        <time>2022-01-07T11:39:10Z</time>
      </trkpt>
      <trkpt lat="45.87267" lon="6.53578">
        <ele>1604.8</ele>
        <time>2022-01-07T11:39:11Z</time>
      </trkpt>
      <trkpt lat="45.87272" lon="6.53569">
        <ele>1604.8</ele>
        <time>2022-01-07T11:39:12Z</time>
      </trkpt>
      <trkpt lat="45.87276" lon="6.53559">
        <ele>1604.8</ele>
        <time>2022-01-07T11:39:13Z</time>
      </trkpt>
      <trkpt lat="45.87281" lon="6.53549">
        <ele>1604.8</ele>
        <time>2022-01-07T11:39:14Z</time>
      </trkpt>
      <trkpt lat="45.87287" lon="6.53539">
        <ele>1604.8</ele>
        <time>2022-01-07T11:39:15Z</time>
      </trkpt>
      <trkpt lat="45.87295" lon="6.53529">
        <ele>1604.8</ele>
        <time>2022-01-07T11:39:16Z</time>
      </trkpt>
      <trkpt lat="45.87302" lon="6.53521">
        <ele>1582.8</ele>
        <time>2022-01-07T11:39:17Z</time>
      </trkpt>
      <trkpt lat="45.8731" lon="6.53508">
        <ele>1582.8</ele>
        <time>2022-01-07T11:39:18Z</time>
      </trkpt>
      <trkpt lat="45.87316" lon="6.53498">
        <ele>1582.8</ele>
        <time>2022-01-07T11:39:19Z</time>
      </trkpt>
      <trkpt lat="45.87322" lon="6.53487">
        <ele>1582.8</ele>
        <time>2022-01-07T11:39:20Z</time>
      </trkpt>
      <trkpt lat="45.87329" lon="6.53475">
        <ele>1582.8</ele>
        <time>2022-01-07T11:39:21Z</time>
      </trkpt>
      <trkpt lat="45.87338" lon="6.53461">
        <ele>1582.8</ele>
        <time>2022-01-07T11:39:22Z</time>
      </trkpt>
      <trkpt lat="45.87346" lon="6.5345">
        <ele>1582.8</ele>
        <time>2022-01-07T11:39:23Z</time>
      </trkpt>
      <trkpt lat="45.87355" lon="6.53442">
        <ele>1582.8</ele>
        <time>2022-01-07T11:39:24Z</time>
      </trkpt>
      <trkpt lat="45.87361" lon="6.53435">
        <ele>1582.8</ele>
        <time>2022-01-07T11:39:25Z</time>
      </trkpt>
      <trkpt lat="45.87369" lon="6.53424">
        <ele>1582.8</ele>
        <time>2022-01-07T11:39:26Z</time>
      </trkpt>
      <trkpt lat="45.87374" lon="6.53415">
        <ele>1558.8</ele>
        <time>2022-01-07T11:39:27Z</time>
      </trkpt>
      <trkpt lat="45.87382" lon="6.53401">
        <ele>1558.8</ele>
        <time>2022-01-07T11:39:28Z</time>
      </trkpt>
      <trkpt lat="45.87387" lon="6.53389">
        <ele>1558.8</ele>
        <time>2022-01-07T11:39:29Z</time>
      </trkpt>
      <trkpt lat="45.8739" lon="6.53378">
        <ele>1558.8</ele>
        <time>2022-01-07T11:39:30Z</time>
      </trkpt>
      <trkpt lat="45.87396" lon="6.53361">
        <ele>1558.8</ele>
        <time>2022-01-07T11:39:31Z</time>
      </trkpt>
      <trkpt lat="45.87398" lon="6.53348">
        <ele>1558.8</ele>
        <time>2022-01-07T11:39:32Z</time>
      </trkpt>
      <trkpt lat="45.87401" lon="6.5333">
        <ele>1558.8</ele>
        <time>2022-01-07T11:39:33Z</time>
      </trkpt>
      <trkpt lat="45.87404" lon="6.53316">
        <ele>1558.8</ele>
        <time>2022-01-07T11:39:34Z</time>
      </trkpt>
      <trkpt lat="45.87408" lon="6.53304">
        <ele>1558.8</ele>
        <time>2022-01-07T11:39:35Z</time>
      </trkpt>
      <trkpt lat="45.87411" lon="6.53291">
        <ele>1558.8</ele>
        <time>2022-01-07T11:39:36Z</time>
      </trkpt>
      <trkpt lat="45.87414" lon="6.53279">
        <ele>1539.6</ele>
        <time>2022-01-07T11:39:37Z</time>
      </trkpt>
      <trkpt lat="45.87419" lon="6.53271">
        <ele>1539.6</ele>
        <time>2022-01-07T11:39:38Z</time>
      </trkpt>
      <trkpt lat="45.87427" lon="6.53266">
        <ele>1539.6</ele>
        <time>2022-01-07T11:39:39Z</time>
      </trkpt>
      <trkpt lat="45.87434" lon="6.53269">
        <ele>1539.6</ele>
        <time>2022-01-07T11:39:40Z</time>
      </trkpt>
      <trkpt lat="45.8744" lon="6.53277">
        <ele>1539.6</ele>
        <time>2022-01-07T11:39:41Z</time>
      </trkpt>
      <trkpt lat="45.87443" lon="6.53287">
        <ele>1539.6</ele>
        <time>2022-01-07T11:39:42Z</time>
      </trkpt>
      <trkpt lat="45.87445" lon="6.53299">
        <ele>1539.6</ele>
        <time>2022-01-07T11:39:43Z</time>
      </trkpt>
      <trkpt lat="45.87446" lon="6.53311">
        <ele>1539.6</ele>
        <time>2022-01-07T11:39:44Z</time>
      </trkpt>
      <trkpt lat="45.87448" lon="6.53327">
        <ele>1539.6</ele>
        <time>2022-01-07T11:39:45Z</time>
      </trkpt>
      <trkpt lat="45.8745" lon="6.53339">
        <ele>1539.6</ele>
        <time>2022-01-07T11:39:46Z</time>
      </trkpt>
      <trkpt lat="45.87454" lon="6.53345">
        <ele>1519.2</ele>
        <time>2022-01-07T11:39:47Z</time>
      </trkpt>
      <trkpt lat="45.87457" lon="6.53344">
        <ele>1519.2</ele>
        <time>2022-01-07T11:39:48Z</time>
      </trkpt>
      <trkpt lat="45.8746" lon="6.53338">
        <ele>1519.2</ele>
        <time>2022-01-07T11:39:49Z</time>
      </trkpt>
      <trkpt lat="45.87461" lon="6.53331">
        <ele>1519.2</ele>
        <time>2022-01-07T11:39:50Z</time>
      </trkpt>
      <trkpt lat="45.87462" lon="6.53324">
        <ele>1519.2</ele>
        <time>2022-01-07T11:39:51Z</time>
      </trkpt>
      <trkpt lat="45.87462" lon="6.53317">
        <ele>1519.2</ele>
        <time>2022-01-07T11:39:52Z</time>
      </trkpt>
      <trkpt lat="45.87463" lon="6.53308">
        <ele>1519.2</ele>
        <time>2022-01-07T11:39:53Z</time>
      </trkpt>
      <trkpt lat="45.87464" lon="6.53296">
        <ele>1519.2</ele>
        <time>2022-01-07T11:39:54Z</time>
      </trkpt>
      <trkpt lat="45.87466" lon="6.53284">
        <ele>1519.2</ele>
        <time>2022-01-07T11:39:55Z</time>
      </trkpt>
      <trkpt lat="45.87468" lon="6.53272">
        <ele>1519.2</ele>
        <time>2022-01-07T11:39:56Z</time>
      </trkpt>
      <trkpt lat="45.87469" lon="6.53259">
        <ele>1508.8</ele>
        <time>2022-01-07T11:39:57Z</time>
      </trkpt>
      <trkpt lat="45.87469" lon="6.53245">
        <ele>1508.8</ele>
        <time>2022-01-07T11:39:58Z</time>
      </trkpt>
      <trkpt lat="45.87468" lon="6.53234">
        <ele>1508.8</ele>
        <time>2022-01-07T11:39:59Z</time>
      </trkpt>
      <trkpt lat="45.87464" lon="6.53218">
        <ele>1508.8</ele>
        <time>2022-01-07T11:40:00Z</time>
      </trkpt>
      <trkpt lat="45.87459" lon="6.53204">
        <ele>1508.8</ele>
        <time>2022-01-07T11:40:01Z</time>
      </trkpt>
      <trkpt lat="45.87452" lon="6.53191">
        <ele>1508.8</ele>
        <time>2022-01-07T11:40:02Z</time>
      </trkpt>
      <trkpt lat="45.87445" lon="6.53178">
        <ele>1508.8</ele>
        <time>2022-01-07T11:40:03Z</time>
      </trkpt>
      <trkpt lat="45.87437" lon="6.53166">
        <ele>1508.8</ele>
        <time>2022-01-07T11:40:04Z</time>
      </trkpt>
      <trkpt lat="45.87429" lon="6.53156">
        <ele>1508.8</ele>
        <time>2022-01-07T11:40:05Z</time>
      </trkpt>
      <trkpt lat="45.87421" lon="6.53146">
        <ele>1508.8</ele>
        <time>2022-01-07T11:40:06Z</time>
      </trkpt>
      <trkpt lat="45.87413" lon="6.53137">
        <ele>1494.6</ele>
        <time>2022-01-07T11:40:07Z</time>
      </trkpt>
      <trkpt lat="45.87405" lon="6.53127">
        <ele>1494.6</ele>
        <time>2022-01-07T11:40:08Z</time>
      </trkpt>
      <trkpt lat="45.874" lon="6.53116">
        <ele>1494.6</ele>
        <time>2022-01-07T11:40:09Z</time>
      </trkpt>
      <trkpt lat="45.87394" lon="6.53103">
        <ele>1494.6</ele>
        <time>2022-01-07T11:40:10Z</time>
      </trkpt>
      <trkpt lat="45.87389" lon="6.5309">
        <ele>1494.6</ele>
        <time>2022-01-07T11:40:11Z</time>
      </trkpt>
      <trkpt lat="45.87384" lon="6.53076">
        <ele>1494.6</ele>
        <time>2022-01-07T11:40:12Z</time>
      </trkpt>
      <trkpt lat="45.87378" lon="6.53063">
        <ele>1494.6</ele>
        <time>2022-01-07T11:40:13Z</time>
      </trkpt>
      <trkpt lat="45.87371" lon="6.53052">
        <ele>1494.6</ele>
        <time>2022-01-07T11:40:14Z</time>
      </trkpt>
      <trkpt lat="45.87363" lon="6.53042">
        <ele>1494.6</ele>
        <time>2022-01-07T11:40:15Z</time>
      </trkpt>
      <trkpt lat="45.87355" lon="6.53031">
        <ele>1494.6</ele>
        <time>2022-01-07T11:40:16Z</time>
      </trkpt>
      <trkpt lat="45.87348" lon="6.5302">
        <ele>1478.4</ele>
        <time>2022-01-07T11:40:17Z</time>
      </trkpt>
      <trkpt lat="45.87342" lon="6.53007">
        <ele>1478.4</ele>
        <time>2022-01-07T11:40:18Z</time>
      </trkpt>
      <trkpt lat="45.87335" lon="6.52995">
        <ele>1478.4</ele>
        <time>2022-01-07T11:40:19Z</time>
      </trkpt>
      <trkpt lat="45.87328" lon="6.52984">
        <ele>1478.4</ele>
        <time>2022-01-07T11:40:20Z</time>
      </trkpt>
      <trkpt lat="45.8732" lon="6.52973">
        <ele>1478.4</ele>
        <time>2022-01-07T11:40:21Z</time>
      </trkpt>
      <trkpt lat="45.87311" lon="6.52962">
        <ele>1478.4</ele>
        <time>2022-01-07T11:40:22Z</time>
      </trkpt>
      <trkpt lat="45.87304" lon="6.52949">
        <ele>1478.4</ele>
        <time>2022-01-07T11:40:23Z</time>
      </trkpt>
      <trkpt lat="45.87296" lon="6.52937">
        <ele>1478.4</ele>
        <time>2022-01-07T11:40:24Z</time>
      </trkpt>
      <trkpt lat="45.87289" lon="6.52925">
        <ele>1478.4</ele>
        <time>2022-01-07T11:40:25Z</time>
      </trkpt>
      <trkpt lat="45.87281" lon="6.52913">
        <ele>1478.4</ele>
        <time>2022-01-07T11:40:26Z</time>
      </trkpt>
      <trkpt lat="45.87274" lon="6.52902">
        <ele>1458.8</ele>
        <time>2022-01-07T11:40:27Z</time>
      </trkpt>
      <trkpt lat="45.87266" lon="6.52891">
        <ele>1458.8</ele>
        <time>2022-01-07T11:40:28Z</time>
      </trkpt>
      <trkpt lat="45.87258" lon="6.52881">
        <ele>1458.8</ele>
        <time>2022-01-07T11:40:29Z</time>
      </trkpt>
      <trkpt lat="45.8725" lon="6.52871">
        <ele>1458.8</ele>
        <time>2022-01-07T11:40:30Z</time>
      </trkpt>
      <trkpt lat="45.87242" lon="6.52861">
        <ele>1458.8</ele>
        <time>2022-01-07T11:40:31Z</time>
      </trkpt>
      <trkpt lat="45.87234" lon="6.52852">
        <ele>1458.8</ele>
        <time>2022-01-07T11:40:32Z</time>
      </trkpt>
      <trkpt lat="45.87225" lon="6.52843">
        <ele>1458.8</ele>
        <time>2022-01-07T11:40:33Z</time>
      </trkpt>
      <trkpt lat="45.87215" lon="6.52836">
        <ele>1458.8</ele>
        <time>2022-01-07T11:40:34Z</time>
      </trkpt>
      <trkpt lat="45.87206" lon="6.52827">
        <ele>1458.8</ele>
        <time>2022-01-07T11:40:35Z</time>
      </trkpt>
      <trkpt lat="45.87197" lon="6.52818">
        <ele>1458.8</ele>
        <time>2022-01-07T11:40:36Z</time>
      </trkpt>
      <trkpt lat="45.87189" lon="6.52808">
        <ele>1442.2</ele>
        <time>2022-01-07T11:40:37Z</time>
      </trkpt>
      <trkpt lat="45.87183" lon="6.52798">
        <ele>1442.2</ele>
        <time>2022-01-07T11:40:38Z</time>
      </trkpt>
      <trkpt lat="45.87176" lon="6.52786">
        <ele>1442.2</ele>
        <time>2022-01-07T11:40:39Z</time>
      </trkpt>
      <trkpt lat="45.87172" lon="6.52774">
        <ele>1442.2</ele>
        <time>2022-01-07T11:40:40Z</time>
      </trkpt>
      <trkpt lat="45.87172" lon="6.52765">
        <ele>1442.2</ele>
        <time>2022-01-07T11:40:41Z</time>
      </trkpt>
      <trkpt lat="45.87175" lon="6.5276">
        <ele>1442.2</ele>
        <time>2022-01-07T11:40:42Z</time>
      </trkpt>
      <trkpt lat="45.8718" lon="6.52762">
        <ele>1442.2</ele>
        <time>2022-01-07T11:40:43Z</time>
      </trkpt>
      <trkpt lat="45.87184" lon="6.52765">
        <ele>1442.2</ele>
        <time>2022-01-07T11:40:44Z</time>
      </trkpt>
      <trkpt lat="45.87189" lon="6.52769">
        <ele>1442.2</ele>
        <time>2022-01-07T11:40:45Z</time>
      </trkpt>
      <trkpt lat="45.87196" lon="6.52775">
        <ele>1442.2</ele>
        <time>2022-01-07T11:40:46Z</time>
      </trkpt>
      <trkpt lat="45.87202" lon="6.52781">
        <ele>1427.4</ele>
        <time>2022-01-07T11:40:47Z</time>
      </trkpt>
      <trkpt lat="45.87209" lon="6.52787">
        <ele>1427.4</ele>
        <time>2022-01-07T11:40:48Z</time>
      </trkpt>
      <trkpt lat="45.87216" lon="6.52792">
        <ele>1427.4</ele>
        <time>2022-01-07T11:40:49Z</time>
      </trkpt>
      <trkpt lat="45.87223" lon="6.52796">
        <ele>1427.4</ele>
        <time>2022-01-07T11:40:50Z</time>
      </trkpt>
      <trkpt lat="45.87231" lon="6.52798">
        <ele>1427.4</ele>
        <time>2022-01-07T11:40:51Z</time>
      </trkpt>
      <trkpt lat="45.87239" lon="6.528">
        <ele>1427.4</ele>
        <time>2022-01-07T11:40:52Z</time>
      </trkpt>
      <trkpt lat="45.87247" lon="6.52801">
        <ele>1427.4</ele>
        <time>2022-01-07T11:40:53Z</time>
      </trkpt>
      <trkpt lat="45.87255" lon="6.52802">
        <ele>1427.4</ele>
        <time>2022-01-07T11:40:54Z</time>
      </trkpt>
      <trkpt lat="45.87263" lon="6.52802">
        <ele>1427.4</ele>
        <time>2022-01-07T11:40:55Z</time>
      </trkpt>
      <trkpt lat="45.8727" lon="6.52803">
        <ele>1427.4</ele>
        <time>2022-01-07T11:40:56Z</time>
      </trkpt>
      <trkpt lat="45.87278" lon="6.52804">
        <ele>1421.6</ele>
        <time>2022-01-07T11:40:57Z</time>
      </trkpt>
      <trkpt lat="45.87285" lon="6.52806">
        <ele>1421.6</ele>
        <time>2022-01-07T11:40:58Z</time>
      </trkpt>
      <trkpt lat="45.87291" lon="6.52809">
        <ele>1421.6</ele>
        <time>2022-01-07T11:40:59Z</time>
      </trkpt>
      <trkpt lat="45.87297" lon="6.52813">
        <ele>1421.6</ele>
        <time>2022-01-07T11:41:00Z</time>
      </trkpt>
      <trkpt lat="45.87302" lon="6.5282">
        <ele>1421.6</ele>
        <time>2022-01-07T11:41:01Z</time>
      </trkpt>
      <trkpt lat="45.87305" lon="6.52826">
        <ele>1421.6</ele>
        <time>2022-01-07T11:41:02Z</time>
      </trkpt>
      <trkpt lat="45.87308" lon="6.52833">
        <ele>1421.6</ele>
        <time>2022-01-07T11:41:03Z</time>
      </trkpt>
      <trkpt lat="45.8731" lon="6.52838">
        <ele>1421.6</ele>
        <time>2022-01-07T11:41:04Z</time>
      </trkpt>
      <trkpt lat="45.87312" lon="6.52842">
        <ele>1421.6</ele>
        <time>2022-01-07T11:41:05Z</time>
      </trkpt>
      <trkpt lat="45.87314" lon="6.52839">
        <ele>1421.6</ele>
        <time>2022-01-07T11:41:09Z</time>
      </trkpt>
      <trkpt lat="45.87316" lon="6.52839">
        <ele>1421.6</ele>
        <time>2022-01-07T11:41:11Z</time>
      </trkpt>
      <trkpt lat="45.87318" lon="6.5284">
        <ele>1421.6</ele>
        <time>2022-01-07T11:41:12Z</time>
      </trkpt>
      <trkpt lat="45.87321" lon="6.52844">
        <ele>1421.6</ele>
        <time>2022-01-07T11:41:14Z</time>
      </trkpt>
      <trkpt lat="45.87323" lon="6.52845">
        <ele>1421.6</ele>
        <time>2022-01-07T11:41:15Z</time>
      </trkpt>
      <trkpt lat="45.87327" lon="6.52846">
        <ele>1421.6</ele>
        <time>2022-01-07T11:41:16Z</time>
      </trkpt>
      <trkpt lat="45.87332" lon="6.52847">
        <ele>1416</ele>
        <time>2022-01-07T11:41:17Z</time>
      </trkpt>
      <trkpt lat="45.87339" lon="6.52849">
        <ele>1416</ele>
        <time>2022-01-07T11:41:18Z</time>
      </trkpt>
      <trkpt lat="45.87346" lon="6.52852">
        <ele>1416</ele>
        <time>2022-01-07T11:41:19Z</time>
      </trkpt>
      <trkpt lat="45.87353" lon="6.52855">
        <ele>1416</ele>
        <time>2022-01-07T11:41:20Z</time>
      </trkpt>
      <trkpt lat="45.87361" lon="6.52859">
        <ele>1416</ele>
        <time>2022-01-07T11:41:21Z</time>
      </trkpt>
      <trkpt lat="45.8737" lon="6.52863">
        <ele>1416</ele>
        <time>2022-01-07T11:41:22Z</time>
      </trkpt>
      <trkpt lat="45.87379" lon="6.52866">
        <ele>1416</ele>
        <time>2022-01-07T11:41:23Z</time>
      </trkpt>
      <trkpt lat="45.87388" lon="6.52869">
        <ele>1416</ele>
        <time>2022-01-07T11:41:24Z</time>
      </trkpt>
      <trkpt lat="45.87395" lon="6.52869">
        <ele>1416</ele>
        <time>2022-01-07T11:41:25Z</time>
      </trkpt>
      <trkpt lat="45.87401" lon="6.52867">
        <ele>1416</ele>
        <time>2022-01-07T11:41:26Z</time>
      </trkpt>
      <trkpt lat="45.87404" lon="6.52861">
        <ele>1407.6</ele>
        <time>2022-01-07T11:41:27Z</time>
      </trkpt>
      <trkpt lat="45.87403" lon="6.52854">
        <ele>1407.6</ele>
        <time>2022-01-07T11:41:28Z</time>
      </trkpt>
      <trkpt lat="45.874" lon="6.52848">
        <ele>1407.6</ele>
        <time>2022-01-07T11:41:29Z</time>
      </trkpt>
      <trkpt lat="45.87393" lon="6.5284">
        <ele>1407.6</ele>
        <time>2022-01-07T11:41:30Z</time>
      </trkpt>
      <trkpt lat="45.87387" lon="6.52834">
        <ele>1407.6</ele>
        <time>2022-01-07T11:41:31Z</time>
      </trkpt>
      <trkpt lat="45.87381" lon="6.52826">
        <ele>1407.6</ele>
        <time>2022-01-07T11:41:32Z</time>
      </trkpt>
      <trkpt lat="45.87376" lon="6.52818">
        <ele>1407.6</ele>
        <time>2022-01-07T11:41:33Z</time>
      </trkpt>
      <trkpt lat="45.8737" lon="6.52808">
        <ele>1407.6</ele>
        <time>2022-01-07T11:41:34Z</time>
      </trkpt>
      <trkpt lat="45.87365" lon="6.52799">
        <ele>1407.6</ele>
        <time>2022-01-07T11:41:35Z</time>
      </trkpt>
      <trkpt lat="45.87359" lon="6.52789">
        <ele>1407.6</ele>
        <time>2022-01-07T11:41:36Z</time>
      </trkpt>
      <trkpt lat="45.87354" lon="6.5278">
        <ele>1397.2</ele>
        <time>2022-01-07T11:41:37Z</time>
      </trkpt>
      <trkpt lat="45.87349" lon="6.5277">
        <ele>1397.2</ele>
        <time>2022-01-07T11:41:38Z</time>
      </trkpt>
      <trkpt lat="45.87343" lon="6.5276">
        <ele>1397.2</ele>
        <time>2022-01-07T11:41:39Z</time>
      </trkpt>
      <trkpt lat="45.87338" lon="6.5275">
        <ele>1397.2</ele>
        <time>2022-01-07T11:41:40Z</time>
      </trkpt>
      <trkpt lat="45.87334" lon="6.52739">
        <ele>1397.2</ele>
        <time>2022-01-07T11:41:41Z</time>
      </trkpt>
      <trkpt lat="45.87331" lon="6.52727">
        <ele>1397.2</ele>
        <time>2022-01-07T11:41:42Z</time>
      </trkpt>
      <trkpt lat="45.87331" lon="6.52715">
        <ele>1397.2</ele>
        <time>2022-01-07T11:41:43Z</time>
      </trkpt>
      <trkpt lat="45.87332" lon="6.52705">
        <ele>1397.2</ele>
        <time>2022-01-07T11:41:44Z</time>
      </trkpt>
      <trkpt lat="45.87336" lon="6.52697">
        <ele>1397.2</ele>
        <time>2022-01-07T11:41:45Z</time>
      </trkpt>
      <trkpt lat="45.87342" lon="6.52693">
        <ele>1397.2</ele>
        <time>2022-01-07T11:41:46Z</time>
      </trkpt>
      <trkpt lat="45.87352" lon="6.52689">
        <ele>1388.6</ele>
        <time>2022-01-07T11:41:47Z</time>
      </trkpt>
      <trkpt lat="45.87361" lon="6.5269">
        <ele>1388.6</ele>
        <time>2022-01-07T11:41:48Z</time>
      </trkpt>
      <trkpt lat="45.8737" lon="6.52695">
        <ele>1388.6</ele>
        <time>2022-01-07T11:41:49Z</time>
      </trkpt>
      <trkpt lat="45.87374" lon="6.52703">
        <ele>1388.6</ele>
        <time>2022-01-07T11:41:50Z</time>
      </trkpt>
      <trkpt lat="45.87377" lon="6.52714">
        <ele>1388.6</ele>
        <time>2022-01-07T11:41:51Z</time>
      </trkpt>
      <trkpt lat="45.8738" lon="6.52728">
        <ele>1388.6</ele>
        <time>2022-01-07T11:41:52Z</time>
      </trkpt>
      <trkpt lat="45.87382" lon="6.5274">
        <ele>1388.6</ele>
        <time>2022-01-07T11:41:53Z</time>
      </trkpt>
      <trkpt lat="45.87388" lon="6.5275">
        <ele>1388.6</ele>
        <time>2022-01-07T11:41:54Z</time>
      </trkpt>
      <trkpt lat="45.87394" lon="6.52758">
        <ele>1388.6</ele>
        <time>2022-01-07T11:41:55Z</time>
      </trkpt>
      <trkpt lat="45.87403" lon="6.52764">
        <ele>1388.6</ele>
        <time>2022-01-07T11:41:56Z</time>
      </trkpt>
      <trkpt lat="45.87412" lon="6.52767">
        <ele>1377.4</ele>
        <time>2022-01-07T11:41:57Z</time>
      </trkpt>
      <trkpt lat="45.87422" lon="6.5277">
        <ele>1377.4</ele>
        <time>2022-01-07T11:41:58Z</time>
      </trkpt>
      <trkpt lat="45.87432" lon="6.52773">
        <ele>1377.4</ele>
        <time>2022-01-07T11:41:59Z</time>
      </trkpt>
      <trkpt lat="45.87442" lon="6.52778">
        <ele>1377.4</ele>
        <time>2022-01-07T11:42:00Z</time>
      </trkpt>
      <trkpt lat="45.87451" lon="6.52785">
        <ele>1377.4</ele>
        <time>2022-01-07T11:42:01Z</time>
      </trkpt>
      <trkpt lat="45.87459" lon="6.52794">
        <ele>1377.4</ele>
        <time>2022-01-07T11:42:02Z</time>
      </trkpt>
      <trkpt lat="45.87465" lon="6.52805">
        <ele>1377.4</ele>
        <time>2022-01-07T11:42:03Z</time>
      </trkpt>
      <trkpt lat="45.87469" lon="6.52816">
        <ele>1377.4</ele>
        <time>2022-01-07T11:42:04Z</time>
      </trkpt>
      <trkpt lat="45.87474" lon="6.52825">
        <ele>1377.4</ele>
        <time>2022-01-07T11:42:05Z</time>
      </trkpt>
      <trkpt lat="45.87481" lon="6.52836">
        <ele>1377.4</ele>
        <time>2022-01-07T11:42:06Z</time>
      </trkpt>
      <trkpt lat="45.87489" lon="6.52841">
        <ele>1365.6</ele>
        <time>2022-01-07T11:42:07Z</time>
      </trkpt>
      <trkpt lat="45.87498" lon="6.52843">
        <ele>1365.6</ele>
        <time>2022-01-07T11:42:08Z</time>
      </trkpt>
      <trkpt lat="45.87508" lon="6.52845">
        <ele>1365.6</ele>
        <time>2022-01-07T11:42:09Z</time>
      </trkpt>
      <trkpt lat="45.87517" lon="6.52849">
        <ele>1365.6</ele>
        <time>2022-01-07T11:42:10Z</time>
      </trkpt>
      <trkpt lat="45.87525" lon="6.52853">
        <ele>1365.6</ele>
        <time>2022-01-07T11:42:11Z</time>
      </trkpt>
      <trkpt lat="45.87533" lon="6.52862">
        <ele>1365.6</ele>
        <time>2022-01-07T11:42:12Z</time>
      </trkpt>
      <trkpt lat="45.8754" lon="6.52875">
        <ele>1365.6</ele>
        <time>2022-01-07T11:42:13Z</time>
      </trkpt>
      <trkpt lat="45.87546" lon="6.52884">
        <ele>1365.6</ele>
        <time>2022-01-07T11:42:14Z</time>
      </trkpt>
      <trkpt lat="45.87551" lon="6.5289">
        <ele>1365.6</ele>
        <time>2022-01-07T11:42:15Z</time>
      </trkpt>
      <trkpt lat="45.87561" lon="6.52895">
        <ele>1365.6</ele>
        <time>2022-01-07T11:42:16Z</time>
      </trkpt>
      <trkpt lat="45.87571" lon="6.52897">
        <ele>1354.2</ele>
        <time>2022-01-07T11:42:17Z</time>
      </trkpt>
      <trkpt lat="45.87581" lon="6.52896">
        <ele>1354.2</ele>
        <time>2022-01-07T11:42:18Z</time>
      </trkpt>
      <trkpt lat="45.87591" lon="6.52895">
        <ele>1354.2</ele>
        <time>2022-01-07T11:42:19Z</time>
      </trkpt>
      <trkpt lat="45.87601" lon="6.52895">
        <ele>1354.2</ele>
        <time>2022-01-07T11:42:20Z</time>
      </trkpt>
      <trkpt lat="45.87611" lon="6.52897">
        <ele>1354.2</ele>
        <time>2022-01-07T11:42:21Z</time>
      </trkpt>
      <trkpt lat="45.8762" lon="6.52898">
        <ele>1354.2</ele>
        <time>2022-01-07T11:42:22Z</time>
      </trkpt>
      <trkpt lat="45.8763" lon="6.52898">
        <ele>1354.2</ele>
        <time>2022-01-07T11:42:23Z</time>
      </trkpt>
      <trkpt lat="45.8764" lon="6.52898">
        <ele>1354.2</ele>
        <time>2022-01-07T11:42:24Z</time>
      </trkpt>
      <trkpt lat="45.8765" lon="6.52897">
        <ele>1354.2</ele>
        <time>2022-01-07T11:42:25Z</time>
      </trkpt>
      <trkpt lat="45.8766" lon="6.52897">
        <ele>1354.2</ele>
        <time>2022-01-07T11:42:26Z</time>
      </trkpt>
      <trkpt lat="45.87669" lon="6.529">
        <ele>1341.8</ele>
        <time>2022-01-07T11:42:27Z</time>
      </trkpt>
      <trkpt lat="45.87677" lon="6.52903">
        <ele>1341.8</ele>
        <time>2022-01-07T11:42:28Z</time>
      </trkpt>
      <trkpt lat="45.87681" lon="6.52904">
        <ele>1341.8</ele>
        <time>2022-01-07T11:42:29Z</time>
      </trkpt>
      <trkpt lat="45.87684" lon="6.52904">
        <ele>1341.8</ele>
        <time>2022-01-07T11:42:30Z</time>
      </trkpt>
      <trkpt lat="45.87685" lon="6.52903">
        <ele>1341.8</ele>
        <time>2022-01-07T11:42:33Z</time>
      </trkpt>
      <trkpt lat="45.87687" lon="6.52901">
        <ele>1341.8</ele>
        <time>2022-01-07T11:42:39Z</time>
      </trkpt>
      <trkpt lat="45.87688" lon="6.52899">
        <ele>1341.8</ele>
        <time>2022-01-07T11:42:40Z</time>
      </trkpt>
      <trkpt lat="45.87687" lon="6.52893">
        <ele>1341.8</ele>
        <time>2022-01-07T11:42:41Z</time>
      </trkpt>
      <trkpt lat="45.87686" lon="6.52886">
        <ele>1341.8</ele>
        <time>2022-01-07T11:42:42Z</time>
      </trkpt>
      <trkpt lat="45.87687" lon="6.5288">
        <ele>1341.8</ele>
        <time>2022-01-07T11:42:43Z</time>
      </trkpt>
      <trkpt lat="45.8769" lon="6.52876">
        <ele>1341.8</ele>
        <time>2022-01-07T11:42:44Z</time>
      </trkpt>
      <trkpt lat="45.87694" lon="6.52873">
        <ele>1341.8</ele>
        <time>2022-01-07T11:42:45Z</time>
      </trkpt>
      <trkpt lat="45.87698" lon="6.5287">
        <ele>1341.8</ele>
        <time>2022-01-07T11:42:46Z</time>
      </trkpt>
      <trkpt lat="45.877" lon="6.52863">
        <ele>1326.6</ele>
        <time>2022-01-07T11:42:47Z</time>
      </trkpt>
      <trkpt lat="45.87704" lon="6.52858">
        <ele>1326.6</ele>
        <time>2022-01-07T11:42:48Z</time>
      </trkpt>
      <trkpt lat="45.87708" lon="6.52857">
        <ele>1326.6</ele>
        <time>2022-01-07T11:42:49Z</time>
      </trkpt>
      <trkpt lat="45.87711" lon="6.52855">
        <ele>1326.6</ele>
        <time>2022-01-07T11:42:50Z</time>
      </trkpt>
      <trkpt lat="45.87714" lon="6.5285">
        <ele>1326.6</ele>
        <time>2022-01-07T11:42:51Z</time>
      </trkpt>
      <trkpt lat="45.87719" lon="6.52846">
        <ele>1326.6</ele>
        <time>2022-01-07T11:42:52Z</time>
      </trkpt>
      <trkpt lat="45.87724" lon="6.52846">
        <ele>1326.6</ele>
        <time>2022-01-07T11:42:53Z</time>
      </trkpt>
      <trkpt lat="45.87728" lon="6.52849">
        <ele>1326.6</ele>
        <time>2022-01-07T11:42:54Z</time>
      </trkpt>
      <trkpt lat="45.87731" lon="6.52852">
        <ele>1326.6</ele>
        <time>2022-01-07T11:42:55Z</time>
      </trkpt>
      <trkpt lat="45.87736" lon="6.52852">
        <ele>1326.6</ele>
        <time>2022-01-07T11:42:56Z</time>
      </trkpt>
      <trkpt lat="45.87739" lon="6.52846">
        <ele>1306.2</ele>
        <time>2022-01-07T11:42:57Z</time>
      </trkpt>
      <trkpt lat="45.87744" lon="6.52842">
        <ele>1306.2</ele>
        <time>2022-01-07T11:42:58Z</time>
      </trkpt>
      <trkpt lat="45.87748" lon="6.52838">
        <ele>1306.2</ele>
        <time>2022-01-07T11:42:59Z</time>
      </trkpt>
      <trkpt lat="45.87752" lon="6.52834">
        <ele>1306.2</ele>
        <time>2022-01-07T11:43:00Z</time>
      </trkpt>
      <trkpt lat="45.87755" lon="6.52828">
        <ele>1306.2</ele>
        <time>2022-01-07T11:43:01Z</time>
      </trkpt>
      <trkpt lat="45.8776" lon="6.52825">
        <ele>1306.2</ele>
        <time>2022-01-07T11:43:02Z</time>
      </trkpt>
      <trkpt lat="45.87764" lon="6.52822">
        <ele>1306.2</ele>
        <time>2022-01-07T11:43:03Z</time>
      </trkpt>
      <trkpt lat="45.87767" lon="6.5282">
        <ele>1306.2</ele>
        <time>2022-01-07T11:43:04Z</time>
      </trkpt>
      <trkpt lat="45.87771" lon="6.52813">
        <ele>1306.2</ele>
        <time>2022-01-07T11:43:05Z</time>
      </trkpt>
      <trkpt lat="45.87774" lon="6.52809">
        <ele>1306.2</ele>
        <time>2022-01-07T11:43:06Z</time>
      </trkpt>
      <trkpt lat="45.87778" lon="6.52808">
        <ele>1284</ele>
        <time>2022-01-07T11:43:07Z</time>
      </trkpt>
      <trkpt lat="45.87782" lon="6.52808">
        <ele>1284</ele>
        <time>2022-01-07T11:43:08Z</time>
      </trkpt>
      <trkpt lat="45.87786" lon="6.52805">
        <ele>1284</ele>
        <time>2022-01-07T11:43:09Z</time>
      </trkpt>
      <trkpt lat="45.87788" lon="6.528">
        <ele>1284</ele>
        <time>2022-01-07T11:43:10Z</time>
      </trkpt>
      <trkpt lat="45.87791" lon="6.52796">
        <ele>1284</ele>
        <time>2022-01-07T11:43:11Z</time>
      </trkpt>
      <trkpt lat="45.87795" lon="6.52795">
        <ele>1284</ele>
        <time>2022-01-07T11:43:12Z</time>
      </trkpt>
      <trkpt lat="45.87798" lon="6.52796">
        <ele>1284</ele>
        <time>2022-01-07T11:43:13Z</time>
      </trkpt>
      <trkpt lat="45.87803" lon="6.52796">
        <ele>1284</ele>
        <time>2022-01-07T11:43:14Z</time>
      </trkpt>
      <trkpt lat="45.87805" lon="6.52792">
        <ele>1284</ele>
        <time>2022-01-07T11:43:15Z</time>
      </trkpt>
      <trkpt lat="45.87809" lon="6.52787">
        <ele>1284</ele>
        <time>2022-01-07T11:43:16Z</time>
      </trkpt>
      <trkpt lat="45.87812" lon="6.52785">
        <ele>1260</ele>
        <time>2022-01-07T11:43:17Z</time>
      </trkpt>
      <trkpt lat="45.87817" lon="6.52786">
        <ele>1260</ele>
        <time>2022-01-07T11:43:18Z</time>
      </trkpt>
      <trkpt lat="45.8782" lon="6.52787">
        <ele>1260</ele>
        <time>2022-01-07T11:43:19Z</time>
      </trkpt>
      <trkpt lat="45.87823" lon="6.52788">
        <ele>1260</ele>
        <time>2022-01-07T11:43:20Z</time>
      </trkpt>
      <trkpt lat="45.87827" lon="6.52784">
        <ele>1260</ele>
        <time>2022-01-07T11:43:21Z</time>
      </trkpt>
      <trkpt lat="45.8783" lon="6.52779">
        <ele>1260</ele>
        <time>2022-01-07T11:43:22Z</time>
      </trkpt>
      <trkpt lat="45.87834" lon="6.52776">
        <ele>1260</ele>
        <time>2022-01-07T11:43:23Z</time>
      </trkpt>
      <trkpt lat="45.87837" lon="6.52776">
        <ele>1260</ele>
        <time>2022-01-07T11:43:24Z</time>
      </trkpt>
      <trkpt lat="45.87842" lon="6.52777">
        <ele>1260</ele>
        <time>2022-01-07T11:43:25Z</time>
      </trkpt>
      <trkpt lat="45.87846" lon="6.52773">
        <ele>1260</ele>
        <time>2022-01-07T11:43:26Z</time>
      </trkpt>
      <trkpt lat="45.87849" lon="6.52767">
        <ele>1236.8</ele>
        <time>2022-01-07T11:43:27Z</time>
      </trkpt>
      <trkpt lat="45.87853" lon="6.52762">
        <ele>1236.8</ele>
        <time>2022-01-07T11:43:28Z</time>
      </trkpt>
      <trkpt lat="45.87858" lon="6.52758">
        <ele>1236.8</ele>
        <time>2022-01-07T11:43:29Z</time>
      </trkpt>
      <trkpt lat="45.87864" lon="6.52753">
        <ele>1236.8</ele>
        <time>2022-01-07T11:43:30Z</time>
      </trkpt>
      <trkpt lat="45.87866" lon="6.52746">
        <ele>1236.8</ele>
        <time>2022-01-07T11:43:31Z</time>
      </trkpt>
      <trkpt lat="45.87867" lon="6.52736">
        <ele>1236.8</ele>
        <time>2022-01-07T11:43:32Z</time>
      </trkpt>
      <trkpt lat="45.87867" lon="6.52723">
        <ele>1236.8</ele>
        <time>2022-01-07T11:43:33Z</time>
      </trkpt>
      <trkpt lat="45.87868" lon="6.5271">
        <ele>1236.8</ele>
        <time>2022-01-07T11:43:34Z</time>
      </trkpt>
      <trkpt lat="45.8787" lon="6.52698">
        <ele>1236.8</ele>
        <time>2022-01-07T11:43:35Z</time>
      </trkpt>
      <trkpt lat="45.87872" lon="6.52686">
        <ele>1236.8</ele>
        <time>2022-01-07T11:43:36Z</time>
      </trkpt>
      <trkpt lat="45.87873" lon="6.52675">
        <ele>1214.8</ele>
        <time>2022-01-07T11:43:37Z</time>
      </trkpt>
      <trkpt lat="45.87874" lon="6.52665">
        <ele>1214.8</ele>
        <time>2022-01-07T11:43:38Z</time>
      </trkpt>
      <trkpt lat="45.87875" lon="6.52654">
        <ele>1214.8</ele>
        <time>2022-01-07T11:43:39Z</time>
      </trkpt>
      <trkpt lat="45.87877" lon="6.52644">
        <ele>1214.8</ele>
        <time>2022-01-07T11:43:40Z</time>
      </trkpt>
      <trkpt lat="45.87879" lon="6.52634">
        <ele>1214.8</ele>
        <time>2022-01-07T11:43:41Z</time>
      </trkpt>
      <trkpt lat="45.87882" lon="6.52625">
        <ele>1214.8</ele>
        <time>2022-01-07T11:43:42Z</time>
      </trkpt>
      <trkpt lat="45.87883" lon="6.52617">
        <ele>1214.8</ele>
        <time>2022-01-07T11:43:43Z</time>
      </trkpt>
      <trkpt lat="45.87882" lon="6.52609">
        <ele>1214.8</ele>
        <time>2022-01-07T11:43:44Z</time>
      </trkpt>
      <trkpt lat="45.87879" lon="6.52602">
        <ele>1214.8</ele>
        <time>2022-01-07T11:43:45Z</time>
      </trkpt>
      <trkpt lat="45.87876" lon="6.52597">
        <ele>1214.8</ele>
        <time>2022-01-07T11:43:46Z</time>
      </trkpt>
      <trkpt lat="45.87872" lon="6.52594">
        <ele>1204.8</ele>
        <time>2022-01-07T11:43:47Z</time>
      </trkpt>
      <trkpt lat="45.87867" lon="6.52592">
        <ele>1204.8</ele>
        <time>2022-01-07T11:43:48Z</time>
      </trkpt>
      <trkpt lat="45.87862" lon="6.5259">
        <ele>1204.8</ele>
        <time>2022-01-07T11:43:49Z</time>
      </trkpt>
      <trkpt lat="45.87859" lon="6.52587">
        <ele>1204.8</ele>
        <time>2022-01-07T11:43:50Z</time>
      </trkpt>
      <trkpt lat="45.87856" lon="6.52581">
        <ele>1204.8</ele>
        <time>2022-01-07T11:43:51Z</time>
      </trkpt>
      <trkpt lat="45.87854" lon="6.52575">
        <ele>1204.8</ele>
        <time>2022-01-07T11:43:52Z</time>
      </trkpt>
      <trkpt lat="45.87852" lon="6.5257">
        <ele>1204.8</ele>
        <time>2022-01-07T11:43:53Z</time>
      </trkpt>
      <trkpt lat="45.8785" lon="6.52563">
        <ele>1204.8</ele>
        <time>2022-01-07T11:43:54Z</time>
      </trkpt>
      <trkpt lat="45.87848" lon="6.52558">
        <ele>1204.8</ele>
        <time>2022-01-07T11:43:55Z</time>
      </trkpt>
      <trkpt lat="45.87845" lon="6.52553">
        <ele>1204.8</ele>
        <time>2022-01-07T11:43:56Z</time>
      </trkpt>
      <trkpt lat="45.87842" lon="6.5255">
        <ele>1203.4</ele>
        <time>2022-01-07T11:43:57Z</time>
      </trkpt>
      <trkpt lat="45.87837" lon="6.52546">
        <ele>1203.4</ele>
        <time>2022-01-07T11:43:58Z</time>
      </trkpt>
      <trkpt lat="45.87832" lon="6.52546">
        <ele>1203.4</ele>
        <time>2022-01-07T11:43:59Z</time>
      </trkpt>
      <trkpt lat="45.87828" lon="6.52546">
        <ele>1203.4</ele>
        <time>2022-01-07T11:44:00Z</time>
      </trkpt>
      <trkpt lat="45.87823" lon="6.52547">
        <ele>1203.4</ele>
        <time>2022-01-07T11:44:01Z</time>
      </trkpt>
      <trkpt lat="45.8782" lon="6.52547">
        <ele>1203.4</ele>
        <time>2022-01-07T11:44:02Z</time>
      </trkpt>
      <trkpt lat="45.87818" lon="6.52546">
        <ele>1203.4</ele>
        <time>2022-01-07T11:44:03Z</time>
      </trkpt>
    </trkseg>
  </trk>
</gpx>